<?xml version='1.0' encoding='UTF-8'?><gpx version="1.1" creator="JPX - https://github.com/jenetics/jpx" xmlns="http://www.topografix.com/GPX/1/1"><trk><trkseg><trkpt lat="48.4505633" lon="-4.2286017"><ele>103.00000000000001</ele><time>2026-05-01T07:34:30.674Z</time></trkpt><trkpt lat="48.4505083" lon="-4.22867"><ele>103.0</ele><time>2026-05-01T07:35:22.676Z</time></trkpt><trkpt lat="48.45044" lon="-4.2287283"><ele>103.0</ele><time>2026-05-01T07:35:24.675Z</time></trkpt><trkpt lat="48.4503617" lon="-4.2287967"><ele>103.0</ele><time>2026-05-01T07:35:26.676Z</time></trkpt><trkpt lat="48.4502717" lon="-4.2288633"><ele>103.00000000000001</ele><time>2026-05-01T07:35:28.675Z</time></trkpt><trkpt lat="48.450185" lon="-4.2288883"><ele>103.0</ele><time>2026-05-01T07:35:30.675Z</time></trkpt><trkpt lat="48.4500867" lon="-4.2288883"><ele>103.00000000000001</ele><time>2026-05-01T07:35:32.677Z</time></trkpt><trkpt lat="48.44999" lon="-4.2288783"><ele>103.0</ele><time>2026-05-01T07:35:34.677Z</time></trkpt><trkpt lat="48.4499083" lon="-4.2288483"><ele>103.0</ele><time>2026-05-01T07:35:36.68Z</time></trkpt><trkpt lat="48.44983" lon="-4.2287633"><ele>103.0</ele><time>2026-05-01T07:35:38.678Z</time></trkpt><trkpt lat="48.4498233" lon="-4.228665"><ele>103.00000000000001</ele><time>2026-05-01T07:35:39.673Z</time></trkpt><trkpt lat="48.4498217" lon="-4.2285667"><ele>103.0</ele><time>2026-05-01T07:35:40.678Z</time></trkpt><trkpt lat="48.44982" lon="-4.2284683"><ele>103.00000000000001</ele><time>2026-05-01T07:35:41.678Z</time></trkpt><trkpt lat="48.449795" lon="-4.2283167"><ele>103.0</ele><time>2026-05-01T07:35:43.682Z</time></trkpt><trkpt lat="48.4497133" lon="-4.2281917"><ele>103.0</ele><time>2026-05-01T07:35:45.678Z</time></trkpt><trkpt lat="48.4496533" lon="-4.2281483"><ele>103.0</ele><time>2026-05-01T07:35:46.678Z</time></trkpt><trkpt lat="48.4495767" lon="-4.2281283"><ele>103.00000000000001</ele><time>2026-05-01T07:35:47.676Z</time></trkpt><trkpt lat="48.4495017" lon="-4.2281283"><ele>103.0</ele><time>2026-05-01T07:35:48.682Z</time></trkpt><trkpt lat="48.449435" lon="-4.2281333"><ele>104.16666666666667</ele><time>2026-05-01T07:35:49.677Z</time></trkpt><trkpt lat="48.4493683" lon="-4.228135"><ele>105.33333333333334</ele><time>2026-05-01T07:35:50.677Z</time></trkpt><trkpt lat="48.4493067" lon="-4.2280967"><ele>106.5</ele><time>2026-05-01T07:35:51.674Z</time></trkpt><trkpt lat="48.4492533" lon="-4.2280133"><ele>107.66666666666666</ele><time>2026-05-01T07:35:52.675Z</time></trkpt><trkpt lat="48.44921" lon="-4.227905"><ele>108.83333333333333</ele><time>2026-05-01T07:35:53.675Z</time></trkpt><trkpt lat="48.449165" lon="-4.2278033"><ele>110.0</ele><time>2026-05-01T07:35:54.679Z</time></trkpt><trkpt lat="48.44912" lon="-4.22771"><ele>109.99999999999999</ele><time>2026-05-01T07:35:55.674Z</time></trkpt><trkpt lat="48.4490733" lon="-4.2276217"><ele>110.0</ele><time>2026-05-01T07:35:56.673Z</time></trkpt><trkpt lat="48.4490283" lon="-4.2275367"><ele>110.0</ele><time>2026-05-01T07:35:57.676Z</time></trkpt><trkpt lat="48.4489833" lon="-4.2274567"><ele>110.0</ele><time>2026-05-01T07:35:58.675Z</time></trkpt><trkpt lat="48.44894" lon="-4.2273817"><ele>109.99999999999999</ele><time>2026-05-01T07:35:59.675Z</time></trkpt><trkpt lat="48.448865" lon="-4.2272567"><ele>110.0</ele><time>2026-05-01T07:36:01.679Z</time></trkpt><trkpt lat="48.4488133" lon="-4.22716"><ele>110.4</ele><time>2026-05-01T07:36:03.673Z</time></trkpt><trkpt lat="48.4487483" lon="-4.22703"><ele>110.8</ele><time>2026-05-01T07:36:10.675Z</time></trkpt><trkpt lat="48.44879" lon="-4.2268983"><ele>111.19999999999999</ele><time>2026-05-01T07:36:13.676Z</time></trkpt><trkpt lat="48.4489033" lon="-4.226805"><ele>111.6</ele><time>2026-05-01T07:36:15.672Z</time></trkpt><trkpt lat="48.448965" lon="-4.22676"><ele>112.0</ele><time>2026-05-01T07:36:16.677Z</time></trkpt><trkpt lat="48.4490333" lon="-4.22671"><ele>112.50000000000001</ele><time>2026-05-01T07:36:17.673Z</time></trkpt><trkpt lat="48.4491" lon="-4.2266567"><ele>113.0</ele><time>2026-05-01T07:36:18.675Z</time></trkpt><trkpt lat="48.44917" lon="-4.2265967"><ele>113.5</ele><time>2026-05-01T07:36:19.679Z</time></trkpt><trkpt lat="48.44924" lon="-4.2265317"><ele>114.0</ele><time>2026-05-01T07:36:20.674Z</time></trkpt><trkpt lat="48.4493133" lon="-4.2264617"><ele>114.50000000000001</ele><time>2026-05-01T07:36:21.675Z</time></trkpt><trkpt lat="48.4493917" lon="-4.22638"><ele>115.0</ele><time>2026-05-01T07:36:22.675Z</time></trkpt><trkpt lat="48.4494683" lon="-4.2262967"><ele>115.0</ele><time>2026-05-01T07:36:23.675Z</time></trkpt><trkpt lat="48.4495417" lon="-4.2262067"><ele>115.0</ele><time>2026-05-01T07:36:24.675Z</time></trkpt><trkpt lat="48.449615" lon="-4.22611"><ele>115.0</ele><time>2026-05-01T07:36:25.672Z</time></trkpt><trkpt lat="48.4496867" lon="-4.2260033"><ele>115.0</ele><time>2026-05-01T07:36:26.673Z</time></trkpt><trkpt lat="48.4497583" lon="-4.2258933"><ele>115.0</ele><time>2026-05-01T07:36:27.678Z</time></trkpt><trkpt lat="48.44983" lon="-4.225775"><ele>115.4</ele><time>2026-05-01T07:36:28.675Z</time></trkpt><trkpt lat="48.4499" lon="-4.2256517"><ele>115.8</ele><time>2026-05-01T07:36:29.672Z</time></trkpt><trkpt lat="48.4499717" lon="-4.22553"><ele>116.19999999999999</ele><time>2026-05-01T07:36:30.673Z</time></trkpt><trkpt lat="48.4500417" lon="-4.225405"><ele>116.6</ele><time>2026-05-01T07:36:31.674Z</time></trkpt><trkpt lat="48.45011" lon="-4.22528"><ele>117.0</ele><time>2026-05-01T07:36:32.676Z</time></trkpt><trkpt lat="48.4501733" lon="-4.2251583"><ele>117.0</ele><time>2026-05-01T07:36:33.673Z</time></trkpt><trkpt lat="48.45023" lon="-4.2250317"><ele>116.99999999999999</ele><time>2026-05-01T07:36:34.675Z</time></trkpt><trkpt lat="48.4502683" lon="-4.224895"><ele>116.99999999999999</ele><time>2026-05-01T07:36:35.672Z</time></trkpt><trkpt lat="48.450285" lon="-4.2247533"><ele>117.0</ele><time>2026-05-01T07:36:36.675Z</time></trkpt><trkpt lat="48.4502783" lon="-4.2246067"><ele>117.0</ele><time>2026-05-01T07:36:37.675Z</time></trkpt><trkpt lat="48.450255" lon="-4.2244617"><ele>117.0</ele><time>2026-05-01T07:36:38.68Z</time></trkpt><trkpt lat="48.4502217" lon="-4.2243133"><ele>116.99999999999999</ele><time>2026-05-01T07:36:39.673Z</time></trkpt><trkpt lat="48.4501833" lon="-4.2241567"><ele>116.99999999999999</ele><time>2026-05-01T07:36:40.675Z</time></trkpt><trkpt lat="48.450145" lon="-4.2239917"><ele>117.0</ele><time>2026-05-01T07:36:41.672Z</time></trkpt><trkpt lat="48.4501067" lon="-4.223825"><ele>117.0</ele><time>2026-05-01T07:36:42.675Z</time></trkpt><trkpt lat="48.450065" lon="-4.2236533"><ele>117.25</ele><time>2026-05-01T07:36:43.676Z</time></trkpt><trkpt lat="48.4500183" lon="-4.223465"><ele>117.5</ele><time>2026-05-01T07:36:44.674Z</time></trkpt><trkpt lat="48.4499717" lon="-4.2232717"><ele>117.75</ele><time>2026-05-01T07:36:45.675Z</time></trkpt><trkpt lat="48.449925" lon="-4.22307"><ele>118.0</ele><time>2026-05-01T07:36:46.672Z</time></trkpt><trkpt lat="48.4498733" lon="-4.22286"><ele>118.33333333333334</ele><time>2026-05-01T07:36:47.683Z</time></trkpt><trkpt lat="48.4498167" lon="-4.2226267"><ele>118.66666666666666</ele><time>2026-05-01T07:36:48.68Z</time></trkpt><trkpt lat="48.44976" lon="-4.22239"><ele>119.0</ele><time>2026-05-01T07:36:49.68Z</time></trkpt><trkpt lat="48.4497033" lon="-4.22215"><ele>120.0</ele><time>2026-05-01T07:36:50.674Z</time></trkpt><trkpt lat="48.44965" lon="-4.22191"><ele>121.0</ele><time>2026-05-01T07:36:51.675Z</time></trkpt><trkpt lat="48.4496033" lon="-4.22166"><ele>122.0</ele><time>2026-05-01T07:36:52.676Z</time></trkpt><trkpt lat="48.4495667" lon="-4.2214"><ele>120.0</ele><time>2026-05-01T07:36:53.675Z</time></trkpt><trkpt lat="48.4495383" lon="-4.2211367"><ele>118.0</ele><time>2026-05-01T07:36:54.673Z</time></trkpt><trkpt lat="48.4495283" lon="-4.2208683"><ele>116.0</ele><time>2026-05-01T07:36:55.677Z</time></trkpt><trkpt lat="48.4495267" lon="-4.2206017"><ele>116.0</ele><time>2026-05-01T07:36:56.673Z</time></trkpt><trkpt lat="48.4495283" lon="-4.2203383"><ele>116.0</ele><time>2026-05-01T07:36:57.671Z</time></trkpt><trkpt lat="48.4495317" lon="-4.220075"><ele>116.0</ele><time>2026-05-01T07:36:58.673Z</time></trkpt><trkpt lat="48.4495367" lon="-4.2198117"><ele>116.0</ele><time>2026-05-01T07:36:59.675Z</time></trkpt><trkpt lat="48.449545" lon="-4.2195567"><ele>116.0</ele><time>2026-05-01T07:37:00.676Z</time></trkpt><trkpt lat="48.4495583" lon="-4.2193017"><ele>116.0</ele><time>2026-05-01T07:37:01.678Z</time></trkpt><trkpt lat="48.4495717" lon="-4.2190467"><ele>116.66666666666666</ele><time>2026-05-01T07:37:02.676Z</time></trkpt><trkpt lat="48.4495833" lon="-4.2187917"><ele>117.33333333333334</ele><time>2026-05-01T07:37:03.673Z</time></trkpt><trkpt lat="48.4495933" lon="-4.2185267"><ele>118.0</ele><time>2026-05-01T07:37:04.675Z</time></trkpt><trkpt lat="48.4496083" lon="-4.218265"><ele>118.0</ele><time>2026-05-01T07:37:05.674Z</time></trkpt><trkpt lat="48.4496233" lon="-4.2179983"><ele>118.0</ele><time>2026-05-01T07:37:06.676Z</time></trkpt><trkpt lat="48.449635" lon="-4.217735"><ele>118.0</ele><time>2026-05-01T07:37:07.683Z</time></trkpt><trkpt lat="48.449645" lon="-4.2174667"><ele>117.66666666666667</ele><time>2026-05-01T07:37:08.674Z</time></trkpt><trkpt lat="48.4496567" lon="-4.217205"><ele>117.33333333333334</ele><time>2026-05-01T07:37:09.675Z</time></trkpt><trkpt lat="48.4496617" lon="-4.21694"><ele>117.0</ele><time>2026-05-01T07:37:10.675Z</time></trkpt><trkpt lat="48.4496617" lon="-4.216675"><ele>117.33333333333334</ele><time>2026-05-01T07:37:11.675Z</time></trkpt><trkpt lat="48.449665" lon="-4.2164067"><ele>117.66666666666667</ele><time>2026-05-01T07:37:12.679Z</time></trkpt><trkpt lat="48.449675" lon="-4.2161383"><ele>118.0</ele><time>2026-05-01T07:37:13.674Z</time></trkpt><trkpt lat="48.4496867" lon="-4.2158733"><ele>117.0</ele><time>2026-05-01T07:37:14.674Z</time></trkpt><trkpt lat="48.4497" lon="-4.2156067"><ele>116.0</ele><time>2026-05-01T07:37:15.675Z</time></trkpt><trkpt lat="48.44972" lon="-4.21534"><ele>115.0</ele><time>2026-05-01T07:37:16.674Z</time></trkpt><trkpt lat="48.4497467" lon="-4.2150783"><ele>114.33333333333334</ele><time>2026-05-01T07:37:17.678Z</time></trkpt><trkpt lat="48.4497833" lon="-4.2148183"><ele>113.66666666666666</ele><time>2026-05-01T07:37:18.676Z</time></trkpt><trkpt lat="48.4498233" lon="-4.21456"><ele>113.0</ele><time>2026-05-01T07:37:19.677Z</time></trkpt><trkpt lat="48.4498633" lon="-4.2143017"><ele>113.0</ele><time>2026-05-01T07:37:20.675Z</time></trkpt><trkpt lat="48.449905" lon="-4.214045"><ele>113.0</ele><time>2026-05-01T07:37:21.676Z</time></trkpt><trkpt lat="48.44995" lon="-4.2137867"><ele>113.0</ele><time>2026-05-01T07:37:22.676Z</time></trkpt><trkpt lat="48.4500017" lon="-4.213525"><ele>112.0</ele><time>2026-05-01T07:37:23.678Z</time></trkpt><trkpt lat="48.450045" lon="-4.2132633"><ele>111.0</ele><time>2026-05-01T07:37:24.677Z</time></trkpt><trkpt lat="48.45009" lon="-4.2129967"><ele>110.0</ele><time>2026-05-01T07:37:25.677Z</time></trkpt><trkpt lat="48.4501317" lon="-4.2127283"><ele>109.0</ele><time>2026-05-01T07:37:26.673Z</time></trkpt><trkpt lat="48.4501683" lon="-4.21246"><ele>108.0</ele><time>2026-05-01T07:37:27.674Z</time></trkpt><trkpt lat="48.45019" lon="-4.21219"><ele>107.0</ele><time>2026-05-01T07:37:28.677Z</time></trkpt><trkpt lat="48.4501917" lon="-4.2119217"><ele>106.0</ele><time>2026-05-01T07:37:29.681Z</time></trkpt><trkpt lat="48.4501733" lon="-4.211655"><ele>105.0</ele><time>2026-05-01T07:37:30.672Z</time></trkpt><trkpt lat="48.4501317" lon="-4.211395"><ele>104.0</ele><time>2026-05-01T07:37:31.672Z</time></trkpt><trkpt lat="48.4500567" lon="-4.2111583"><ele>102.66666666666666</ele><time>2026-05-01T07:37:32.675Z</time></trkpt><trkpt lat="48.4499517" lon="-4.210945"><ele>101.33333333333334</ele><time>2026-05-01T07:37:33.672Z</time></trkpt><trkpt lat="48.4498333" lon="-4.2107517"><ele>100.0</ele><time>2026-05-01T07:37:34.673Z</time></trkpt><trkpt lat="48.4497033" lon="-4.2105733"><ele>97.0</ele><time>2026-05-01T07:37:35.674Z</time></trkpt><trkpt lat="48.44956" lon="-4.21042"><ele>94.0</ele><time>2026-05-01T07:37:36.674Z</time></trkpt><trkpt lat="48.4494067" lon="-4.210285"><ele>91.0</ele><time>2026-05-01T07:37:37.681Z</time></trkpt><trkpt lat="48.4492483" lon="-4.2101667"><ele>91.0</ele><time>2026-05-01T07:37:38.675Z</time></trkpt><trkpt lat="48.4490917" lon="-4.2100517"><ele>91.0</ele><time>2026-05-01T07:37:39.675Z</time></trkpt><trkpt lat="48.448935" lon="-4.2099417"><ele>91.0</ele><time>2026-05-01T07:37:40.675Z</time></trkpt><trkpt lat="48.4487783" lon="-4.209835"><ele>89.66666666666666</ele><time>2026-05-01T07:37:41.675Z</time></trkpt><trkpt lat="48.4486183" lon="-4.2097333"><ele>88.33333333333333</ele><time>2026-05-01T07:37:42.675Z</time></trkpt><trkpt lat="48.448455" lon="-4.2096417"><ele>87.0</ele><time>2026-05-01T07:37:43.676Z</time></trkpt><trkpt lat="48.448295" lon="-4.2095483"><ele>87.0</ele><time>2026-05-01T07:37:44.675Z</time></trkpt><trkpt lat="48.448135" lon="-4.2094567"><ele>87.0</ele><time>2026-05-01T07:37:45.678Z</time></trkpt><trkpt lat="48.4479733" lon="-4.2093667"><ele>87.0</ele><time>2026-05-01T07:37:46.674Z</time></trkpt><trkpt lat="48.4478133" lon="-4.209275"><ele>86.66666666666667</ele><time>2026-05-01T07:37:47.678Z</time></trkpt><trkpt lat="48.4476533" lon="-4.2091833"><ele>86.33333333333334</ele><time>2026-05-01T07:37:48.674Z</time></trkpt><trkpt lat="48.447495" lon="-4.2090833"><ele>86.0</ele><time>2026-05-01T07:37:49.673Z</time></trkpt><trkpt lat="48.4473383" lon="-4.2089783"><ele>85.0</ele><time>2026-05-01T07:37:50.676Z</time></trkpt><trkpt lat="48.44718" lon="-4.2088717"><ele>84.0</ele><time>2026-05-01T07:37:51.675Z</time></trkpt><trkpt lat="48.447025" lon="-4.2087617"><ele>83.0</ele><time>2026-05-01T07:37:52.673Z</time></trkpt><trkpt lat="48.4468717" lon="-4.2086467"><ele>83.0</ele><time>2026-05-01T07:37:53.678Z</time></trkpt><trkpt lat="48.4467167" lon="-4.2085333"><ele>83.0</ele><time>2026-05-01T07:37:54.677Z</time></trkpt><trkpt lat="48.4465633" lon="-4.2084167"><ele>83.0</ele><time>2026-05-01T07:37:55.676Z</time></trkpt><trkpt lat="48.44641" lon="-4.208305"><ele>83.33333333333334</ele><time>2026-05-01T07:37:56.675Z</time></trkpt><trkpt lat="48.4462583" lon="-4.2081917"><ele>83.66666666666667</ele><time>2026-05-01T07:37:57.676Z</time></trkpt><trkpt lat="48.4461067" lon="-4.2080717"><ele>84.0</ele><time>2026-05-01T07:37:58.682Z</time></trkpt><trkpt lat="48.4459467" lon="-4.2079617"><ele>84.33333333333333</ele><time>2026-05-01T07:37:59.677Z</time></trkpt><trkpt lat="48.44578" lon="-4.2078433"><ele>84.66666666666666</ele><time>2026-05-01T07:38:00.68Z</time></trkpt><trkpt lat="48.445615" lon="-4.2077217"><ele>85.0</ele><time>2026-05-01T07:38:01.679Z</time></trkpt><trkpt lat="48.44545" lon="-4.2076017"><ele>85.66666666666666</ele><time>2026-05-01T07:38:02.676Z</time></trkpt><trkpt lat="48.445285" lon="-4.207485"><ele>86.33333333333333</ele><time>2026-05-01T07:38:03.677Z</time></trkpt><trkpt lat="48.4451217" lon="-4.2073717"><ele>87.0</ele><time>2026-05-01T07:38:04.676Z</time></trkpt><trkpt lat="48.444965" lon="-4.2072533"><ele>87.33333333333333</ele><time>2026-05-01T07:38:05.676Z</time></trkpt><trkpt lat="48.4448083" lon="-4.2071317"><ele>87.66666666666666</ele><time>2026-05-01T07:38:06.675Z</time></trkpt><trkpt lat="48.444655" lon="-4.207"><ele>88.0</ele><time>2026-05-01T07:38:07.676Z</time></trkpt><trkpt lat="48.444505" lon="-4.2068583"><ele>89.33333333333333</ele><time>2026-05-01T07:38:08.676Z</time></trkpt><trkpt lat="48.4443567" lon="-4.2067033"><ele>90.66666666666667</ele><time>2026-05-01T07:38:09.674Z</time></trkpt><trkpt lat="48.4442133" lon="-4.206535"><ele>92.0</ele><time>2026-05-01T07:38:10.676Z</time></trkpt><trkpt lat="48.4440683" lon="-4.20636"><ele>92.66666666666667</ele><time>2026-05-01T07:38:11.686Z</time></trkpt><trkpt lat="48.4439233" lon="-4.2061833"><ele>93.33333333333333</ele><time>2026-05-01T07:38:12.679Z</time></trkpt><trkpt lat="48.4437767" lon="-4.20601"><ele>94.0</ele><time>2026-05-01T07:38:13.677Z</time></trkpt><trkpt lat="48.4436267" lon="-4.2058483"><ele>94.33333333333333</ele><time>2026-05-01T07:38:14.674Z</time></trkpt><trkpt lat="48.44347" lon="-4.2057"><ele>94.66666666666667</ele><time>2026-05-01T07:38:15.672Z</time></trkpt><trkpt lat="48.44331" lon="-4.2055567"><ele>95.0</ele><time>2026-05-01T07:38:16.673Z</time></trkpt><trkpt lat="48.4431483" lon="-4.205415"><ele>95.0</ele><time>2026-05-01T07:38:17.675Z</time></trkpt><trkpt lat="48.442985" lon="-4.2052733"><ele>95.0</ele><time>2026-05-01T07:38:18.678Z</time></trkpt><trkpt lat="48.4428217" lon="-4.2051283"><ele>95.0</ele><time>2026-05-01T07:38:19.675Z</time></trkpt><trkpt lat="48.44266" lon="-4.2049783"><ele>96.0</ele><time>2026-05-01T07:38:20.68Z</time></trkpt><trkpt lat="48.4424967" lon="-4.2048317"><ele>97.0</ele><time>2026-05-01T07:38:21.675Z</time></trkpt><trkpt lat="48.4423367" lon="-4.2046867"><ele>98.0</ele><time>2026-05-01T07:38:22.675Z</time></trkpt><trkpt lat="48.4421783" lon="-4.204545"><ele>97.66666666666666</ele><time>2026-05-01T07:38:23.672Z</time></trkpt><trkpt lat="48.4420217" lon="-4.2044283"><ele>97.33333333333334</ele><time>2026-05-01T07:38:24.671Z</time></trkpt><trkpt lat="48.4418667" lon="-4.20433"><ele>97.0</ele><time>2026-05-01T07:38:25.673Z</time></trkpt><trkpt lat="48.4417033" lon="-4.20426"><ele>97.0</ele><time>2026-05-01T07:38:26.671Z</time></trkpt><trkpt lat="48.4415283" lon="-4.2042083"><ele>97.0</ele><time>2026-05-01T07:38:27.677Z</time></trkpt><trkpt lat="48.4413533" lon="-4.2041683"><ele>97.0</ele><time>2026-05-01T07:38:28.675Z</time></trkpt><trkpt lat="48.4411733" lon="-4.204135"><ele>97.0</ele><time>2026-05-01T07:38:29.678Z</time></trkpt><trkpt lat="48.4409933" lon="-4.2041067"><ele>97.0</ele><time>2026-05-01T07:38:30.681Z</time></trkpt><trkpt lat="48.440815" lon="-4.2040867"><ele>97.0</ele><time>2026-05-01T07:38:31.679Z</time></trkpt><trkpt lat="48.4406383" lon="-4.2040817"><ele>97.33333333333334</ele><time>2026-05-01T07:38:32.679Z</time></trkpt><trkpt lat="48.4404633" lon="-4.2040833"><ele>97.66666666666666</ele><time>2026-05-01T07:38:33.673Z</time></trkpt><trkpt lat="48.44029" lon="-4.2040867"><ele>98.0</ele><time>2026-05-01T07:38:34.675Z</time></trkpt><trkpt lat="48.44012" lon="-4.2040983"><ele>98.0</ele><time>2026-05-01T07:38:35.679Z</time></trkpt><trkpt lat="48.4399533" lon="-4.2041033"><ele>98.0</ele><time>2026-05-01T07:38:36.676Z</time></trkpt><trkpt lat="48.4397883" lon="-4.20411"><ele>98.0</ele><time>2026-05-01T07:38:37.681Z</time></trkpt><trkpt lat="48.4396233" lon="-4.204115"><ele>99.66666666666666</ele><time>2026-05-01T07:38:38.675Z</time></trkpt><trkpt lat="48.4394617" lon="-4.2041167"><ele>101.33333333333334</ele><time>2026-05-01T07:38:39.677Z</time></trkpt><trkpt lat="48.4393" lon="-4.2041133"><ele>103.0</ele><time>2026-05-01T07:38:40.676Z</time></trkpt><trkpt lat="48.4391333" lon="-4.204105"><ele>103.0</ele><time>2026-05-01T07:38:41.675Z</time></trkpt><trkpt lat="48.43897" lon="-4.204095"><ele>103.0</ele><time>2026-05-01T07:38:42.676Z</time></trkpt><trkpt lat="48.43881" lon="-4.20408"><ele>103.0</ele><time>2026-05-01T07:38:43.674Z</time></trkpt><trkpt lat="48.4386483" lon="-4.2040667"><ele>104.33333333333334</ele><time>2026-05-01T07:38:44.677Z</time></trkpt><trkpt lat="48.4384867" lon="-4.2040467"><ele>105.66666666666666</ele><time>2026-05-01T07:38:45.673Z</time></trkpt><trkpt lat="48.4383217" lon="-4.2040333"><ele>107.0</ele><time>2026-05-01T07:38:46.675Z</time></trkpt><trkpt lat="48.4381583" lon="-4.20402"><ele>107.0</ele><time>2026-05-01T07:38:47.675Z</time></trkpt><trkpt lat="48.4379933" lon="-4.2040117"><ele>107.0</ele><time>2026-05-01T07:38:48.675Z</time></trkpt><trkpt lat="48.4378267" lon="-4.2040033"><ele>107.0</ele><time>2026-05-01T07:38:49.675Z</time></trkpt><trkpt lat="48.4376633" lon="-4.2039983"><ele>108.0</ele><time>2026-05-01T07:38:50.677Z</time></trkpt><trkpt lat="48.4375017" lon="-4.2039917"><ele>109.0</ele><time>2026-05-01T07:38:51.671Z</time></trkpt><trkpt lat="48.43734" lon="-4.2039883"><ele>110.0</ele><time>2026-05-01T07:38:52.68Z</time></trkpt><trkpt lat="48.437185" lon="-4.203985"><ele>111.2</ele><time>2026-05-01T07:38:53.675Z</time></trkpt><trkpt lat="48.437045" lon="-4.203985"><ele>112.4</ele><time>2026-05-01T07:38:54.674Z</time></trkpt><trkpt lat="48.4369217" lon="-4.2039917"><ele>113.6</ele><time>2026-05-01T07:38:55.673Z</time></trkpt><trkpt lat="48.4368183" lon="-4.2039983"><ele>114.8</ele><time>2026-05-01T07:38:56.675Z</time></trkpt><trkpt lat="48.4367383" lon="-4.204"><ele>116.0</ele><time>2026-05-01T07:38:57.674Z</time></trkpt><trkpt lat="48.436675" lon="-4.2040067"><ele>115.99999999999999</ele><time>2026-05-01T07:38:58.673Z</time></trkpt><trkpt lat="48.4366033" lon="-4.204"><ele>116.0</ele><time>2026-05-01T07:39:03.676Z</time></trkpt><trkpt lat="48.4365417" lon="-4.2038917"><ele>116.0</ele><time>2026-05-01T07:39:05.677Z</time></trkpt><trkpt lat="48.4364433" lon="-4.2037883"><ele>116.0</ele><time>2026-05-01T07:39:07.677Z</time></trkpt><trkpt lat="48.4363733" lon="-4.20377"><ele>115.99999999999999</ele><time>2026-05-01T07:39:08.677Z</time></trkpt><trkpt lat="48.4362917" lon="-4.20375"><ele>116.0</ele><time>2026-05-01T07:39:09.674Z</time></trkpt><trkpt lat="48.43621" lon="-4.2037267"><ele>116.8</ele><time>2026-05-01T07:39:10.674Z</time></trkpt><trkpt lat="48.4361283" lon="-4.2037"><ele>117.6</ele><time>2026-05-01T07:39:11.676Z</time></trkpt><trkpt lat="48.4360417" lon="-4.20366"><ele>118.4</ele><time>2026-05-01T07:39:12.677Z</time></trkpt><trkpt lat="48.4359667" lon="-4.2035967"><ele>119.2</ele><time>2026-05-01T07:39:13.681Z</time></trkpt><trkpt lat="48.4358967" lon="-4.2035033"><ele>120.0</ele><time>2026-05-01T07:39:14.674Z</time></trkpt><trkpt lat="48.435835" lon="-4.2033783"><ele>120.0</ele><time>2026-05-01T07:39:15.674Z</time></trkpt><trkpt lat="48.43578" lon="-4.2032317"><ele>120.0</ele><time>2026-05-01T07:39:16.672Z</time></trkpt><trkpt lat="48.43572" lon="-4.2030683"><ele>120.0</ele><time>2026-05-01T07:39:17.672Z</time></trkpt><trkpt lat="48.435665" lon="-4.2028883"><ele>120.0</ele><time>2026-05-01T07:39:18.676Z</time></trkpt><trkpt lat="48.435605" lon="-4.2027"><ele>119.5</ele><time>2026-05-01T07:39:19.679Z</time></trkpt><trkpt lat="48.43554" lon="-4.2025067"><ele>119.0</ele><time>2026-05-01T07:39:20.678Z</time></trkpt><trkpt lat="48.435465" lon="-4.2023133"><ele>118.5</ele><time>2026-05-01T07:39:21.679Z</time></trkpt><trkpt lat="48.4353817" lon="-4.202125"><ele>118.0</ele><time>2026-05-01T07:39:22.675Z</time></trkpt><trkpt lat="48.4352867" lon="-4.2019533"><ele>118.0</ele><time>2026-05-01T07:39:23.679Z</time></trkpt><trkpt lat="48.435175" lon="-4.2018017"><ele>118.0</ele><time>2026-05-01T07:39:24.677Z</time></trkpt><trkpt lat="48.4350567" lon="-4.20167"><ele>118.0</ele><time>2026-05-01T07:39:25.673Z</time></trkpt><trkpt lat="48.4349333" lon="-4.20154"><ele>118.0</ele><time>2026-05-01T07:39:26.679Z</time></trkpt><trkpt lat="48.4348" lon="-4.2014017"><ele>118.0</ele><time>2026-05-01T07:39:27.673Z</time></trkpt><trkpt lat="48.4346717" lon="-4.2012383"><ele>118.0</ele><time>2026-05-01T07:39:28.677Z</time></trkpt><trkpt lat="48.4345483" lon="-4.2010633"><ele>118.0</ele><time>2026-05-01T07:39:29.675Z</time></trkpt><trkpt lat="48.4344167" lon="-4.2008767"><ele>120.0</ele><time>2026-05-01T07:39:30.677Z</time></trkpt><trkpt lat="48.434285" lon="-4.2006833"><ele>122.0</ele><time>2026-05-01T07:39:31.672Z</time></trkpt><trkpt lat="48.43415" lon="-4.20049"><ele>124.0</ele><time>2026-05-01T07:39:32.673Z</time></trkpt><trkpt lat="48.4340217" lon="-4.20029"><ele>125.33333333333334</ele><time>2026-05-01T07:39:33.675Z</time></trkpt><trkpt lat="48.43391" lon="-4.2000783"><ele>126.66666666666666</ele><time>2026-05-01T07:39:34.679Z</time></trkpt><trkpt lat="48.4338067" lon="-4.1998633"><ele>128.0</ele><time>2026-05-01T07:39:35.675Z</time></trkpt><trkpt lat="48.4337117" lon="-4.1996417"><ele>131.33333333333331</ele><time>2026-05-01T07:39:36.671Z</time></trkpt><trkpt lat="48.4336183" lon="-4.199425"><ele>134.66666666666666</ele><time>2026-05-01T07:39:37.673Z</time></trkpt><trkpt lat="48.4335333" lon="-4.199205"><ele>138.0</ele><time>2026-05-01T07:39:38.673Z</time></trkpt><trkpt lat="48.43345" lon="-4.1989917"><ele>140.0</ele><time>2026-05-01T07:39:39.672Z</time></trkpt><trkpt lat="48.4333617" lon="-4.1987817"><ele>142.0</ele><time>2026-05-01T07:39:40.677Z</time></trkpt><trkpt lat="48.433265" lon="-4.1985717"><ele>144.0</ele><time>2026-05-01T07:39:41.678Z</time></trkpt><trkpt lat="48.43316" lon="-4.1983667"><ele>144.0</ele><time>2026-05-01T07:39:42.675Z</time></trkpt><trkpt lat="48.4330467" lon="-4.1981717"><ele>144.0</ele><time>2026-05-01T07:39:43.677Z</time></trkpt><trkpt lat="48.4329267" lon="-4.1979883"><ele>144.0</ele><time>2026-05-01T07:39:44.674Z</time></trkpt><trkpt lat="48.4327983" lon="-4.1978117"><ele>147.33333333333334</ele><time>2026-05-01T07:39:45.677Z</time></trkpt><trkpt lat="48.4326617" lon="-4.1976433"><ele>150.66666666666669</ele><time>2026-05-01T07:39:46.67Z</time></trkpt><trkpt lat="48.4325217" lon="-4.1974733"><ele>154.0</ele><time>2026-05-01T07:39:47.671Z</time></trkpt><trkpt lat="48.4323767" lon="-4.1972967"><ele>155.0</ele><time>2026-05-01T07:39:48.673Z</time></trkpt><trkpt lat="48.4322267" lon="-4.1971083"><ele>156.0</ele><time>2026-05-01T07:39:49.673Z</time></trkpt><trkpt lat="48.4320767" lon="-4.1969133"><ele>157.0</ele><time>2026-05-01T07:39:50.674Z</time></trkpt><trkpt lat="48.43193" lon="-4.1967133"><ele>158.0</ele><time>2026-05-01T07:39:51.677Z</time></trkpt><trkpt lat="48.4317833" lon="-4.196515"><ele>159.0</ele><time>2026-05-01T07:39:52.673Z</time></trkpt><trkpt lat="48.4316367" lon="-4.196325"><ele>160.0</ele><time>2026-05-01T07:39:53.676Z</time></trkpt><trkpt lat="48.431485" lon="-4.19614"><ele>160.33333333333334</ele><time>2026-05-01T07:39:54.67Z</time></trkpt><trkpt lat="48.43133" lon="-4.1959633"><ele>160.66666666666666</ele><time>2026-05-01T07:39:55.678Z</time></trkpt><trkpt lat="48.4311717" lon="-4.1957883"><ele>161.0</ele><time>2026-05-01T07:39:56.674Z</time></trkpt><trkpt lat="48.4310083" lon="-4.1956183"><ele>161.33333333333331</ele><time>2026-05-01T07:39:57.68Z</time></trkpt><trkpt lat="48.43084" lon="-4.19545"><ele>161.66666666666666</ele><time>2026-05-01T07:39:58.673Z</time></trkpt><trkpt lat="48.4306817" lon="-4.1952783"><ele>162.0</ele><time>2026-05-01T07:39:59.684Z</time></trkpt><trkpt lat="48.430525" lon="-4.1951167"><ele>161.33333333333334</ele><time>2026-05-01T07:40:00.673Z</time></trkpt><trkpt lat="48.4303733" lon="-4.194965"><ele>160.66666666666669</ele><time>2026-05-01T07:40:01.676Z</time></trkpt><trkpt lat="48.4302283" lon="-4.1948217"><ele>160.0</ele><time>2026-05-01T07:40:02.677Z</time></trkpt><trkpt lat="48.4300917" lon="-4.194685"><ele>159.66666666666669</ele><time>2026-05-01T07:40:03.673Z</time></trkpt><trkpt lat="48.4299617" lon="-4.1945483"><ele>159.33333333333334</ele><time>2026-05-01T07:40:04.671Z</time></trkpt><trkpt lat="48.4298383" lon="-4.1944133"><ele>159.0</ele><time>2026-05-01T07:40:05.674Z</time></trkpt><trkpt lat="48.429725" lon="-4.19428"><ele>159.0</ele><time>2026-05-01T07:40:06.677Z</time></trkpt><trkpt lat="48.42962" lon="-4.194145"><ele>159.0</ele><time>2026-05-01T07:40:07.676Z</time></trkpt><trkpt lat="48.4295117" lon="-4.1939967"><ele>159.0</ele><time>2026-05-01T07:40:08.677Z</time></trkpt><trkpt lat="48.4293967" lon="-4.1938133"><ele>158.66666666666666</ele><time>2026-05-01T07:40:09.678Z</time></trkpt><trkpt lat="48.4292717" lon="-4.1936217"><ele>158.33333333333331</ele><time>2026-05-01T07:40:10.674Z</time></trkpt><trkpt lat="48.429145" lon="-4.1934267"><ele>158.0</ele><time>2026-05-01T07:40:11.674Z</time></trkpt><trkpt lat="48.4290167" lon="-4.1932367"><ele>157.66666666666666</ele><time>2026-05-01T07:40:12.675Z</time></trkpt><trkpt lat="48.428885" lon="-4.1930483"><ele>157.33333333333334</ele><time>2026-05-01T07:40:13.679Z</time></trkpt><trkpt lat="48.4287417" lon="-4.19287"><ele>157.0</ele><time>2026-05-01T07:40:14.676Z</time></trkpt><trkpt lat="48.4285933" lon="-4.1926983"><ele>158.0</ele><time>2026-05-01T07:40:15.677Z</time></trkpt><trkpt lat="48.42844" lon="-4.1925317"><ele>159.0</ele><time>2026-05-01T07:40:16.676Z</time></trkpt><trkpt lat="48.4282817" lon="-4.1923617"><ele>160.0</ele><time>2026-05-01T07:40:17.678Z</time></trkpt><trkpt lat="48.42812" lon="-4.1921983"><ele>161.33333333333334</ele><time>2026-05-01T07:40:18.676Z</time></trkpt><trkpt lat="48.4279567" lon="-4.192035"><ele>162.66666666666666</ele><time>2026-05-01T07:40:19.678Z</time></trkpt><trkpt lat="48.4277867" lon="-4.1918683"><ele>164.0</ele><time>2026-05-01T07:40:20.68Z</time></trkpt><trkpt lat="48.427615" lon="-4.1917117"><ele>164.0</ele><time>2026-05-01T07:40:21.677Z</time></trkpt><trkpt lat="48.4274433" lon="-4.1915467"><ele>164.0</ele><time>2026-05-01T07:40:22.672Z</time></trkpt><trkpt lat="48.4272767" lon="-4.1913783"><ele>164.0</ele><time>2026-05-01T07:40:23.676Z</time></trkpt><trkpt lat="48.4271217" lon="-4.1911983"><ele>163.33333333333331</ele><time>2026-05-01T07:40:24.677Z</time></trkpt><trkpt lat="48.4269817" lon="-4.1909967"><ele>162.66666666666666</ele><time>2026-05-01T07:40:25.674Z</time></trkpt><trkpt lat="48.4268617" lon="-4.1907583"><ele>162.0</ele><time>2026-05-01T07:40:26.679Z</time></trkpt><trkpt lat="48.426745" lon="-4.190495"><ele>161.33333333333334</ele><time>2026-05-01T07:40:27.673Z</time></trkpt><trkpt lat="48.42663" lon="-4.19022"><ele>160.66666666666669</ele><time>2026-05-01T07:40:28.671Z</time></trkpt><trkpt lat="48.4265117" lon="-4.1899467"><ele>160.0</ele><time>2026-05-01T07:40:29.674Z</time></trkpt><trkpt lat="48.4263917" lon="-4.1896683"><ele>158.66666666666669</ele><time>2026-05-01T07:40:30.678Z</time></trkpt><trkpt lat="48.4262783" lon="-4.1894"><ele>157.33333333333334</ele><time>2026-05-01T07:40:31.672Z</time></trkpt><trkpt lat="48.4261683" lon="-4.1891367"><ele>156.0</ele><time>2026-05-01T07:40:32.675Z</time></trkpt><trkpt lat="48.426065" lon="-4.1888733"><ele>154.66666666666666</ele><time>2026-05-01T07:40:33.678Z</time></trkpt><trkpt lat="48.425965" lon="-4.1886133"><ele>153.33333333333331</ele><time>2026-05-01T07:40:34.675Z</time></trkpt><trkpt lat="48.4258583" lon="-4.1883633"><ele>152.0</ele><time>2026-05-01T07:40:35.679Z</time></trkpt><trkpt lat="48.4257417" lon="-4.1881283"><ele>151.33333333333331</ele><time>2026-05-01T07:40:36.677Z</time></trkpt><trkpt lat="48.4256067" lon="-4.1879067"><ele>150.66666666666666</ele><time>2026-05-01T07:40:37.673Z</time></trkpt><trkpt lat="48.4254617" lon="-4.187695"><ele>150.0</ele><time>2026-05-01T07:40:38.674Z</time></trkpt><trkpt lat="48.42531" lon="-4.187485"><ele>149.0</ele><time>2026-05-01T07:40:39.674Z</time></trkpt><trkpt lat="48.4251583" lon="-4.1872767"><ele>148.0</ele><time>2026-05-01T07:40:40.675Z</time></trkpt><trkpt lat="48.4250033" lon="-4.1870683"><ele>147.0</ele><time>2026-05-01T07:40:41.675Z</time></trkpt><trkpt lat="48.4248417" lon="-4.1868667"><ele>147.0</ele><time>2026-05-01T07:40:42.682Z</time></trkpt><trkpt lat="48.4246767" lon="-4.1866733"><ele>147.0</ele><time>2026-05-01T07:40:43.673Z</time></trkpt><trkpt lat="48.4245033" lon="-4.186495"><ele>147.0</ele><time>2026-05-01T07:40:44.675Z</time></trkpt><trkpt lat="48.424325" lon="-4.1863317"><ele>147.0</ele><time>2026-05-01T07:40:45.673Z</time></trkpt><trkpt lat="48.42414" lon="-4.1861883"><ele>147.0</ele><time>2026-05-01T07:40:46.675Z</time></trkpt><trkpt lat="48.4239533" lon="-4.1860533"><ele>147.0</ele><time>2026-05-01T07:40:47.678Z</time></trkpt><trkpt lat="48.4237633" lon="-4.1859217"><ele>146.33333333333334</ele><time>2026-05-01T07:40:48.68Z</time></trkpt><trkpt lat="48.4235733" lon="-4.1857917"><ele>145.66666666666669</ele><time>2026-05-01T07:40:49.676Z</time></trkpt><trkpt lat="48.4233817" lon="-4.185665"><ele>145.0</ele><time>2026-05-01T07:40:50.675Z</time></trkpt><trkpt lat="48.4231883" lon="-4.1855367"><ele>145.0</ele><time>2026-05-01T07:40:51.676Z</time></trkpt><trkpt lat="48.4229933" lon="-4.1854117"><ele>145.0</ele><time>2026-05-01T07:40:52.679Z</time></trkpt><trkpt lat="48.4228033" lon="-4.1852733"><ele>145.0</ele><time>2026-05-01T07:40:53.677Z</time></trkpt><trkpt lat="48.4226183" lon="-4.1851317"><ele>144.66666666666669</ele><time>2026-05-01T07:40:54.675Z</time></trkpt><trkpt lat="48.4224367" lon="-4.18498"><ele>144.33333333333334</ele><time>2026-05-01T07:40:55.676Z</time></trkpt><trkpt lat="48.4222583" lon="-4.1848233"><ele>144.0</ele><time>2026-05-01T07:40:56.674Z</time></trkpt><trkpt lat="48.4220783" lon="-4.184665"><ele>144.0</ele><time>2026-05-01T07:40:57.677Z</time></trkpt><trkpt lat="48.4219" lon="-4.1845033"><ele>144.0</ele><time>2026-05-01T07:40:58.675Z</time></trkpt><trkpt lat="48.42172" lon="-4.18434"><ele>144.0</ele><time>2026-05-01T07:40:59.672Z</time></trkpt><trkpt lat="48.4215383" lon="-4.184175"><ele>142.66666666666666</ele><time>2026-05-01T07:41:00.677Z</time></trkpt><trkpt lat="48.421355" lon="-4.1840117"><ele>141.33333333333331</ele><time>2026-05-01T07:41:01.677Z</time></trkpt><trkpt lat="48.42117" lon="-4.1838467"><ele>140.0</ele><time>2026-05-01T07:41:02.678Z</time></trkpt><trkpt lat="48.4209817" lon="-4.18368"><ele>140.0</ele><time>2026-05-01T07:41:03.674Z</time></trkpt><trkpt lat="48.4207933" lon="-4.1835083"><ele>140.0</ele><time>2026-05-01T07:41:04.674Z</time></trkpt><trkpt lat="48.420605" lon="-4.18334"><ele>140.0</ele><time>2026-05-01T07:41:05.677Z</time></trkpt><trkpt lat="48.42042" lon="-4.1831733"><ele>139.33333333333331</ele><time>2026-05-01T07:41:06.673Z</time></trkpt><trkpt lat="48.42024" lon="-4.1830133"><ele>138.66666666666666</ele><time>2026-05-01T07:41:07.674Z</time></trkpt><trkpt lat="48.4200633" lon="-4.182855"><ele>138.0</ele><time>2026-05-01T07:41:08.677Z</time></trkpt><trkpt lat="48.41989" lon="-4.1827033"><ele>138.0</ele><time>2026-05-01T07:41:09.673Z</time></trkpt><trkpt lat="48.41972" lon="-4.1825483"><ele>138.0</ele><time>2026-05-01T07:41:10.677Z</time></trkpt><trkpt lat="48.419555" lon="-4.1823983"><ele>138.0</ele><time>2026-05-01T07:41:11.676Z</time></trkpt><trkpt lat="48.4193983" lon="-4.1822317"><ele>138.0</ele><time>2026-05-01T07:41:12.677Z</time></trkpt><trkpt lat="48.4192533" lon="-4.182045"><ele>138.0</ele><time>2026-05-01T07:41:13.676Z</time></trkpt><trkpt lat="48.4191183" lon="-4.181845"><ele>138.0</ele><time>2026-05-01T07:41:14.673Z</time></trkpt><trkpt lat="48.418995" lon="-4.1816517"><ele>137.0</ele><time>2026-05-01T07:41:15.678Z</time></trkpt><trkpt lat="48.41888" lon="-4.181465"><ele>136.0</ele><time>2026-05-01T07:41:16.676Z</time></trkpt><trkpt lat="48.4187733" lon="-4.1812867"><ele>135.0</ele><time>2026-05-01T07:41:17.671Z</time></trkpt><trkpt lat="48.4186667" lon="-4.1811033"><ele>138.66666666666666</ele><time>2026-05-01T07:41:18.674Z</time></trkpt><trkpt lat="48.4185567" lon="-4.1809067"><ele>142.33333333333331</ele><time>2026-05-01T07:41:19.672Z</time></trkpt><trkpt lat="48.41844" lon="-4.1807133"><ele>146.0</ele><time>2026-05-01T07:41:20.676Z</time></trkpt><trkpt lat="48.41833" lon="-4.1805233"><ele>147.0</ele><time>2026-05-01T07:41:21.675Z</time></trkpt><trkpt lat="48.418215" lon="-4.1803633"><ele>148.0</ele><time>2026-05-01T07:41:22.676Z</time></trkpt><trkpt lat="48.4180983" lon="-4.1802167"><ele>149.0</ele><time>2026-05-01T07:41:23.677Z</time></trkpt><trkpt lat="48.4179833" lon="-4.1800833"><ele>149.66666666666666</ele><time>2026-05-01T07:41:24.676Z</time></trkpt><trkpt lat="48.4178617" lon="-4.1799533"><ele>150.33333333333334</ele><time>2026-05-01T07:41:25.676Z</time></trkpt><trkpt lat="48.4177383" lon="-4.179795"><ele>151.0</ele><time>2026-05-01T07:41:26.672Z</time></trkpt><trkpt lat="48.4176133" lon="-4.1796433"><ele>151.0</ele><time>2026-05-01T07:41:27.675Z</time></trkpt><trkpt lat="48.417485" lon="-4.1795067"><ele>151.0</ele><time>2026-05-01T07:41:28.68Z</time></trkpt><trkpt lat="48.4173583" lon="-4.1793683"><ele>151.0</ele><time>2026-05-01T07:41:29.675Z</time></trkpt><trkpt lat="48.417245" lon="-4.1792317"><ele>151.25</ele><time>2026-05-01T07:41:30.678Z</time></trkpt><trkpt lat="48.4171367" lon="-4.1791"><ele>151.5</ele><time>2026-05-01T07:41:31.672Z</time></trkpt><trkpt lat="48.4170233" lon="-4.17897"><ele>151.75</ele><time>2026-05-01T07:41:32.673Z</time></trkpt><trkpt lat="48.4169" lon="-4.17884"><ele>152.0</ele><time>2026-05-01T07:41:33.673Z</time></trkpt><trkpt lat="48.4167733" lon="-4.1787117"><ele>152.0</ele><time>2026-05-01T07:41:34.674Z</time></trkpt><trkpt lat="48.4166433" lon="-4.1785917"><ele>152.0</ele><time>2026-05-01T07:41:35.675Z</time></trkpt><trkpt lat="48.416505" lon="-4.1784767"><ele>152.0</ele><time>2026-05-01T07:41:36.674Z</time></trkpt><trkpt lat="48.4163583" lon="-4.1783667"><ele>149.66666666666666</ele><time>2026-05-01T07:41:37.676Z</time></trkpt><trkpt lat="48.4161967" lon="-4.178255"><ele>147.33333333333334</ele><time>2026-05-01T07:41:38.674Z</time></trkpt><trkpt lat="48.4160317" lon="-4.1781383"><ele>145.0</ele><time>2026-05-01T07:41:39.672Z</time></trkpt><trkpt lat="48.4158683" lon="-4.1780267"><ele>144.0</ele><time>2026-05-01T07:41:40.672Z</time></trkpt><trkpt lat="48.4157067" lon="-4.1779233"><ele>143.0</ele><time>2026-05-01T07:41:41.679Z</time></trkpt><trkpt lat="48.415545" lon="-4.17782"><ele>142.0</ele><time>2026-05-01T07:41:42.678Z</time></trkpt><trkpt lat="48.4153817" lon="-4.1777067"><ele>141.0</ele><time>2026-05-01T07:41:43.675Z</time></trkpt><trkpt lat="48.4152217" lon="-4.1775783"><ele>140.0</ele><time>2026-05-01T07:41:44.679Z</time></trkpt><trkpt lat="48.4150617" lon="-4.1774367"><ele>139.0</ele><time>2026-05-01T07:41:45.674Z</time></trkpt><trkpt lat="48.4149083" lon="-4.1772883"><ele>139.0</ele><time>2026-05-01T07:41:46.677Z</time></trkpt><trkpt lat="48.4147567" lon="-4.1771433"><ele>139.0</ele><time>2026-05-01T07:41:47.676Z</time></trkpt><trkpt lat="48.4146067" lon="-4.1769933"><ele>139.0</ele><time>2026-05-01T07:41:48.676Z</time></trkpt><trkpt lat="48.4144567" lon="-4.1768433"><ele>138.33333333333334</ele><time>2026-05-01T07:41:49.675Z</time></trkpt><trkpt lat="48.4143083" lon="-4.17669"><ele>137.66666666666666</ele><time>2026-05-01T07:41:50.674Z</time></trkpt><trkpt lat="48.4141633" lon="-4.1765383"><ele>137.0</ele><time>2026-05-01T07:41:51.681Z</time></trkpt><trkpt lat="48.4140167" lon="-4.176385"><ele>137.0</ele><time>2026-05-01T07:41:52.673Z</time></trkpt><trkpt lat="48.4138717" lon="-4.1762367"><ele>137.0</ele><time>2026-05-01T07:41:53.675Z</time></trkpt><trkpt lat="48.413725" lon="-4.176085"><ele>137.0</ele><time>2026-05-01T07:41:54.674Z</time></trkpt><trkpt lat="48.4135767" lon="-4.1759367"><ele>136.0</ele><time>2026-05-01T07:41:55.674Z</time></trkpt><trkpt lat="48.4134233" lon="-4.1757867"><ele>135.0</ele><time>2026-05-01T07:41:56.675Z</time></trkpt><trkpt lat="48.4132683" lon="-4.1756367"><ele>134.0</ele><time>2026-05-01T07:41:57.68Z</time></trkpt><trkpt lat="48.4131133" lon="-4.1754867"><ele>133.33333333333331</ele><time>2026-05-01T07:41:58.677Z</time></trkpt><trkpt lat="48.4129633" lon="-4.17533"><ele>132.66666666666666</ele><time>2026-05-01T07:41:59.68Z</time></trkpt><trkpt lat="48.4128117" lon="-4.1751767"><ele>132.0</ele><time>2026-05-01T07:42:00.676Z</time></trkpt><trkpt lat="48.4126567" lon="-4.175025"><ele>132.0</ele><time>2026-05-01T07:42:01.677Z</time></trkpt><trkpt lat="48.412495" lon="-4.174875"><ele>132.0</ele><time>2026-05-01T07:42:02.676Z</time></trkpt><trkpt lat="48.412335" lon="-4.1747183"><ele>132.0</ele><time>2026-05-01T07:42:03.676Z</time></trkpt><trkpt lat="48.4121717" lon="-4.1745633"><ele>129.33333333333334</ele><time>2026-05-01T07:42:04.673Z</time></trkpt><trkpt lat="48.412015" lon="-4.1743967"><ele>126.66666666666667</ele><time>2026-05-01T07:42:05.676Z</time></trkpt><trkpt lat="48.41186" lon="-4.174225"><ele>124.0</ele><time>2026-05-01T07:42:06.674Z</time></trkpt><trkpt lat="48.41171" lon="-4.174045"><ele>124.0</ele><time>2026-05-01T07:42:07.679Z</time></trkpt><trkpt lat="48.4115667" lon="-4.17385"><ele>124.0</ele><time>2026-05-01T07:42:08.682Z</time></trkpt><trkpt lat="48.4114317" lon="-4.173645"><ele>124.0</ele><time>2026-05-01T07:42:09.673Z</time></trkpt><trkpt lat="48.4113" lon="-4.17343"><ele>120.66666666666667</ele><time>2026-05-01T07:42:10.673Z</time></trkpt><trkpt lat="48.4111667" lon="-4.1732133"><ele>117.33333333333334</ele><time>2026-05-01T07:42:11.675Z</time></trkpt><trkpt lat="48.4110333" lon="-4.1729967"><ele>114.0</ele><time>2026-05-01T07:42:12.672Z</time></trkpt><trkpt lat="48.4109017" lon="-4.172785"><ele>113.66666666666666</ele><time>2026-05-01T07:42:13.675Z</time></trkpt><trkpt lat="48.4107733" lon="-4.17258"><ele>113.33333333333333</ele><time>2026-05-01T07:42:14.677Z</time></trkpt><trkpt lat="48.4106417" lon="-4.17238"><ele>113.0</ele><time>2026-05-01T07:42:15.675Z</time></trkpt><trkpt lat="48.41052" lon="-4.172185"><ele>110.0</ele><time>2026-05-01T07:42:16.673Z</time></trkpt><trkpt lat="48.4104017" lon="-4.171995"><ele>107.0</ele><time>2026-05-01T07:42:17.676Z</time></trkpt><trkpt lat="48.4102883" lon="-4.1718117"><ele>104.0</ele><time>2026-05-01T07:42:18.675Z</time></trkpt><trkpt lat="48.4101783" lon="-4.1716333"><ele>104.33333333333333</ele><time>2026-05-01T07:42:19.675Z</time></trkpt><trkpt lat="48.4100683" lon="-4.171455"><ele>104.66666666666666</ele><time>2026-05-01T07:42:20.675Z</time></trkpt><trkpt lat="48.4099583" lon="-4.1712767"><ele>105.0</ele><time>2026-05-01T07:42:21.674Z</time></trkpt><trkpt lat="48.4098533" lon="-4.1710967"><ele>105.0</ele><time>2026-05-01T07:42:22.673Z</time></trkpt><trkpt lat="48.4097467" lon="-4.1709217"><ele>105.0</ele><time>2026-05-01T07:42:23.685Z</time></trkpt><trkpt lat="48.4096417" lon="-4.1707433"><ele>105.0</ele><time>2026-05-01T07:42:24.672Z</time></trkpt><trkpt lat="48.4095367" lon="-4.1705667"><ele>104.0</ele><time>2026-05-01T07:42:25.674Z</time></trkpt><trkpt lat="48.409425" lon="-4.170395"><ele>103.0</ele><time>2026-05-01T07:42:26.676Z</time></trkpt><trkpt lat="48.4093083" lon="-4.17023"><ele>102.0</ele><time>2026-05-01T07:42:27.675Z</time></trkpt><trkpt lat="48.4091833" lon="-4.1700733"><ele>102.0</ele><time>2026-05-01T07:42:28.671Z</time></trkpt><trkpt lat="48.40905" lon="-4.1699267"><ele>102.0</ele><time>2026-05-01T07:42:29.671Z</time></trkpt><trkpt lat="48.4089117" lon="-4.1697867"><ele>102.0</ele><time>2026-05-01T07:42:30.676Z</time></trkpt><trkpt lat="48.40878" lon="-4.1696517"><ele>98.33333333333333</ele><time>2026-05-01T07:42:31.677Z</time></trkpt><trkpt lat="48.40865" lon="-4.16952"><ele>94.66666666666666</ele><time>2026-05-01T07:42:32.673Z</time></trkpt><trkpt lat="48.4085233" lon="-4.169385"><ele>91.0</ele><time>2026-05-01T07:42:33.674Z</time></trkpt><trkpt lat="48.4083933" lon="-4.1692483"><ele>91.0</ele><time>2026-05-01T07:42:34.674Z</time></trkpt><trkpt lat="48.4082617" lon="-4.1691117"><ele>91.0</ele><time>2026-05-01T07:42:35.675Z</time></trkpt><trkpt lat="48.4081267" lon="-4.1689717"><ele>91.0</ele><time>2026-05-01T07:42:36.674Z</time></trkpt><trkpt lat="48.4079933" lon="-4.168835"><ele>87.66666666666666</ele><time>2026-05-01T07:42:37.673Z</time></trkpt><trkpt lat="48.40786" lon="-4.1687017"><ele>84.33333333333333</ele><time>2026-05-01T07:42:38.678Z</time></trkpt><trkpt lat="48.407725" lon="-4.1685633"><ele>81.0</ele><time>2026-05-01T07:42:39.673Z</time></trkpt><trkpt lat="48.40759" lon="-4.168425"><ele>81.0</ele><time>2026-05-01T07:42:40.675Z</time></trkpt><trkpt lat="48.4074517" lon="-4.1682883"><ele>81.0</ele><time>2026-05-01T07:42:41.674Z</time></trkpt><trkpt lat="48.4073133" lon="-4.1681533"><ele>81.0</ele><time>2026-05-01T07:42:42.678Z</time></trkpt><trkpt lat="48.4071767" lon="-4.16802"><ele>79.33333333333333</ele><time>2026-05-01T07:42:43.677Z</time></trkpt><trkpt lat="48.407035" lon="-4.1678967"><ele>77.66666666666666</ele><time>2026-05-01T07:42:44.676Z</time></trkpt><trkpt lat="48.4068867" lon="-4.1677867"><ele>76.0</ele><time>2026-05-01T07:42:45.676Z</time></trkpt><trkpt lat="48.4067367" lon="-4.167695"><ele>76.0</ele><time>2026-05-01T07:42:46.679Z</time></trkpt><trkpt lat="48.40659" lon="-4.1676117"><ele>76.0</ele><time>2026-05-01T07:42:47.675Z</time></trkpt><trkpt lat="48.40644" lon="-4.1675383"><ele>76.0</ele><time>2026-05-01T07:42:48.675Z</time></trkpt><trkpt lat="48.40629" lon="-4.1674683"><ele>76.33333333333333</ele><time>2026-05-01T07:42:49.673Z</time></trkpt><trkpt lat="48.40614" lon="-4.1673983"><ele>76.66666666666667</ele><time>2026-05-01T07:42:50.678Z</time></trkpt><trkpt lat="48.405995" lon="-4.1673317"><ele>77.0</ele><time>2026-05-01T07:42:51.674Z</time></trkpt><trkpt lat="48.4058433" lon="-4.1672667"><ele>77.0</ele><time>2026-05-01T07:42:52.676Z</time></trkpt><trkpt lat="48.4056867" lon="-4.1672"><ele>77.0</ele><time>2026-05-01T07:42:53.673Z</time></trkpt><trkpt lat="48.405525" lon="-4.1671317"><ele>77.0</ele><time>2026-05-01T07:42:54.678Z</time></trkpt><trkpt lat="48.40536" lon="-4.1670617"><ele>75.33333333333334</ele><time>2026-05-01T07:42:55.675Z</time></trkpt><trkpt lat="48.405195" lon="-4.1669967"><ele>73.66666666666667</ele><time>2026-05-01T07:42:56.678Z</time></trkpt><trkpt lat="48.40503" lon="-4.1669217"><ele>72.0</ele><time>2026-05-01T07:42:57.674Z</time></trkpt><trkpt lat="48.40487" lon="-4.1668533"><ele>72.0</ele><time>2026-05-01T07:42:58.676Z</time></trkpt><trkpt lat="48.4047067" lon="-4.1667867"><ele>72.0</ele><time>2026-05-01T07:42:59.672Z</time></trkpt><trkpt lat="48.404545" lon="-4.166715"><ele>72.0</ele><time>2026-05-01T07:43:00.678Z</time></trkpt><trkpt lat="48.4043817" lon="-4.166645"><ele>71.0</ele><time>2026-05-01T07:43:01.673Z</time></trkpt><trkpt lat="48.40422" lon="-4.1665733"><ele>70.0</ele><time>2026-05-01T07:43:02.673Z</time></trkpt><trkpt lat="48.4040583" lon="-4.1664967"><ele>69.0</ele><time>2026-05-01T07:43:03.673Z</time></trkpt><trkpt lat="48.4038967" lon="-4.1664117"><ele>67.0</ele><time>2026-05-01T07:43:04.674Z</time></trkpt><trkpt lat="48.403735" lon="-4.1663117"><ele>65.0</ele><time>2026-05-01T07:43:05.672Z</time></trkpt><trkpt lat="48.4035783" lon="-4.1661867"><ele>63.0</ele><time>2026-05-01T07:43:06.673Z</time></trkpt><trkpt lat="48.40342" lon="-4.1660433"><ele>63.0</ele><time>2026-05-01T07:43:07.674Z</time></trkpt><trkpt lat="48.403265" lon="-4.1658867"><ele>63.0</ele><time>2026-05-01T07:43:08.674Z</time></trkpt><trkpt lat="48.4031117" lon="-4.165745"><ele>63.0</ele><time>2026-05-01T07:43:09.673Z</time></trkpt><trkpt lat="48.4029617" lon="-4.1656067"><ele>60.33333333333333</ele><time>2026-05-01T07:43:10.673Z</time></trkpt><trkpt lat="48.40282" lon="-4.1654617"><ele>57.666666666666664</ele><time>2026-05-01T07:43:11.676Z</time></trkpt><trkpt lat="48.402675" lon="-4.165315"><ele>55.0</ele><time>2026-05-01T07:43:12.674Z</time></trkpt><trkpt lat="48.402535" lon="-4.1651617"><ele>55.0</ele><time>2026-05-01T07:43:13.679Z</time></trkpt><trkpt lat="48.4023933" lon="-4.1650017"><ele>55.0</ele><time>2026-05-01T07:43:14.673Z</time></trkpt><trkpt lat="48.4022517" lon="-4.1648383"><ele>55.0</ele><time>2026-05-01T07:43:15.674Z</time></trkpt><trkpt lat="48.4021133" lon="-4.1646583"><ele>53.0</ele><time>2026-05-01T07:43:16.677Z</time></trkpt><trkpt lat="48.401985" lon="-4.1644667"><ele>51.0</ele><time>2026-05-01T07:43:17.674Z</time></trkpt><trkpt lat="48.4018717" lon="-4.1642483"><ele>49.0</ele><time>2026-05-01T07:43:18.676Z</time></trkpt><trkpt lat="48.4017667" lon="-4.1640183"><ele>49.0</ele><time>2026-05-01T07:43:19.677Z</time></trkpt><trkpt lat="48.40167" lon="-4.16378"><ele>49.0</ele><time>2026-05-01T07:43:20.676Z</time></trkpt><trkpt lat="48.401565" lon="-4.1635533"><ele>49.0</ele><time>2026-05-01T07:43:21.678Z</time></trkpt><trkpt lat="48.40147" lon="-4.163325"><ele>48.33333333333333</ele><time>2026-05-01T07:43:22.674Z</time></trkpt><trkpt lat="48.401375" lon="-4.1630983"><ele>47.666666666666664</ele><time>2026-05-01T07:43:23.676Z</time></trkpt><trkpt lat="48.4012833" lon="-4.1628717"><ele>47.0</ele><time>2026-05-01T07:43:24.676Z</time></trkpt><trkpt lat="48.4011917" lon="-4.1626417"><ele>46.33333333333333</ele><time>2026-05-01T07:43:25.678Z</time></trkpt><trkpt lat="48.4010967" lon="-4.1624183"><ele>45.666666666666664</ele><time>2026-05-01T07:43:26.676Z</time></trkpt><trkpt lat="48.401" lon="-4.1621917"><ele>45.0</ele><time>2026-05-01T07:43:27.676Z</time></trkpt><trkpt lat="48.4009117" lon="-4.1619633"><ele>45.0</ele><time>2026-05-01T07:43:28.673Z</time></trkpt><trkpt lat="48.4008317" lon="-4.161735"><ele>45.0</ele><time>2026-05-01T07:43:29.674Z</time></trkpt><trkpt lat="48.4007583" lon="-4.1614983"><ele>45.0</ele><time>2026-05-01T07:43:30.681Z</time></trkpt><trkpt lat="48.4007" lon="-4.1612567"><ele>45.0</ele><time>2026-05-01T07:43:31.673Z</time></trkpt><trkpt lat="48.4006533" lon="-4.1610033"><ele>45.0</ele><time>2026-05-01T07:43:32.677Z</time></trkpt><trkpt lat="48.4006067" lon="-4.1607483"><ele>45.0</ele><time>2026-05-01T07:43:33.677Z</time></trkpt><trkpt lat="48.4005783" lon="-4.16048"><ele>45.0</ele><time>2026-05-01T07:43:34.674Z</time></trkpt><trkpt lat="48.4005533" lon="-4.1602117"><ele>45.0</ele><time>2026-05-01T07:43:35.677Z</time></trkpt><trkpt lat="48.40053" lon="-4.1599433"><ele>45.0</ele><time>2026-05-01T07:43:36.679Z</time></trkpt><trkpt lat="48.400505" lon="-4.159675"><ele>45.333333333333336</ele><time>2026-05-01T07:43:37.679Z</time></trkpt><trkpt lat="48.40049" lon="-4.15942"><ele>45.66666666666667</ele><time>2026-05-01T07:43:38.681Z</time></trkpt><trkpt lat="48.4004767" lon="-4.1591717"><ele>46.0</ele><time>2026-05-01T07:43:39.676Z</time></trkpt><trkpt lat="48.40045" lon="-4.1589233"><ele>46.0</ele><time>2026-05-01T07:43:40.67Z</time></trkpt><trkpt lat="48.400425" lon="-4.1586733"><ele>46.0</ele><time>2026-05-01T07:43:41.677Z</time></trkpt><trkpt lat="48.4004017" lon="-4.1584167"><ele>46.0</ele><time>2026-05-01T07:43:42.677Z</time></trkpt><trkpt lat="48.40038" lon="-4.1581533"><ele>46.0</ele><time>2026-05-01T07:43:43.677Z</time></trkpt><trkpt lat="48.4003667" lon="-4.1578833"><ele>46.0</ele><time>2026-05-01T07:43:44.677Z</time></trkpt><trkpt lat="48.4003667" lon="-4.1576083"><ele>46.0</ele><time>2026-05-01T07:43:45.673Z</time></trkpt><trkpt lat="48.400385" lon="-4.1573333"><ele>46.333333333333336</ele><time>2026-05-01T07:43:46.674Z</time></trkpt><trkpt lat="48.40042" lon="-4.1570617"><ele>46.666666666666664</ele><time>2026-05-01T07:43:47.672Z</time></trkpt><trkpt lat="48.400465" lon="-4.1568"><ele>47.0</ele><time>2026-05-01T07:43:48.674Z</time></trkpt><trkpt lat="48.40052" lon="-4.1565417"><ele>49.666666666666664</ele><time>2026-05-01T07:43:49.675Z</time></trkpt><trkpt lat="48.4005867" lon="-4.1562883"><ele>52.33333333333333</ele><time>2026-05-01T07:43:50.675Z</time></trkpt><trkpt lat="48.40066" lon="-4.156035"><ele>55.0</ele><time>2026-05-01T07:43:51.674Z</time></trkpt><trkpt lat="48.400735" lon="-4.1557817"><ele>55.33333333333333</ele><time>2026-05-01T07:43:52.676Z</time></trkpt><trkpt lat="48.4008" lon="-4.1555283"><ele>55.66666666666667</ele><time>2026-05-01T07:43:53.672Z</time></trkpt><trkpt lat="48.4008483" lon="-4.1552733"><ele>56.0</ele><time>2026-05-01T07:43:54.673Z</time></trkpt><trkpt lat="48.40087" lon="-4.1550133"><ele>57.333333333333336</ele><time>2026-05-01T07:43:55.675Z</time></trkpt><trkpt lat="48.400875" lon="-4.1547583"><ele>58.66666666666667</ele><time>2026-05-01T07:43:56.672Z</time></trkpt><trkpt lat="48.400865" lon="-4.15451"><ele>60.0</ele><time>2026-05-01T07:43:57.674Z</time></trkpt><trkpt lat="48.4008367" lon="-4.1542617"><ele>62.0</ele><time>2026-05-01T07:43:58.674Z</time></trkpt><trkpt lat="48.4007883" lon="-4.1540183"><ele>64.0</ele><time>2026-05-01T07:43:59.678Z</time></trkpt><trkpt lat="48.4007067" lon="-4.1537817"><ele>66.0</ele><time>2026-05-01T07:44:00.676Z</time></trkpt><trkpt lat="48.4006067" lon="-4.1535517"><ele>64.0</ele><time>2026-05-01T07:44:01.677Z</time></trkpt><trkpt lat="48.400495" lon="-4.1533233"><ele>62.0</ele><time>2026-05-01T07:44:02.678Z</time></trkpt><trkpt lat="48.4003783" lon="-4.1530917"><ele>60.0</ele><time>2026-05-01T07:44:03.673Z</time></trkpt><trkpt lat="48.4002567" lon="-4.1528533"><ele>60.0</ele><time>2026-05-01T07:44:04.672Z</time></trkpt><trkpt lat="48.4001317" lon="-4.152625"><ele>60.0</ele><time>2026-05-01T07:44:05.679Z</time></trkpt><trkpt lat="48.4000017" lon="-4.1524017"><ele>60.0</ele><time>2026-05-01T07:44:06.671Z</time></trkpt><trkpt lat="48.3998767" lon="-4.152175"><ele>59.66666666666667</ele><time>2026-05-01T07:44:07.674Z</time></trkpt><trkpt lat="48.3997483" lon="-4.1519483"><ele>59.333333333333336</ele><time>2026-05-01T07:44:08.676Z</time></trkpt><trkpt lat="48.3996233" lon="-4.1517233"><ele>59.0</ele><time>2026-05-01T07:44:09.671Z</time></trkpt><trkpt lat="48.399495" lon="-4.1515017"><ele>60.0</ele><time>2026-05-01T07:44:10.676Z</time></trkpt><trkpt lat="48.39937" lon="-4.1512783"><ele>61.0</ele><time>2026-05-01T07:44:11.683Z</time></trkpt><trkpt lat="48.3992533" lon="-4.1510467"><ele>62.0</ele><time>2026-05-01T07:44:12.676Z</time></trkpt><trkpt lat="48.3991217" lon="-4.1508283"><ele>63.66666666666667</ele><time>2026-05-01T07:44:13.674Z</time></trkpt><trkpt lat="48.3989933" lon="-4.1506083"><ele>65.33333333333333</ele><time>2026-05-01T07:44:14.682Z</time></trkpt><trkpt lat="48.39887" lon="-4.15038"><ele>67.0</ele><time>2026-05-01T07:44:15.676Z</time></trkpt><trkpt lat="48.3987583" lon="-4.1501383"><ele>64.66666666666666</ele><time>2026-05-01T07:44:16.68Z</time></trkpt><trkpt lat="48.3986517" lon="-4.149885"><ele>62.33333333333333</ele><time>2026-05-01T07:44:17.675Z</time></trkpt><trkpt lat="48.3985517" lon="-4.1496317"><ele>60.0</ele><time>2026-05-01T07:44:18.679Z</time></trkpt><trkpt lat="48.3984633" lon="-4.1493667"><ele>60.0</ele><time>2026-05-01T07:44:19.676Z</time></trkpt><trkpt lat="48.39838" lon="-4.1490933"><ele>60.0</ele><time>2026-05-01T07:44:20.674Z</time></trkpt><trkpt lat="48.3983" lon="-4.148815"><ele>60.0</ele><time>2026-05-01T07:44:21.672Z</time></trkpt><trkpt lat="48.3982283" lon="-4.1485283"><ele>60.33333333333333</ele><time>2026-05-01T07:44:22.677Z</time></trkpt><trkpt lat="48.3981633" lon="-4.1482333"><ele>60.666666666666664</ele><time>2026-05-01T07:44:23.676Z</time></trkpt><trkpt lat="48.3981017" lon="-4.14794"><ele>61.0</ele><time>2026-05-01T07:44:24.683Z</time></trkpt><trkpt lat="48.3980417" lon="-4.14765"><ele>59.0</ele><time>2026-05-01T07:44:25.675Z</time></trkpt><trkpt lat="48.3979883" lon="-4.1473583"><ele>57.0</ele><time>2026-05-01T07:44:26.677Z</time></trkpt><trkpt lat="48.3979333" lon="-4.147075"><ele>55.0</ele><time>2026-05-01T07:44:27.676Z</time></trkpt><trkpt lat="48.3978783" lon="-4.1468083"><ele>55.666666666666664</ele><time>2026-05-01T07:44:28.673Z</time></trkpt><trkpt lat="48.3978383" lon="-4.1465267"><ele>56.33333333333333</ele><time>2026-05-01T07:44:29.675Z</time></trkpt><trkpt lat="48.3977817" lon="-4.1462483"><ele>57.0</ele><time>2026-05-01T07:44:30.676Z</time></trkpt><trkpt lat="48.3977283" lon="-4.145975"><ele>57.66666666666667</ele><time>2026-05-01T07:44:31.683Z</time></trkpt><trkpt lat="48.397675" lon="-4.1457033"><ele>58.333333333333336</ele><time>2026-05-01T07:44:32.682Z</time></trkpt><trkpt lat="48.3976233" lon="-4.145435"><ele>59.0</ele><time>2026-05-01T07:44:33.672Z</time></trkpt><trkpt lat="48.397575" lon="-4.1451683"><ele>59.0</ele><time>2026-05-01T07:44:34.676Z</time></trkpt><trkpt lat="48.397525" lon="-4.1448967"><ele>59.0</ele><time>2026-05-01T07:44:35.679Z</time></trkpt><trkpt lat="48.3974717" lon="-4.1446233"><ele>59.0</ele><time>2026-05-01T07:44:36.676Z</time></trkpt><trkpt lat="48.3974217" lon="-4.14435"><ele>60.66666666666667</ele><time>2026-05-01T07:44:37.675Z</time></trkpt><trkpt lat="48.3973717" lon="-4.144075"><ele>62.33333333333333</ele><time>2026-05-01T07:44:38.678Z</time></trkpt><trkpt lat="48.39732" lon="-4.1438017"><ele>64.0</ele><time>2026-05-01T07:44:39.676Z</time></trkpt><trkpt lat="48.3972683" lon="-4.1435267"><ele>65.33333333333333</ele><time>2026-05-01T07:44:40.672Z</time></trkpt><trkpt lat="48.3972167" lon="-4.1432567"><ele>66.66666666666667</ele><time>2026-05-01T07:44:41.674Z</time></trkpt><trkpt lat="48.3971667" lon="-4.1429917"><ele>68.0</ele><time>2026-05-01T07:44:42.678Z</time></trkpt><trkpt lat="48.3971183" lon="-4.14273"><ele>72.0</ele><time>2026-05-01T07:44:43.673Z</time></trkpt><trkpt lat="48.3970667" lon="-4.142465"><ele>76.0</ele><time>2026-05-01T07:44:44.673Z</time></trkpt><trkpt lat="48.3970167" lon="-4.1422033"><ele>80.0</ele><time>2026-05-01T07:44:45.674Z</time></trkpt><trkpt lat="48.39697" lon="-4.1419417"><ele>82.33333333333334</ele><time>2026-05-01T07:44:46.674Z</time></trkpt><trkpt lat="48.3969283" lon="-4.1416817"><ele>84.66666666666667</ele><time>2026-05-01T07:44:47.676Z</time></trkpt><trkpt lat="48.39689" lon="-4.1414183"><ele>87.0</ele><time>2026-05-01T07:44:48.678Z</time></trkpt><trkpt lat="48.3968567" lon="-4.1411583"><ele>89.33333333333333</ele><time>2026-05-01T07:44:49.673Z</time></trkpt><trkpt lat="48.3968233" lon="-4.1408933"><ele>91.66666666666666</ele><time>2026-05-01T07:44:50.676Z</time></trkpt><trkpt lat="48.3967983" lon="-4.1406233"><ele>94.0</ele><time>2026-05-01T07:44:51.674Z</time></trkpt><trkpt lat="48.3967867" lon="-4.1403567"><ele>95.66666666666666</ele><time>2026-05-01T07:44:52.675Z</time></trkpt><trkpt lat="48.3967817" lon="-4.1400967"><ele>97.33333333333333</ele><time>2026-05-01T07:44:53.677Z</time></trkpt><trkpt lat="48.39679" lon="-4.1398317"><ele>99.0</ele><time>2026-05-01T07:44:54.673Z</time></trkpt><trkpt lat="48.396805" lon="-4.1395667"><ele>99.0</ele><time>2026-05-01T07:44:55.676Z</time></trkpt><trkpt lat="48.3968233" lon="-4.1393133"><ele>99.0</ele><time>2026-05-01T07:44:56.677Z</time></trkpt><trkpt lat="48.3968617" lon="-4.1390767"><ele>99.0</ele><time>2026-05-01T07:44:57.674Z</time></trkpt><trkpt lat="48.3969067" lon="-4.138855"><ele>98.5</ele><time>2026-05-01T07:44:58.671Z</time></trkpt><trkpt lat="48.396955" lon="-4.1386467"><ele>98.0</ele><time>2026-05-01T07:44:59.674Z</time></trkpt><trkpt lat="48.397005" lon="-4.1384533"><ele>97.5</ele><time>2026-05-01T07:45:00.682Z</time></trkpt><trkpt lat="48.39706" lon="-4.1382833"><ele>97.0</ele><time>2026-05-01T07:45:01.677Z</time></trkpt><trkpt lat="48.3971167" lon="-4.1381267"><ele>98.8</ele><time>2026-05-01T07:45:02.675Z</time></trkpt><trkpt lat="48.397175" lon="-4.1379767"><ele>100.6</ele><time>2026-05-01T07:45:03.677Z</time></trkpt><trkpt lat="48.3972383" lon="-4.1378417"><ele>102.39999999999999</ele><time>2026-05-01T07:45:04.679Z</time></trkpt><trkpt lat="48.3973017" lon="-4.1377167"><ele>104.19999999999999</ele><time>2026-05-01T07:45:05.675Z</time></trkpt><trkpt lat="48.3973683" lon="-4.1375933"><ele>106.0</ele><time>2026-05-01T07:45:06.676Z</time></trkpt><trkpt lat="48.3974367" lon="-4.137465"><ele>105.50000000000001</ele><time>2026-05-01T07:45:07.678Z</time></trkpt><trkpt lat="48.3975033" lon="-4.1373433"><ele>105.0</ele><time>2026-05-01T07:45:08.681Z</time></trkpt><trkpt lat="48.3975583" lon="-4.1372333"><ele>104.5</ele><time>2026-05-01T07:45:09.673Z</time></trkpt><trkpt lat="48.3976067" lon="-4.1371267"><ele>104.0</ele><time>2026-05-01T07:45:10.686Z</time></trkpt><trkpt lat="48.397645" lon="-4.1370167"><ele>103.50000000000001</ele><time>2026-05-01T07:45:11.676Z</time></trkpt><trkpt lat="48.3976567" lon="-4.1368933"><ele>103.0</ele><time>2026-05-01T07:45:12.676Z</time></trkpt><trkpt lat="48.3976333" lon="-4.1367683"><ele>103.0</ele><time>2026-05-01T07:45:13.674Z</time></trkpt><trkpt lat="48.3976" lon="-4.1366417"><ele>103.0</ele><time>2026-05-01T07:45:14.678Z</time></trkpt><trkpt lat="48.3975533" lon="-4.1365083"><ele>103.0</ele><time>2026-05-01T07:45:15.675Z</time></trkpt><trkpt lat="48.3975033" lon="-4.136365"><ele>103.0</ele><time>2026-05-01T07:45:16.675Z</time></trkpt><trkpt lat="48.3974467" lon="-4.1362183"><ele>103.0</ele><time>2026-05-01T07:45:17.675Z</time></trkpt><trkpt lat="48.3973867" lon="-4.1360717"><ele>102.0</ele><time>2026-05-01T07:45:18.677Z</time></trkpt><trkpt lat="48.3973233" lon="-4.13592"><ele>101.0</ele><time>2026-05-01T07:45:19.673Z</time></trkpt><trkpt lat="48.3972583" lon="-4.135765"><ele>100.0</ele><time>2026-05-01T07:45:20.675Z</time></trkpt><trkpt lat="48.3971933" lon="-4.13561"><ele>99.0</ele><time>2026-05-01T07:45:21.675Z</time></trkpt><trkpt lat="48.3971283" lon="-4.1354533"><ele>97.5</ele><time>2026-05-01T07:45:22.672Z</time></trkpt><trkpt lat="48.397065" lon="-4.135295"><ele>96.0</ele><time>2026-05-01T07:45:23.672Z</time></trkpt><trkpt lat="48.3970033" lon="-4.1351433"><ele>94.5</ele><time>2026-05-01T07:45:24.674Z</time></trkpt><trkpt lat="48.3969433" lon="-4.1349933"><ele>93.0</ele><time>2026-05-01T07:45:25.674Z</time></trkpt><trkpt lat="48.396885" lon="-4.13484"><ele>93.0</ele><time>2026-05-01T07:45:26.672Z</time></trkpt><trkpt lat="48.396825" lon="-4.13469"><ele>93.0</ele><time>2026-05-01T07:45:27.672Z</time></trkpt><trkpt lat="48.3967667" lon="-4.13454"><ele>93.0</ele><time>2026-05-01T07:45:28.675Z</time></trkpt><trkpt lat="48.3967067" lon="-4.1343967"><ele>93.0</ele><time>2026-05-01T07:45:29.676Z</time></trkpt><trkpt lat="48.39665" lon="-4.1342583"><ele>93.0</ele><time>2026-05-01T07:45:30.676Z</time></trkpt><trkpt lat="48.3965917" lon="-4.13412"><ele>93.0</ele><time>2026-05-01T07:45:31.676Z</time></trkpt><trkpt lat="48.3965367" lon="-4.133985"><ele>93.0</ele><time>2026-05-01T07:45:32.677Z</time></trkpt><trkpt lat="48.39648" lon="-4.1338583"><ele>93.0</ele><time>2026-05-01T07:45:33.676Z</time></trkpt><trkpt lat="48.3964283" lon="-4.1337417"><ele>93.0</ele><time>2026-05-01T07:45:34.675Z</time></trkpt><trkpt lat="48.39638" lon="-4.1336333"><ele>93.0</ele><time>2026-05-01T07:45:35.675Z</time></trkpt><trkpt lat="48.3963367" lon="-4.133535"><ele>93.0</ele><time>2026-05-01T07:45:36.675Z</time></trkpt><trkpt lat="48.3962967" lon="-4.1334483"><ele>93.0</ele><time>2026-05-01T07:45:37.675Z</time></trkpt><trkpt lat="48.3962483" lon="-4.1333033"><ele>93.0</ele><time>2026-05-01T07:45:39.673Z</time></trkpt><trkpt lat="48.396215" lon="-4.133195"><ele>93.0</ele><time>2026-05-01T07:45:45.672Z</time></trkpt><trkpt lat="48.396135" lon="-4.133095"><ele>93.0</ele><time>2026-05-01T07:45:47.674Z</time></trkpt><trkpt lat="48.3960767" lon="-4.1330283"><ele>93.5</ele><time>2026-05-01T07:45:48.682Z</time></trkpt><trkpt lat="48.396015" lon="-4.1329517"><ele>94.0</ele><time>2026-05-01T07:45:49.677Z</time></trkpt><trkpt lat="48.3959533" lon="-4.1328667"><ele>94.5</ele><time>2026-05-01T07:45:50.675Z</time></trkpt><trkpt lat="48.395895" lon="-4.132785"><ele>95.0</ele><time>2026-05-01T07:45:51.679Z</time></trkpt><trkpt lat="48.3958367" lon="-4.1327033"><ele>95.5</ele><time>2026-05-01T07:45:52.676Z</time></trkpt><trkpt lat="48.3957717" lon="-4.1326317"><ele>96.0</ele><time>2026-05-01T07:45:53.68Z</time></trkpt><trkpt lat="48.395715" lon="-4.1325567"><ele>96.0</ele><time>2026-05-01T07:45:54.679Z</time></trkpt><trkpt lat="48.395655" lon="-4.1324833"><ele>96.0</ele><time>2026-05-01T07:45:55.673Z</time></trkpt><trkpt lat="48.3955933" lon="-4.1324167"><ele>96.0</ele><time>2026-05-01T07:45:56.675Z</time></trkpt><trkpt lat="48.3955317" lon="-4.132355"><ele>96.0</ele><time>2026-05-01T07:45:57.678Z</time></trkpt><trkpt lat="48.395465" lon="-4.1323"><ele>96.0</ele><time>2026-05-01T07:45:58.677Z</time></trkpt><trkpt lat="48.39539" lon="-4.1322533"><ele>96.0</ele><time>2026-05-01T07:45:59.677Z</time></trkpt><trkpt lat="48.3953117" lon="-4.1322167"><ele>95.83333333333333</ele><time>2026-05-01T07:46:00.675Z</time></trkpt><trkpt lat="48.395235" lon="-4.1321883"><ele>95.66666666666667</ele><time>2026-05-01T07:46:01.676Z</time></trkpt><trkpt lat="48.3951567" lon="-4.132165"><ele>95.5</ele><time>2026-05-01T07:46:02.674Z</time></trkpt><trkpt lat="48.3950767" lon="-4.1321417"><ele>95.33333333333334</ele><time>2026-05-01T07:46:03.676Z</time></trkpt><trkpt lat="48.3949967" lon="-4.1321183"><ele>95.16666666666667</ele><time>2026-05-01T07:46:04.676Z</time></trkpt><trkpt lat="48.3949133" lon="-4.1320967"><ele>95.0</ele><time>2026-05-01T07:46:05.676Z</time></trkpt><trkpt lat="48.39483" lon="-4.1320833"><ele>95.0</ele><time>2026-05-01T07:46:06.675Z</time></trkpt><trkpt lat="48.394745" lon="-4.1320667"><ele>95.0</ele><time>2026-05-01T07:46:07.681Z</time></trkpt><trkpt lat="48.3946617" lon="-4.13205"><ele>95.0</ele><time>2026-05-01T07:46:08.678Z</time></trkpt><trkpt lat="48.39458" lon="-4.13202"><ele>95.0</ele><time>2026-05-01T07:46:09.673Z</time></trkpt><trkpt lat="48.3944967" lon="-4.1319867"><ele>95.0</ele><time>2026-05-01T07:46:10.673Z</time></trkpt><trkpt lat="48.3944167" lon="-4.1319467"><ele>95.0</ele><time>2026-05-01T07:46:11.676Z</time></trkpt><trkpt lat="48.3943467" lon="-4.1318967"><ele>95.5</ele><time>2026-05-01T07:46:12.673Z</time></trkpt><trkpt lat="48.3942767" lon="-4.1318433"><ele>96.0</ele><time>2026-05-01T07:46:13.674Z</time></trkpt><trkpt lat="48.3942" lon="-4.1318"><ele>96.5</ele><time>2026-05-01T07:46:14.675Z</time></trkpt><trkpt lat="48.3941233" lon="-4.1317583"><ele>97.0</ele><time>2026-05-01T07:46:15.675Z</time></trkpt><trkpt lat="48.394045" lon="-4.1317117"><ele>97.49999999999999</ele><time>2026-05-01T07:46:16.676Z</time></trkpt><trkpt lat="48.393975" lon="-4.131665"><ele>98.0</ele><time>2026-05-01T07:46:17.67Z</time></trkpt><trkpt lat="48.3939017" lon="-4.1316267"><ele>97.83333333333333</ele><time>2026-05-01T07:46:18.674Z</time></trkpt><trkpt lat="48.3938233" lon="-4.1315917"><ele>97.66666666666666</ele><time>2026-05-01T07:46:19.674Z</time></trkpt><trkpt lat="48.3937517" lon="-4.1315483"><ele>97.5</ele><time>2026-05-01T07:46:20.682Z</time></trkpt><trkpt lat="48.3936733" lon="-4.1315017"><ele>97.33333333333334</ele><time>2026-05-01T07:46:21.676Z</time></trkpt><trkpt lat="48.3935983" lon="-4.1314417"><ele>97.16666666666667</ele><time>2026-05-01T07:46:22.676Z</time></trkpt><trkpt lat="48.3935267" lon="-4.13137"><ele>97.0</ele><time>2026-05-01T07:46:23.675Z</time></trkpt><trkpt lat="48.39345" lon="-4.1312983"><ele>96.39999999999999</ele><time>2026-05-01T07:46:24.675Z</time></trkpt><trkpt lat="48.39337" lon="-4.13123"><ele>95.8</ele><time>2026-05-01T07:46:25.678Z</time></trkpt><trkpt lat="48.3932817" lon="-4.13117"><ele>95.2</ele><time>2026-05-01T07:46:26.673Z</time></trkpt><trkpt lat="48.3931933" lon="-4.1311133"><ele>94.6</ele><time>2026-05-01T07:46:27.678Z</time></trkpt><trkpt lat="48.3931" lon="-4.1310583"><ele>94.0</ele><time>2026-05-01T07:46:28.673Z</time></trkpt><trkpt lat="48.3929933" lon="-4.1309983"><ele>92.75</ele><time>2026-05-01T07:46:29.68Z</time></trkpt><trkpt lat="48.39288" lon="-4.1309333"><ele>91.5</ele><time>2026-05-01T07:46:30.674Z</time></trkpt><trkpt lat="48.3927617" lon="-4.1308683"><ele>90.25</ele><time>2026-05-01T07:46:31.675Z</time></trkpt><trkpt lat="48.39264" lon="-4.1308083"><ele>89.0</ele><time>2026-05-01T07:46:32.684Z</time></trkpt><trkpt lat="48.3925183" lon="-4.1307433"><ele>88.5</ele><time>2026-05-01T07:46:33.677Z</time></trkpt><trkpt lat="48.392395" lon="-4.1306783"><ele>88.0</ele><time>2026-05-01T07:46:34.675Z</time></trkpt><trkpt lat="48.3922783" lon="-4.13061"><ele>87.5</ele><time>2026-05-01T07:46:35.674Z</time></trkpt><trkpt lat="48.3921567" lon="-4.13054"><ele>87.0</ele><time>2026-05-01T07:46:36.675Z</time></trkpt><trkpt lat="48.3920317" lon="-4.1304717"><ele>86.0</ele><time>2026-05-01T07:46:37.681Z</time></trkpt><trkpt lat="48.3919083" lon="-4.1304033"><ele>85.0</ele><time>2026-05-01T07:46:38.675Z</time></trkpt><trkpt lat="48.391785" lon="-4.130335"><ele>84.0</ele><time>2026-05-01T07:46:39.676Z</time></trkpt><trkpt lat="48.39166" lon="-4.1302633"><ele>83.0</ele><time>2026-05-01T07:46:40.674Z</time></trkpt><trkpt lat="48.3915317" lon="-4.130195"><ele>83.0</ele><time>2026-05-01T07:46:41.677Z</time></trkpt><trkpt lat="48.3914" lon="-4.1301233"><ele>83.0</ele><time>2026-05-01T07:46:42.673Z</time></trkpt><trkpt lat="48.3912633" lon="-4.13005"><ele>83.0</ele><time>2026-05-01T07:46:43.68Z</time></trkpt><trkpt lat="48.39112" lon="-4.1299717"><ele>83.0</ele><time>2026-05-01T07:46:44.678Z</time></trkpt><trkpt lat="48.3909683" lon="-4.1298917"><ele>81.0</ele><time>2026-05-01T07:46:45.677Z</time></trkpt><trkpt lat="48.39081" lon="-4.129805"><ele>79.0</ele><time>2026-05-01T07:46:46.672Z</time></trkpt><trkpt lat="48.3906517" lon="-4.129715"><ele>77.0</ele><time>2026-05-01T07:46:47.676Z</time></trkpt><trkpt lat="48.3904883" lon="-4.129625"><ele>76.0</ele><time>2026-05-01T07:46:48.676Z</time></trkpt><trkpt lat="48.3903217" lon="-4.1295317"><ele>75.0</ele><time>2026-05-01T07:46:49.672Z</time></trkpt><trkpt lat="48.3901533" lon="-4.1294367"><ele>74.0</ele><time>2026-05-01T07:46:50.674Z</time></trkpt><trkpt lat="48.3899833" lon="-4.12934"><ele>74.0</ele><time>2026-05-01T07:46:51.672Z</time></trkpt><trkpt lat="48.3898117" lon="-4.1292467"><ele>74.0</ele><time>2026-05-01T07:46:52.673Z</time></trkpt><trkpt lat="48.3896383" lon="-4.1291567"><ele>74.0</ele><time>2026-05-01T07:46:53.673Z</time></trkpt><trkpt lat="48.389465" lon="-4.12908"><ele>74.66666666666667</ele><time>2026-05-01T07:46:54.678Z</time></trkpt><trkpt lat="48.3892883" lon="-4.129015"><ele>75.33333333333333</ele><time>2026-05-01T07:46:55.674Z</time></trkpt><trkpt lat="48.3891117" lon="-4.12896"><ele>76.0</ele><time>2026-05-01T07:46:56.672Z</time></trkpt><trkpt lat="48.3889333" lon="-4.1289183"><ele>76.66666666666666</ele><time>2026-05-01T07:46:57.677Z</time></trkpt><trkpt lat="48.3887533" lon="-4.1289133"><ele>77.33333333333333</ele><time>2026-05-01T07:46:58.675Z</time></trkpt><trkpt lat="48.38858" lon="-4.1289283"><ele>78.0</ele><time>2026-05-01T07:46:59.677Z</time></trkpt><trkpt lat="48.388405" lon="-4.1289583"><ele>78.0</ele><time>2026-05-01T07:47:00.679Z</time></trkpt><trkpt lat="48.38823" lon="-4.12899"><ele>78.0</ele><time>2026-05-01T07:47:01.673Z</time></trkpt><trkpt lat="48.3880567" lon="-4.1289917"><ele>78.0</ele><time>2026-05-01T07:47:02.674Z</time></trkpt><trkpt lat="48.387885" lon="-4.1289767"><ele>77.0</ele><time>2026-05-01T07:47:03.675Z</time></trkpt><trkpt lat="48.387715" lon="-4.1289517"><ele>76.0</ele><time>2026-05-01T07:47:04.672Z</time></trkpt><trkpt lat="48.38754" lon="-4.12893"><ele>75.0</ele><time>2026-05-01T07:47:05.678Z</time></trkpt><trkpt lat="48.38736" lon="-4.1289217"><ele>75.0</ele><time>2026-05-01T07:47:06.679Z</time></trkpt><trkpt lat="48.3871883" lon="-4.1289233"><ele>75.0</ele><time>2026-05-01T07:47:07.676Z</time></trkpt><trkpt lat="48.3870117" lon="-4.12895"><ele>75.0</ele><time>2026-05-01T07:47:08.681Z</time></trkpt><trkpt lat="48.3868383" lon="-4.1289833"><ele>75.0</ele><time>2026-05-01T07:47:09.675Z</time></trkpt><trkpt lat="48.3866733" lon="-4.1290333"><ele>75.0</ele><time>2026-05-01T07:47:10.676Z</time></trkpt><trkpt lat="48.386505" lon="-4.1290717"><ele>75.0</ele><time>2026-05-01T07:47:11.674Z</time></trkpt><trkpt lat="48.38634" lon="-4.1290933"><ele>75.0</ele><time>2026-05-01T07:47:12.678Z</time></trkpt><trkpt lat="48.386165" lon="-4.12909"><ele>75.0</ele><time>2026-05-01T07:47:13.672Z</time></trkpt><trkpt lat="48.386" lon="-4.1290817"><ele>75.0</ele><time>2026-05-01T07:47:14.676Z</time></trkpt><trkpt lat="48.385835" lon="-4.129075"><ele>75.0</ele><time>2026-05-01T07:47:15.674Z</time></trkpt><trkpt lat="48.3856617" lon="-4.1290767"><ele>75.0</ele><time>2026-05-01T07:47:16.676Z</time></trkpt><trkpt lat="48.3854867" lon="-4.12908"><ele>75.0</ele><time>2026-05-01T07:47:17.675Z</time></trkpt><trkpt lat="48.3853083" lon="-4.1290883"><ele>77.0</ele><time>2026-05-01T07:47:18.676Z</time></trkpt><trkpt lat="48.3851333" lon="-4.1291"><ele>79.0</ele><time>2026-05-01T07:47:19.676Z</time></trkpt><trkpt lat="48.3849633" lon="-4.1291083"><ele>81.0</ele><time>2026-05-01T07:47:20.676Z</time></trkpt><trkpt lat="48.3847933" lon="-4.1291217"><ele>82.33333333333333</ele><time>2026-05-01T07:47:21.675Z</time></trkpt><trkpt lat="48.384625" lon="-4.1291383"><ele>83.66666666666666</ele><time>2026-05-01T07:47:22.68Z</time></trkpt><trkpt lat="48.38446" lon="-4.129155"><ele>85.0</ele><time>2026-05-01T07:47:23.674Z</time></trkpt><trkpt lat="48.3842967" lon="-4.12917"><ele>85.0</ele><time>2026-05-01T07:47:24.673Z</time></trkpt><trkpt lat="48.3841317" lon="-4.1291817"><ele>85.0</ele><time>2026-05-01T07:47:25.676Z</time></trkpt><trkpt lat="48.383965" lon="-4.1291883"><ele>85.0</ele><time>2026-05-01T07:47:26.677Z</time></trkpt><trkpt lat="48.3837967" lon="-4.1291917"><ele>85.33333333333333</ele><time>2026-05-01T07:47:27.676Z</time></trkpt><trkpt lat="48.3836283" lon="-4.1291817"><ele>85.66666666666667</ele><time>2026-05-01T07:47:28.677Z</time></trkpt><trkpt lat="48.3834617" lon="-4.1291567"><ele>86.0</ele><time>2026-05-01T07:47:29.676Z</time></trkpt><trkpt lat="48.383295" lon="-4.12911"><ele>86.66666666666667</ele><time>2026-05-01T07:47:30.677Z</time></trkpt><trkpt lat="48.3831283" lon="-4.1290483"><ele>87.33333333333333</ele><time>2026-05-01T07:47:31.675Z</time></trkpt><trkpt lat="48.3829633" lon="-4.1289717"><ele>88.0</ele><time>2026-05-01T07:47:32.682Z</time></trkpt><trkpt lat="48.3827983" lon="-4.1288933"><ele>89.33333333333333</ele><time>2026-05-01T07:47:33.675Z</time></trkpt><trkpt lat="48.38263" lon="-4.12882"><ele>90.66666666666667</ele><time>2026-05-01T07:47:34.677Z</time></trkpt><trkpt lat="48.3824617" lon="-4.1287617"><ele>92.0</ele><time>2026-05-01T07:47:35.681Z</time></trkpt><trkpt lat="48.38229" lon="-4.1287183"><ele>93.33333333333334</ele><time>2026-05-01T07:47:36.677Z</time></trkpt><trkpt lat="48.38212" lon="-4.128695"><ele>94.66666666666667</ele><time>2026-05-01T07:47:37.675Z</time></trkpt><trkpt lat="48.3819483" lon="-4.12869"><ele>96.0</ele><time>2026-05-01T07:47:38.679Z</time></trkpt><trkpt lat="48.3817783" lon="-4.128695"><ele>96.0</ele><time>2026-05-01T07:47:39.673Z</time></trkpt><trkpt lat="48.3816083" lon="-4.1287033"><ele>96.0</ele><time>2026-05-01T07:47:40.677Z</time></trkpt><trkpt lat="48.38144" lon="-4.1287117"><ele>96.0</ele><time>2026-05-01T07:47:41.678Z</time></trkpt><trkpt lat="48.381275" lon="-4.1287183"><ele>96.66666666666666</ele><time>2026-05-01T07:47:42.674Z</time></trkpt><trkpt lat="48.3811117" lon="-4.1287133"><ele>97.33333333333333</ele><time>2026-05-01T07:47:43.676Z</time></trkpt><trkpt lat="48.3809483" lon="-4.1287017"><ele>98.0</ele><time>2026-05-01T07:47:44.678Z</time></trkpt><trkpt lat="48.3807867" lon="-4.1286733"><ele>98.0</ele><time>2026-05-01T07:47:45.675Z</time></trkpt><trkpt lat="48.3806233" lon="-4.128635"><ele>98.0</ele><time>2026-05-01T07:47:46.679Z</time></trkpt><trkpt lat="48.380465" lon="-4.128575"><ele>98.0</ele><time>2026-05-01T07:47:47.677Z</time></trkpt><trkpt lat="48.38031" lon="-4.1285033"><ele>100.33333333333333</ele><time>2026-05-01T07:47:48.674Z</time></trkpt><trkpt lat="48.3801583" lon="-4.12842"><ele>102.66666666666666</ele><time>2026-05-01T07:47:49.679Z</time></trkpt><trkpt lat="48.3800083" lon="-4.1283267"><ele>105.0</ele><time>2026-05-01T07:47:50.677Z</time></trkpt><trkpt lat="48.3798567" lon="-4.1282283"><ele>105.66666666666666</ele><time>2026-05-01T07:47:51.673Z</time></trkpt><trkpt lat="48.3797033" lon="-4.1281267"><ele>106.33333333333333</ele><time>2026-05-01T07:47:52.678Z</time></trkpt><trkpt lat="48.3795483" lon="-4.128025"><ele>107.0</ele><time>2026-05-01T07:47:53.673Z</time></trkpt><trkpt lat="48.3793917" lon="-4.1279233"><ele>108.66666666666666</ele><time>2026-05-01T07:47:54.673Z</time></trkpt><trkpt lat="48.3792333" lon="-4.1278167"><ele>110.33333333333334</ele><time>2026-05-01T07:47:55.674Z</time></trkpt><trkpt lat="48.3790767" lon="-4.1277067"><ele>112.0</ele><time>2026-05-01T07:47:56.674Z</time></trkpt><trkpt lat="48.37892" lon="-4.1275867"><ele>113.33333333333334</ele><time>2026-05-01T07:47:57.677Z</time></trkpt><trkpt lat="48.378765" lon="-4.1274583"><ele>114.66666666666666</ele><time>2026-05-01T07:47:58.674Z</time></trkpt><trkpt lat="48.3786133" lon="-4.1273233"><ele>116.0</ele><time>2026-05-01T07:47:59.673Z</time></trkpt><trkpt lat="48.3784617" lon="-4.1271833"><ele>116.33333333333333</ele><time>2026-05-01T07:48:00.676Z</time></trkpt><trkpt lat="48.37831" lon="-4.1270383"><ele>116.66666666666666</ele><time>2026-05-01T07:48:01.676Z</time></trkpt><trkpt lat="48.3781583" lon="-4.1269"><ele>117.0</ele><time>2026-05-01T07:48:02.675Z</time></trkpt><trkpt lat="48.3780083" lon="-4.1267583"><ele>118.0</ele><time>2026-05-01T07:48:03.679Z</time></trkpt><trkpt lat="48.377865" lon="-4.126615"><ele>119.0</ele><time>2026-05-01T07:48:04.671Z</time></trkpt><trkpt lat="48.3777167" lon="-4.1264767"><ele>120.0</ele><time>2026-05-01T07:48:05.674Z</time></trkpt><trkpt lat="48.3775633" lon="-4.12635"><ele>120.0</ele><time>2026-05-01T07:48:06.674Z</time></trkpt><trkpt lat="48.377405" lon="-4.1262433"><ele>120.0</ele><time>2026-05-01T07:48:07.674Z</time></trkpt><trkpt lat="48.3772417" lon="-4.1261617"><ele>120.0</ele><time>2026-05-01T07:48:08.672Z</time></trkpt><trkpt lat="48.3770717" lon="-4.1260967"><ele>122.33333333333334</ele><time>2026-05-01T07:48:09.677Z</time></trkpt><trkpt lat="48.3769033" lon="-4.1260367"><ele>124.66666666666667</ele><time>2026-05-01T07:48:10.672Z</time></trkpt><trkpt lat="48.3767333" lon="-4.1259867"><ele>127.0</ele><time>2026-05-01T07:48:11.674Z</time></trkpt><trkpt lat="48.3765617" lon="-4.1259433"><ele>127.0</ele><time>2026-05-01T07:48:12.675Z</time></trkpt><trkpt lat="48.37639" lon="-4.1259133"><ele>127.0</ele><time>2026-05-01T07:48:13.677Z</time></trkpt><trkpt lat="48.3762217" lon="-4.1259017"><ele>127.0</ele><time>2026-05-01T07:48:14.674Z</time></trkpt><trkpt lat="48.3760517" lon="-4.1259333"><ele>129.0</ele><time>2026-05-01T07:48:15.68Z</time></trkpt><trkpt lat="48.375885" lon="-4.1259767"><ele>131.0</ele><time>2026-05-01T07:48:16.674Z</time></trkpt><trkpt lat="48.375715" lon="-4.1260267"><ele>133.0</ele><time>2026-05-01T07:48:17.681Z</time></trkpt><trkpt lat="48.3755467" lon="-4.1260767"><ele>134.33333333333334</ele><time>2026-05-01T07:48:18.675Z</time></trkpt><trkpt lat="48.375375" lon="-4.1261167"><ele>135.66666666666666</ele><time>2026-05-01T07:48:19.676Z</time></trkpt><trkpt lat="48.3752017" lon="-4.1261117"><ele>137.0</ele><time>2026-05-01T07:48:20.681Z</time></trkpt><trkpt lat="48.3750333" lon="-4.1260683"><ele>137.0</ele><time>2026-05-01T07:48:21.675Z</time></trkpt><trkpt lat="48.37487" lon="-4.1259917"><ele>137.0</ele><time>2026-05-01T07:48:22.676Z</time></trkpt><trkpt lat="48.3747083" lon="-4.1258917"><ele>137.0</ele><time>2026-05-01T07:48:23.675Z</time></trkpt><trkpt lat="48.37455" lon="-4.1257817"><ele>137.0</ele><time>2026-05-01T07:48:24.677Z</time></trkpt><trkpt lat="48.3743883" lon="-4.12567"><ele>137.0</ele><time>2026-05-01T07:48:25.679Z</time></trkpt><trkpt lat="48.3742283" lon="-4.125565"><ele>137.0</ele><time>2026-05-01T07:48:26.675Z</time></trkpt><trkpt lat="48.3740633" lon="-4.12547"><ele>137.0</ele><time>2026-05-01T07:48:27.674Z</time></trkpt><trkpt lat="48.3738967" lon="-4.125395"><ele>137.0</ele><time>2026-05-01T07:48:28.672Z</time></trkpt><trkpt lat="48.37373" lon="-4.1253417"><ele>137.0</ele><time>2026-05-01T07:48:29.683Z</time></trkpt><trkpt lat="48.3735567" lon="-4.1253117"><ele>139.66666666666666</ele><time>2026-05-01T07:48:30.675Z</time></trkpt><trkpt lat="48.3733817" lon="-4.1252883"><ele>142.33333333333334</ele><time>2026-05-01T07:48:31.677Z</time></trkpt><trkpt lat="48.3732033" lon="-4.12527"><ele>145.0</ele><time>2026-05-01T07:48:32.675Z</time></trkpt><trkpt lat="48.373025" lon="-4.125255"><ele>146.0</ele><time>2026-05-01T07:48:33.676Z</time></trkpt><trkpt lat="48.372845" lon="-4.1252417"><ele>147.0</ele><time>2026-05-01T07:48:34.674Z</time></trkpt><trkpt lat="48.37267" lon="-4.1251917"><ele>148.0</ele><time>2026-05-01T07:48:35.674Z</time></trkpt><trkpt lat="48.3725017" lon="-4.1251133"><ele>148.0</ele><time>2026-05-01T07:48:36.673Z</time></trkpt><trkpt lat="48.3723317" lon="-4.125015"><ele>148.0</ele><time>2026-05-01T07:48:37.675Z</time></trkpt><trkpt lat="48.3721633" lon="-4.124915"><ele>148.0</ele><time>2026-05-01T07:48:38.675Z</time></trkpt><trkpt lat="48.3719967" lon="-4.1248083"><ele>148.0</ele><time>2026-05-01T07:48:39.674Z</time></trkpt><trkpt lat="48.3718317" lon="-4.1247"><ele>148.0</ele><time>2026-05-01T07:48:40.675Z</time></trkpt><trkpt lat="48.3716667" lon="-4.1245917"><ele>148.0</ele><time>2026-05-01T07:48:41.678Z</time></trkpt><trkpt lat="48.3715" lon="-4.124485"><ele>149.0</ele><time>2026-05-01T07:48:42.677Z</time></trkpt><trkpt lat="48.3713367" lon="-4.1243767"><ele>150.0</ele><time>2026-05-01T07:48:43.678Z</time></trkpt><trkpt lat="48.3711733" lon="-4.1242683"><ele>151.0</ele><time>2026-05-01T07:48:44.674Z</time></trkpt><trkpt lat="48.3710117" lon="-4.1241617"><ele>149.66666666666669</ele><time>2026-05-01T07:48:45.675Z</time></trkpt><trkpt lat="48.3708517" lon="-4.1240583"><ele>148.33333333333334</ele><time>2026-05-01T07:48:46.673Z</time></trkpt><trkpt lat="48.3706883" lon="-4.1239667"><ele>147.0</ele><time>2026-05-01T07:48:47.679Z</time></trkpt><trkpt lat="48.3705267" lon="-4.1238833"><ele>148.33333333333334</ele><time>2026-05-01T07:48:48.672Z</time></trkpt><trkpt lat="48.3703617" lon="-4.1238117"><ele>149.66666666666669</ele><time>2026-05-01T07:48:49.679Z</time></trkpt><trkpt lat="48.370195" lon="-4.123755"><ele>151.0</ele><time>2026-05-01T07:48:50.681Z</time></trkpt><trkpt lat="48.370025" lon="-4.123705"><ele>151.0</ele><time>2026-05-01T07:48:51.676Z</time></trkpt><trkpt lat="48.369855" lon="-4.1236583"><ele>151.0</ele><time>2026-05-01T07:48:52.675Z</time></trkpt><trkpt lat="48.3696817" lon="-4.1236183"><ele>151.0</ele><time>2026-05-01T07:48:53.68Z</time></trkpt><trkpt lat="48.3695033" lon="-4.1235967"><ele>152.66666666666669</ele><time>2026-05-01T07:48:54.674Z</time></trkpt><trkpt lat="48.369325" lon="-4.1235883"><ele>154.33333333333334</ele><time>2026-05-01T07:48:55.677Z</time></trkpt><trkpt lat="48.3691433" lon="-4.1235917"><ele>156.0</ele><time>2026-05-01T07:48:56.675Z</time></trkpt><trkpt lat="48.36896" lon="-4.1235983"><ele>155.33333333333334</ele><time>2026-05-01T07:48:57.673Z</time></trkpt><trkpt lat="48.36878" lon="-4.1236117"><ele>154.66666666666669</ele><time>2026-05-01T07:48:58.677Z</time></trkpt><trkpt lat="48.3685983" lon="-4.1236267"><ele>154.0</ele><time>2026-05-01T07:48:59.681Z</time></trkpt><trkpt lat="48.3684183" lon="-4.1236417"><ele>154.0</ele><time>2026-05-01T07:49:00.676Z</time></trkpt><trkpt lat="48.36824" lon="-4.1236667"><ele>154.0</ele><time>2026-05-01T07:49:01.676Z</time></trkpt><trkpt lat="48.3680633" lon="-4.123705"><ele>154.0</ele><time>2026-05-01T07:49:02.674Z</time></trkpt><trkpt lat="48.3678883" lon="-4.1237483"><ele>156.33333333333334</ele><time>2026-05-01T07:49:03.677Z</time></trkpt><trkpt lat="48.3677083" lon="-4.1237917"><ele>158.66666666666666</ele><time>2026-05-01T07:49:04.672Z</time></trkpt><trkpt lat="48.3675317" lon="-4.1238333"><ele>161.0</ele><time>2026-05-01T07:49:05.676Z</time></trkpt><trkpt lat="48.3673533" lon="-4.1238783"><ele>162.33333333333331</ele><time>2026-05-01T07:49:06.677Z</time></trkpt><trkpt lat="48.3671733" lon="-4.1239217"><ele>163.66666666666666</ele><time>2026-05-01T07:49:07.674Z</time></trkpt><trkpt lat="48.3669883" lon="-4.1239617"><ele>165.0</ele><time>2026-05-01T07:49:08.677Z</time></trkpt><trkpt lat="48.3668083" lon="-4.1240033"><ele>165.0</ele><time>2026-05-01T07:49:09.68Z</time></trkpt><trkpt lat="48.3666267" lon="-4.1240483"><ele>165.0</ele><time>2026-05-01T07:49:10.677Z</time></trkpt><trkpt lat="48.3664467" lon="-4.1240933"><ele>165.0</ele><time>2026-05-01T07:49:11.677Z</time></trkpt><trkpt lat="48.36627" lon="-4.1241467"><ele>165.66666666666666</ele><time>2026-05-01T07:49:12.68Z</time></trkpt><trkpt lat="48.3661017" lon="-4.1242083"><ele>166.33333333333331</ele><time>2026-05-01T07:49:13.675Z</time></trkpt><trkpt lat="48.3659333" lon="-4.1242583"><ele>167.0</ele><time>2026-05-01T07:49:14.676Z</time></trkpt><trkpt lat="48.3657783" lon="-4.1243117"><ele>167.0</ele><time>2026-05-01T07:49:15.674Z</time></trkpt><trkpt lat="48.3656333" lon="-4.1243617"><ele>167.0</ele><time>2026-05-01T07:49:16.674Z</time></trkpt><trkpt lat="48.3654933" lon="-4.1243967"><ele>167.0</ele><time>2026-05-01T07:49:17.677Z</time></trkpt><trkpt lat="48.365365" lon="-4.12443"><ele>167.0</ele><time>2026-05-01T07:49:18.676Z</time></trkpt><trkpt lat="48.3652467" lon="-4.12446"><ele>167.39999999999998</ele><time>2026-05-01T07:49:19.674Z</time></trkpt><trkpt lat="48.365135" lon="-4.124485"><ele>167.79999999999998</ele><time>2026-05-01T07:49:20.679Z</time></trkpt><trkpt lat="48.3650283" lon="-4.1244983"><ele>168.2</ele><time>2026-05-01T07:49:21.674Z</time></trkpt><trkpt lat="48.3649233" lon="-4.12451"><ele>168.6</ele><time>2026-05-01T07:49:22.672Z</time></trkpt><trkpt lat="48.3648267" lon="-4.1245217"><ele>169.0</ele><time>2026-05-01T07:49:23.679Z</time></trkpt><trkpt lat="48.3647333" lon="-4.1245317"><ele>168.6</ele><time>2026-05-01T07:49:24.679Z</time></trkpt><trkpt lat="48.3646433" lon="-4.12454"><ele>168.2</ele><time>2026-05-01T07:49:25.673Z</time></trkpt><trkpt lat="48.3645517" lon="-4.1245517"><ele>167.79999999999998</ele><time>2026-05-01T07:49:26.677Z</time></trkpt><trkpt lat="48.3644617" lon="-4.1245683"><ele>167.39999999999998</ele><time>2026-05-01T07:49:27.674Z</time></trkpt><trkpt lat="48.3643717" lon="-4.12458"><ele>167.0</ele><time>2026-05-01T07:49:28.675Z</time></trkpt><trkpt lat="48.3642817" lon="-4.1245867"><ele>167.0</ele><time>2026-05-01T07:49:29.679Z</time></trkpt><trkpt lat="48.3641917" lon="-4.124595"><ele>167.0</ele><time>2026-05-01T07:49:30.679Z</time></trkpt><trkpt lat="48.3641" lon="-4.1246017"><ele>167.0</ele><time>2026-05-01T07:49:31.676Z</time></trkpt><trkpt lat="48.364005" lon="-4.1246067"><ele>167.0</ele><time>2026-05-01T07:49:32.679Z</time></trkpt><trkpt lat="48.3639083" lon="-4.124615"><ele>167.0</ele><time>2026-05-01T07:49:33.675Z</time></trkpt><trkpt lat="48.36381" lon="-4.124625"><ele>166.2</ele><time>2026-05-01T07:49:34.674Z</time></trkpt><trkpt lat="48.36371" lon="-4.124635"><ele>165.39999999999998</ele><time>2026-05-01T07:49:35.675Z</time></trkpt><trkpt lat="48.36361" lon="-4.124645"><ele>164.60000000000002</ele><time>2026-05-01T07:49:36.677Z</time></trkpt><trkpt lat="48.3635133" lon="-4.12465"><ele>163.8</ele><time>2026-05-01T07:49:37.676Z</time></trkpt><trkpt lat="48.3634167" lon="-4.1246567"><ele>163.0</ele><time>2026-05-01T07:49:38.675Z</time></trkpt><trkpt lat="48.363325" lon="-4.1246583"><ele>163.0</ele><time>2026-05-01T07:49:39.676Z</time></trkpt><trkpt lat="48.3632333" lon="-4.1246533"><ele>163.0</ele><time>2026-05-01T07:49:40.678Z</time></trkpt><trkpt lat="48.3631433" lon="-4.1246383"><ele>163.0</ele><time>2026-05-01T07:49:41.675Z</time></trkpt><trkpt lat="48.3630517" lon="-4.12462"><ele>163.0</ele><time>2026-05-01T07:49:42.677Z</time></trkpt><trkpt lat="48.36296" lon="-4.1246033"><ele>163.0</ele><time>2026-05-01T07:49:43.676Z</time></trkpt><trkpt lat="48.3628683" lon="-4.1245867"><ele>162.16666666666669</ele><time>2026-05-01T07:49:44.681Z</time></trkpt><trkpt lat="48.3627783" lon="-4.124565"><ele>161.33333333333334</ele><time>2026-05-01T07:49:45.671Z</time></trkpt><trkpt lat="48.3626933" lon="-4.124525"><ele>160.5</ele><time>2026-05-01T07:49:46.672Z</time></trkpt><trkpt lat="48.3626117" lon="-4.12447"><ele>159.66666666666666</ele><time>2026-05-01T07:49:47.672Z</time></trkpt><trkpt lat="48.362535" lon="-4.1244"><ele>158.83333333333331</ele><time>2026-05-01T07:49:48.675Z</time></trkpt><trkpt lat="48.3624633" lon="-4.124325"><ele>158.0</ele><time>2026-05-01T07:49:49.674Z</time></trkpt><trkpt lat="48.362395" lon="-4.1242483"><ele>158.0</ele><time>2026-05-01T07:49:50.674Z</time></trkpt><trkpt lat="48.3623317" lon="-4.1241667"><ele>158.0</ele><time>2026-05-01T07:49:51.674Z</time></trkpt><trkpt lat="48.3622733" lon="-4.12408"><ele>158.0</ele><time>2026-05-01T07:49:52.671Z</time></trkpt><trkpt lat="48.36222" lon="-4.1239817"><ele>158.0</ele><time>2026-05-01T07:49:53.675Z</time></trkpt><trkpt lat="48.36217" lon="-4.1238733"><ele>158.0</ele><time>2026-05-01T07:49:54.676Z</time></trkpt><trkpt lat="48.3621217" lon="-4.1237567"><ele>158.0</ele><time>2026-05-01T07:49:55.674Z</time></trkpt><trkpt lat="48.3620783" lon="-4.1236367"><ele>157.71428571428572</ele><time>2026-05-01T07:49:56.676Z</time></trkpt><trkpt lat="48.3620333" lon="-4.1235267"><ele>157.42857142857144</ele><time>2026-05-01T07:49:57.674Z</time></trkpt><trkpt lat="48.3619917" lon="-4.1234267"><ele>157.14285714285717</ele><time>2026-05-01T07:49:58.673Z</time></trkpt><trkpt lat="48.3619517" lon="-4.12333"><ele>156.85714285714286</ele><time>2026-05-01T07:49:59.675Z</time></trkpt><trkpt lat="48.3619133" lon="-4.1232383"><ele>156.57142857142856</ele><time>2026-05-01T07:50:00.683Z</time></trkpt><trkpt lat="48.3618783" lon="-4.12315"><ele>156.2857142857143</ele><time>2026-05-01T07:50:01.675Z</time></trkpt><trkpt lat="48.3618517" lon="-4.1230567"><ele>156.0</ele><time>2026-05-01T07:50:02.676Z</time></trkpt><trkpt lat="48.361825" lon="-4.12297"><ele>156.0</ele><time>2026-05-01T07:50:03.669Z</time></trkpt><trkpt lat="48.3617767" lon="-4.1228133"><ele>156.0</ele><time>2026-05-01T07:50:05.673Z</time></trkpt><trkpt lat="48.36173" lon="-4.1226817"><ele>156.0</ele><time>2026-05-01T07:50:07.675Z</time></trkpt><trkpt lat="48.3616933" lon="-4.122595"><ele>156.0</ele><time>2026-05-01T07:50:09.674Z</time></trkpt><trkpt lat="48.36166" lon="-4.1224783"><ele>156.0</ele><time>2026-05-01T07:50:12.676Z</time></trkpt><trkpt lat="48.3615967" lon="-4.12241"><ele>156.0</ele><time>2026-05-01T07:50:15.674Z</time></trkpt><trkpt lat="48.3615183" lon="-4.1223217"><ele>156.0</ele><time>2026-05-01T07:52:16.674Z</time></trkpt><trkpt lat="48.3614483" lon="-4.1223417"><ele>156.0</ele><time>2026-05-01T07:52:21.676Z</time></trkpt><trkpt lat="48.3614367" lon="-4.1224517"><ele>156.0</ele><time>2026-05-01T07:52:25.674Z</time></trkpt><trkpt lat="48.3614333" lon="-4.1225517"><ele>156.0</ele><time>2026-05-01T07:52:28.673Z</time></trkpt><trkpt lat="48.3614333" lon="-4.1226783"><ele>156.0</ele><time>2026-05-01T07:52:31.674Z</time></trkpt><trkpt lat="48.3613767" lon="-4.1227483"><ele>156.0</ele><time>2026-05-01T07:52:33.675Z</time></trkpt><trkpt lat="48.3613033" lon="-4.1228083"><ele>155.16666666666666</ele><time>2026-05-01T07:52:35.675Z</time></trkpt><trkpt lat="48.3611983" lon="-4.12284"><ele>154.33333333333334</ele><time>2026-05-01T07:52:37.676Z</time></trkpt><trkpt lat="48.3610917" lon="-4.1228133"><ele>153.5</ele><time>2026-05-01T07:52:39.678Z</time></trkpt><trkpt lat="48.361025" lon="-4.1227933"><ele>152.66666666666669</ele><time>2026-05-01T07:52:40.676Z</time></trkpt><trkpt lat="48.3609517" lon="-4.1227667"><ele>151.83333333333334</ele><time>2026-05-01T07:52:41.675Z</time></trkpt><trkpt lat="48.360875" lon="-4.122725"><ele>151.0</ele><time>2026-05-01T07:52:42.676Z</time></trkpt><trkpt lat="48.360795" lon="-4.1226683"><ele>151.0</ele><time>2026-05-01T07:52:43.673Z</time></trkpt><trkpt lat="48.3607217" lon="-4.1226017"><ele>151.0</ele><time>2026-05-01T07:52:44.68Z</time></trkpt><trkpt lat="48.3606583" lon="-4.1225317"><ele>151.0</ele><time>2026-05-01T07:52:45.673Z</time></trkpt><trkpt lat="48.3606017" lon="-4.12245"><ele>151.0</ele><time>2026-05-01T07:52:46.674Z</time></trkpt><trkpt lat="48.3605517" lon="-4.1223517"><ele>151.0</ele><time>2026-05-01T07:52:47.677Z</time></trkpt><trkpt lat="48.360515" lon="-4.1222367"><ele>151.0</ele><time>2026-05-01T07:52:48.678Z</time></trkpt><trkpt lat="48.3604917" lon="-4.12211"><ele>149.8</ele><time>2026-05-01T07:52:49.674Z</time></trkpt><trkpt lat="48.3604833" lon="-4.121975"><ele>148.6</ele><time>2026-05-01T07:52:50.675Z</time></trkpt><trkpt lat="48.3604733" lon="-4.1218367"><ele>147.4</ele><time>2026-05-01T07:52:51.677Z</time></trkpt><trkpt lat="48.3604767" lon="-4.1216817"><ele>146.2</ele><time>2026-05-01T07:52:52.672Z</time></trkpt><trkpt lat="48.3604967" lon="-4.12152"><ele>145.0</ele><time>2026-05-01T07:52:53.675Z</time></trkpt><trkpt lat="48.36052" lon="-4.1213583"><ele>147.2</ele><time>2026-05-01T07:52:54.681Z</time></trkpt><trkpt lat="48.3605467" lon="-4.1211967"><ele>149.4</ele><time>2026-05-01T07:52:55.675Z</time></trkpt><trkpt lat="48.360575" lon="-4.12104"><ele>151.6</ele><time>2026-05-01T07:52:56.683Z</time></trkpt><trkpt lat="48.3606017" lon="-4.12088"><ele>153.8</ele><time>2026-05-01T07:52:57.68Z</time></trkpt><trkpt lat="48.3606233" lon="-4.1207217"><ele>156.0</ele><time>2026-05-01T07:52:58.676Z</time></trkpt><trkpt lat="48.360635" lon="-4.1205667"><ele>156.4</ele><time>2026-05-01T07:52:59.677Z</time></trkpt><trkpt lat="48.3606383" lon="-4.1204117"><ele>156.8</ele><time>2026-05-01T07:53:00.677Z</time></trkpt><trkpt lat="48.36063" lon="-4.1202617"><ele>157.20000000000002</ele><time>2026-05-01T07:53:01.682Z</time></trkpt><trkpt lat="48.360615" lon="-4.1201133"><ele>157.6</ele><time>2026-05-01T07:53:02.672Z</time></trkpt><trkpt lat="48.360595" lon="-4.1199617"><ele>158.0</ele><time>2026-05-01T07:53:03.678Z</time></trkpt><trkpt lat="48.36057" lon="-4.119815"><ele>158.0</ele><time>2026-05-01T07:53:04.673Z</time></trkpt><trkpt lat="48.36055" lon="-4.1196717"><ele>158.0</ele><time>2026-05-01T07:53:05.675Z</time></trkpt><trkpt lat="48.360525" lon="-4.1195367"><ele>158.0</ele><time>2026-05-01T07:53:06.678Z</time></trkpt><trkpt lat="48.3604967" lon="-4.1194183"><ele>158.0</ele><time>2026-05-01T07:53:07.676Z</time></trkpt><trkpt lat="48.360465" lon="-4.1193067"><ele>158.0</ele><time>2026-05-01T07:53:08.674Z</time></trkpt><trkpt lat="48.3604233" lon="-4.1192117"><ele>158.0</ele><time>2026-05-01T07:53:09.677Z</time></trkpt><trkpt lat="48.3603783" lon="-4.1191267"><ele>157.0</ele><time>2026-05-01T07:53:10.674Z</time></trkpt><trkpt lat="48.3603317" lon="-4.119045"><ele>156.0</ele><time>2026-05-01T07:53:11.674Z</time></trkpt><trkpt lat="48.3602767" lon="-4.1189633"><ele>155.0</ele><time>2026-05-01T07:53:12.678Z</time></trkpt><trkpt lat="48.36022" lon="-4.11887"><ele>154.0</ele><time>2026-05-01T07:53:13.679Z</time></trkpt><trkpt lat="48.3601717" lon="-4.1187583"><ele>153.0</ele><time>2026-05-01T07:53:14.674Z</time></trkpt><trkpt lat="48.3601233" lon="-4.11863"><ele>152.0</ele><time>2026-05-01T07:53:15.673Z</time></trkpt><trkpt lat="48.3600783" lon="-4.1184867"><ele>152.0</ele><time>2026-05-01T07:53:16.673Z</time></trkpt><trkpt lat="48.360035" lon="-4.1183317"><ele>152.0</ele><time>2026-05-01T07:53:17.674Z</time></trkpt><trkpt lat="48.35999" lon="-4.11818"><ele>152.0</ele><time>2026-05-01T07:53:18.679Z</time></trkpt><trkpt lat="48.3599433" lon="-4.1180217"><ele>152.0</ele><time>2026-05-01T07:53:19.678Z</time></trkpt><trkpt lat="48.3598967" lon="-4.1178567"><ele>151.75</ele><time>2026-05-01T07:53:20.686Z</time></trkpt><trkpt lat="48.3598467" lon="-4.1176833"><ele>151.5</ele><time>2026-05-01T07:53:21.674Z</time></trkpt><trkpt lat="48.3597967" lon="-4.1174983"><ele>151.25</ele><time>2026-05-01T07:53:22.674Z</time></trkpt><trkpt lat="48.359745" lon="-4.11731"><ele>151.0</ele><time>2026-05-01T07:53:23.68Z</time></trkpt><trkpt lat="48.35969" lon="-4.1171133"><ele>148.0</ele><time>2026-05-01T07:53:24.68Z</time></trkpt><trkpt lat="48.3596333" lon="-4.1169083"><ele>145.0</ele><time>2026-05-01T07:53:25.683Z</time></trkpt><trkpt lat="48.3595767" lon="-4.1167033"><ele>142.0</ele><time>2026-05-01T07:53:26.674Z</time></trkpt><trkpt lat="48.3595183" lon="-4.1164933"><ele>139.0</ele><time>2026-05-01T07:53:27.677Z</time></trkpt><trkpt lat="48.3594633" lon="-4.116275"><ele>139.0</ele><time>2026-05-01T07:53:28.675Z</time></trkpt><trkpt lat="48.359405" lon="-4.116055"><ele>139.0</ele><time>2026-05-01T07:53:29.674Z</time></trkpt><trkpt lat="48.3593467" lon="-4.11584"><ele>139.0</ele><time>2026-05-01T07:53:30.689Z</time></trkpt><trkpt lat="48.3592917" lon="-4.11563"><ele>139.0</ele><time>2026-05-01T07:53:31.674Z</time></trkpt><trkpt lat="48.3592383" lon="-4.11543"><ele>139.0</ele><time>2026-05-01T07:53:32.685Z</time></trkpt><trkpt lat="48.3591883" lon="-4.1152417"><ele>139.0</ele><time>2026-05-01T07:53:33.676Z</time></trkpt><trkpt lat="48.3591367" lon="-4.1150617"><ele>139.0</ele><time>2026-05-01T07:53:34.673Z</time></trkpt><trkpt lat="48.3590883" lon="-4.1148833"><ele>139.25</ele><time>2026-05-01T07:53:35.682Z</time></trkpt><trkpt lat="48.35904" lon="-4.1147017"><ele>139.5</ele><time>2026-05-01T07:53:36.672Z</time></trkpt><trkpt lat="48.3589917" lon="-4.11452"><ele>139.75</ele><time>2026-05-01T07:53:37.673Z</time></trkpt><trkpt lat="48.3589417" lon="-4.1143433"><ele>140.0</ele><time>2026-05-01T07:53:38.672Z</time></trkpt><trkpt lat="48.3588933" lon="-4.114175"><ele>138.25</ele><time>2026-05-01T07:53:39.676Z</time></trkpt><trkpt lat="48.35884" lon="-4.1140133"><ele>136.5</ele><time>2026-05-01T07:53:40.675Z</time></trkpt><trkpt lat="48.3587783" lon="-4.1138633"><ele>134.75</ele><time>2026-05-01T07:53:41.678Z</time></trkpt><trkpt lat="48.3587083" lon="-4.11372"><ele>133.0</ele><time>2026-05-01T07:53:42.673Z</time></trkpt><trkpt lat="48.3586267" lon="-4.1135883"><ele>133.0</ele><time>2026-05-01T07:53:43.675Z</time></trkpt><trkpt lat="48.3585417" lon="-4.1134717"><ele>133.0</ele><time>2026-05-01T07:53:44.678Z</time></trkpt><trkpt lat="48.358455" lon="-4.1133683"><ele>133.0</ele><time>2026-05-01T07:53:45.675Z</time></trkpt><trkpt lat="48.3583717" lon="-4.1132967"><ele>133.0</ele><time>2026-05-01T07:53:46.68Z</time></trkpt><trkpt lat="48.3583" lon="-4.1132583"><ele>133.0</ele><time>2026-05-01T07:53:47.676Z</time></trkpt><trkpt lat="48.3582267" lon="-4.113255"><ele>133.0</ele><time>2026-05-01T07:53:48.678Z</time></trkpt><trkpt lat="48.358155" lon="-4.113295"><ele>133.0</ele><time>2026-05-01T07:53:50.676Z</time></trkpt><trkpt lat="48.3580967" lon="-4.1133583"><ele>133.0</ele><time>2026-05-01T07:53:59.675Z</time></trkpt><trkpt lat="48.3580533" lon="-4.1134767"><ele>133.0</ele><time>2026-05-01T07:54:01.675Z</time></trkpt><trkpt lat="48.358045" lon="-4.1136017"><ele>133.0</ele><time>2026-05-01T07:54:02.68Z</time></trkpt><trkpt lat="48.358055" lon="-4.1137467"><ele>133.0</ele><time>2026-05-01T07:54:03.678Z</time></trkpt><trkpt lat="48.3580667" lon="-4.11391"><ele>132.75</ele><time>2026-05-01T07:54:04.674Z</time></trkpt><trkpt lat="48.358085" lon="-4.1141017"><ele>132.5</ele><time>2026-05-01T07:54:05.673Z</time></trkpt><trkpt lat="48.3581017" lon="-4.1142917"><ele>132.25</ele><time>2026-05-01T07:54:06.678Z</time></trkpt><trkpt lat="48.3581183" lon="-4.1144883"><ele>132.0</ele><time>2026-05-01T07:54:07.676Z</time></trkpt><trkpt lat="48.3581367" lon="-4.1146933"><ele>131.0</ele><time>2026-05-01T07:54:08.674Z</time></trkpt><trkpt lat="48.358155" lon="-4.114905"><ele>130.0</ele><time>2026-05-01T07:54:09.677Z</time></trkpt><trkpt lat="48.35817" lon="-4.115125"><ele>129.0</ele><time>2026-05-01T07:54:10.678Z</time></trkpt><trkpt lat="48.3581833" lon="-4.115355"><ele>128.0</ele><time>2026-05-01T07:54:11.676Z</time></trkpt><trkpt lat="48.3581917" lon="-4.1156"><ele>127.33333333333333</ele><time>2026-05-01T07:54:12.676Z</time></trkpt><trkpt lat="48.3581883" lon="-4.1158533"><ele>126.66666666666666</ele><time>2026-05-01T07:54:13.674Z</time></trkpt><trkpt lat="48.3581683" lon="-4.1161117"><ele>126.0</ele><time>2026-05-01T07:54:14.677Z</time></trkpt><trkpt lat="48.3581333" lon="-4.116375"><ele>125.33333333333334</ele><time>2026-05-01T07:54:15.673Z</time></trkpt><trkpt lat="48.3580867" lon="-4.1166433"><ele>124.66666666666667</ele><time>2026-05-01T07:54:16.673Z</time></trkpt><trkpt lat="48.3580233" lon="-4.11691"><ele>124.0</ele><time>2026-05-01T07:54:17.671Z</time></trkpt><trkpt lat="48.3579367" lon="-4.1171667"><ele>120.66666666666667</ele><time>2026-05-01T07:54:18.677Z</time></trkpt><trkpt lat="48.3578317" lon="-4.117415"><ele>117.33333333333334</ele><time>2026-05-01T07:54:19.674Z</time></trkpt><trkpt lat="48.3577083" lon="-4.117645"><ele>114.0</ele><time>2026-05-01T07:54:20.682Z</time></trkpt><trkpt lat="48.3575733" lon="-4.117865"><ele>114.0</ele><time>2026-05-01T07:54:21.677Z</time></trkpt><trkpt lat="48.3574267" lon="-4.118075"><ele>114.0</ele><time>2026-05-01T07:54:22.677Z</time></trkpt><trkpt lat="48.35728" lon="-4.118275"><ele>114.0</ele><time>2026-05-01T07:54:23.674Z</time></trkpt><trkpt lat="48.3571233" lon="-4.1184533"><ele>114.66666666666666</ele><time>2026-05-01T07:54:24.675Z</time></trkpt><trkpt lat="48.35696" lon="-4.1186133"><ele>115.33333333333333</ele><time>2026-05-01T07:54:25.679Z</time></trkpt><trkpt lat="48.3567967" lon="-4.1187683"><ele>116.0</ele><time>2026-05-01T07:54:26.672Z</time></trkpt><trkpt lat="48.356645" lon="-4.1189333"><ele>116.0</ele><time>2026-05-01T07:54:27.676Z</time></trkpt><trkpt lat="48.3564883" lon="-4.11908"><ele>116.0</ele><time>2026-05-01T07:54:28.674Z</time></trkpt><trkpt lat="48.3563333" lon="-4.1192217"><ele>116.0</ele><time>2026-05-01T07:54:29.674Z</time></trkpt><trkpt lat="48.3561783" lon="-4.1193567"><ele>118.33333333333333</ele><time>2026-05-01T07:54:30.674Z</time></trkpt><trkpt lat="48.356025" lon="-4.1194917"><ele>120.66666666666666</ele><time>2026-05-01T07:54:31.676Z</time></trkpt><trkpt lat="48.3558717" lon="-4.1196267"><ele>123.0</ele><time>2026-05-01T07:54:32.677Z</time></trkpt><trkpt lat="48.3557183" lon="-4.119765"><ele>121.33333333333334</ele><time>2026-05-01T07:54:33.673Z</time></trkpt><trkpt lat="48.3555683" lon="-4.1199067"><ele>119.66666666666667</ele><time>2026-05-01T07:54:34.675Z</time></trkpt><trkpt lat="48.3554167" lon="-4.120045"><ele>118.0</ele><time>2026-05-01T07:54:35.676Z</time></trkpt><trkpt lat="48.35526" lon="-4.1201767"><ele>121.33333333333334</ele><time>2026-05-01T07:54:36.682Z</time></trkpt><trkpt lat="48.355105" lon="-4.1203033"><ele>124.66666666666666</ele><time>2026-05-01T07:54:37.678Z</time></trkpt><trkpt lat="48.3549483" lon="-4.1204233"><ele>128.0</ele><time>2026-05-01T07:54:38.674Z</time></trkpt><trkpt lat="48.3547883" lon="-4.1205383"><ele>128.33333333333331</ele><time>2026-05-01T07:54:39.676Z</time></trkpt><trkpt lat="48.3546183" lon="-4.120665"><ele>128.66666666666666</ele><time>2026-05-01T07:54:40.675Z</time></trkpt><trkpt lat="48.35444" lon="-4.1208"><ele>129.0</ele><time>2026-05-01T07:54:41.674Z</time></trkpt><trkpt lat="48.3542583" lon="-4.1209383"><ele>129.0</ele><time>2026-05-01T07:54:42.682Z</time></trkpt><trkpt lat="48.3540767" lon="-4.1210817"><ele>129.0</ele><time>2026-05-01T07:54:43.674Z</time></trkpt><trkpt lat="48.3538983" lon="-4.1212317"><ele>129.0</ele><time>2026-05-01T07:54:44.677Z</time></trkpt><trkpt lat="48.3537233" lon="-4.1214017"><ele>129.33333333333334</ele><time>2026-05-01T07:54:45.672Z</time></trkpt><trkpt lat="48.3535583" lon="-4.1215867"><ele>129.66666666666669</ele><time>2026-05-01T07:54:46.676Z</time></trkpt><trkpt lat="48.3533917" lon="-4.12177"><ele>130.0</ele><time>2026-05-01T07:54:47.675Z</time></trkpt><trkpt lat="48.353225" lon="-4.1219467"><ele>130.0</ele><time>2026-05-01T07:54:48.674Z</time></trkpt><trkpt lat="48.35306" lon="-4.1221233"><ele>130.0</ele><time>2026-05-01T07:54:49.678Z</time></trkpt><trkpt lat="48.352895" lon="-4.1222983"><ele>130.0</ele><time>2026-05-01T07:54:50.673Z</time></trkpt><trkpt lat="48.3527367" lon="-4.122475"><ele>130.33333333333334</ele><time>2026-05-01T07:54:51.673Z</time></trkpt><trkpt lat="48.352585" lon="-4.12265"><ele>130.66666666666666</ele><time>2026-05-01T07:54:52.672Z</time></trkpt><trkpt lat="48.35244" lon="-4.12282"><ele>131.0</ele><time>2026-05-01T07:54:53.674Z</time></trkpt><trkpt lat="48.3522983" lon="-4.1229867"><ele>131.0</ele><time>2026-05-01T07:54:54.677Z</time></trkpt><trkpt lat="48.3521617" lon="-4.12315"><ele>131.0</ele><time>2026-05-01T07:54:55.675Z</time></trkpt><trkpt lat="48.3520233" lon="-4.12332"><ele>131.0</ele><time>2026-05-01T07:54:56.677Z</time></trkpt><trkpt lat="48.3518783" lon="-4.12349"><ele>131.0</ele><time>2026-05-01T07:54:57.679Z</time></trkpt><trkpt lat="48.35173" lon="-4.1236633"><ele>131.0</ele><time>2026-05-01T07:54:58.674Z</time></trkpt><trkpt lat="48.3515783" lon="-4.1238317"><ele>131.0</ele><time>2026-05-01T07:54:59.681Z</time></trkpt><trkpt lat="48.3514217" lon="-4.124"><ele>131.33333333333331</ele><time>2026-05-01T07:55:00.679Z</time></trkpt><trkpt lat="48.3512683" lon="-4.1241683"><ele>131.66666666666666</ele><time>2026-05-01T07:55:01.677Z</time></trkpt><trkpt lat="48.3511117" lon="-4.1243417"><ele>132.0</ele><time>2026-05-01T07:55:02.675Z</time></trkpt><trkpt lat="48.350955" lon="-4.1245167"><ele>132.0</ele><time>2026-05-01T07:55:03.675Z</time></trkpt><trkpt lat="48.3507983" lon="-4.1246967"><ele>132.0</ele><time>2026-05-01T07:55:04.673Z</time></trkpt><trkpt lat="48.3506483" lon="-4.124895"><ele>132.0</ele><time>2026-05-01T07:55:05.675Z</time></trkpt><trkpt lat="48.3505083" lon="-4.12511"><ele>131.0</ele><time>2026-05-01T07:55:06.677Z</time></trkpt><trkpt lat="48.3503633" lon="-4.1253233"><ele>130.0</ele><time>2026-05-01T07:55:07.673Z</time></trkpt><trkpt lat="48.3502167" lon="-4.1255333"><ele>129.0</ele><time>2026-05-01T07:55:08.674Z</time></trkpt><trkpt lat="48.35007" lon="-4.1257417"><ele>128.66666666666666</ele><time>2026-05-01T07:55:09.676Z</time></trkpt><trkpt lat="48.349925" lon="-4.1259483"><ele>128.33333333333331</ele><time>2026-05-01T07:55:10.673Z</time></trkpt><trkpt lat="48.3497767" lon="-4.126145"><ele>128.0</ele><time>2026-05-01T07:55:11.678Z</time></trkpt><trkpt lat="48.34963" lon="-4.126345"><ele>127.66666666666666</ele><time>2026-05-01T07:55:12.678Z</time></trkpt><trkpt lat="48.349485" lon="-4.126545"><ele>127.33333333333334</ele><time>2026-05-01T07:55:13.673Z</time></trkpt><trkpt lat="48.3493367" lon="-4.1267433"><ele>127.0</ele><time>2026-05-01T07:55:14.673Z</time></trkpt><trkpt lat="48.34918" lon="-4.1269283"><ele>126.66666666666667</ele><time>2026-05-01T07:55:15.675Z</time></trkpt><trkpt lat="48.349015" lon="-4.127095"><ele>126.33333333333334</ele><time>2026-05-01T07:55:16.673Z</time></trkpt><trkpt lat="48.3488467" lon="-4.1272517"><ele>126.0</ele><time>2026-05-01T07:55:17.673Z</time></trkpt><trkpt lat="48.3486733" lon="-4.1273967"><ele>124.33333333333334</ele><time>2026-05-01T07:55:18.674Z</time></trkpt><trkpt lat="48.348495" lon="-4.1275383"><ele>122.66666666666667</ele><time>2026-05-01T07:55:19.675Z</time></trkpt><trkpt lat="48.348315" lon="-4.1276817"><ele>121.0</ele><time>2026-05-01T07:55:20.677Z</time></trkpt><trkpt lat="48.3481317" lon="-4.1278217"><ele>120.0</ele><time>2026-05-01T07:55:21.675Z</time></trkpt><trkpt lat="48.3479517" lon="-4.1279617"><ele>119.0</ele><time>2026-05-01T07:55:22.676Z</time></trkpt><trkpt lat="48.3477717" lon="-4.1281017"><ele>118.0</ele><time>2026-05-01T07:55:23.673Z</time></trkpt><trkpt lat="48.3475933" lon="-4.1282417"><ele>118.0</ele><time>2026-05-01T07:55:24.675Z</time></trkpt><trkpt lat="48.3474133" lon="-4.128375"><ele>118.0</ele><time>2026-05-01T07:55:25.681Z</time></trkpt><trkpt lat="48.3472367" lon="-4.1285133"><ele>118.0</ele><time>2026-05-01T07:55:26.679Z</time></trkpt><trkpt lat="48.3470617" lon="-4.1286517"><ele>117.33333333333334</ele><time>2026-05-01T07:55:27.674Z</time></trkpt><trkpt lat="48.3468817" lon="-4.1287867"><ele>116.66666666666666</ele><time>2026-05-01T07:55:28.675Z</time></trkpt><trkpt lat="48.3467017" lon="-4.1289217"><ele>116.0</ele><time>2026-05-01T07:55:29.677Z</time></trkpt><trkpt lat="48.3465267" lon="-4.1290583"><ele>115.0</ele><time>2026-05-01T07:55:30.675Z</time></trkpt><trkpt lat="48.34635" lon="-4.1291933"><ele>114.0</ele><time>2026-05-01T07:55:31.682Z</time></trkpt><trkpt lat="48.34618" lon="-4.1293333"><ele>113.0</ele><time>2026-05-01T07:55:32.675Z</time></trkpt><trkpt lat="48.3460083" lon="-4.1294717"><ele>113.0</ele><time>2026-05-01T07:55:33.677Z</time></trkpt><trkpt lat="48.3458367" lon="-4.12961"><ele>113.0</ele><time>2026-05-01T07:55:34.678Z</time></trkpt><trkpt lat="48.3456633" lon="-4.1297433"><ele>113.0</ele><time>2026-05-01T07:55:35.68Z</time></trkpt><trkpt lat="48.3454933" lon="-4.1298783"><ele>113.66666666666666</ele><time>2026-05-01T07:55:36.673Z</time></trkpt><trkpt lat="48.345325" lon="-4.1300283"><ele>114.33333333333334</ele><time>2026-05-01T07:55:37.676Z</time></trkpt><trkpt lat="48.3451683" lon="-4.130195"><ele>115.0</ele><time>2026-05-01T07:55:38.677Z</time></trkpt><trkpt lat="48.345015" lon="-4.1303833"><ele>115.0</ele><time>2026-05-01T07:55:39.676Z</time></trkpt><trkpt lat="48.3448633" lon="-4.1305767"><ele>115.0</ele><time>2026-05-01T07:55:40.673Z</time></trkpt><trkpt lat="48.3447083" lon="-4.1307667"><ele>115.0</ele><time>2026-05-01T07:55:41.675Z</time></trkpt><trkpt lat="48.3445567" lon="-4.1309583"><ele>114.0</ele><time>2026-05-01T07:55:42.678Z</time></trkpt><trkpt lat="48.344405" lon="-4.1311517"><ele>113.0</ele><time>2026-05-01T07:55:43.677Z</time></trkpt><trkpt lat="48.3442533" lon="-4.1313367"><ele>112.0</ele><time>2026-05-01T07:55:44.681Z</time></trkpt><trkpt lat="48.344095" lon="-4.1315133"><ele>111.66666666666667</ele><time>2026-05-01T07:55:45.68Z</time></trkpt><trkpt lat="48.3439317" lon="-4.1316767"><ele>111.33333333333334</ele><time>2026-05-01T07:55:46.675Z</time></trkpt><trkpt lat="48.3437633" lon="-4.1318267"><ele>111.0</ele><time>2026-05-01T07:55:47.675Z</time></trkpt><trkpt lat="48.34359" lon="-4.13196"><ele>109.66666666666666</ele><time>2026-05-01T07:55:48.676Z</time></trkpt><trkpt lat="48.3434117" lon="-4.1320817"><ele>108.33333333333333</ele><time>2026-05-01T07:55:49.676Z</time></trkpt><trkpt lat="48.34323" lon="-4.1321967"><ele>107.0</ele><time>2026-05-01T07:55:50.678Z</time></trkpt><trkpt lat="48.3430483" lon="-4.1323117"><ele>106.0</ele><time>2026-05-01T07:55:51.673Z</time></trkpt><trkpt lat="48.3428783" lon="-4.1324367"><ele>105.0</ele><time>2026-05-01T07:55:52.674Z</time></trkpt><trkpt lat="48.3427167" lon="-4.13257"><ele>104.0</ele><time>2026-05-01T07:55:53.68Z</time></trkpt><trkpt lat="48.3425633" lon="-4.1326983"><ele>104.0</ele><time>2026-05-01T07:55:54.675Z</time></trkpt><trkpt lat="48.3424133" lon="-4.1328117"><ele>104.0</ele><time>2026-05-01T07:55:55.683Z</time></trkpt><trkpt lat="48.342265" lon="-4.13292"><ele>104.0</ele><time>2026-05-01T07:55:56.675Z</time></trkpt><trkpt lat="48.342125" lon="-4.1330183"><ele>104.0</ele><time>2026-05-01T07:55:57.679Z</time></trkpt><trkpt lat="48.3419883" lon="-4.1331133"><ele>104.0</ele><time>2026-05-01T07:55:58.675Z</time></trkpt><trkpt lat="48.3418567" lon="-4.1332083"><ele>104.0</ele><time>2026-05-01T07:55:59.675Z</time></trkpt><trkpt lat="48.341735" lon="-4.133305"><ele>104.0</ele><time>2026-05-01T07:56:00.68Z</time></trkpt><trkpt lat="48.3416183" lon="-4.133395"><ele>102.75</ele><time>2026-05-01T07:56:01.681Z</time></trkpt><trkpt lat="48.3415" lon="-4.1334783"><ele>101.5</ele><time>2026-05-01T07:56:02.678Z</time></trkpt><trkpt lat="48.34139" lon="-4.1335617"><ele>100.25</ele><time>2026-05-01T07:56:03.679Z</time></trkpt><trkpt lat="48.34128" lon="-4.13364"><ele>99.0</ele><time>2026-05-01T07:56:04.673Z</time></trkpt><trkpt lat="48.341175" lon="-4.13371"><ele>97.80000000000001</ele><time>2026-05-01T07:56:05.678Z</time></trkpt><trkpt lat="48.3410767" lon="-4.13379"><ele>96.60000000000001</ele><time>2026-05-01T07:56:06.682Z</time></trkpt><trkpt lat="48.34098" lon="-4.1338717"><ele>95.4</ele><time>2026-05-01T07:56:07.674Z</time></trkpt><trkpt lat="48.3408917" lon="-4.1339583"><ele>94.2</ele><time>2026-05-01T07:56:08.675Z</time></trkpt><trkpt lat="48.3408067" lon="-4.1340533"><ele>93.0</ele><time>2026-05-01T07:56:09.676Z</time></trkpt><trkpt lat="48.3407283" lon="-4.13416"><ele>92.60000000000001</ele><time>2026-05-01T07:56:10.675Z</time></trkpt><trkpt lat="48.34066" lon="-4.134275"><ele>92.2</ele><time>2026-05-01T07:56:11.673Z</time></trkpt><trkpt lat="48.3406033" lon="-4.1344017"><ele>91.8</ele><time>2026-05-01T07:56:12.676Z</time></trkpt><trkpt lat="48.340565" lon="-4.1345383"><ele>91.4</ele><time>2026-05-01T07:56:13.674Z</time></trkpt><trkpt lat="48.3405467" lon="-4.134685"><ele>91.0</ele><time>2026-05-01T07:56:14.678Z</time></trkpt><trkpt lat="48.3405583" lon="-4.1348383"><ele>90.6</ele><time>2026-05-01T07:56:15.679Z</time></trkpt><trkpt lat="48.3406017" lon="-4.1349833"><ele>90.19999999999999</ele><time>2026-05-01T07:56:16.675Z</time></trkpt><trkpt lat="48.340665" lon="-4.1351167"><ele>89.80000000000001</ele><time>2026-05-01T07:56:17.676Z</time></trkpt><trkpt lat="48.3407317" lon="-4.1352483"><ele>89.4</ele><time>2026-05-01T07:56:18.681Z</time></trkpt><trkpt lat="48.34079" lon="-4.1353933"><ele>89.0</ele><time>2026-05-01T07:56:19.684Z</time></trkpt><trkpt lat="48.34083" lon="-4.135555"><ele>88.75</ele><time>2026-05-01T07:56:20.673Z</time></trkpt><trkpt lat="48.3408417" lon="-4.135725"><ele>88.5</ele><time>2026-05-01T07:56:21.675Z</time></trkpt><trkpt lat="48.3408133" lon="-4.1358917"><ele>88.25</ele><time>2026-05-01T07:56:22.674Z</time></trkpt><trkpt lat="48.3407667" lon="-4.1360567"><ele>88.0</ele><time>2026-05-01T07:56:23.674Z</time></trkpt><trkpt lat="48.340705" lon="-4.1362283"><ele>88.0</ele><time>2026-05-01T07:56:24.674Z</time></trkpt><trkpt lat="48.340635" lon="-4.1364133"><ele>88.0</ele><time>2026-05-01T07:56:25.679Z</time></trkpt><trkpt lat="48.3405633" lon="-4.1366083"><ele>88.0</ele><time>2026-05-01T07:56:26.676Z</time></trkpt><trkpt lat="48.340485" lon="-4.1368033"><ele>88.0</ele><time>2026-05-01T07:56:27.68Z</time></trkpt><trkpt lat="48.340405" lon="-4.1370067"><ele>85.33333333333333</ele><time>2026-05-01T07:56:28.675Z</time></trkpt><trkpt lat="48.3403217" lon="-4.1372083"><ele>82.66666666666667</ele><time>2026-05-01T07:56:29.676Z</time></trkpt><trkpt lat="48.3402383" lon="-4.1374133"><ele>80.0</ele><time>2026-05-01T07:56:30.675Z</time></trkpt><trkpt lat="48.3401567" lon="-4.1376167"><ele>80.0</ele><time>2026-05-01T07:56:31.678Z</time></trkpt><trkpt lat="48.3400767" lon="-4.137825"><ele>80.0</ele><time>2026-05-01T07:56:32.678Z</time></trkpt><trkpt lat="48.3399983" lon="-4.1380283"><ele>80.0</ele><time>2026-05-01T07:56:33.676Z</time></trkpt><trkpt lat="48.3399183" lon="-4.138225"><ele>80.0</ele><time>2026-05-01T07:56:34.674Z</time></trkpt><trkpt lat="48.339845" lon="-4.138415"><ele>80.0</ele><time>2026-05-01T07:56:35.681Z</time></trkpt><trkpt lat="48.3397683" lon="-4.1385883"><ele>80.0</ele><time>2026-05-01T07:56:36.68Z</time></trkpt><trkpt lat="48.3397017" lon="-4.1387533"><ele>80.0</ele><time>2026-05-01T07:56:37.682Z</time></trkpt><trkpt lat="48.3396233" lon="-4.1388917"><ele>79.75</ele><time>2026-05-01T07:56:38.677Z</time></trkpt><trkpt lat="48.3395367" lon="-4.139005"><ele>79.5</ele><time>2026-05-01T07:56:39.673Z</time></trkpt><trkpt lat="48.3394433" lon="-4.13911"><ele>79.25</ele><time>2026-05-01T07:56:40.673Z</time></trkpt><trkpt lat="48.3393433" lon="-4.1392"><ele>79.0</ele><time>2026-05-01T07:56:41.676Z</time></trkpt><trkpt lat="48.33923" lon="-4.1392683"><ele>79.0</ele><time>2026-05-01T07:56:42.672Z</time></trkpt><trkpt lat="48.3391017" lon="-4.139315"><ele>79.0</ele><time>2026-05-01T07:56:43.673Z</time></trkpt><trkpt lat="48.3389683" lon="-4.1393633"><ele>79.0</ele><time>2026-05-01T07:56:44.68Z</time></trkpt><trkpt lat="48.3388267" lon="-4.1394117"><ele>79.0</ele><time>2026-05-01T07:56:45.675Z</time></trkpt><trkpt lat="48.33869" lon="-4.139455"><ele>80.5</ele><time>2026-05-01T07:56:46.679Z</time></trkpt><trkpt lat="48.33855" lon="-4.139495"><ele>82.0</ele><time>2026-05-01T07:56:47.673Z</time></trkpt><trkpt lat="48.3384083" lon="-4.1395417"><ele>83.5</ele><time>2026-05-01T07:56:48.676Z</time></trkpt><trkpt lat="48.338265" lon="-4.1395883"><ele>85.0</ele><time>2026-05-01T07:56:49.676Z</time></trkpt><trkpt lat="48.33812" lon="-4.13963"><ele>87.66666666666666</ele><time>2026-05-01T07:56:50.675Z</time></trkpt><trkpt lat="48.337975" lon="-4.13967"><ele>90.33333333333333</ele><time>2026-05-01T07:56:51.674Z</time></trkpt><trkpt lat="48.337825" lon="-4.1397067"><ele>93.0</ele><time>2026-05-01T07:56:52.676Z</time></trkpt><trkpt lat="48.337675" lon="-4.1397433"><ele>93.0</ele><time>2026-05-01T07:56:53.674Z</time></trkpt><trkpt lat="48.3375233" lon="-4.1397817"><ele>93.0</ele><time>2026-05-01T07:56:54.675Z</time></trkpt><trkpt lat="48.3373733" lon="-4.1398317"><ele>93.0</ele><time>2026-05-01T07:56:55.676Z</time></trkpt><trkpt lat="48.33722" lon="-4.1398933"><ele>95.0</ele><time>2026-05-01T07:56:56.68Z</time></trkpt><trkpt lat="48.3370683" lon="-4.1399683"><ele>97.0</ele><time>2026-05-01T07:56:57.68Z</time></trkpt><trkpt lat="48.3369233" lon="-4.1400633"><ele>99.0</ele><time>2026-05-01T07:56:58.674Z</time></trkpt><trkpt lat="48.3367867" lon="-4.1401767"><ele>99.0</ele><time>2026-05-01T07:56:59.679Z</time></trkpt><trkpt lat="48.3366617" lon="-4.1403217"><ele>99.0</ele><time>2026-05-01T07:57:00.678Z</time></trkpt><trkpt lat="48.336545" lon="-4.1404783"><ele>99.0</ele><time>2026-05-01T07:57:01.678Z</time></trkpt><trkpt lat="48.336435" lon="-4.14064"><ele>99.25</ele><time>2026-05-01T07:57:02.677Z</time></trkpt><trkpt lat="48.3363317" lon="-4.1407967"><ele>99.5</ele><time>2026-05-01T07:57:03.675Z</time></trkpt><trkpt lat="48.3362333" lon="-4.1409517"><ele>99.75</ele><time>2026-05-01T07:57:04.677Z</time></trkpt><trkpt lat="48.3361383" lon="-4.1411017"><ele>100.0</ele><time>2026-05-01T07:57:05.678Z</time></trkpt><trkpt lat="48.336045" lon="-4.1412467"><ele>100.0</ele><time>2026-05-01T07:57:06.673Z</time></trkpt><trkpt lat="48.3359567" lon="-4.1413867"><ele>100.0</ele><time>2026-05-01T07:57:07.674Z</time></trkpt><trkpt lat="48.3358717" lon="-4.1415283"><ele>100.0</ele><time>2026-05-01T07:57:08.673Z</time></trkpt><trkpt lat="48.3357767" lon="-4.1416633"><ele>100.0</ele><time>2026-05-01T07:57:09.672Z</time></trkpt><trkpt lat="48.3356867" lon="-4.1418017"><ele>99.75</ele><time>2026-05-01T07:57:10.671Z</time></trkpt><trkpt lat="48.3355917" lon="-4.1419383"><ele>99.5</ele><time>2026-05-01T07:57:11.674Z</time></trkpt><trkpt lat="48.3354983" lon="-4.1420733"><ele>99.25</ele><time>2026-05-01T07:57:12.673Z</time></trkpt><trkpt lat="48.3354067" lon="-4.1422067"><ele>99.0</ele><time>2026-05-01T07:57:13.675Z</time></trkpt><trkpt lat="48.335315" lon="-4.1423333"><ele>99.25</ele><time>2026-05-01T07:57:14.676Z</time></trkpt><trkpt lat="48.33523" lon="-4.1424567"><ele>99.5</ele><time>2026-05-01T07:57:15.673Z</time></trkpt><trkpt lat="48.3351467" lon="-4.1425767"><ele>99.75</ele><time>2026-05-01T07:57:16.672Z</time></trkpt><trkpt lat="48.3350633" lon="-4.14269"><ele>100.0</ele><time>2026-05-01T07:57:17.671Z</time></trkpt><trkpt lat="48.3349833" lon="-4.1427983"><ele>100.00000000000001</ele><time>2026-05-01T07:57:18.674Z</time></trkpt><trkpt lat="48.3349117" lon="-4.1429"><ele>100.0</ele><time>2026-05-01T07:57:19.675Z</time></trkpt><trkpt lat="48.3348483" lon="-4.1429833"><ele>100.0</ele><time>2026-05-01T07:57:20.674Z</time></trkpt><trkpt lat="48.3348033" lon="-4.1430567"><ele>100.0</ele><time>2026-05-01T07:57:21.683Z</time></trkpt><trkpt lat="48.3347283" lon="-4.1431317"><ele>100.00000000000001</ele><time>2026-05-01T07:57:23.678Z</time></trkpt><trkpt lat="48.3346633" lon="-4.143095"><ele>100.0</ele><time>2026-05-01T07:57:25.675Z</time></trkpt><trkpt lat="48.334635" lon="-4.1429867"><ele>100.6</ele><time>2026-05-01T07:57:27.679Z</time></trkpt><trkpt lat="48.334645" lon="-4.14283"><ele>101.2</ele><time>2026-05-01T07:57:29.68Z</time></trkpt><trkpt lat="48.33465" lon="-4.1426633"><ele>101.80000000000001</ele><time>2026-05-01T07:57:31.673Z</time></trkpt><trkpt lat="48.33466" lon="-4.1425"><ele>102.4</ele><time>2026-05-01T07:57:33.679Z</time></trkpt><trkpt lat="48.334665" lon="-4.142395"><ele>103.0</ele><time>2026-05-01T07:57:34.675Z</time></trkpt><trkpt lat="48.3346683" lon="-4.14228"><ele>102.80000000000001</ele><time>2026-05-01T07:57:35.674Z</time></trkpt><trkpt lat="48.33467" lon="-4.1421483"><ele>102.6</ele><time>2026-05-01T07:57:36.676Z</time></trkpt><trkpt lat="48.3346717" lon="-4.142"><ele>102.4</ele><time>2026-05-01T07:57:37.677Z</time></trkpt><trkpt lat="48.3346733" lon="-4.1418417"><ele>102.19999999999999</ele><time>2026-05-01T07:57:38.68Z</time></trkpt><trkpt lat="48.334675" lon="-4.1416733"><ele>102.0</ele><time>2026-05-01T07:57:39.679Z</time></trkpt><trkpt lat="48.3346783" lon="-4.1414967"><ele>102.0</ele><time>2026-05-01T07:57:40.676Z</time></trkpt><trkpt lat="48.3346767" lon="-4.1413167"><ele>102.0</ele><time>2026-05-01T07:57:41.677Z</time></trkpt><trkpt lat="48.3346833" lon="-4.1411417"><ele>102.0</ele><time>2026-05-01T07:57:42.675Z</time></trkpt><trkpt lat="48.3346917" lon="-4.1409633"><ele>102.0</ele><time>2026-05-01T07:57:43.676Z</time></trkpt><trkpt lat="48.3347" lon="-4.140785"><ele>102.0</ele><time>2026-05-01T07:57:44.68Z</time></trkpt><trkpt lat="48.3347017" lon="-4.1406033"><ele>102.0</ele><time>2026-05-01T07:57:45.675Z</time></trkpt><trkpt lat="48.334705" lon="-4.14042"><ele>102.0</ele><time>2026-05-01T07:57:46.676Z</time></trkpt><trkpt lat="48.3347033" lon="-4.1402417"><ele>102.0</ele><time>2026-05-01T07:57:47.679Z</time></trkpt><trkpt lat="48.3346917" lon="-4.1400633"><ele>102.0</ele><time>2026-05-01T07:57:48.674Z</time></trkpt><trkpt lat="48.3346733" lon="-4.1398883"><ele>102.0</ele><time>2026-05-01T07:57:49.68Z</time></trkpt><trkpt lat="48.3346433" lon="-4.1397117"><ele>102.0</ele><time>2026-05-01T07:57:50.682Z</time></trkpt><trkpt lat="48.3346017" lon="-4.1395367"><ele>102.0</ele><time>2026-05-01T07:57:51.674Z</time></trkpt><trkpt lat="48.334555" lon="-4.1393683"><ele>101.75</ele><time>2026-05-01T07:57:52.674Z</time></trkpt><trkpt lat="48.3344917" lon="-4.1392017"><ele>101.5</ele><time>2026-05-01T07:57:53.677Z</time></trkpt><trkpt lat="48.33442" lon="-4.1389933"><ele>101.25</ele><time>2026-05-01T07:57:54.676Z</time></trkpt><trkpt lat="48.334345" lon="-4.138775"><ele>101.0</ele><time>2026-05-01T07:57:55.676Z</time></trkpt><trkpt lat="48.3342767" lon="-4.13856"><ele>101.66666666666666</ele><time>2026-05-01T07:57:56.673Z</time></trkpt><trkpt lat="48.3342217" lon="-4.1383367"><ele>102.33333333333334</ele><time>2026-05-01T07:57:57.677Z</time></trkpt><trkpt lat="48.3341817" lon="-4.138105"><ele>103.0</ele><time>2026-05-01T07:57:58.676Z</time></trkpt><trkpt lat="48.3341567" lon="-4.137865"><ele>103.0</ele><time>2026-05-01T07:57:59.677Z</time></trkpt><trkpt lat="48.33414" lon="-4.1376267"><ele>103.0</ele><time>2026-05-01T07:58:00.675Z</time></trkpt><trkpt lat="48.3341267" lon="-4.13739"><ele>103.0</ele><time>2026-05-01T07:58:01.678Z</time></trkpt><trkpt lat="48.3341117" lon="-4.1371533"><ele>103.0</ele><time>2026-05-01T07:58:02.678Z</time></trkpt><trkpt lat="48.3340917" lon="-4.1369117"><ele>103.0</ele><time>2026-05-01T07:58:03.678Z</time></trkpt><trkpt lat="48.334065" lon="-4.1366717"><ele>103.0</ele><time>2026-05-01T07:58:04.679Z</time></trkpt><trkpt lat="48.3340417" lon="-4.1364283"><ele>103.33333333333334</ele><time>2026-05-01T07:58:05.675Z</time></trkpt><trkpt lat="48.3340183" lon="-4.1361933"><ele>103.66666666666666</ele><time>2026-05-01T07:58:06.674Z</time></trkpt><trkpt lat="48.3339983" lon="-4.1359517"><ele>104.0</ele><time>2026-05-01T07:58:07.677Z</time></trkpt><trkpt lat="48.3339883" lon="-4.13571"><ele>103.33333333333333</ele><time>2026-05-01T07:58:08.678Z</time></trkpt><trkpt lat="48.333985" lon="-4.1354717"><ele>102.66666666666666</ele><time>2026-05-01T07:58:09.676Z</time></trkpt><trkpt lat="48.3339883" lon="-4.1352367"><ele>102.0</ele><time>2026-05-01T07:58:10.677Z</time></trkpt><trkpt lat="48.333995" lon="-4.135"><ele>101.66666666666666</ele><time>2026-05-01T07:58:11.674Z</time></trkpt><trkpt lat="48.334005" lon="-4.13476"><ele>101.33333333333333</ele><time>2026-05-01T07:58:12.68Z</time></trkpt><trkpt lat="48.3340183" lon="-4.134515"><ele>101.0</ele><time>2026-05-01T07:58:13.673Z</time></trkpt><trkpt lat="48.3340317" lon="-4.13427"><ele>100.66666666666666</ele><time>2026-05-01T07:58:14.672Z</time></trkpt><trkpt lat="48.3340417" lon="-4.1340233"><ele>100.33333333333334</ele><time>2026-05-01T07:58:15.673Z</time></trkpt><trkpt lat="48.3340417" lon="-4.1337767"><ele>100.0</ele><time>2026-05-01T07:58:16.676Z</time></trkpt><trkpt lat="48.3340367" lon="-4.13353"><ele>100.0</ele><time>2026-05-01T07:58:17.675Z</time></trkpt><trkpt lat="48.3340317" lon="-4.133295"><ele>100.0</ele><time>2026-05-01T07:58:18.675Z</time></trkpt><trkpt lat="48.3340283" lon="-4.1330733"><ele>100.0</ele><time>2026-05-01T07:58:19.681Z</time></trkpt><trkpt lat="48.334025" lon="-4.1328617"><ele>100.0</ele><time>2026-05-01T07:58:20.674Z</time></trkpt><trkpt lat="48.3340183" lon="-4.1326517"><ele>99.75</ele><time>2026-05-01T07:58:21.674Z</time></trkpt><trkpt lat="48.33401" lon="-4.1324433"><ele>99.5</ele><time>2026-05-01T07:58:22.682Z</time></trkpt><trkpt lat="48.3340033" lon="-4.1322417"><ele>99.25</ele><time>2026-05-01T07:58:23.675Z</time></trkpt><trkpt lat="48.3339967" lon="-4.1320417"><ele>99.0</ele><time>2026-05-01T07:58:24.676Z</time></trkpt><trkpt lat="48.3339933" lon="-4.1318417"><ele>99.0</ele><time>2026-05-01T07:58:25.677Z</time></trkpt><trkpt lat="48.333985" lon="-4.13163"><ele>99.0</ele><time>2026-05-01T07:58:26.679Z</time></trkpt><trkpt lat="48.3339733" lon="-4.1314167"><ele>99.0</ele><time>2026-05-01T07:58:27.674Z</time></trkpt><trkpt lat="48.3339617" lon="-4.131205"><ele>99.0</ele><time>2026-05-01T07:58:28.675Z</time></trkpt><trkpt lat="48.33395" lon="-4.131005"><ele>99.5</ele><time>2026-05-01T07:58:29.675Z</time></trkpt><trkpt lat="48.3339383" lon="-4.1308167"><ele>100.0</ele><time>2026-05-01T07:58:30.675Z</time></trkpt><trkpt lat="48.3339233" lon="-4.13064"><ele>100.5</ele><time>2026-05-01T07:58:31.678Z</time></trkpt><trkpt lat="48.3339083" lon="-4.1304733"><ele>101.0</ele><time>2026-05-01T07:58:32.682Z</time></trkpt><trkpt lat="48.3338883" lon="-4.13032"><ele>101.83333333333333</ele><time>2026-05-01T07:58:33.682Z</time></trkpt><trkpt lat="48.3338683" lon="-4.1301783"><ele>102.66666666666666</ele><time>2026-05-01T07:58:34.675Z</time></trkpt><trkpt lat="48.3338483" lon="-4.13005"><ele>103.5</ele><time>2026-05-01T07:58:35.674Z</time></trkpt><trkpt lat="48.3338283" lon="-4.1299367"><ele>104.33333333333334</ele><time>2026-05-01T07:58:36.673Z</time></trkpt><trkpt lat="48.3338133" lon="-4.1298367"><ele>105.16666666666667</ele><time>2026-05-01T07:58:37.677Z</time></trkpt><trkpt lat="48.3337967" lon="-4.12971"><ele>106.0</ele><time>2026-05-01T07:58:39.682Z</time></trkpt><trkpt lat="48.3337817" lon="-4.129595"><ele>106.71428571428572</ele><time>2026-05-01T07:58:42.676Z</time></trkpt><trkpt lat="48.3337667" lon="-4.1295"><ele>107.42857142857142</ele><time>2026-05-01T07:58:44.677Z</time></trkpt><trkpt lat="48.333745" lon="-4.1294067"><ele>108.14285714285714</ele><time>2026-05-01T07:58:47.676Z</time></trkpt><trkpt lat="48.3337267" lon="-4.1292983"><ele>108.85714285714286</ele><time>2026-05-01T07:58:49.676Z</time></trkpt><trkpt lat="48.3337117" lon="-4.129205"><ele>109.57142857142858</ele><time>2026-05-01T07:58:50.677Z</time></trkpt><trkpt lat="48.33369" lon="-4.129115"><ele>110.28571428571428</ele><time>2026-05-01T07:58:51.674Z</time></trkpt><trkpt lat="48.33367" lon="-4.129005"><ele>111.0</ele><time>2026-05-01T07:58:52.674Z</time></trkpt><trkpt lat="48.3336433" lon="-4.1288683"><ele>111.8</ele><time>2026-05-01T07:58:53.674Z</time></trkpt><trkpt lat="48.3336117" lon="-4.12873"><ele>112.6</ele><time>2026-05-01T07:58:54.675Z</time></trkpt><trkpt lat="48.333575" lon="-4.1285883"><ele>113.4</ele><time>2026-05-01T07:58:55.677Z</time></trkpt><trkpt lat="48.3335317" lon="-4.1284583"><ele>114.2</ele><time>2026-05-01T07:58:56.675Z</time></trkpt><trkpt lat="48.333485" lon="-4.1283333"><ele>115.0</ele><time>2026-05-01T07:58:57.676Z</time></trkpt><trkpt lat="48.3334417" lon="-4.1282267"><ele>115.8</ele><time>2026-05-01T07:58:58.674Z</time></trkpt><trkpt lat="48.3334067" lon="-4.1281367"><ele>116.6</ele><time>2026-05-01T07:58:59.675Z</time></trkpt><trkpt lat="48.333335" lon="-4.127995"><ele>117.4</ele><time>2026-05-01T07:59:01.68Z</time></trkpt><trkpt lat="48.33329" lon="-4.127905"><ele>118.2</ele><time>2026-05-01T07:59:02.679Z</time></trkpt><trkpt lat="48.3332317" lon="-4.1277767"><ele>119.0</ele><time>2026-05-01T07:59:03.674Z</time></trkpt><trkpt lat="48.3331617" lon="-4.127655"><ele>119.0</ele><time>2026-05-01T07:59:04.676Z</time></trkpt><trkpt lat="48.3330883" lon="-4.1275383"><ele>119.0</ele><time>2026-05-01T07:59:05.677Z</time></trkpt><trkpt lat="48.3330183" lon="-4.1274333"><ele>119.0</ele><time>2026-05-01T07:59:06.676Z</time></trkpt><trkpt lat="48.3329433" lon="-4.12733"><ele>119.0</ele><time>2026-05-01T07:59:07.673Z</time></trkpt><trkpt lat="48.3328633" lon="-4.1272183"><ele>119.0</ele><time>2026-05-01T07:59:08.676Z</time></trkpt><trkpt lat="48.3327767" lon="-4.127105"><ele>119.25</ele><time>2026-05-01T07:59:09.676Z</time></trkpt><trkpt lat="48.33268" lon="-4.12698"><ele>119.5</ele><time>2026-05-01T07:59:10.673Z</time></trkpt><trkpt lat="48.332565" lon="-4.12683"><ele>119.75</ele><time>2026-05-01T07:59:11.675Z</time></trkpt><trkpt lat="48.3324483" lon="-4.1266667"><ele>120.0</ele><time>2026-05-01T07:59:12.675Z</time></trkpt><trkpt lat="48.3323367" lon="-4.1264967"><ele>119.66666666666666</ele><time>2026-05-01T07:59:13.675Z</time></trkpt><trkpt lat="48.3322283" lon="-4.1263283"><ele>119.33333333333333</ele><time>2026-05-01T07:59:14.676Z</time></trkpt><trkpt lat="48.332115" lon="-4.12616"><ele>119.0</ele><time>2026-05-01T07:59:15.676Z</time></trkpt><trkpt lat="48.3320083" lon="-4.1259933"><ele>119.0</ele><time>2026-05-01T07:59:16.673Z</time></trkpt><trkpt lat="48.3319" lon="-4.12583"><ele>119.0</ele><time>2026-05-01T07:59:17.675Z</time></trkpt><trkpt lat="48.3317933" lon="-4.12567"><ele>119.0</ele><time>2026-05-01T07:59:18.675Z</time></trkpt><trkpt lat="48.3316883" lon="-4.125515"><ele>119.5</ele><time>2026-05-01T07:59:19.675Z</time></trkpt><trkpt lat="48.3315883" lon="-4.1253567"><ele>120.0</ele><time>2026-05-01T07:59:20.676Z</time></trkpt><trkpt lat="48.3314867" lon="-4.1251983"><ele>120.5</ele><time>2026-05-01T07:59:21.679Z</time></trkpt><trkpt lat="48.331385" lon="-4.12504"><ele>121.0</ele><time>2026-05-01T07:59:22.672Z</time></trkpt><trkpt lat="48.3312817" lon="-4.12488"><ele>122.5</ele><time>2026-05-01T07:59:23.677Z</time></trkpt><trkpt lat="48.3311767" lon="-4.12472"><ele>124.0</ele><time>2026-05-01T07:59:24.681Z</time></trkpt><trkpt lat="48.3310733" lon="-4.1245617"><ele>125.5</ele><time>2026-05-01T07:59:25.675Z</time></trkpt><trkpt lat="48.3309717" lon="-4.1244"><ele>127.0</ele><time>2026-05-01T07:59:26.675Z</time></trkpt><trkpt lat="48.3308683" lon="-4.1242367"><ele>128.66666666666669</ele><time>2026-05-01T07:59:27.673Z</time></trkpt><trkpt lat="48.3307633" lon="-4.12406"><ele>130.33333333333334</ele><time>2026-05-01T07:59:28.676Z</time></trkpt><trkpt lat="48.3306633" lon="-4.12387"><ele>132.0</ele><time>2026-05-01T07:59:29.675Z</time></trkpt><trkpt lat="48.330565" lon="-4.1236583"><ele>131.33333333333334</ele><time>2026-05-01T07:59:30.674Z</time></trkpt><trkpt lat="48.3304683" lon="-4.1234233"><ele>130.66666666666669</ele><time>2026-05-01T07:59:31.678Z</time></trkpt><trkpt lat="48.3303733" lon="-4.123185"><ele>130.0</ele><time>2026-05-01T07:59:32.674Z</time></trkpt><trkpt lat="48.3302783" lon="-4.122955"><ele>131.33333333333334</ele><time>2026-05-01T07:59:33.675Z</time></trkpt><trkpt lat="48.3301867" lon="-4.1227367"><ele>132.66666666666666</ele><time>2026-05-01T07:59:34.673Z</time></trkpt><trkpt lat="48.3300967" lon="-4.1225133"><ele>134.0</ele><time>2026-05-01T07:59:35.677Z</time></trkpt><trkpt lat="48.3300083" lon="-4.1222817"><ele>135.0</ele><time>2026-05-01T07:59:36.678Z</time></trkpt><trkpt lat="48.3299283" lon="-4.122035"><ele>136.0</ele><time>2026-05-01T07:59:37.675Z</time></trkpt><trkpt lat="48.3298617" lon="-4.1217783"><ele>137.0</ele><time>2026-05-01T07:59:38.674Z</time></trkpt><trkpt lat="48.3297983" lon="-4.1215167"><ele>137.0</ele><time>2026-05-01T07:59:39.678Z</time></trkpt><trkpt lat="48.3297383" lon="-4.121255"><ele>137.0</ele><time>2026-05-01T07:59:40.673Z</time></trkpt><trkpt lat="48.329685" lon="-4.1209933"><ele>137.0</ele><time>2026-05-01T07:59:41.674Z</time></trkpt><trkpt lat="48.3296383" lon="-4.1207367"><ele>138.33333333333331</ele><time>2026-05-01T07:59:42.676Z</time></trkpt><trkpt lat="48.3296033" lon="-4.12048"><ele>139.66666666666666</ele><time>2026-05-01T07:59:43.673Z</time></trkpt><trkpt lat="48.3295783" lon="-4.1202267"><ele>141.0</ele><time>2026-05-01T07:59:44.676Z</time></trkpt><trkpt lat="48.3295533" lon="-4.1199817"><ele>142.33333333333334</ele><time>2026-05-01T07:59:45.674Z</time></trkpt><trkpt lat="48.32951" lon="-4.1197433"><ele>143.66666666666669</ele><time>2026-05-01T07:59:46.675Z</time></trkpt><trkpt lat="48.3294467" lon="-4.11951"><ele>145.0</ele><time>2026-05-01T07:59:47.676Z</time></trkpt><trkpt lat="48.3293733" lon="-4.1192817"><ele>146.0</ele><time>2026-05-01T07:59:48.675Z</time></trkpt><trkpt lat="48.3292983" lon="-4.11905"><ele>147.0</ele><time>2026-05-01T07:59:49.675Z</time></trkpt><trkpt lat="48.3292217" lon="-4.11882"><ele>148.0</ele><time>2026-05-01T07:59:50.677Z</time></trkpt><trkpt lat="48.3291433" lon="-4.118595"><ele>148.0</ele><time>2026-05-01T07:59:51.675Z</time></trkpt><trkpt lat="48.3290583" lon="-4.11838"><ele>148.0</ele><time>2026-05-01T07:59:52.675Z</time></trkpt><trkpt lat="48.3289717" lon="-4.118165"><ele>148.0</ele><time>2026-05-01T07:59:53.68Z</time></trkpt><trkpt lat="48.328885" lon="-4.1179483"><ele>147.0</ele><time>2026-05-01T07:59:54.678Z</time></trkpt><trkpt lat="48.3288017" lon="-4.1177283"><ele>146.0</ele><time>2026-05-01T07:59:55.679Z</time></trkpt><trkpt lat="48.32872" lon="-4.117505"><ele>145.0</ele><time>2026-05-01T07:59:56.677Z</time></trkpt><trkpt lat="48.3286383" lon="-4.1172817"><ele>145.0</ele><time>2026-05-01T07:59:57.678Z</time></trkpt><trkpt lat="48.3285567" lon="-4.117065"><ele>145.0</ele><time>2026-05-01T07:59:58.674Z</time></trkpt><trkpt lat="48.3284767" lon="-4.1168517"><ele>145.0</ele><time>2026-05-01T07:59:59.675Z</time></trkpt><trkpt lat="48.3283967" lon="-4.11664"><ele>146.0</ele><time>2026-05-01T08:00:00.68Z</time></trkpt><trkpt lat="48.3283217" lon="-4.1164367"><ele>147.0</ele><time>2026-05-01T08:00:01.675Z</time></trkpt><trkpt lat="48.3282483" lon="-4.1162483"><ele>148.0</ele><time>2026-05-01T08:00:02.676Z</time></trkpt><trkpt lat="48.328175" lon="-4.11607"><ele>149.0</ele><time>2026-05-01T08:00:03.677Z</time></trkpt><trkpt lat="48.328105" lon="-4.115895"><ele>149.5</ele><time>2026-05-01T08:00:04.677Z</time></trkpt><trkpt lat="48.3280367" lon="-4.1157233"><ele>150.0</ele><time>2026-05-01T08:00:05.675Z</time></trkpt><trkpt lat="48.3279717" lon="-4.11555"><ele>150.5</ele><time>2026-05-01T08:00:06.677Z</time></trkpt><trkpt lat="48.3279067" lon="-4.1153783"><ele>151.0</ele><time>2026-05-01T08:00:07.676Z</time></trkpt><trkpt lat="48.3278467" lon="-4.11521"><ele>151.0</ele><time>2026-05-01T08:00:08.675Z</time></trkpt><trkpt lat="48.3277917" lon="-4.1150317"><ele>151.0</ele><time>2026-05-01T08:00:09.678Z</time></trkpt><trkpt lat="48.3277417" lon="-4.1148483"><ele>151.0</ele><time>2026-05-01T08:00:10.677Z</time></trkpt><trkpt lat="48.327695" lon="-4.1146583"><ele>151.0</ele><time>2026-05-01T08:00:11.687Z</time></trkpt><trkpt lat="48.3276483" lon="-4.1144667"><ele>151.5</ele><time>2026-05-01T08:00:12.679Z</time></trkpt><trkpt lat="48.3276067" lon="-4.114275"><ele>152.0</ele><time>2026-05-01T08:00:13.675Z</time></trkpt><trkpt lat="48.32757" lon="-4.1140833"><ele>152.5</ele><time>2026-05-01T08:00:14.675Z</time></trkpt><trkpt lat="48.3275283" lon="-4.1138917"><ele>153.0</ele><time>2026-05-01T08:00:15.676Z</time></trkpt><trkpt lat="48.3274867" lon="-4.1136983"><ele>153.0</ele><time>2026-05-01T08:00:16.673Z</time></trkpt><trkpt lat="48.3274517" lon="-4.1135033"><ele>153.0</ele><time>2026-05-01T08:00:17.678Z</time></trkpt><trkpt lat="48.3274217" lon="-4.113305"><ele>153.0</ele><time>2026-05-01T08:00:18.674Z</time></trkpt><trkpt lat="48.3274033" lon="-4.113095"><ele>153.0</ele><time>2026-05-01T08:00:19.676Z</time></trkpt><trkpt lat="48.3274" lon="-4.1128767"><ele>152.0</ele><time>2026-05-01T08:00:20.677Z</time></trkpt><trkpt lat="48.3274083" lon="-4.11265"><ele>151.0</ele><time>2026-05-01T08:00:21.675Z</time></trkpt><trkpt lat="48.3274217" lon="-4.1124167"><ele>150.0</ele><time>2026-05-01T08:00:22.675Z</time></trkpt><trkpt lat="48.32744" lon="-4.1121817"><ele>149.33333333333334</ele><time>2026-05-01T08:00:23.674Z</time></trkpt><trkpt lat="48.3274617" lon="-4.1119417"><ele>148.66666666666669</ele><time>2026-05-01T08:00:24.676Z</time></trkpt><trkpt lat="48.3274833" lon="-4.1117117"><ele>148.0</ele><time>2026-05-01T08:00:25.676Z</time></trkpt><trkpt lat="48.327505" lon="-4.1114717"><ele>145.33333333333334</ele><time>2026-05-01T08:00:26.676Z</time></trkpt><trkpt lat="48.3275267" lon="-4.111225"><ele>142.66666666666666</ele><time>2026-05-01T08:00:27.678Z</time></trkpt><trkpt lat="48.327545" lon="-4.110975"><ele>140.0</ele><time>2026-05-01T08:00:28.678Z</time></trkpt><trkpt lat="48.3275583" lon="-4.110725"><ele>139.33333333333331</ele><time>2026-05-01T08:00:29.678Z</time></trkpt><trkpt lat="48.32756" lon="-4.11047"><ele>138.66666666666666</ele><time>2026-05-01T08:00:30.675Z</time></trkpt><trkpt lat="48.3275517" lon="-4.1102117"><ele>138.0</ele><time>2026-05-01T08:00:31.68Z</time></trkpt><trkpt lat="48.32754" lon="-4.10995"><ele>138.0</ele><time>2026-05-01T08:00:32.675Z</time></trkpt><trkpt lat="48.32753" lon="-4.1096917"><ele>138.0</ele><time>2026-05-01T08:00:33.678Z</time></trkpt><trkpt lat="48.32752" lon="-4.1094383"><ele>138.0</ele><time>2026-05-01T08:00:34.674Z</time></trkpt><trkpt lat="48.32751" lon="-4.10919"><ele>138.0</ele><time>2026-05-01T08:00:35.679Z</time></trkpt><trkpt lat="48.327495" lon="-4.1089417"><ele>138.0</ele><time>2026-05-01T08:00:36.675Z</time></trkpt><trkpt lat="48.3274767" lon="-4.1086983"><ele>138.0</ele><time>2026-05-01T08:00:37.681Z</time></trkpt><trkpt lat="48.3274567" lon="-4.1084583"><ele>137.66666666666666</ele><time>2026-05-01T08:00:38.675Z</time></trkpt><trkpt lat="48.3274283" lon="-4.1082233"><ele>137.33333333333331</ele><time>2026-05-01T08:00:39.678Z</time></trkpt><trkpt lat="48.3274017" lon="-4.1079967"><ele>137.0</ele><time>2026-05-01T08:00:40.675Z</time></trkpt><trkpt lat="48.327375" lon="-4.1077683"><ele>137.0</ele><time>2026-05-01T08:00:41.674Z</time></trkpt><trkpt lat="48.327345" lon="-4.10754"><ele>137.0</ele><time>2026-05-01T08:00:42.678Z</time></trkpt><trkpt lat="48.3273183" lon="-4.1073233"><ele>137.0</ele><time>2026-05-01T08:00:43.675Z</time></trkpt><trkpt lat="48.3272983" lon="-4.10712"><ele>137.0</ele><time>2026-05-01T08:00:44.675Z</time></trkpt><trkpt lat="48.3272783" lon="-4.1069283"><ele>137.0</ele><time>2026-05-01T08:00:45.677Z</time></trkpt><trkpt lat="48.3272667" lon="-4.10675"><ele>137.0</ele><time>2026-05-01T08:00:46.683Z</time></trkpt><trkpt lat="48.3272617" lon="-4.1065783"><ele>137.0</ele><time>2026-05-01T08:00:47.676Z</time></trkpt><trkpt lat="48.3272567" lon="-4.1064183"><ele>137.0</ele><time>2026-05-01T08:00:48.68Z</time></trkpt><trkpt lat="48.3272517" lon="-4.1062667"><ele>137.0</ele><time>2026-05-01T08:00:49.675Z</time></trkpt><trkpt lat="48.3272517" lon="-4.1061217"><ele>137.83333333333331</ele><time>2026-05-01T08:00:50.676Z</time></trkpt><trkpt lat="48.3272533" lon="-4.105985"><ele>138.66666666666666</ele><time>2026-05-01T08:00:51.674Z</time></trkpt><trkpt lat="48.3272583" lon="-4.10586"><ele>139.5</ele><time>2026-05-01T08:00:52.672Z</time></trkpt><trkpt lat="48.3272633" lon="-4.1057517"><ele>140.33333333333334</ele><time>2026-05-01T08:00:53.676Z</time></trkpt><trkpt lat="48.327265" lon="-4.105655"><ele>141.16666666666669</ele><time>2026-05-01T08:00:54.675Z</time></trkpt><trkpt lat="48.32722" lon="-4.1054983"><ele>142.0</ele><time>2026-05-01T08:00:56.675Z</time></trkpt><trkpt lat="48.3271183" lon="-4.1053733"><ele>144.2</ele><time>2026-05-01T08:00:58.674Z</time></trkpt><trkpt lat="48.3270417" lon="-4.1053083"><ele>146.39999999999998</ele><time>2026-05-01T08:00:59.675Z</time></trkpt><trkpt lat="48.3269417" lon="-4.1052383"><ele>148.60000000000002</ele><time>2026-05-01T08:01:00.676Z</time></trkpt><trkpt lat="48.326845" lon="-4.1051783"><ele>150.8</ele><time>2026-05-01T08:01:01.678Z</time></trkpt><trkpt lat="48.3267433" lon="-4.10512"><ele>153.0</ele><time>2026-05-01T08:01:02.674Z</time></trkpt><trkpt lat="48.3266383" lon="-4.1050733"><ele>153.0</ele><time>2026-05-01T08:01:03.676Z</time></trkpt><trkpt lat="48.3265317" lon="-4.1050267"><ele>153.0</ele><time>2026-05-01T08:01:04.676Z</time></trkpt><trkpt lat="48.3264233" lon="-4.104985"><ele>153.0</ele><time>2026-05-01T08:01:05.677Z</time></trkpt><trkpt lat="48.3263083" lon="-4.1049367"><ele>153.0</ele><time>2026-05-01T08:01:06.677Z</time></trkpt><trkpt lat="48.3261917" lon="-4.1048833"><ele>152.0</ele><time>2026-05-01T08:01:07.677Z</time></trkpt><trkpt lat="48.3260683" lon="-4.1048283"><ele>151.0</ele><time>2026-05-01T08:01:08.676Z</time></trkpt><trkpt lat="48.3259417" lon="-4.1047567"><ele>150.0</ele><time>2026-05-01T08:01:09.679Z</time></trkpt><trkpt lat="48.325815" lon="-4.10467"><ele>149.0</ele><time>2026-05-01T08:01:10.673Z</time></trkpt><trkpt lat="48.3256917" lon="-4.1045717"><ele>149.0</ele><time>2026-05-01T08:01:11.672Z</time></trkpt><trkpt lat="48.3255733" lon="-4.1044617"><ele>149.0</ele><time>2026-05-01T08:01:12.678Z</time></trkpt><trkpt lat="48.3254583" lon="-4.1043533"><ele>149.0</ele><time>2026-05-01T08:01:13.675Z</time></trkpt><trkpt lat="48.3253417" lon="-4.104255"><ele>149.0</ele><time>2026-05-01T08:01:14.68Z</time></trkpt><trkpt lat="48.32522" lon="-4.10417"><ele>147.5</ele><time>2026-05-01T08:01:15.675Z</time></trkpt><trkpt lat="48.3250917" lon="-4.1041"><ele>146.0</ele><time>2026-05-01T08:01:16.676Z</time></trkpt><trkpt lat="48.324965" lon="-4.104035"><ele>144.5</ele><time>2026-05-01T08:01:17.678Z</time></trkpt><trkpt lat="48.32484" lon="-4.1039733"><ele>143.0</ele><time>2026-05-01T08:01:18.676Z</time></trkpt><trkpt lat="48.3247133" lon="-4.1039117"><ele>141.5</ele><time>2026-05-01T08:01:19.677Z</time></trkpt><trkpt lat="48.32459" lon="-4.103845"><ele>140.0</ele><time>2026-05-01T08:01:20.677Z</time></trkpt><trkpt lat="48.3244633" lon="-4.1037783"><ele>138.5</ele><time>2026-05-01T08:01:21.675Z</time></trkpt><trkpt lat="48.324335" lon="-4.1037133"><ele>137.0</ele><time>2026-05-01T08:01:22.674Z</time></trkpt><trkpt lat="48.324205" lon="-4.1036467"><ele>137.0</ele><time>2026-05-01T08:01:23.68Z</time></trkpt><trkpt lat="48.3240717" lon="-4.1035833"><ele>137.0</ele><time>2026-05-01T08:01:24.677Z</time></trkpt><trkpt lat="48.3239367" lon="-4.1035267"><ele>137.0</ele><time>2026-05-01T08:01:25.673Z</time></trkpt><trkpt lat="48.3237983" lon="-4.1034883"><ele>137.0</ele><time>2026-05-01T08:01:26.675Z</time></trkpt><trkpt lat="48.3236567" lon="-4.1034683"><ele>136.75</ele><time>2026-05-01T08:01:27.679Z</time></trkpt><trkpt lat="48.323515" lon="-4.103465"><ele>136.5</ele><time>2026-05-01T08:01:28.686Z</time></trkpt><trkpt lat="48.323375" lon="-4.103465"><ele>136.25</ele><time>2026-05-01T08:01:29.675Z</time></trkpt><trkpt lat="48.3232367" lon="-4.1034683"><ele>136.0</ele><time>2026-05-01T08:01:30.674Z</time></trkpt><trkpt lat="48.323095" lon="-4.1034667"><ele>136.25</ele><time>2026-05-01T08:01:31.676Z</time></trkpt><trkpt lat="48.3229533" lon="-4.1034583"><ele>136.5</ele><time>2026-05-01T08:01:32.683Z</time></trkpt><trkpt lat="48.32281" lon="-4.1034417"><ele>136.75</ele><time>2026-05-01T08:01:33.676Z</time></trkpt><trkpt lat="48.32267" lon="-4.1034117"><ele>137.0</ele><time>2026-05-01T08:01:34.677Z</time></trkpt><trkpt lat="48.3225367" lon="-4.1033717"><ele>137.0</ele><time>2026-05-01T08:01:35.674Z</time></trkpt><trkpt lat="48.3223967" lon="-4.10334"><ele>137.0</ele><time>2026-05-01T08:01:36.671Z</time></trkpt><trkpt lat="48.3222583" lon="-4.1033083"><ele>137.0</ele><time>2026-05-01T08:01:37.673Z</time></trkpt><trkpt lat="48.3221183" lon="-4.1033017"><ele>137.0</ele><time>2026-05-01T08:01:38.675Z</time></trkpt><trkpt lat="48.3219683" lon="-4.1033317"><ele>135.5</ele><time>2026-05-01T08:01:39.674Z</time></trkpt><trkpt lat="48.3218183" lon="-4.1033633"><ele>134.0</ele><time>2026-05-01T08:01:40.676Z</time></trkpt><trkpt lat="48.32167" lon="-4.1034"><ele>132.5</ele><time>2026-05-01T08:01:41.673Z</time></trkpt><trkpt lat="48.321525" lon="-4.1034233"><ele>131.0</ele><time>2026-05-01T08:01:42.677Z</time></trkpt><trkpt lat="48.3213733" lon="-4.1034433"><ele>129.4</ele><time>2026-05-01T08:01:43.679Z</time></trkpt><trkpt lat="48.321235" lon="-4.103465"><ele>127.8</ele><time>2026-05-01T08:01:44.673Z</time></trkpt><trkpt lat="48.3211233" lon="-4.1034733"><ele>126.20000000000002</ele><time>2026-05-01T08:01:45.676Z</time></trkpt><trkpt lat="48.321045" lon="-4.1034667"><ele>124.60000000000001</ele><time>2026-05-01T08:01:46.675Z</time></trkpt><trkpt lat="48.3209817" lon="-4.1034617"><ele>123.0</ele><time>2026-05-01T08:01:47.675Z</time></trkpt><trkpt lat="48.320895" lon="-4.1034583"><ele>123.0</ele><time>2026-05-01T08:01:49.678Z</time></trkpt><trkpt lat="48.3208317" lon="-4.1034733"><ele>123.0</ele><time>2026-05-01T08:01:52.678Z</time></trkpt><trkpt lat="48.32077" lon="-4.1034383"><ele>123.0</ele><time>2026-05-01T08:06:38.677Z</time></trkpt><trkpt lat="48.3206917" lon="-4.1034117"><ele>123.0</ele><time>2026-05-01T08:06:40.674Z</time></trkpt><trkpt lat="48.3205767" lon="-4.1033917"><ele>123.0</ele><time>2026-05-01T08:06:42.677Z</time></trkpt><trkpt lat="48.32051" lon="-4.1033783"><ele>123.0</ele><time>2026-05-01T08:06:43.672Z</time></trkpt><trkpt lat="48.3204317" lon="-4.1033583"><ele>121.4</ele><time>2026-05-01T08:06:44.676Z</time></trkpt><trkpt lat="48.3203483" lon="-4.10333"><ele>119.80000000000001</ele><time>2026-05-01T08:06:45.677Z</time></trkpt><trkpt lat="48.3202567" lon="-4.1033033"><ele>118.2</ele><time>2026-05-01T08:06:46.674Z</time></trkpt><trkpt lat="48.3201567" lon="-4.1032933"><ele>116.6</ele><time>2026-05-01T08:06:47.677Z</time></trkpt><trkpt lat="48.3200567" lon="-4.1032833"><ele>115.0</ele><time>2026-05-01T08:06:48.674Z</time></trkpt><trkpt lat="48.3199617" lon="-4.10327"><ele>115.0</ele><time>2026-05-01T08:06:49.676Z</time></trkpt><trkpt lat="48.3198667" lon="-4.1032567"><ele>115.0</ele><time>2026-05-01T08:06:50.674Z</time></trkpt><trkpt lat="48.3197667" lon="-4.1032567"><ele>115.0</ele><time>2026-05-01T08:06:51.674Z</time></trkpt><trkpt lat="48.3196667" lon="-4.1032533"><ele>115.0</ele><time>2026-05-01T08:06:52.677Z</time></trkpt><trkpt lat="48.3195667" lon="-4.1032617"><ele>115.0</ele><time>2026-05-01T08:06:53.676Z</time></trkpt><trkpt lat="48.319465" lon="-4.1032717"><ele>113.8</ele><time>2026-05-01T08:06:54.673Z</time></trkpt><trkpt lat="48.3193617" lon="-4.1032817"><ele>112.6</ele><time>2026-05-01T08:06:55.674Z</time></trkpt><trkpt lat="48.3192617" lon="-4.1032917"><ele>111.4</ele><time>2026-05-01T08:06:56.673Z</time></trkpt><trkpt lat="48.31917" lon="-4.1032967"><ele>110.2</ele><time>2026-05-01T08:06:57.68Z</time></trkpt><trkpt lat="48.31907" lon="-4.103305"><ele>109.0</ele><time>2026-05-01T08:06:58.673Z</time></trkpt><trkpt lat="48.3189733" lon="-4.1033233"><ele>109.2</ele><time>2026-05-01T08:06:59.677Z</time></trkpt><trkpt lat="48.3188733" lon="-4.1033433"><ele>109.4</ele><time>2026-05-01T08:07:00.673Z</time></trkpt><trkpt lat="48.3187783" lon="-4.103375"><ele>109.6</ele><time>2026-05-01T08:07:01.676Z</time></trkpt><trkpt lat="48.3186717" lon="-4.1033967"><ele>109.8</ele><time>2026-05-01T08:07:02.676Z</time></trkpt><trkpt lat="48.31857" lon="-4.1034417"><ele>110.0</ele><time>2026-05-01T08:07:03.673Z</time></trkpt><trkpt lat="48.3184817" lon="-4.10352"><ele>110.0</ele><time>2026-05-01T08:07:04.674Z</time></trkpt><trkpt lat="48.3184" lon="-4.1036217"><ele>110.0</ele><time>2026-05-01T08:07:05.674Z</time></trkpt><trkpt lat="48.3183167" lon="-4.1037133"><ele>110.0</ele><time>2026-05-01T08:07:06.675Z</time></trkpt><trkpt lat="48.3182267" lon="-4.1038133"><ele>110.0</ele><time>2026-05-01T08:07:07.676Z</time></trkpt><trkpt lat="48.3181317" lon="-4.1038983"><ele>110.0</ele><time>2026-05-01T08:07:08.684Z</time></trkpt><trkpt lat="48.3180333" lon="-4.1039667"><ele>109.2</ele><time>2026-05-01T08:07:09.676Z</time></trkpt><trkpt lat="48.3179267" lon="-4.1040067"><ele>108.4</ele><time>2026-05-01T08:07:10.675Z</time></trkpt><trkpt lat="48.3178133" lon="-4.1040167"><ele>107.6</ele><time>2026-05-01T08:07:11.673Z</time></trkpt><trkpt lat="48.3177033" lon="-4.1040083"><ele>106.8</ele><time>2026-05-01T08:07:12.673Z</time></trkpt><trkpt lat="48.3175933" lon="-4.1039617"><ele>106.0</ele><time>2026-05-01T08:07:13.673Z</time></trkpt><trkpt lat="48.31749" lon="-4.1038883"><ele>106.0</ele><time>2026-05-01T08:07:14.682Z</time></trkpt><trkpt lat="48.3173867" lon="-4.1038033"><ele>106.0</ele><time>2026-05-01T08:07:15.673Z</time></trkpt><trkpt lat="48.317285" lon="-4.103705"><ele>106.0</ele><time>2026-05-01T08:07:16.675Z</time></trkpt><trkpt lat="48.3171833" lon="-4.103595"><ele>106.0</ele><time>2026-05-01T08:07:17.675Z</time></trkpt><trkpt lat="48.317075" lon="-4.1035083"><ele>106.25</ele><time>2026-05-01T08:07:18.677Z</time></trkpt><trkpt lat="48.3169667" lon="-4.1034217"><ele>106.5</ele><time>2026-05-01T08:07:19.673Z</time></trkpt><trkpt lat="48.3168633" lon="-4.1033467"><ele>106.75</ele><time>2026-05-01T08:07:20.68Z</time></trkpt><trkpt lat="48.31674" lon="-4.1032833"><ele>107.0</ele><time>2026-05-01T08:07:21.677Z</time></trkpt><trkpt lat="48.3166117" lon="-4.1032167"><ele>107.0</ele><time>2026-05-01T08:07:22.678Z</time></trkpt><trkpt lat="48.3164833" lon="-4.1031517"><ele>107.0</ele><time>2026-05-01T08:07:23.678Z</time></trkpt><trkpt lat="48.3163583" lon="-4.1030767"><ele>107.0</ele><time>2026-05-01T08:07:24.677Z</time></trkpt><trkpt lat="48.3162383" lon="-4.102985"><ele>107.0</ele><time>2026-05-01T08:07:25.675Z</time></trkpt><trkpt lat="48.31613" lon="-4.1028733"><ele>105.5</ele><time>2026-05-01T08:07:26.671Z</time></trkpt><trkpt lat="48.3160383" lon="-4.102745"><ele>104.0</ele><time>2026-05-01T08:07:27.673Z</time></trkpt><trkpt lat="48.3159467" lon="-4.10261"><ele>102.5</ele><time>2026-05-01T08:07:28.67Z</time></trkpt><trkpt lat="48.315875" lon="-4.1024617"><ele>101.0</ele><time>2026-05-01T08:07:29.675Z</time></trkpt><trkpt lat="48.315815" lon="-4.10228"><ele>101.0</ele><time>2026-05-01T08:07:30.673Z</time></trkpt><trkpt lat="48.3157783" lon="-4.102085"><ele>101.0</ele><time>2026-05-01T08:07:31.671Z</time></trkpt><trkpt lat="48.3157533" lon="-4.1018917"><ele>101.0</ele><time>2026-05-01T08:07:32.681Z</time></trkpt><trkpt lat="48.3157383" lon="-4.10169"><ele>101.0</ele><time>2026-05-01T08:07:33.672Z</time></trkpt><trkpt lat="48.3157083" lon="-4.1014967"><ele>102.25</ele><time>2026-05-01T08:07:34.67Z</time></trkpt><trkpt lat="48.3156817" lon="-4.101305"><ele>103.5</ele><time>2026-05-01T08:07:35.675Z</time></trkpt><trkpt lat="48.3156567" lon="-4.10112"><ele>104.75</ele><time>2026-05-01T08:07:36.673Z</time></trkpt><trkpt lat="48.3156467" lon="-4.1009333"><ele>106.0</ele><time>2026-05-01T08:07:37.675Z</time></trkpt><trkpt lat="48.3156417" lon="-4.1007517"><ele>105.6</ele><time>2026-05-01T08:07:38.674Z</time></trkpt><trkpt lat="48.3156517" lon="-4.1005733"><ele>105.19999999999999</ele><time>2026-05-01T08:07:39.672Z</time></trkpt><trkpt lat="48.3156483" lon="-4.1004033"><ele>104.80000000000001</ele><time>2026-05-01T08:07:40.672Z</time></trkpt><trkpt lat="48.3156417" lon="-4.10022"><ele>104.4</ele><time>2026-05-01T08:07:41.675Z</time></trkpt><trkpt lat="48.31559" lon="-4.1001133"><ele>104.0</ele><time>2026-05-01T08:07:42.675Z</time></trkpt><trkpt lat="48.3154933" lon="-4.1001517"><ele>104.0</ele><time>2026-05-01T08:07:43.676Z</time></trkpt><trkpt lat="48.315395" lon="-4.1003667"><ele>104.0</ele><time>2026-05-01T08:07:44.673Z</time></trkpt><trkpt lat="48.315335" lon="-4.100515"><ele>104.0</ele><time>2026-05-01T08:07:45.673Z</time></trkpt><trkpt lat="48.3152967" lon="-4.1006317"><ele>104.0</ele><time>2026-05-01T08:07:46.673Z</time></trkpt><trkpt lat="48.3152533" lon="-4.1007533"><ele>104.2</ele><time>2026-05-01T08:07:47.673Z</time></trkpt><trkpt lat="48.3152033" lon="-4.1008883"><ele>104.4</ele><time>2026-05-01T08:07:48.677Z</time></trkpt><trkpt lat="48.3151483" lon="-4.1010183"><ele>104.6</ele><time>2026-05-01T08:07:49.674Z</time></trkpt><trkpt lat="48.3151" lon="-4.1011417"><ele>104.8</ele><time>2026-05-01T08:07:50.68Z</time></trkpt><trkpt lat="48.3150433" lon="-4.10126"><ele>105.0</ele><time>2026-05-01T08:07:51.676Z</time></trkpt><trkpt lat="48.3149733" lon="-4.10137"><ele>105.0</ele><time>2026-05-01T08:07:52.675Z</time></trkpt><trkpt lat="48.3148817" lon="-4.1014383"><ele>105.0</ele><time>2026-05-01T08:07:53.672Z</time></trkpt><trkpt lat="48.314795" lon="-4.101495"><ele>105.0</ele><time>2026-05-01T08:07:54.676Z</time></trkpt><trkpt lat="48.3147" lon="-4.101505"><ele>105.0</ele><time>2026-05-01T08:07:55.676Z</time></trkpt><trkpt lat="48.314615" lon="-4.1015217"><ele>105.0</ele><time>2026-05-01T08:07:56.674Z</time></trkpt><trkpt lat="48.31454" lon="-4.1015317"><ele>105.8</ele><time>2026-05-01T08:07:57.672Z</time></trkpt><trkpt lat="48.3144433" lon="-4.1014833"><ele>106.6</ele><time>2026-05-01T08:07:58.674Z</time></trkpt><trkpt lat="48.3143483" lon="-4.1013933"><ele>107.4</ele><time>2026-05-01T08:07:59.675Z</time></trkpt><trkpt lat="48.314275" lon="-4.101305"><ele>108.2</ele><time>2026-05-01T08:08:00.675Z</time></trkpt><trkpt lat="48.314215" lon="-4.1012417"><ele>109.0</ele><time>2026-05-01T08:08:01.675Z</time></trkpt><trkpt lat="48.3141567" lon="-4.1011733"><ele>109.0</ele><time>2026-05-01T08:08:02.674Z</time></trkpt><trkpt lat="48.314095" lon="-4.1011433"><ele>109.0</ele><time>2026-05-01T08:08:03.673Z</time></trkpt><trkpt lat="48.3140333" lon="-4.10112"><ele>109.0</ele><time>2026-05-01T08:08:04.672Z</time></trkpt><trkpt lat="48.3139733" lon="-4.1012583"><ele>109.0</ele><time>2026-05-01T08:08:06.674Z</time></trkpt><trkpt lat="48.3139183" lon="-4.10148"><ele>109.0</ele><time>2026-05-01T08:08:08.674Z</time></trkpt><trkpt lat="48.3139867" lon="-4.1017183"><ele>109.4</ele><time>2026-05-01T08:08:09.675Z</time></trkpt><trkpt lat="48.3140033" lon="-4.101885"><ele>109.80000000000001</ele><time>2026-05-01T08:08:10.679Z</time></trkpt><trkpt lat="48.3139917" lon="-4.10203"><ele>110.19999999999999</ele><time>2026-05-01T08:08:11.68Z</time></trkpt><trkpt lat="48.3139683" lon="-4.1021717"><ele>110.6</ele><time>2026-05-01T08:08:12.675Z</time></trkpt><trkpt lat="48.3139417" lon="-4.1023067"><ele>111.0</ele><time>2026-05-01T08:08:13.679Z</time></trkpt><trkpt lat="48.3139417" lon="-4.102435"><ele>111.4</ele><time>2026-05-01T08:08:14.673Z</time></trkpt><trkpt lat="48.3139583" lon="-4.1025567"><ele>111.8</ele><time>2026-05-01T08:08:15.674Z</time></trkpt><trkpt lat="48.3139933" lon="-4.102675"><ele>112.20000000000002</ele><time>2026-05-01T08:08:16.673Z</time></trkpt><trkpt lat="48.3140517" lon="-4.10279"><ele>112.60000000000001</ele><time>2026-05-01T08:08:17.674Z</time></trkpt><trkpt lat="48.31413" lon="-4.10289"><ele>113.0</ele><time>2026-05-01T08:08:18.674Z</time></trkpt><trkpt lat="48.31423" lon="-4.1029567"><ele>113.0</ele><time>2026-05-01T08:08:19.675Z</time></trkpt><trkpt lat="48.314305" lon="-4.1030517"><ele>113.00000000000001</ele><time>2026-05-01T08:08:20.676Z</time></trkpt><trkpt lat="48.3143833" lon="-4.1031517"><ele>113.00000000000001</ele><time>2026-05-01T08:08:21.677Z</time></trkpt><trkpt lat="48.3144567" lon="-4.1032683"><ele>113.0</ele><time>2026-05-01T08:08:22.674Z</time></trkpt><trkpt lat="48.3145633" lon="-4.1033767"><ele>113.0</ele><time>2026-05-01T08:08:23.677Z</time></trkpt><trkpt lat="48.3146617" lon="-4.1035467"><ele>112.75</ele><time>2026-05-01T08:08:24.678Z</time></trkpt><trkpt lat="48.3147217" lon="-4.103715"><ele>112.5</ele><time>2026-05-01T08:08:25.674Z</time></trkpt><trkpt lat="48.314765" lon="-4.1038917"><ele>112.25</ele><time>2026-05-01T08:08:26.683Z</time></trkpt><trkpt lat="48.3148" lon="-4.1040733"><ele>112.0</ele><time>2026-05-01T08:08:27.675Z</time></trkpt><trkpt lat="48.31484" lon="-4.1042467"><ele>113.75</ele><time>2026-05-01T08:08:28.674Z</time></trkpt><trkpt lat="48.3148867" lon="-4.10442"><ele>115.5</ele><time>2026-05-01T08:08:29.676Z</time></trkpt><trkpt lat="48.314935" lon="-4.104595"><ele>117.25</ele><time>2026-05-01T08:08:30.674Z</time></trkpt><trkpt lat="48.3149817" lon="-4.1047667"><ele>119.0</ele><time>2026-05-01T08:08:31.676Z</time></trkpt><trkpt lat="48.3150333" lon="-4.10494"><ele>121.75</ele><time>2026-05-01T08:08:32.677Z</time></trkpt><trkpt lat="48.3150917" lon="-4.105115"><ele>124.5</ele><time>2026-05-01T08:08:33.674Z</time></trkpt><trkpt lat="48.3151517" lon="-4.1052867"><ele>127.25</ele><time>2026-05-01T08:08:34.678Z</time></trkpt><trkpt lat="48.3152117" lon="-4.1054633"><ele>130.0</ele><time>2026-05-01T08:08:35.677Z</time></trkpt><trkpt lat="48.31527" lon="-4.1056367"><ele>132.0</ele><time>2026-05-01T08:08:36.674Z</time></trkpt><trkpt lat="48.3153267" lon="-4.1058133"><ele>134.0</ele><time>2026-05-01T08:08:37.674Z</time></trkpt><trkpt lat="48.3153883" lon="-4.1059867"><ele>136.0</ele><time>2026-05-01T08:08:38.676Z</time></trkpt><trkpt lat="48.3154517" lon="-4.1061617"><ele>138.0</ele><time>2026-05-01T08:08:39.676Z</time></trkpt><trkpt lat="48.3155267" lon="-4.1063317"><ele>137.75</ele><time>2026-05-01T08:08:40.68Z</time></trkpt><trkpt lat="48.31561" lon="-4.1064883"><ele>137.5</ele><time>2026-05-01T08:08:41.675Z</time></trkpt><trkpt lat="48.315705" lon="-4.1066367"><ele>137.25</ele><time>2026-05-01T08:08:42.675Z</time></trkpt><trkpt lat="48.3158" lon="-4.1067817"><ele>137.0</ele><time>2026-05-01T08:08:43.678Z</time></trkpt><trkpt lat="48.3159083" lon="-4.1069067"><ele>137.0</ele><time>2026-05-01T08:08:44.673Z</time></trkpt><trkpt lat="48.316025" lon="-4.10702"><ele>137.0</ele><time>2026-05-01T08:08:45.675Z</time></trkpt><trkpt lat="48.3161383" lon="-4.10712"><ele>137.0</ele><time>2026-05-01T08:08:46.674Z</time></trkpt><trkpt lat="48.3162467" lon="-4.1072217"><ele>137.0</ele><time>2026-05-01T08:08:47.672Z</time></trkpt><trkpt lat="48.3163517" lon="-4.1073433"><ele>137.0</ele><time>2026-05-01T08:08:48.674Z</time></trkpt><trkpt lat="48.3164517" lon="-4.1074783"><ele>137.0</ele><time>2026-05-01T08:08:49.674Z</time></trkpt><trkpt lat="48.3165467" lon="-4.1076217"><ele>137.0</ele><time>2026-05-01T08:08:50.674Z</time></trkpt><trkpt lat="48.31663" lon="-4.1077667"><ele>137.0</ele><time>2026-05-01T08:08:51.672Z</time></trkpt><trkpt lat="48.3167017" lon="-4.1079083"><ele>137.0</ele><time>2026-05-01T08:08:52.674Z</time></trkpt><trkpt lat="48.316765" lon="-4.1080517"><ele>137.0</ele><time>2026-05-01T08:08:53.677Z</time></trkpt><trkpt lat="48.3168133" lon="-4.1082083"><ele>137.0</ele><time>2026-05-01T08:08:54.674Z</time></trkpt><trkpt lat="48.3168417" lon="-4.1083767"><ele>137.0</ele><time>2026-05-01T08:08:55.681Z</time></trkpt><trkpt lat="48.3168583" lon="-4.1085617"><ele>138.5</ele><time>2026-05-01T08:08:56.675Z</time></trkpt><trkpt lat="48.31687" lon="-4.1087567"><ele>140.0</ele><time>2026-05-01T08:08:57.676Z</time></trkpt><trkpt lat="48.3168783" lon="-4.1089533"><ele>141.5</ele><time>2026-05-01T08:08:58.673Z</time></trkpt><trkpt lat="48.3168817" lon="-4.1091433"><ele>143.0</ele><time>2026-05-01T08:08:59.673Z</time></trkpt><trkpt lat="48.31689" lon="-4.1093333"><ele>143.5</ele><time>2026-05-01T08:09:00.678Z</time></trkpt><trkpt lat="48.3168967" lon="-4.1095217"><ele>144.0</ele><time>2026-05-01T08:09:01.672Z</time></trkpt><trkpt lat="48.3169017" lon="-4.10971"><ele>144.5</ele><time>2026-05-01T08:09:02.674Z</time></trkpt><trkpt lat="48.3169117" lon="-4.1098933"><ele>145.0</ele><time>2026-05-01T08:09:03.679Z</time></trkpt><trkpt lat="48.3169067" lon="-4.1100783"><ele>145.0</ele><time>2026-05-01T08:09:04.672Z</time></trkpt><trkpt lat="48.3168733" lon="-4.11025"><ele>145.0</ele><time>2026-05-01T08:09:05.673Z</time></trkpt><trkpt lat="48.31682" lon="-4.1104067"><ele>145.0</ele><time>2026-05-01T08:09:06.674Z</time></trkpt><trkpt lat="48.3167467" lon="-4.11054"><ele>145.0</ele><time>2026-05-01T08:09:07.675Z</time></trkpt><trkpt lat="48.31666" lon="-4.1106533"><ele>145.0</ele><time>2026-05-01T08:09:08.678Z</time></trkpt><trkpt lat="48.316545" lon="-4.110715"><ele>145.0</ele><time>2026-05-01T08:09:09.678Z</time></trkpt><trkpt lat="48.3164333" lon="-4.1107583"><ele>145.0</ele><time>2026-05-01T08:09:10.676Z</time></trkpt><trkpt lat="48.316315" lon="-4.1107567"><ele>145.0</ele><time>2026-05-01T08:09:11.673Z</time></trkpt><trkpt lat="48.3161867" lon="-4.1106983"><ele>144.75</ele><time>2026-05-01T08:09:12.675Z</time></trkpt><trkpt lat="48.3160633" lon="-4.1106217"><ele>144.5</ele><time>2026-05-01T08:09:13.674Z</time></trkpt><trkpt lat="48.3159333" lon="-4.1105317"><ele>144.25</ele><time>2026-05-01T08:09:14.676Z</time></trkpt><trkpt lat="48.3157783" lon="-4.1104367"><ele>144.0</ele><time>2026-05-01T08:09:15.682Z</time></trkpt><trkpt lat="48.31563" lon="-4.1103883"><ele>141.5</ele><time>2026-05-01T08:09:16.674Z</time></trkpt><trkpt lat="48.31551" lon="-4.1104033"><ele>139.0</ele><time>2026-05-01T08:09:17.674Z</time></trkpt><trkpt lat="48.315375" lon="-4.1104483"><ele>136.5</ele><time>2026-05-01T08:09:18.674Z</time></trkpt><trkpt lat="48.315255" lon="-4.11053"><ele>134.0</ele><time>2026-05-01T08:09:19.678Z</time></trkpt><trkpt lat="48.3151383" lon="-4.1106283"><ele>135.75</ele><time>2026-05-01T08:09:20.681Z</time></trkpt><trkpt lat="48.31503" lon="-4.1107533"><ele>137.5</ele><time>2026-05-01T08:09:21.687Z</time></trkpt><trkpt lat="48.3149267" lon="-4.1108917"><ele>139.25</ele><time>2026-05-01T08:09:22.676Z</time></trkpt><trkpt lat="48.3148267" lon="-4.1110317"><ele>141.0</ele><time>2026-05-01T08:09:23.675Z</time></trkpt><trkpt lat="48.3147317" lon="-4.1111867"><ele>138.5</ele><time>2026-05-01T08:09:24.676Z</time></trkpt><trkpt lat="48.314635" lon="-4.1113383"><ele>136.0</ele><time>2026-05-01T08:09:25.673Z</time></trkpt><trkpt lat="48.314565" lon="-4.111515"><ele>133.5</ele><time>2026-05-01T08:09:26.684Z</time></trkpt><trkpt lat="48.3145067" lon="-4.1117017"><ele>131.0</ele><time>2026-05-01T08:09:27.675Z</time></trkpt><trkpt lat="48.314465" lon="-4.1118967"><ele>131.0</ele><time>2026-05-01T08:09:28.674Z</time></trkpt><trkpt lat="48.3144333" lon="-4.1121033"><ele>131.0</ele><time>2026-05-01T08:09:29.676Z</time></trkpt><trkpt lat="48.314415" lon="-4.11232"><ele>131.0</ele><time>2026-05-01T08:09:30.675Z</time></trkpt><trkpt lat="48.3144083" lon="-4.112545"><ele>131.0</ele><time>2026-05-01T08:09:31.678Z</time></trkpt><trkpt lat="48.3143917" lon="-4.1127667"><ele>131.25</ele><time>2026-05-01T08:09:32.677Z</time></trkpt><trkpt lat="48.31438" lon="-4.1129883"><ele>131.5</ele><time>2026-05-01T08:09:33.676Z</time></trkpt><trkpt lat="48.31436" lon="-4.113205"><ele>131.75</ele><time>2026-05-01T08:09:34.675Z</time></trkpt><trkpt lat="48.3143433" lon="-4.1134217"><ele>132.0</ele><time>2026-05-01T08:09:35.677Z</time></trkpt><trkpt lat="48.3143317" lon="-4.1136433"><ele>132.33333333333334</ele><time>2026-05-01T08:09:36.675Z</time></trkpt><trkpt lat="48.3143067" lon="-4.11387"><ele>132.66666666666669</ele><time>2026-05-01T08:09:37.672Z</time></trkpt><trkpt lat="48.3142883" lon="-4.1140967"><ele>133.0</ele><time>2026-05-01T08:09:38.674Z</time></trkpt><trkpt lat="48.3142683" lon="-4.1143267"><ele>133.0</ele><time>2026-05-01T08:09:39.676Z</time></trkpt><trkpt lat="48.314245" lon="-4.1145567"><ele>133.0</ele><time>2026-05-01T08:09:40.681Z</time></trkpt><trkpt lat="48.314225" lon="-4.11479"><ele>133.0</ele><time>2026-05-01T08:09:41.675Z</time></trkpt><trkpt lat="48.3142067" lon="-4.1150267"><ele>133.0</ele><time>2026-05-01T08:09:42.674Z</time></trkpt><trkpt lat="48.3141867" lon="-4.1152567"><ele>133.0</ele><time>2026-05-01T08:09:43.673Z</time></trkpt><trkpt lat="48.3141667" lon="-4.11548"><ele>133.0</ele><time>2026-05-01T08:09:44.677Z</time></trkpt><trkpt lat="48.314145" lon="-4.1157033"><ele>132.0</ele><time>2026-05-01T08:09:45.676Z</time></trkpt><trkpt lat="48.314125" lon="-4.1159267"><ele>131.0</ele><time>2026-05-01T08:09:46.674Z</time></trkpt><trkpt lat="48.3141083" lon="-4.11615"><ele>130.0</ele><time>2026-05-01T08:09:47.673Z</time></trkpt><trkpt lat="48.3140917" lon="-4.116375"><ele>128.33333333333334</ele><time>2026-05-01T08:09:48.673Z</time></trkpt><trkpt lat="48.3140733" lon="-4.1166"><ele>126.66666666666666</ele><time>2026-05-01T08:09:49.678Z</time></trkpt><trkpt lat="48.3140517" lon="-4.116825"><ele>125.0</ele><time>2026-05-01T08:09:50.672Z</time></trkpt><trkpt lat="48.31403" lon="-4.117045"><ele>125.0</ele><time>2026-05-01T08:09:51.673Z</time></trkpt><trkpt lat="48.3140033" lon="-4.1172617"><ele>125.0</ele><time>2026-05-01T08:09:52.674Z</time></trkpt><trkpt lat="48.31398" lon="-4.1174783"><ele>125.0</ele><time>2026-05-01T08:09:53.68Z</time></trkpt><trkpt lat="48.3139583" lon="-4.1177"><ele>125.0</ele><time>2026-05-01T08:09:54.674Z</time></trkpt><trkpt lat="48.3139367" lon="-4.11791"><ele>124.0</ele><time>2026-05-01T08:09:55.676Z</time></trkpt><trkpt lat="48.313895" lon="-4.1181067"><ele>123.0</ele><time>2026-05-01T08:09:56.675Z</time></trkpt><trkpt lat="48.3138467" lon="-4.1183067"><ele>122.0</ele><time>2026-05-01T08:09:57.68Z</time></trkpt><trkpt lat="48.31378" lon="-4.118495"><ele>121.0</ele><time>2026-05-01T08:09:58.675Z</time></trkpt><trkpt lat="48.3137067" lon="-4.118685"><ele>121.0</ele><time>2026-05-01T08:09:59.676Z</time></trkpt><trkpt lat="48.3136233" lon="-4.1188683"><ele>121.0</ele><time>2026-05-01T08:10:00.683Z</time></trkpt><trkpt lat="48.31354" lon="-4.1190533"><ele>121.0</ele><time>2026-05-01T08:10:01.675Z</time></trkpt><trkpt lat="48.3134533" lon="-4.1192333"><ele>121.0</ele><time>2026-05-01T08:10:02.677Z</time></trkpt><trkpt lat="48.3133683" lon="-4.1194083"><ele>121.0</ele><time>2026-05-01T08:10:03.676Z</time></trkpt><trkpt lat="48.313285" lon="-4.11959"><ele>121.0</ele><time>2026-05-01T08:10:04.674Z</time></trkpt><trkpt lat="48.3131933" lon="-4.1197667"><ele>121.0</ele><time>2026-05-01T08:10:05.676Z</time></trkpt><trkpt lat="48.3131033" lon="-4.1199517"><ele>121.0</ele><time>2026-05-01T08:10:06.676Z</time></trkpt><trkpt lat="48.3130133" lon="-4.1201367"><ele>119.75</ele><time>2026-05-01T08:10:07.674Z</time></trkpt><trkpt lat="48.312925" lon="-4.1203217"><ele>118.5</ele><time>2026-05-01T08:10:08.677Z</time></trkpt><trkpt lat="48.312835" lon="-4.1205"><ele>117.25</ele><time>2026-05-01T08:10:09.674Z</time></trkpt><trkpt lat="48.3127517" lon="-4.1206783"><ele>116.0</ele><time>2026-05-01T08:10:10.674Z</time></trkpt><trkpt lat="48.3126767" lon="-4.1208633"><ele>116.0</ele><time>2026-05-01T08:10:11.678Z</time></trkpt><trkpt lat="48.3126083" lon="-4.1210517"><ele>116.0</ele><time>2026-05-01T08:10:12.672Z</time></trkpt><trkpt lat="48.3125483" lon="-4.1212433"><ele>116.0</ele><time>2026-05-01T08:10:13.673Z</time></trkpt><trkpt lat="48.312495" lon="-4.1214383"><ele>116.0</ele><time>2026-05-01T08:10:14.677Z</time></trkpt><trkpt lat="48.312445" lon="-4.1216417"><ele>114.5</ele><time>2026-05-01T08:10:15.676Z</time></trkpt><trkpt lat="48.3124017" lon="-4.1218467"><ele>113.0</ele><time>2026-05-01T08:10:16.676Z</time></trkpt><trkpt lat="48.312355" lon="-4.12205"><ele>111.5</ele><time>2026-05-01T08:10:17.69Z</time></trkpt><trkpt lat="48.3123083" lon="-4.1222567"><ele>110.0</ele><time>2026-05-01T08:10:18.687Z</time></trkpt><trkpt lat="48.3122617" lon="-4.1224633"><ele>110.66666666666666</ele><time>2026-05-01T08:10:19.675Z</time></trkpt><trkpt lat="48.31221" lon="-4.12267"><ele>111.33333333333334</ele><time>2026-05-01T08:10:20.675Z</time></trkpt><trkpt lat="48.3121517" lon="-4.1228783"><ele>112.0</ele><time>2026-05-01T08:10:21.673Z</time></trkpt><trkpt lat="48.3120933" lon="-4.1230933"><ele>111.0</ele><time>2026-05-01T08:10:22.676Z</time></trkpt><trkpt lat="48.31203" lon="-4.1233083"><ele>110.0</ele><time>2026-05-01T08:10:23.673Z</time></trkpt><trkpt lat="48.3119667" lon="-4.1235233"><ele>109.0</ele><time>2026-05-01T08:10:24.68Z</time></trkpt><trkpt lat="48.3118983" lon="-4.1237317"><ele>109.0</ele><time>2026-05-01T08:10:25.673Z</time></trkpt><trkpt lat="48.3118267" lon="-4.1239333"><ele>109.0</ele><time>2026-05-01T08:10:26.676Z</time></trkpt><trkpt lat="48.3117517" lon="-4.1241283"><ele>109.0</ele><time>2026-05-01T08:10:27.674Z</time></trkpt><trkpt lat="48.3116733" lon="-4.1243117"><ele>109.0</ele><time>2026-05-01T08:10:28.674Z</time></trkpt><trkpt lat="48.311595" lon="-4.1244883"><ele>108.25</ele><time>2026-05-01T08:10:29.674Z</time></trkpt><trkpt lat="48.311515" lon="-4.1246617"><ele>107.5</ele><time>2026-05-01T08:10:30.677Z</time></trkpt><trkpt lat="48.3114367" lon="-4.124825"><ele>106.75</ele><time>2026-05-01T08:10:31.676Z</time></trkpt><trkpt lat="48.311355" lon="-4.1249867"><ele>106.0</ele><time>2026-05-01T08:10:32.675Z</time></trkpt><trkpt lat="48.3112667" lon="-4.1251417"><ele>105.75</ele><time>2026-05-01T08:10:33.677Z</time></trkpt><trkpt lat="48.3111717" lon="-4.1252933"><ele>105.5</ele><time>2026-05-01T08:10:34.672Z</time></trkpt><trkpt lat="48.3110667" lon="-4.125435"><ele>105.25</ele><time>2026-05-01T08:10:35.674Z</time></trkpt><trkpt lat="48.3109583" lon="-4.12557"><ele>105.0</ele><time>2026-05-01T08:10:36.676Z</time></trkpt><trkpt lat="48.310845" lon="-4.1257017"><ele>103.25</ele><time>2026-05-01T08:10:37.681Z</time></trkpt><trkpt lat="48.310735" lon="-4.125835"><ele>101.5</ele><time>2026-05-01T08:10:38.674Z</time></trkpt><trkpt lat="48.3106233" lon="-4.1259633"><ele>99.75</ele><time>2026-05-01T08:10:39.679Z</time></trkpt><trkpt lat="48.3105117" lon="-4.1261017"><ele>98.0</ele><time>2026-05-01T08:10:40.675Z</time></trkpt><trkpt lat="48.3104067" lon="-4.12625"><ele>97.75</ele><time>2026-05-01T08:10:41.676Z</time></trkpt><trkpt lat="48.310305" lon="-4.1264017"><ele>97.5</ele><time>2026-05-01T08:10:42.678Z</time></trkpt><trkpt lat="48.3102033" lon="-4.1265583"><ele>97.25</ele><time>2026-05-01T08:10:43.675Z</time></trkpt><trkpt lat="48.3101033" lon="-4.12672"><ele>97.0</ele><time>2026-05-01T08:10:44.677Z</time></trkpt><trkpt lat="48.310005" lon="-4.1268833"><ele>96.25</ele><time>2026-05-01T08:10:45.674Z</time></trkpt><trkpt lat="48.3099033" lon="-4.1270417"><ele>95.5</ele><time>2026-05-01T08:10:46.674Z</time></trkpt><trkpt lat="48.3098017" lon="-4.1271933"><ele>94.75</ele><time>2026-05-01T08:10:47.674Z</time></trkpt><trkpt lat="48.3097" lon="-4.1273467"><ele>94.0</ele><time>2026-05-01T08:10:48.682Z</time></trkpt><trkpt lat="48.3096017" lon="-4.1275067"><ele>94.0</ele><time>2026-05-01T08:10:49.68Z</time></trkpt><trkpt lat="48.3095083" lon="-4.1276717"><ele>94.0</ele><time>2026-05-01T08:10:50.676Z</time></trkpt><trkpt lat="48.3094217" lon="-4.1278467"><ele>94.0</ele><time>2026-05-01T08:10:51.676Z</time></trkpt><trkpt lat="48.30934" lon="-4.1280283"><ele>94.0</ele><time>2026-05-01T08:10:52.673Z</time></trkpt><trkpt lat="48.3092617" lon="-4.128215"><ele>93.25</ele><time>2026-05-01T08:10:53.678Z</time></trkpt><trkpt lat="48.3091817" lon="-4.1283967"><ele>92.5</ele><time>2026-05-01T08:10:54.679Z</time></trkpt><trkpt lat="48.3091033" lon="-4.128575"><ele>91.75</ele><time>2026-05-01T08:10:55.675Z</time></trkpt><trkpt lat="48.3090267" lon="-4.12874"><ele>91.0</ele><time>2026-05-01T08:10:56.68Z</time></trkpt><trkpt lat="48.3089433" lon="-4.1289"><ele>90.5</ele><time>2026-05-01T08:10:57.676Z</time></trkpt><trkpt lat="48.3088567" lon="-4.1290583"><ele>90.0</ele><time>2026-05-01T08:10:58.675Z</time></trkpt><trkpt lat="48.3087767" lon="-4.1292167"><ele>89.5</ele><time>2026-05-01T08:10:59.676Z</time></trkpt><trkpt lat="48.3087083" lon="-4.1294"><ele>89.0</ele><time>2026-05-01T08:11:00.674Z</time></trkpt><trkpt lat="48.308645" lon="-4.12959"><ele>88.0</ele><time>2026-05-01T08:11:01.681Z</time></trkpt><trkpt lat="48.3085783" lon="-4.12978"><ele>87.0</ele><time>2026-05-01T08:11:02.68Z</time></trkpt><trkpt lat="48.30851" lon="-4.1299783"><ele>86.0</ele><time>2026-05-01T08:11:03.675Z</time></trkpt><trkpt lat="48.30844" lon="-4.130165"><ele>85.0</ele><time>2026-05-01T08:11:04.68Z</time></trkpt><trkpt lat="48.3083683" lon="-4.130355"><ele>84.25</ele><time>2026-05-01T08:11:05.679Z</time></trkpt><trkpt lat="48.3082983" lon="-4.1305467"><ele>83.5</ele><time>2026-05-01T08:11:06.675Z</time></trkpt><trkpt lat="48.3082267" lon="-4.1307333"><ele>82.75</ele><time>2026-05-01T08:11:07.688Z</time></trkpt><trkpt lat="48.30815" lon="-4.1309167"><ele>82.0</ele><time>2026-05-01T08:11:08.674Z</time></trkpt><trkpt lat="48.3080733" lon="-4.1310967"><ele>81.5</ele><time>2026-05-01T08:11:09.673Z</time></trkpt><trkpt lat="48.3079933" lon="-4.1312717"><ele>81.0</ele><time>2026-05-01T08:11:10.675Z</time></trkpt><trkpt lat="48.3079117" lon="-4.1314483"><ele>80.5</ele><time>2026-05-01T08:11:11.676Z</time></trkpt><trkpt lat="48.307825" lon="-4.131625"><ele>80.0</ele><time>2026-05-01T08:11:12.68Z</time></trkpt><trkpt lat="48.3077317" lon="-4.1317983"><ele>80.0</ele><time>2026-05-01T08:11:13.673Z</time></trkpt><trkpt lat="48.3076367" lon="-4.1319683"><ele>80.0</ele><time>2026-05-01T08:11:14.672Z</time></trkpt><trkpt lat="48.3075433" lon="-4.132135"><ele>80.0</ele><time>2026-05-01T08:11:15.674Z</time></trkpt><trkpt lat="48.3074533" lon="-4.1322983"><ele>80.0</ele><time>2026-05-01T08:11:16.673Z</time></trkpt><trkpt lat="48.3073633" lon="-4.1324617"><ele>79.25</ele><time>2026-05-01T08:11:17.675Z</time></trkpt><trkpt lat="48.3072733" lon="-4.132625"><ele>78.5</ele><time>2026-05-01T08:11:18.675Z</time></trkpt><trkpt lat="48.3071833" lon="-4.1327917"><ele>77.75</ele><time>2026-05-01T08:11:19.674Z</time></trkpt><trkpt lat="48.3070883" lon="-4.132965"><ele>77.0</ele><time>2026-05-01T08:11:20.679Z</time></trkpt><trkpt lat="48.307" lon="-4.1331433"><ele>74.75</ele><time>2026-05-01T08:11:21.674Z</time></trkpt><trkpt lat="48.3069133" lon="-4.1333217"><ele>72.5</ele><time>2026-05-01T08:11:22.679Z</time></trkpt><trkpt lat="48.3068333" lon="-4.1335"><ele>70.25</ele><time>2026-05-01T08:11:23.679Z</time></trkpt><trkpt lat="48.30675" lon="-4.13368"><ele>68.0</ele><time>2026-05-01T08:11:24.678Z</time></trkpt><trkpt lat="48.3066683" lon="-4.1338683"><ele>67.75</ele><time>2026-05-01T08:11:25.679Z</time></trkpt><trkpt lat="48.30659" lon="-4.134065"><ele>67.5</ele><time>2026-05-01T08:11:26.674Z</time></trkpt><trkpt lat="48.306515" lon="-4.1342583"><ele>67.25</ele><time>2026-05-01T08:11:27.674Z</time></trkpt><trkpt lat="48.30644" lon="-4.1344483"><ele>67.0</ele><time>2026-05-01T08:11:28.681Z</time></trkpt><trkpt lat="48.3063817" lon="-4.1346433"><ele>67.0</ele><time>2026-05-01T08:11:29.677Z</time></trkpt><trkpt lat="48.3063417" lon="-4.13484"><ele>67.0</ele><time>2026-05-01T08:11:30.676Z</time></trkpt><trkpt lat="48.3063067" lon="-4.1350383"><ele>67.0</ele><time>2026-05-01T08:11:31.673Z</time></trkpt><trkpt lat="48.3062767" lon="-4.135235"><ele>67.0</ele><time>2026-05-01T08:11:32.674Z</time></trkpt><trkpt lat="48.3062417" lon="-4.1354283"><ele>67.25</ele><time>2026-05-01T08:11:33.676Z</time></trkpt><trkpt lat="48.3062083" lon="-4.13562"><ele>67.5</ele><time>2026-05-01T08:11:34.678Z</time></trkpt><trkpt lat="48.306165" lon="-4.13581"><ele>67.75</ele><time>2026-05-01T08:11:35.682Z</time></trkpt><trkpt lat="48.3061217" lon="-4.1359967"><ele>68.0</ele><time>2026-05-01T08:11:36.68Z</time></trkpt><trkpt lat="48.3060767" lon="-4.1361883"><ele>68.0</ele><time>2026-05-01T08:11:37.673Z</time></trkpt><trkpt lat="48.3060267" lon="-4.136395"><ele>68.0</ele><time>2026-05-01T08:11:38.679Z</time></trkpt><trkpt lat="48.3059733" lon="-4.13661"><ele>68.0</ele><time>2026-05-01T08:11:39.676Z</time></trkpt><trkpt lat="48.3059217" lon="-4.1368267"><ele>67.33333333333334</ele><time>2026-05-01T08:11:40.672Z</time></trkpt><trkpt lat="48.3058617" lon="-4.1370383"><ele>66.66666666666667</ele><time>2026-05-01T08:11:41.676Z</time></trkpt><trkpt lat="48.3058033" lon="-4.13725"><ele>66.0</ele><time>2026-05-01T08:11:42.675Z</time></trkpt><trkpt lat="48.305745" lon="-4.1374617"><ele>66.0</ele><time>2026-05-01T08:11:43.674Z</time></trkpt><trkpt lat="48.3056833" lon="-4.13768"><ele>66.0</ele><time>2026-05-01T08:11:44.683Z</time></trkpt><trkpt lat="48.3056133" lon="-4.1378933"><ele>66.0</ele><time>2026-05-01T08:11:45.679Z</time></trkpt><trkpt lat="48.3055433" lon="-4.1381033"><ele>66.33333333333333</ele><time>2026-05-01T08:11:46.68Z</time></trkpt><trkpt lat="48.30547" lon="-4.1383083"><ele>66.66666666666666</ele><time>2026-05-01T08:11:47.675Z</time></trkpt><trkpt lat="48.3053917" lon="-4.1385017"><ele>67.0</ele><time>2026-05-01T08:11:48.674Z</time></trkpt><trkpt lat="48.3053067" lon="-4.1386917"><ele>67.0</ele><time>2026-05-01T08:11:49.674Z</time></trkpt><trkpt lat="48.3052183" lon="-4.138885"><ele>67.0</ele><time>2026-05-01T08:11:50.675Z</time></trkpt><trkpt lat="48.305125" lon="-4.1390783"><ele>67.0</ele><time>2026-05-01T08:11:51.675Z</time></trkpt><trkpt lat="48.30502" lon="-4.1392783"><ele>67.0</ele><time>2026-05-01T08:11:52.674Z</time></trkpt><trkpt lat="48.30492" lon="-4.1394783"><ele>67.0</ele><time>2026-05-01T08:11:53.675Z</time></trkpt><trkpt lat="48.3048217" lon="-4.1396817"><ele>67.0</ele><time>2026-05-01T08:11:54.674Z</time></trkpt><trkpt lat="48.3047267" lon="-4.139885"><ele>67.33333333333333</ele><time>2026-05-01T08:11:55.681Z</time></trkpt><trkpt lat="48.3046383" lon="-4.14009"><ele>67.66666666666667</ele><time>2026-05-01T08:11:56.677Z</time></trkpt><trkpt lat="48.3045583" lon="-4.1403017"><ele>68.0</ele><time>2026-05-01T08:11:57.675Z</time></trkpt><trkpt lat="48.3045" lon="-4.1405267"><ele>67.66666666666667</ele><time>2026-05-01T08:11:58.675Z</time></trkpt><trkpt lat="48.30446" lon="-4.140755"><ele>67.33333333333333</ele><time>2026-05-01T08:11:59.674Z</time></trkpt><trkpt lat="48.3044333" lon="-4.14098"><ele>67.0</ele><time>2026-05-01T08:12:00.682Z</time></trkpt><trkpt lat="48.304415" lon="-4.14121"><ele>67.0</ele><time>2026-05-01T08:12:01.675Z</time></trkpt><trkpt lat="48.304405" lon="-4.1414433"><ele>67.0</ele><time>2026-05-01T08:12:02.677Z</time></trkpt><trkpt lat="48.3044083" lon="-4.14168"><ele>67.0</ele><time>2026-05-01T08:12:03.678Z</time></trkpt><trkpt lat="48.3044083" lon="-4.14191"><ele>66.66666666666666</ele><time>2026-05-01T08:12:04.676Z</time></trkpt><trkpt lat="48.304405" lon="-4.1421383"><ele>66.33333333333333</ele><time>2026-05-01T08:12:05.678Z</time></trkpt><trkpt lat="48.3044" lon="-4.1423617"><ele>66.0</ele><time>2026-05-01T08:12:06.676Z</time></trkpt><trkpt lat="48.3043783" lon="-4.142585"><ele>65.0</ele><time>2026-05-01T08:12:07.68Z</time></trkpt><trkpt lat="48.3043417" lon="-4.142805"><ele>64.0</ele><time>2026-05-01T08:12:08.675Z</time></trkpt><trkpt lat="48.304305" lon="-4.1430133"><ele>63.0</ele><time>2026-05-01T08:12:09.678Z</time></trkpt><trkpt lat="48.3042683" lon="-4.1432267"><ele>62.0</ele><time>2026-05-01T08:12:10.678Z</time></trkpt><trkpt lat="48.304215" lon="-4.1434417"><ele>61.0</ele><time>2026-05-01T08:12:11.676Z</time></trkpt><trkpt lat="48.3041583" lon="-4.14365"><ele>60.0</ele><time>2026-05-01T08:12:12.674Z</time></trkpt><trkpt lat="48.30411" lon="-4.14385"><ele>59.0</ele><time>2026-05-01T08:12:13.683Z</time></trkpt><trkpt lat="48.3040683" lon="-4.1440417"><ele>58.0</ele><time>2026-05-01T08:12:14.68Z</time></trkpt><trkpt lat="48.304035" lon="-4.1442283"><ele>58.0</ele><time>2026-05-01T08:12:15.679Z</time></trkpt><trkpt lat="48.304" lon="-4.14441"><ele>58.0</ele><time>2026-05-01T08:12:16.68Z</time></trkpt><trkpt lat="48.303975" lon="-4.1445767"><ele>58.0</ele><time>2026-05-01T08:12:17.676Z</time></trkpt><trkpt lat="48.3039483" lon="-4.14473"><ele>58.0</ele><time>2026-05-01T08:12:18.674Z</time></trkpt><trkpt lat="48.3039233" lon="-4.1448717"><ele>58.0</ele><time>2026-05-01T08:12:19.673Z</time></trkpt><trkpt lat="48.303895" lon="-4.1450117"><ele>58.0</ele><time>2026-05-01T08:12:20.681Z</time></trkpt><trkpt lat="48.303865" lon="-4.14515"><ele>58.0</ele><time>2026-05-01T08:12:21.673Z</time></trkpt><trkpt lat="48.3038267" lon="-4.145285"><ele>58.0</ele><time>2026-05-01T08:12:22.68Z</time></trkpt><trkpt lat="48.3037833" lon="-4.1454167"><ele>58.0</ele><time>2026-05-01T08:12:23.679Z</time></trkpt><trkpt lat="48.3037383" lon="-4.1455483"><ele>58.0</ele><time>2026-05-01T08:12:24.682Z</time></trkpt><trkpt lat="48.3036817" lon="-4.145675"><ele>58.0</ele><time>2026-05-01T08:12:25.677Z</time></trkpt><trkpt lat="48.303615" lon="-4.1457967"><ele>58.0</ele><time>2026-05-01T08:12:26.673Z</time></trkpt><trkpt lat="48.303545" lon="-4.1459133"><ele>58.0</ele><time>2026-05-01T08:12:27.672Z</time></trkpt><trkpt lat="48.3034717" lon="-4.146025"><ele>58.0</ele><time>2026-05-01T08:12:28.672Z</time></trkpt><trkpt lat="48.3033967" lon="-4.1461317"><ele>58.0</ele><time>2026-05-01T08:12:29.674Z</time></trkpt><trkpt lat="48.30332" lon="-4.1462367"><ele>58.0</ele><time>2026-05-01T08:12:30.671Z</time></trkpt><trkpt lat="48.30324" lon="-4.14634"><ele>58.0</ele><time>2026-05-01T08:12:31.672Z</time></trkpt><trkpt lat="48.3031633" lon="-4.1464483"><ele>58.0</ele><time>2026-05-01T08:12:32.676Z</time></trkpt><trkpt lat="48.30309" lon="-4.1465617"><ele>58.0</ele><time>2026-05-01T08:12:33.671Z</time></trkpt><trkpt lat="48.3030117" lon="-4.1466683"><ele>58.0</ele><time>2026-05-01T08:12:34.674Z</time></trkpt><trkpt lat="48.3029317" lon="-4.1467783"><ele>56.599999999999994</ele><time>2026-05-01T08:12:35.673Z</time></trkpt><trkpt lat="48.3028517" lon="-4.1468833"><ele>55.199999999999996</ele><time>2026-05-01T08:12:36.676Z</time></trkpt><trkpt lat="48.3027733" lon="-4.1469817"><ele>53.8</ele><time>2026-05-01T08:12:37.676Z</time></trkpt><trkpt lat="48.3027" lon="-4.14708"><ele>52.4</ele><time>2026-05-01T08:12:38.674Z</time></trkpt><trkpt lat="48.3026317" lon="-4.1471733"><ele>51.0</ele><time>2026-05-01T08:12:39.681Z</time></trkpt><trkpt lat="48.3025717" lon="-4.1472617"><ele>51.0</ele><time>2026-05-01T08:12:40.676Z</time></trkpt><trkpt lat="48.3025217" lon="-4.1473383"><ele>51.0</ele><time>2026-05-01T08:12:41.676Z</time></trkpt><trkpt lat="48.302475" lon="-4.1474067"><ele>51.0</ele><time>2026-05-01T08:12:42.672Z</time></trkpt><trkpt lat="48.302435" lon="-4.14748"><ele>51.0</ele><time>2026-05-01T08:12:43.678Z</time></trkpt><trkpt lat="48.302365" lon="-4.1476233"><ele>51.0</ele><time>2026-05-01T08:12:45.674Z</time></trkpt><trkpt lat="48.3023083" lon="-4.1477533"><ele>51.0</ele><time>2026-05-01T08:12:47.675Z</time></trkpt><trkpt lat="48.30225" lon="-4.147875"><ele>49.85714285714286</ele><time>2026-05-01T08:12:49.675Z</time></trkpt><trkpt lat="48.3022" lon="-4.1479783"><ele>48.714285714285715</ele><time>2026-05-01T08:12:51.675Z</time></trkpt><trkpt lat="48.3021617" lon="-4.1480917"><ele>47.57142857142857</ele><time>2026-05-01T08:12:53.676Z</time></trkpt><trkpt lat="48.3021433" lon="-4.1481867"><ele>46.42857142857143</ele><time>2026-05-01T08:12:55.676Z</time></trkpt><trkpt lat="48.3021333" lon="-4.1482917"><ele>45.285714285714285</ele><time>2026-05-01T08:15:22.68Z</time></trkpt><trkpt lat="48.3020867" lon="-4.1483633"><ele>44.142857142857146</ele><time>2026-05-01T08:15:30.68Z</time></trkpt><trkpt lat="48.3020683" lon="-4.1484633"><ele>43.0</ele><time>2026-05-01T08:15:37.677Z</time></trkpt><trkpt lat="48.3021233" lon="-4.1485333"><ele>43.00000000000001</ele><time>2026-05-01T08:16:27.679Z</time></trkpt><trkpt lat="48.30218" lon="-4.148585"><ele>43.0</ele><time>2026-05-01T08:16:34.677Z</time></trkpt><trkpt lat="48.302235" lon="-4.148635"><ele>43.0</ele><time>2026-05-01T08:16:44.679Z</time></trkpt><trkpt lat="48.3022667" lon="-4.148725"><ele>43.0</ele><time>2026-05-01T08:16:52.678Z</time></trkpt><trkpt lat="48.3023184" lon="-4.1487963"><ele>43.0</ele><time>2026-05-01T08:17:00.682Z</time></trkpt><trkpt lat="48.3023627" lon="-4.1488822"><ele>43.00000000000001</ele><time>2026-05-01T08:17:07.751Z</time></trkpt><trkpt lat="48.3023557" lon="-4.1489913"><ele>43.0</ele><time>2026-05-01T08:17:14.73Z</time></trkpt><trkpt lat="48.3023412" lon="-4.1490889"><ele>44.57142857142858</ele><time>2026-05-01T08:17:21.721Z</time></trkpt><trkpt lat="48.3023192" lon="-4.1491781"><ele>46.142857142857146</ele><time>2026-05-01T08:17:32.741Z</time></trkpt><trkpt lat="48.3023067" lon="-4.1492724"><ele>47.714285714285715</ele><time>2026-05-01T08:17:52.678Z</time></trkpt><trkpt lat="48.3023145" lon="-4.1493731"><ele>49.28571428571429</ele><time>2026-05-01T08:17:59.678Z</time></trkpt><trkpt lat="48.3023094" lon="-4.1494675"><ele>50.857142857142854</ele><time>2026-05-01T08:18:07.696Z</time></trkpt><trkpt lat="48.3023173" lon="-4.1495705"><ele>52.42857142857143</ele><time>2026-05-01T08:18:14.687Z</time></trkpt><trkpt lat="48.3023441" lon="-4.149657"><ele>54.0</ele><time>2026-05-01T08:18:20.729Z</time></trkpt><trkpt lat="48.3023678" lon="-4.1497482"><ele>54.0</ele><time>2026-05-01T08:18:28.681Z</time></trkpt><trkpt lat="48.3023892" lon="-4.1498413"><ele>54.0</ele><time>2026-05-01T08:18:34.712Z</time></trkpt><trkpt lat="48.3024074" lon="-4.1499346"><ele>54.0</ele><time>2026-05-01T08:18:42.679Z</time></trkpt><trkpt lat="48.3024292" lon="-4.1500362"><ele>54.0</ele><time>2026-05-01T08:19:05.686Z</time></trkpt><trkpt lat="48.3024011" lon="-4.14994"><ele>54.0</ele><time>2026-05-01T08:19:25.678Z</time></trkpt><trkpt lat="48.3023737" lon="-4.1498466"><ele>54.0</ele><time>2026-05-01T08:19:31.637Z</time></trkpt><trkpt lat="48.3023454" lon="-4.1497519"><ele>54.0</ele><time>2026-05-01T08:19:38.695Z</time></trkpt><trkpt lat="48.3023213" lon="-4.1496567"><ele>54.0</ele><time>2026-05-01T08:19:45.686Z</time></trkpt><trkpt lat="48.3023031" lon="-4.1495604"><ele>54.0</ele><time>2026-05-01T08:19:52.678Z</time></trkpt><trkpt lat="48.3023033" lon="-4.1494635"><ele>54.0</ele><time>2026-05-01T08:20:00.674Z</time></trkpt><trkpt lat="48.3023167" lon="-4.1493607"><ele>54.0</ele><time>2026-05-01T08:20:07.724Z</time></trkpt><trkpt lat="48.3023158" lon="-4.1492581"><ele>54.0</ele><time>2026-05-01T08:20:14.717Z</time></trkpt><trkpt lat="48.3023076" lon="-4.1491605"><ele>54.0</ele><time>2026-05-01T08:20:20.678Z</time></trkpt><trkpt lat="48.3023073" lon="-4.1490591"><ele>54.0</ele><time>2026-05-01T08:20:26.682Z</time></trkpt><trkpt lat="48.3023199" lon="-4.1489531"><ele>53.714285714285715</ele><time>2026-05-01T08:20:33.68Z</time></trkpt><trkpt lat="48.3023109" lon="-4.148857"><ele>53.42857142857143</ele><time>2026-05-01T08:20:39.716Z</time></trkpt><trkpt lat="48.3023019" lon="-4.1487587"><ele>53.14285714285714</ele><time>2026-05-01T08:20:46.706Z</time></trkpt><trkpt lat="48.3022509" lon="-4.1486884"><ele>52.85714285714286</ele><time>2026-05-01T08:21:11.71Z</time></trkpt><trkpt lat="48.3022213" lon="-4.1486027"><ele>52.57142857142858</ele><time>2026-05-01T08:21:17.679Z</time></trkpt><trkpt lat="48.302162" lon="-4.1485568"><ele>52.285714285714285</ele><time>2026-05-01T08:21:24.741Z</time></trkpt><trkpt lat="48.3020944" lon="-4.148532"><ele>52.0</ele><time>2026-05-01T08:21:32.681Z</time></trkpt><trkpt lat="48.3020717" lon="-4.1484398"><ele>51.6</ele><time>2026-05-01T08:21:38.722Z</time></trkpt><trkpt lat="48.3020991" lon="-4.1483543"><ele>51.2</ele><time>2026-05-01T08:21:46.678Z</time></trkpt><trkpt lat="48.3021326" lon="-4.1482691"><ele>50.8</ele><time>2026-05-01T08:21:52.736Z</time></trkpt><trkpt lat="48.3021818" lon="-4.148186"><ele>50.4</ele><time>2026-05-01T08:26:19.682Z</time></trkpt><trkpt lat="48.3022589" lon="-4.1479004"><ele>50.0</ele><time>2026-05-01T08:26:22.676Z</time></trkpt><trkpt lat="48.3023033" lon="-4.1477634"><ele>50.0</ele><time>2026-05-01T08:26:23.674Z</time></trkpt><trkpt lat="48.3023364" lon="-4.1476695"><ele>50.0</ele><time>2026-05-01T08:26:24.674Z</time></trkpt><trkpt lat="48.3023837" lon="-4.1475372"><ele>50.0</ele><time>2026-05-01T08:26:26.673Z</time></trkpt><trkpt lat="48.3024087" lon="-4.1473533"><ele>50.0</ele><time>2026-05-01T08:26:30.636Z</time></trkpt><trkpt lat="48.3025227" lon="-4.147271"><ele>50.0</ele><time>2026-05-01T08:26:31.674Z</time></trkpt><trkpt lat="48.3025897" lon="-4.1472058"><ele>50.16666666666667</ele><time>2026-05-01T08:26:32.674Z</time></trkpt><trkpt lat="48.3026505" lon="-4.1471381"><ele>50.333333333333336</ele><time>2026-05-01T08:26:33.678Z</time></trkpt><trkpt lat="48.3027014" lon="-4.1470712"><ele>50.5</ele><time>2026-05-01T08:26:34.671Z</time></trkpt><trkpt lat="48.302795" lon="-4.146945"><ele>50.66666666666667</ele><time>2026-05-01T08:26:36.681Z</time></trkpt><trkpt lat="48.3028467" lon="-4.14687"><ele>50.833333333333336</ele><time>2026-05-01T08:26:37.684Z</time></trkpt><trkpt lat="48.302905" lon="-4.1467867"><ele>51.0</ele><time>2026-05-01T08:26:38.678Z</time></trkpt><trkpt lat="48.302955" lon="-4.146705"><ele>51.0</ele><time>2026-05-01T08:26:39.675Z</time></trkpt><trkpt lat="48.3029967" lon="-4.14663"><ele>51.0</ele><time>2026-05-01T08:26:40.67Z</time></trkpt><trkpt lat="48.3030917" lon="-4.1464983"><ele>51.0</ele><time>2026-05-01T08:26:42.674Z</time></trkpt><trkpt lat="48.30314" lon="-4.1464233"><ele>51.0</ele><time>2026-05-01T08:26:43.673Z</time></trkpt><trkpt lat="48.303195" lon="-4.1463433"><ele>51.0</ele><time>2026-05-01T08:26:44.676Z</time></trkpt><trkpt lat="48.3032533" lon="-4.1462533"><ele>51.0</ele><time>2026-05-01T08:26:45.673Z</time></trkpt><trkpt lat="48.3033133" lon="-4.1461617"><ele>52.4</ele><time>2026-05-01T08:26:46.677Z</time></trkpt><trkpt lat="48.3033783" lon="-4.1460667"><ele>53.8</ele><time>2026-05-01T08:26:47.676Z</time></trkpt><trkpt lat="48.3034467" lon="-4.1459633"><ele>55.199999999999996</ele><time>2026-05-01T08:26:48.675Z</time></trkpt><trkpt lat="48.3035133" lon="-4.1458533"><ele>56.599999999999994</ele><time>2026-05-01T08:26:49.676Z</time></trkpt><trkpt lat="48.3035817" lon="-4.1457367"><ele>58.0</ele><time>2026-05-01T08:26:50.676Z</time></trkpt><trkpt lat="48.3036517" lon="-4.1456217"><ele>58.0</ele><time>2026-05-01T08:26:51.675Z</time></trkpt><trkpt lat="48.3037133" lon="-4.1454983"><ele>58.0</ele><time>2026-05-01T08:26:52.678Z</time></trkpt><trkpt lat="48.3037667" lon="-4.1453733"><ele>58.0</ele><time>2026-05-01T08:26:53.675Z</time></trkpt><trkpt lat="48.3038083" lon="-4.1452517"><ele>58.0</ele><time>2026-05-01T08:26:54.674Z</time></trkpt><trkpt lat="48.3038417" lon="-4.1451317"><ele>58.0</ele><time>2026-05-01T08:26:55.673Z</time></trkpt><trkpt lat="48.30386" lon="-4.1450183"><ele>57.99999999999999</ele><time>2026-05-01T08:26:56.676Z</time></trkpt><trkpt lat="48.3038783" lon="-4.1449033"><ele>58.0</ele><time>2026-05-01T08:26:57.672Z</time></trkpt><trkpt lat="48.3038933" lon="-4.14479"><ele>58.0</ele><time>2026-05-01T08:26:58.675Z</time></trkpt><trkpt lat="48.3039083" lon="-4.1446783"><ele>58.0</ele><time>2026-05-01T08:26:59.675Z</time></trkpt><trkpt lat="48.3039217" lon="-4.1445683"><ele>57.99999999999999</ele><time>2026-05-01T08:27:00.673Z</time></trkpt><trkpt lat="48.30394" lon="-4.14447"><ele>58.0</ele><time>2026-05-01T08:27:01.673Z</time></trkpt><trkpt lat="48.3039767" lon="-4.144305"><ele>57.99999999999999</ele><time>2026-05-01T08:27:03.673Z</time></trkpt><trkpt lat="48.3040383" lon="-4.1441933"><ele>58.0</ele><time>2026-05-01T08:27:05.673Z</time></trkpt><trkpt lat="48.30414" lon="-4.1442067"><ele>58.0</ele><time>2026-05-01T08:27:07.674Z</time></trkpt><trkpt lat="48.3042" lon="-4.1442383"><ele>58.0</ele><time>2026-05-01T08:27:08.673Z</time></trkpt><trkpt lat="48.3042667" lon="-4.1442917"><ele>57.99999999999999</ele><time>2026-05-01T08:27:09.675Z</time></trkpt><trkpt lat="48.30434" lon="-4.1443433"><ele>58.0</ele><time>2026-05-01T08:27:10.675Z</time></trkpt><trkpt lat="48.30442" lon="-4.1444"><ele>58.0</ele><time>2026-05-01T08:27:11.676Z</time></trkpt><trkpt lat="48.3045067" lon="-4.1444617"><ele>58.0</ele><time>2026-05-01T08:27:12.678Z</time></trkpt><trkpt lat="48.3045967" lon="-4.144525"><ele>58.0</ele><time>2026-05-01T08:27:13.675Z</time></trkpt><trkpt lat="48.3046933" lon="-4.1445917"><ele>58.0</ele><time>2026-05-01T08:27:14.682Z</time></trkpt><trkpt lat="48.3047967" lon="-4.1446633"><ele>58.0</ele><time>2026-05-01T08:27:15.677Z</time></trkpt><trkpt lat="48.3049033" lon="-4.1447417"><ele>58.75</ele><time>2026-05-01T08:27:16.673Z</time></trkpt><trkpt lat="48.3050167" lon="-4.1448133"><ele>59.5</ele><time>2026-05-01T08:27:17.673Z</time></trkpt><trkpt lat="48.3051283" lon="-4.1448933"><ele>60.25</ele><time>2026-05-01T08:27:18.676Z</time></trkpt><trkpt lat="48.305245" lon="-4.1449683"><ele>61.0</ele><time>2026-05-01T08:27:19.676Z</time></trkpt><trkpt lat="48.3053633" lon="-4.1450517"><ele>59.5</ele><time>2026-05-01T08:27:20.674Z</time></trkpt><trkpt lat="48.30548" lon="-4.145135"><ele>58.0</ele><time>2026-05-01T08:27:21.677Z</time></trkpt><trkpt lat="48.30559" lon="-4.1452217"><ele>56.5</ele><time>2026-05-01T08:27:22.673Z</time></trkpt><trkpt lat="48.3057033" lon="-4.1453033"><ele>55.0</ele><time>2026-05-01T08:27:23.678Z</time></trkpt><trkpt lat="48.3058233" lon="-4.1453767"><ele>54.0</ele><time>2026-05-01T08:27:24.674Z</time></trkpt><trkpt lat="48.3059383" lon="-4.1454683"><ele>53.0</ele><time>2026-05-01T08:27:25.679Z</time></trkpt><trkpt lat="48.3060383" lon="-4.14558"><ele>52.0</ele><time>2026-05-01T08:27:26.674Z</time></trkpt><trkpt lat="48.306125" lon="-4.1456983"><ele>51.0</ele><time>2026-05-01T08:27:27.672Z</time></trkpt><trkpt lat="48.306195" lon="-4.1458317"><ele>50.0</ele><time>2026-05-01T08:27:28.675Z</time></trkpt><trkpt lat="48.3062483" lon="-4.1459783"><ele>49.0</ele><time>2026-05-01T08:27:29.675Z</time></trkpt><trkpt lat="48.306275" lon="-4.1461283"><ele>48.0</ele><time>2026-05-01T08:27:30.68Z</time></trkpt><trkpt lat="48.3062783" lon="-4.1463033"><ele>47.0</ele><time>2026-05-01T08:27:31.676Z</time></trkpt><trkpt lat="48.3062867" lon="-4.1464833"><ele>47.0</ele><time>2026-05-01T08:27:32.673Z</time></trkpt><trkpt lat="48.3062817" lon="-4.1466483"><ele>47.0</ele><time>2026-05-01T08:27:33.676Z</time></trkpt><trkpt lat="48.3062683" lon="-4.1467983"><ele>47.0</ele><time>2026-05-01T08:27:34.672Z</time></trkpt><trkpt lat="48.306255" lon="-4.14693"><ele>47.0</ele><time>2026-05-01T08:27:35.677Z</time></trkpt><trkpt lat="48.306245" lon="-4.14705"><ele>47.0</ele><time>2026-05-01T08:27:36.678Z</time></trkpt><trkpt lat="48.3062333" lon="-4.1471717"><ele>47.0</ele><time>2026-05-01T08:27:37.677Z</time></trkpt><trkpt lat="48.3062167" lon="-4.1473033"><ele>47.0</ele><time>2026-05-01T08:27:38.675Z</time></trkpt><trkpt lat="48.306195" lon="-4.1474367"><ele>47.0</ele><time>2026-05-01T08:27:39.676Z</time></trkpt><trkpt lat="48.306175" lon="-4.1475733"><ele>47.0</ele><time>2026-05-01T08:27:40.672Z</time></trkpt><trkpt lat="48.3061583" lon="-4.147715"><ele>47.0</ele><time>2026-05-01T08:27:41.673Z</time></trkpt><trkpt lat="48.306145" lon="-4.14786"><ele>47.2</ele><time>2026-05-01T08:27:42.677Z</time></trkpt><trkpt lat="48.3061367" lon="-4.148005"><ele>47.400000000000006</ele><time>2026-05-01T08:27:43.678Z</time></trkpt><trkpt lat="48.30615" lon="-4.1481567"><ele>47.599999999999994</ele><time>2026-05-01T08:27:44.674Z</time></trkpt><trkpt lat="48.3061683" lon="-4.1483083"><ele>47.8</ele><time>2026-05-01T08:27:45.674Z</time></trkpt><trkpt lat="48.3062117" lon="-4.1484617"><ele>48.0</ele><time>2026-05-01T08:27:46.674Z</time></trkpt><trkpt lat="48.3062767" lon="-4.1486"><ele>47.5</ele><time>2026-05-01T08:27:47.68Z</time></trkpt><trkpt lat="48.3063467" lon="-4.1487333"><ele>47.0</ele><time>2026-05-01T08:27:48.675Z</time></trkpt><trkpt lat="48.3064317" lon="-4.14887"><ele>46.5</ele><time>2026-05-01T08:27:49.674Z</time></trkpt><trkpt lat="48.3065267" lon="-4.1490117"><ele>46.0</ele><time>2026-05-01T08:27:50.677Z</time></trkpt><trkpt lat="48.3066283" lon="-4.14914"><ele>44.5</ele><time>2026-05-01T08:27:51.683Z</time></trkpt><trkpt lat="48.306735" lon="-4.1492717"><ele>43.0</ele><time>2026-05-01T08:27:52.674Z</time></trkpt><trkpt lat="48.3068467" lon="-4.1494"><ele>41.5</ele><time>2026-05-01T08:27:53.674Z</time></trkpt><trkpt lat="48.3069583" lon="-4.1495333"><ele>40.0</ele><time>2026-05-01T08:27:54.676Z</time></trkpt><trkpt lat="48.3070683" lon="-4.1496717"><ele>40.0</ele><time>2026-05-01T08:27:55.675Z</time></trkpt><trkpt lat="48.30717" lon="-4.1498133"><ele>40.0</ele><time>2026-05-01T08:27:56.673Z</time></trkpt><trkpt lat="48.3072667" lon="-4.1499567"><ele>40.0</ele><time>2026-05-01T08:27:57.672Z</time></trkpt><trkpt lat="48.30736" lon="-4.1500933"><ele>40.0</ele><time>2026-05-01T08:27:58.677Z</time></trkpt><trkpt lat="48.3074483" lon="-4.1502367"><ele>39.25</ele><time>2026-05-01T08:27:59.675Z</time></trkpt><trkpt lat="48.30754" lon="-4.15037"><ele>38.5</ele><time>2026-05-01T08:28:00.68Z</time></trkpt><trkpt lat="48.3076283" lon="-4.150495"><ele>37.75</ele><time>2026-05-01T08:28:01.673Z</time></trkpt><trkpt lat="48.3077217" lon="-4.1506083"><ele>37.0</ele><time>2026-05-01T08:28:02.675Z</time></trkpt><trkpt lat="48.307825" lon="-4.1506567"><ele>37.0</ele><time>2026-05-01T08:28:03.676Z</time></trkpt><trkpt lat="48.3079383" lon="-4.1506833"><ele>37.0</ele><time>2026-05-01T08:28:04.678Z</time></trkpt><trkpt lat="48.3080433" lon="-4.1506967"><ele>37.0</ele><time>2026-05-01T08:28:05.677Z</time></trkpt><trkpt lat="48.3081467" lon="-4.1506633"><ele>37.0</ele><time>2026-05-01T08:28:06.674Z</time></trkpt><trkpt lat="48.308255" lon="-4.1505833"><ele>37.0</ele><time>2026-05-01T08:28:07.674Z</time></trkpt><trkpt lat="48.3083633" lon="-4.1504983"><ele>36.800000000000004</ele><time>2026-05-01T08:28:08.673Z</time></trkpt><trkpt lat="48.3084817" lon="-4.1504017"><ele>36.6</ele><time>2026-05-01T08:28:09.678Z</time></trkpt><trkpt lat="48.3085917" lon="-4.1503183"><ele>36.400000000000006</ele><time>2026-05-01T08:28:10.676Z</time></trkpt><trkpt lat="48.3086833" lon="-4.1502917"><ele>36.2</ele><time>2026-05-01T08:28:11.68Z</time></trkpt><trkpt lat="48.30878" lon="-4.1502883"><ele>36.0</ele><time>2026-05-01T08:28:12.675Z</time></trkpt><trkpt lat="48.3088633" lon="-4.150315"><ele>35.0</ele><time>2026-05-01T08:28:13.675Z</time></trkpt><trkpt lat="48.30895" lon="-4.15035"><ele>34.0</ele><time>2026-05-01T08:28:14.677Z</time></trkpt><trkpt lat="48.3090483" lon="-4.150435"><ele>33.0</ele><time>2026-05-01T08:28:15.673Z</time></trkpt><trkpt lat="48.3091533" lon="-4.15058"><ele>32.0</ele><time>2026-05-01T08:28:16.684Z</time></trkpt><trkpt lat="48.309245" lon="-4.150705"><ele>31.75</ele><time>2026-05-01T08:28:17.674Z</time></trkpt><trkpt lat="48.30934" lon="-4.1508283"><ele>31.5</ele><time>2026-05-01T08:28:18.673Z</time></trkpt><trkpt lat="48.30944" lon="-4.150945"><ele>31.25</ele><time>2026-05-01T08:28:19.673Z</time></trkpt><trkpt lat="48.3095433" lon="-4.15106"><ele>31.0</ele><time>2026-05-01T08:28:20.675Z</time></trkpt><trkpt lat="48.309645" lon="-4.151155"><ele>31.75</ele><time>2026-05-01T08:28:21.673Z</time></trkpt><trkpt lat="48.3097567" lon="-4.1512333"><ele>32.5</ele><time>2026-05-01T08:28:22.674Z</time></trkpt><trkpt lat="48.3098633" lon="-4.1512967"><ele>33.25</ele><time>2026-05-01T08:28:23.676Z</time></trkpt><trkpt lat="48.3099733" lon="-4.151355"><ele>34.0</ele><time>2026-05-01T08:28:24.673Z</time></trkpt><trkpt lat="48.3100817" lon="-4.1513817"><ele>34.0</ele><time>2026-05-01T08:28:25.674Z</time></trkpt><trkpt lat="48.3101833" lon="-4.1513833"><ele>34.0</ele><time>2026-05-01T08:28:26.68Z</time></trkpt><trkpt lat="48.3102817" lon="-4.151385"><ele>34.0</ele><time>2026-05-01T08:28:27.675Z</time></trkpt><trkpt lat="48.3103767" lon="-4.1513667"><ele>34.0</ele><time>2026-05-01T08:28:28.671Z</time></trkpt><trkpt lat="48.310475" lon="-4.1513233"><ele>34.0</ele><time>2026-05-01T08:28:29.675Z</time></trkpt><trkpt lat="48.3105733" lon="-4.1512617"><ele>35.0</ele><time>2026-05-01T08:28:30.676Z</time></trkpt><trkpt lat="48.31067" lon="-4.15119"><ele>36.0</ele><time>2026-05-01T08:28:31.676Z</time></trkpt><trkpt lat="48.3107633" lon="-4.1511083"><ele>37.0</ele><time>2026-05-01T08:28:32.676Z</time></trkpt><trkpt lat="48.3108567" lon="-4.151025"><ele>38.0</ele><time>2026-05-01T08:28:33.68Z</time></trkpt><trkpt lat="48.3109533" lon="-4.1509367"><ele>39.0</ele><time>2026-05-01T08:28:34.676Z</time></trkpt><trkpt lat="48.31105" lon="-4.1508483"><ele>39.0</ele><time>2026-05-01T08:28:35.676Z</time></trkpt><trkpt lat="48.3111467" lon="-4.1507617"><ele>39.0</ele><time>2026-05-01T08:28:36.674Z</time></trkpt><trkpt lat="48.3112483" lon="-4.15067"><ele>39.0</ele><time>2026-05-01T08:28:37.682Z</time></trkpt><trkpt lat="48.3113583" lon="-4.15058"><ele>39.0</ele><time>2026-05-01T08:28:38.678Z</time></trkpt><trkpt lat="48.3114683" lon="-4.1504883"><ele>39.5</ele><time>2026-05-01T08:28:39.674Z</time></trkpt><trkpt lat="48.3115733" lon="-4.1503933"><ele>40.0</ele><time>2026-05-01T08:28:40.675Z</time></trkpt><trkpt lat="48.3116867" lon="-4.150315"><ele>40.5</ele><time>2026-05-01T08:28:41.675Z</time></trkpt><trkpt lat="48.311805" lon="-4.1502283"><ele>41.0</ele><time>2026-05-01T08:28:42.685Z</time></trkpt><trkpt lat="48.311925" lon="-4.15014"><ele>41.0</ele><time>2026-05-01T08:28:43.675Z</time></trkpt><trkpt lat="48.3120567" lon="-4.1500567"><ele>41.0</ele><time>2026-05-01T08:28:44.677Z</time></trkpt><trkpt lat="48.3121983" lon="-4.149975"><ele>41.0</ele><time>2026-05-01T08:28:45.673Z</time></trkpt><trkpt lat="48.3123383" lon="-4.149875"><ele>41.33333333333333</ele><time>2026-05-01T08:28:46.679Z</time></trkpt><trkpt lat="48.3124817" lon="-4.1497717"><ele>41.666666666666664</ele><time>2026-05-01T08:28:47.674Z</time></trkpt><trkpt lat="48.3126317" lon="-4.1496883"><ele>42.0</ele><time>2026-05-01T08:28:48.678Z</time></trkpt><trkpt lat="48.3127783" lon="-4.1496083"><ele>42.0</ele><time>2026-05-01T08:28:49.672Z</time></trkpt><trkpt lat="48.312925" lon="-4.1495233"><ele>42.0</ele><time>2026-05-01T08:28:50.675Z</time></trkpt><trkpt lat="48.31307" lon="-4.14944"><ele>42.0</ele><time>2026-05-01T08:28:51.672Z</time></trkpt><trkpt lat="48.3132067" lon="-4.1493633"><ele>43.0</ele><time>2026-05-01T08:28:52.675Z</time></trkpt><trkpt lat="48.3133317" lon="-4.1492883"><ele>44.0</ele><time>2026-05-01T08:28:53.671Z</time></trkpt><trkpt lat="48.3134633" lon="-4.1492617"><ele>45.0</ele><time>2026-05-01T08:28:54.674Z</time></trkpt><trkpt lat="48.3135867" lon="-4.14927"><ele>46.0</ele><time>2026-05-01T08:28:55.677Z</time></trkpt><trkpt lat="48.313685" lon="-4.1493067"><ele>46.0</ele><time>2026-05-01T08:28:56.672Z</time></trkpt><trkpt lat="48.31378" lon="-4.1493867"><ele>46.0</ele><time>2026-05-01T08:28:57.677Z</time></trkpt><trkpt lat="48.3138483" lon="-4.149525"><ele>46.0</ele><time>2026-05-01T08:28:58.673Z</time></trkpt><trkpt lat="48.3139033" lon="-4.1497"><ele>46.0</ele><time>2026-05-01T08:28:59.675Z</time></trkpt><trkpt lat="48.31394" lon="-4.1498767"><ele>47.0</ele><time>2026-05-01T08:29:00.673Z</time></trkpt><trkpt lat="48.3139583" lon="-4.15009"><ele>48.0</ele><time>2026-05-01T08:29:01.673Z</time></trkpt><trkpt lat="48.3139767" lon="-4.1503067"><ele>49.0</ele><time>2026-05-01T08:29:02.675Z</time></trkpt><trkpt lat="48.3139883" lon="-4.1505317"><ele>50.0</ele><time>2026-05-01T08:29:03.678Z</time></trkpt><trkpt lat="48.3140017" lon="-4.1507583"><ele>51.0</ele><time>2026-05-01T08:29:04.675Z</time></trkpt><trkpt lat="48.3140167" lon="-4.1509883"><ele>52.0</ele><time>2026-05-01T08:29:05.675Z</time></trkpt><trkpt lat="48.3140383" lon="-4.1512283"><ele>53.0</ele><time>2026-05-01T08:29:06.676Z</time></trkpt><trkpt lat="48.3140733" lon="-4.1514683"><ele>54.333333333333336</ele><time>2026-05-01T08:29:07.678Z</time></trkpt><trkpt lat="48.3141267" lon="-4.1517167"><ele>55.66666666666667</ele><time>2026-05-01T08:29:08.673Z</time></trkpt><trkpt lat="48.3141917" lon="-4.1519783"><ele>57.0</ele><time>2026-05-01T08:29:09.674Z</time></trkpt><trkpt lat="48.3142533" lon="-4.1522367"><ele>58.66666666666667</ele><time>2026-05-01T08:29:10.677Z</time></trkpt><trkpt lat="48.3143133" lon="-4.1524833"><ele>60.333333333333336</ele><time>2026-05-01T08:29:11.68Z</time></trkpt><trkpt lat="48.3143733" lon="-4.15272"><ele>62.0</ele><time>2026-05-01T08:29:12.68Z</time></trkpt><trkpt lat="48.314425" lon="-4.1529533"><ele>62.0</ele><time>2026-05-01T08:29:13.679Z</time></trkpt><trkpt lat="48.3144617" lon="-4.1531733"><ele>62.0</ele><time>2026-05-01T08:29:14.677Z</time></trkpt><trkpt lat="48.314475" lon="-4.1533833"><ele>62.0</ele><time>2026-05-01T08:29:15.679Z</time></trkpt><trkpt lat="48.3144717" lon="-4.1535883"><ele>62.0</ele><time>2026-05-01T08:29:16.674Z</time></trkpt><trkpt lat="48.3144467" lon="-4.1537917"><ele>62.75</ele><time>2026-05-01T08:29:17.677Z</time></trkpt><trkpt lat="48.3144017" lon="-4.1539883"><ele>63.5</ele><time>2026-05-01T08:29:18.678Z</time></trkpt><trkpt lat="48.31434" lon="-4.1541733"><ele>64.25</ele><time>2026-05-01T08:29:19.675Z</time></trkpt><trkpt lat="48.314265" lon="-4.1543533"><ele>65.0</ele><time>2026-05-01T08:29:20.68Z</time></trkpt><trkpt lat="48.31417" lon="-4.1545367"><ele>65.66666666666667</ele><time>2026-05-01T08:29:21.673Z</time></trkpt><trkpt lat="48.3140633" lon="-4.1547267"><ele>66.33333333333333</ele><time>2026-05-01T08:29:22.672Z</time></trkpt><trkpt lat="48.313955" lon="-4.1549133"><ele>67.0</ele><time>2026-05-01T08:29:23.678Z</time></trkpt><trkpt lat="48.31385" lon="-4.1550967"><ele>69.33333333333333</ele><time>2026-05-01T08:29:24.675Z</time></trkpt><trkpt lat="48.3137467" lon="-4.1552817"><ele>71.66666666666667</ele><time>2026-05-01T08:29:25.674Z</time></trkpt><trkpt lat="48.3136417" lon="-4.1554617"><ele>74.0</ele><time>2026-05-01T08:29:26.672Z</time></trkpt><trkpt lat="48.3135367" lon="-4.1556433"><ele>74.0</ele><time>2026-05-01T08:29:27.68Z</time></trkpt><trkpt lat="48.3134383" lon="-4.1558217"><ele>74.0</ele><time>2026-05-01T08:29:28.683Z</time></trkpt><trkpt lat="48.3133417" lon="-4.1559883"><ele>74.0</ele><time>2026-05-01T08:29:29.673Z</time></trkpt><trkpt lat="48.31325" lon="-4.15615"><ele>74.0</ele><time>2026-05-01T08:29:30.674Z</time></trkpt><trkpt lat="48.3131617" lon="-4.15631"><ele>74.0</ele><time>2026-05-01T08:29:31.67Z</time></trkpt><trkpt lat="48.3130917" lon="-4.15648"><ele>74.0</ele><time>2026-05-01T08:29:32.675Z</time></trkpt><trkpt lat="48.3130317" lon="-4.1566517"><ele>74.0</ele><time>2026-05-01T08:29:33.675Z</time></trkpt><trkpt lat="48.3129867" lon="-4.1568283"><ele>74.0</ele><time>2026-05-01T08:29:34.674Z</time></trkpt><trkpt lat="48.312955" lon="-4.1570133"><ele>74.0</ele><time>2026-05-01T08:29:35.677Z</time></trkpt><trkpt lat="48.31294" lon="-4.157205"><ele>74.0</ele><time>2026-05-01T08:29:36.678Z</time></trkpt><trkpt lat="48.3129383" lon="-4.1573967"><ele>74.0</ele><time>2026-05-01T08:29:37.675Z</time></trkpt><trkpt lat="48.312955" lon="-4.1575883"><ele>74.0</ele><time>2026-05-01T08:29:38.68Z</time></trkpt><trkpt lat="48.31299" lon="-4.157775"><ele>73.75</ele><time>2026-05-01T08:29:39.676Z</time></trkpt><trkpt lat="48.3130417" lon="-4.1579517"><ele>73.5</ele><time>2026-05-01T08:29:40.677Z</time></trkpt><trkpt lat="48.313105" lon="-4.1581183"><ele>73.25</ele><time>2026-05-01T08:29:41.676Z</time></trkpt><trkpt lat="48.3131667" lon="-4.1582817"><ele>73.0</ele><time>2026-05-01T08:29:42.676Z</time></trkpt><trkpt lat="48.3132333" lon="-4.15844"><ele>73.75</ele><time>2026-05-01T08:29:43.675Z</time></trkpt><trkpt lat="48.3133217" lon="-4.15857"><ele>74.5</ele><time>2026-05-01T08:29:44.678Z</time></trkpt><trkpt lat="48.3134183" lon="-4.158685"><ele>75.25</ele><time>2026-05-01T08:29:45.676Z</time></trkpt><trkpt lat="48.3135267" lon="-4.1587983"><ele>76.0</ele><time>2026-05-01T08:29:46.676Z</time></trkpt><trkpt lat="48.3136383" lon="-4.1589067"><ele>76.0</ele><time>2026-05-01T08:29:47.672Z</time></trkpt><trkpt lat="48.31376" lon="-4.1590283"><ele>76.0</ele><time>2026-05-01T08:29:48.676Z</time></trkpt><trkpt lat="48.3138883" lon="-4.159155"><ele>76.0</ele><time>2026-05-01T08:29:49.676Z</time></trkpt><trkpt lat="48.31402" lon="-4.1593017"><ele>77.0</ele><time>2026-05-01T08:29:50.677Z</time></trkpt><trkpt lat="48.3141517" lon="-4.159445"><ele>78.0</ele><time>2026-05-01T08:29:51.675Z</time></trkpt><trkpt lat="48.314285" lon="-4.1595833"><ele>79.0</ele><time>2026-05-01T08:29:52.674Z</time></trkpt><trkpt lat="48.3144217" lon="-4.15972"><ele>79.0</ele><time>2026-05-01T08:29:53.677Z</time></trkpt><trkpt lat="48.3145583" lon="-4.1598633"><ele>79.0</ele><time>2026-05-01T08:29:54.677Z</time></trkpt><trkpt lat="48.3146967" lon="-4.1600117"><ele>79.0</ele><time>2026-05-01T08:29:55.673Z</time></trkpt><trkpt lat="48.3148283" lon="-4.1601633"><ele>79.66666666666666</ele><time>2026-05-01T08:29:56.68Z</time></trkpt><trkpt lat="48.3149567" lon="-4.16032"><ele>80.33333333333333</ele><time>2026-05-01T08:29:57.675Z</time></trkpt><trkpt lat="48.3150817" lon="-4.1604783"><ele>81.0</ele><time>2026-05-01T08:29:58.673Z</time></trkpt><trkpt lat="48.3151967" lon="-4.1606383"><ele>81.33333333333333</ele><time>2026-05-01T08:29:59.675Z</time></trkpt><trkpt lat="48.31531" lon="-4.1607933"><ele>81.66666666666666</ele><time>2026-05-01T08:30:00.676Z</time></trkpt><trkpt lat="48.31543" lon="-4.160935"><ele>82.0</ele><time>2026-05-01T08:30:01.677Z</time></trkpt><trkpt lat="48.3155583" lon="-4.1610667"><ele>83.33333333333333</ele><time>2026-05-01T08:30:02.676Z</time></trkpt><trkpt lat="48.3156883" lon="-4.161195"><ele>84.66666666666667</ele><time>2026-05-01T08:30:03.673Z</time></trkpt><trkpt lat="48.3158233" lon="-4.16132"><ele>86.0</ele><time>2026-05-01T08:30:04.676Z</time></trkpt><trkpt lat="48.315965" lon="-4.1614383"><ele>85.66666666666667</ele><time>2026-05-01T08:30:05.684Z</time></trkpt><trkpt lat="48.3161067" lon="-4.1615483"><ele>85.33333333333333</ele><time>2026-05-01T08:30:06.672Z</time></trkpt><trkpt lat="48.3162517" lon="-4.1616617"><ele>85.0</ele><time>2026-05-01T08:30:07.675Z</time></trkpt><trkpt lat="48.3163933" lon="-4.161775"><ele>86.0</ele><time>2026-05-01T08:30:08.675Z</time></trkpt><trkpt lat="48.3165383" lon="-4.1618883"><ele>87.0</ele><time>2026-05-01T08:30:09.675Z</time></trkpt><trkpt lat="48.31668" lon="-4.1620067"><ele>88.0</ele><time>2026-05-01T08:30:10.673Z</time></trkpt><trkpt lat="48.3168233" lon="-4.1621233"><ele>88.0</ele><time>2026-05-01T08:30:11.676Z</time></trkpt><trkpt lat="48.3169733" lon="-4.1622167"><ele>88.0</ele><time>2026-05-01T08:30:12.679Z</time></trkpt><trkpt lat="48.3171283" lon="-4.1622883"><ele>88.0</ele><time>2026-05-01T08:30:13.674Z</time></trkpt><trkpt lat="48.31729" lon="-4.1623467"><ele>88.33333333333333</ele><time>2026-05-01T08:30:14.676Z</time></trkpt><trkpt lat="48.3174567" lon="-4.1624117"><ele>88.66666666666667</ele><time>2026-05-01T08:30:15.673Z</time></trkpt><trkpt lat="48.3176317" lon="-4.1624867"><ele>89.0</ele><time>2026-05-01T08:30:16.672Z</time></trkpt><trkpt lat="48.3178167" lon="-4.1625717"><ele>89.0</ele><time>2026-05-01T08:30:17.676Z</time></trkpt><trkpt lat="48.3180083" lon="-4.1626633"><ele>89.0</ele><time>2026-05-01T08:30:18.675Z</time></trkpt><trkpt lat="48.3181933" lon="-4.1627617"><ele>89.0</ele><time>2026-05-01T08:30:19.678Z</time></trkpt><trkpt lat="48.3183783" lon="-4.16285"><ele>87.66666666666667</ele><time>2026-05-01T08:30:20.679Z</time></trkpt><trkpt lat="48.3185567" lon="-4.1629333"><ele>86.33333333333333</ele><time>2026-05-01T08:30:21.678Z</time></trkpt><trkpt lat="48.3187367" lon="-4.1630017"><ele>85.0</ele><time>2026-05-01T08:30:22.672Z</time></trkpt><trkpt lat="48.3189167" lon="-4.1630317"><ele>84.66666666666666</ele><time>2026-05-01T08:30:23.676Z</time></trkpt><trkpt lat="48.3191067" lon="-4.163035"><ele>84.33333333333333</ele><time>2026-05-01T08:30:24.679Z</time></trkpt><trkpt lat="48.3193133" lon="-4.1630367"><ele>84.0</ele><time>2026-05-01T08:30:25.677Z</time></trkpt><trkpt lat="48.319535" lon="-4.1630467"><ele>82.5</ele><time>2026-05-01T08:30:26.678Z</time></trkpt><trkpt lat="48.319775" lon="-4.1630733"><ele>81.0</ele><time>2026-05-01T08:30:27.677Z</time></trkpt><trkpt lat="48.320015" lon="-4.16312"><ele>81.0</ele><time>2026-05-01T08:30:28.674Z</time></trkpt><trkpt lat="48.32024" lon="-4.1631733"><ele>81.0</ele><time>2026-05-01T08:30:29.676Z</time></trkpt><trkpt lat="48.3204533" lon="-4.1632117"><ele>81.0</ele><time>2026-05-01T08:30:30.676Z</time></trkpt><trkpt lat="48.3206583" lon="-4.163245"><ele>82.66666666666667</ele><time>2026-05-01T08:30:31.672Z</time></trkpt><trkpt lat="48.3208517" lon="-4.163255"><ele>84.33333333333334</ele><time>2026-05-01T08:30:32.678Z</time></trkpt><trkpt lat="48.3210333" lon="-4.1632517"><ele>86.0</ele><time>2026-05-01T08:30:33.673Z</time></trkpt><trkpt lat="48.3212033" lon="-4.16325"><ele>86.0</ele><time>2026-05-01T08:30:34.675Z</time></trkpt><trkpt lat="48.3213617" lon="-4.1632583"><ele>86.0</ele><time>2026-05-01T08:30:35.675Z</time></trkpt><trkpt lat="48.3215117" lon="-4.1632767"><ele>86.0</ele><time>2026-05-01T08:30:36.676Z</time></trkpt><trkpt lat="48.3216517" lon="-4.1632933"><ele>86.0</ele><time>2026-05-01T08:30:37.68Z</time></trkpt><trkpt lat="48.321785" lon="-4.1633033"><ele>86.75</ele><time>2026-05-01T08:30:38.675Z</time></trkpt><trkpt lat="48.3219183" lon="-4.1633067"><ele>87.5</ele><time>2026-05-01T08:30:39.678Z</time></trkpt><trkpt lat="48.322055" lon="-4.163285"><ele>88.25</ele><time>2026-05-01T08:30:40.674Z</time></trkpt><trkpt lat="48.3221933" lon="-4.1632483"><ele>89.0</ele><time>2026-05-01T08:30:41.674Z</time></trkpt><trkpt lat="48.3223333" lon="-4.1632033"><ele>88.75</ele><time>2026-05-01T08:30:42.684Z</time></trkpt><trkpt lat="48.322475" lon="-4.1631517"><ele>88.5</ele><time>2026-05-01T08:30:43.675Z</time></trkpt><trkpt lat="48.3226133" lon="-4.1630983"><ele>88.25</ele><time>2026-05-01T08:30:44.675Z</time></trkpt><trkpt lat="48.3227433" lon="-4.16305"><ele>88.0</ele><time>2026-05-01T08:30:45.675Z</time></trkpt><trkpt lat="48.322865" lon="-4.1630067"><ele>88.0</ele><time>2026-05-01T08:30:46.673Z</time></trkpt><trkpt lat="48.3229783" lon="-4.1629683"><ele>88.0</ele><time>2026-05-01T08:30:47.675Z</time></trkpt><trkpt lat="48.3230833" lon="-4.1629333"><ele>88.0</ele><time>2026-05-01T08:30:48.674Z</time></trkpt><trkpt lat="48.3231833" lon="-4.162905"><ele>88.0</ele><time>2026-05-01T08:30:49.674Z</time></trkpt><trkpt lat="48.323275" lon="-4.162875"><ele>88.0</ele><time>2026-05-01T08:30:50.674Z</time></trkpt><trkpt lat="48.3233583" lon="-4.1628517"><ele>88.80000000000001</ele><time>2026-05-01T08:30:51.675Z</time></trkpt><trkpt lat="48.3234383" lon="-4.1628317"><ele>89.6</ele><time>2026-05-01T08:30:52.674Z</time></trkpt><trkpt lat="48.3235233" lon="-4.1628167"><ele>90.4</ele><time>2026-05-01T08:30:53.674Z</time></trkpt><trkpt lat="48.323615" lon="-4.1628067"><ele>91.19999999999999</ele><time>2026-05-01T08:30:54.673Z</time></trkpt><trkpt lat="48.32371" lon="-4.1627983"><ele>92.0</ele><time>2026-05-01T08:30:55.678Z</time></trkpt><trkpt lat="48.3238083" lon="-4.162795"><ele>92.5</ele><time>2026-05-01T08:30:56.673Z</time></trkpt><trkpt lat="48.323905" lon="-4.1627883"><ele>93.0</ele><time>2026-05-01T08:30:57.674Z</time></trkpt><trkpt lat="48.323995" lon="-4.162785"><ele>93.5</ele><time>2026-05-01T08:30:58.674Z</time></trkpt><trkpt lat="48.3240783" lon="-4.16278"><ele>94.0</ele><time>2026-05-01T08:30:59.677Z</time></trkpt><trkpt lat="48.32416" lon="-4.1627783"><ele>94.5</ele><time>2026-05-01T08:31:00.673Z</time></trkpt><trkpt lat="48.3242367" lon="-4.1627783"><ele>95.0</ele><time>2026-05-01T08:31:01.68Z</time></trkpt><trkpt lat="48.32431" lon="-4.162785"><ele>95.0</ele><time>2026-05-01T08:31:02.674Z</time></trkpt><trkpt lat="48.3244233" lon="-4.1628217"><ele>95.0</ele><time>2026-05-01T08:31:04.673Z</time></trkpt><trkpt lat="48.3244933" lon="-4.16288"><ele>95.0</ele><time>2026-05-01T08:31:06.672Z</time></trkpt><trkpt lat="48.324565" lon="-4.1629067"><ele>95.0</ele><time>2026-05-01T08:31:22.674Z</time></trkpt><trkpt lat="48.324665" lon="-4.1628317"><ele>95.0</ele><time>2026-05-01T08:31:24.679Z</time></trkpt><trkpt lat="48.324725" lon="-4.162785"><ele>95.0</ele><time>2026-05-01T08:31:25.682Z</time></trkpt><trkpt lat="48.324785" lon="-4.1627383"><ele>95.16666666666667</ele><time>2026-05-01T08:31:26.676Z</time></trkpt><trkpt lat="48.3248567" lon="-4.1627033"><ele>95.33333333333334</ele><time>2026-05-01T08:31:27.679Z</time></trkpt><trkpt lat="48.3249367" lon="-4.1626617"><ele>95.5</ele><time>2026-05-01T08:31:28.673Z</time></trkpt><trkpt lat="48.3250217" lon="-4.1626217"><ele>95.66666666666667</ele><time>2026-05-01T08:31:29.674Z</time></trkpt><trkpt lat="48.3250967" lon="-4.1625717"><ele>95.83333333333333</ele><time>2026-05-01T08:31:30.675Z</time></trkpt><trkpt lat="48.3251733" lon="-4.1625117"><ele>96.0</ele><time>2026-05-01T08:31:31.676Z</time></trkpt><trkpt lat="48.3252533" lon="-4.162455"><ele>96.0</ele><time>2026-05-01T08:31:32.676Z</time></trkpt><trkpt lat="48.3253333" lon="-4.1623933"><ele>96.0</ele><time>2026-05-01T08:31:33.677Z</time></trkpt><trkpt lat="48.32541" lon="-4.1623217"><ele>96.0</ele><time>2026-05-01T08:31:34.676Z</time></trkpt><trkpt lat="48.3254833" lon="-4.16224"><ele>96.0</ele><time>2026-05-01T08:31:35.67Z</time></trkpt><trkpt lat="48.3255533" lon="-4.162155"><ele>96.0</ele><time>2026-05-01T08:31:36.682Z</time></trkpt><trkpt lat="48.3256233" lon="-4.1620667"><ele>96.6</ele><time>2026-05-01T08:31:37.679Z</time></trkpt><trkpt lat="48.3256933" lon="-4.161975"><ele>97.19999999999999</ele><time>2026-05-01T08:31:38.679Z</time></trkpt><trkpt lat="48.3257583" lon="-4.1618767"><ele>97.80000000000001</ele><time>2026-05-01T08:31:39.677Z</time></trkpt><trkpt lat="48.3258233" lon="-4.1617767"><ele>98.4</ele><time>2026-05-01T08:31:40.672Z</time></trkpt><trkpt lat="48.32589" lon="-4.1616767"><ele>99.0</ele><time>2026-05-01T08:31:41.674Z</time></trkpt><trkpt lat="48.3259517" lon="-4.16157"><ele>99.2</ele><time>2026-05-01T08:31:42.673Z</time></trkpt><trkpt lat="48.326015" lon="-4.1614633"><ele>99.4</ele><time>2026-05-01T08:31:43.674Z</time></trkpt><trkpt lat="48.3260783" lon="-4.1613533"><ele>99.6</ele><time>2026-05-01T08:31:44.676Z</time></trkpt><trkpt lat="48.32614" lon="-4.1612367"><ele>99.8</ele><time>2026-05-01T08:31:45.671Z</time></trkpt><trkpt lat="48.3262017" lon="-4.16112"><ele>100.0</ele><time>2026-05-01T08:31:46.67Z</time></trkpt><trkpt lat="48.326265" lon="-4.1610017"><ele>100.0</ele><time>2026-05-01T08:31:47.672Z</time></trkpt><trkpt lat="48.3263283" lon="-4.1608817"><ele>100.0</ele><time>2026-05-01T08:31:48.67Z</time></trkpt><trkpt lat="48.3263867" lon="-4.16076"><ele>100.0</ele><time>2026-05-01T08:31:49.676Z</time></trkpt><trkpt lat="48.32645" lon="-4.1606417"><ele>100.0</ele><time>2026-05-01T08:31:50.672Z</time></trkpt><trkpt lat="48.32651" lon="-4.1605283"><ele>100.0</ele><time>2026-05-01T08:31:51.672Z</time></trkpt><trkpt lat="48.3265667" lon="-4.16042"><ele>100.16666666666667</ele><time>2026-05-01T08:31:52.674Z</time></trkpt><trkpt lat="48.3266217" lon="-4.1603233"><ele>100.33333333333334</ele><time>2026-05-01T08:31:53.671Z</time></trkpt><trkpt lat="48.3266767" lon="-4.1602417"><ele>100.5</ele><time>2026-05-01T08:31:54.673Z</time></trkpt><trkpt lat="48.3267283" lon="-4.1601667"><ele>100.66666666666666</ele><time>2026-05-01T08:31:55.671Z</time></trkpt><trkpt lat="48.32678" lon="-4.1600967"><ele>100.83333333333333</ele><time>2026-05-01T08:31:56.674Z</time></trkpt><trkpt lat="48.3268283" lon="-4.1600317"><ele>101.0</ele><time>2026-05-01T08:31:57.676Z</time></trkpt><trkpt lat="48.32692" lon="-4.15992"><ele>101.19999999999999</ele><time>2026-05-01T08:31:59.674Z</time></trkpt><trkpt lat="48.327" lon="-4.159805"><ele>101.39999999999999</ele><time>2026-05-01T08:32:01.672Z</time></trkpt><trkpt lat="48.3270983" lon="-4.15977"><ele>101.6</ele><time>2026-05-01T08:32:03.671Z</time></trkpt><trkpt lat="48.3271967" lon="-4.1598383"><ele>101.8</ele><time>2026-05-01T08:32:05.67Z</time></trkpt><trkpt lat="48.3273067" lon="-4.1599183"><ele>102.0</ele><time>2026-05-01T08:32:07.676Z</time></trkpt><trkpt lat="48.3274017" lon="-4.1600033"><ele>102.0</ele><time>2026-05-01T08:32:09.673Z</time></trkpt><trkpt lat="48.327485" lon="-4.1600667"><ele>102.0</ele><time>2026-05-01T08:32:11.672Z</time></trkpt><trkpt lat="48.32757" lon="-4.16016"><ele>102.0</ele><time>2026-05-01T08:32:13.673Z</time></trkpt><trkpt lat="48.3276333" lon="-4.160315"><ele>102.0</ele><time>2026-05-01T08:32:15.671Z</time></trkpt><trkpt lat="48.32767" lon="-4.1604717"><ele>102.0</ele><time>2026-05-01T08:32:17.681Z</time></trkpt><trkpt lat="48.3276767" lon="-4.1606483"><ele>101.8</ele><time>2026-05-01T08:32:19.672Z</time></trkpt><trkpt lat="48.3276817" lon="-4.16081"><ele>101.6</ele><time>2026-05-01T08:32:21.672Z</time></trkpt><trkpt lat="48.3276817" lon="-4.1609783"><ele>101.39999999999999</ele><time>2026-05-01T08:32:23.675Z</time></trkpt><trkpt lat="48.32764" lon="-4.16113"><ele>101.19999999999999</ele><time>2026-05-01T08:32:25.675Z</time></trkpt><trkpt lat="48.3275667" lon="-4.1612683"><ele>101.0</ele><time>2026-05-01T08:32:27.677Z</time></trkpt><trkpt lat="48.327525" lon="-4.161415"><ele>100.83333333333333</ele><time>2026-05-01T08:32:29.673Z</time></trkpt><trkpt lat="48.32754" lon="-4.1615767"><ele>100.66666666666666</ele><time>2026-05-01T08:32:31.674Z</time></trkpt><trkpt lat="48.327575" lon="-4.1617583"><ele>100.5</ele><time>2026-05-01T08:32:33.674Z</time></trkpt><trkpt lat="48.3275867" lon="-4.161855"><ele>100.33333333333334</ele><time>2026-05-01T08:32:34.674Z</time></trkpt><trkpt lat="48.327595" lon="-4.1619567"><ele>100.16666666666667</ele><time>2026-05-01T08:32:35.676Z</time></trkpt><trkpt lat="48.3276" lon="-4.162055"><ele>100.0</ele><time>2026-05-01T08:32:36.675Z</time></trkpt><trkpt lat="48.3276067" lon="-4.1621567"><ele>100.00000000000001</ele><time>2026-05-01T08:32:37.672Z</time></trkpt><trkpt lat="48.3276183" lon="-4.1622567"><ele>100.0</ele><time>2026-05-01T08:32:38.676Z</time></trkpt><trkpt lat="48.3276267" lon="-4.1623567"><ele>100.0</ele><time>2026-05-01T08:32:39.678Z</time></trkpt><trkpt lat="48.3276267" lon="-4.1624633"><ele>100.0</ele><time>2026-05-01T08:32:40.675Z</time></trkpt><trkpt lat="48.3276317" lon="-4.16256"><ele>100.00000000000001</ele><time>2026-05-01T08:32:41.672Z</time></trkpt><trkpt lat="48.327665" lon="-4.1627383"><ele>100.0</ele><time>2026-05-01T08:32:43.676Z</time></trkpt><trkpt lat="48.32769" lon="-4.1628317"><ele>99.8</ele><time>2026-05-01T08:32:44.677Z</time></trkpt><trkpt lat="48.327715" lon="-4.1629283"><ele>99.6</ele><time>2026-05-01T08:32:45.677Z</time></trkpt><trkpt lat="48.3277567" lon="-4.1630483"><ele>99.4</ele><time>2026-05-01T08:32:46.676Z</time></trkpt><trkpt lat="48.3278167" lon="-4.16319"><ele>99.2</ele><time>2026-05-01T08:32:47.674Z</time></trkpt><trkpt lat="48.327875" lon="-4.1633567"><ele>99.0</ele><time>2026-05-01T08:32:48.679Z</time></trkpt><trkpt lat="48.3279383" lon="-4.1635233"><ele>99.0</ele><time>2026-05-01T08:32:49.683Z</time></trkpt><trkpt lat="48.3280083" lon="-4.1636883"><ele>99.0</ele><time>2026-05-01T08:32:50.675Z</time></trkpt><trkpt lat="48.3280783" lon="-4.1638617"><ele>99.0</ele><time>2026-05-01T08:32:51.674Z</time></trkpt><trkpt lat="48.32815" lon="-4.1640317"><ele>99.0</ele><time>2026-05-01T08:32:52.674Z</time></trkpt><trkpt lat="48.3282217" lon="-4.1641967"><ele>99.25</ele><time>2026-05-01T08:32:53.677Z</time></trkpt><trkpt lat="48.32829" lon="-4.1643567"><ele>99.5</ele><time>2026-05-01T08:32:54.676Z</time></trkpt><trkpt lat="48.32836" lon="-4.16451"><ele>99.75</ele><time>2026-05-01T08:32:55.681Z</time></trkpt><trkpt lat="48.32843" lon="-4.1646583"><ele>100.0</ele><time>2026-05-01T08:32:56.676Z</time></trkpt><trkpt lat="48.3285" lon="-4.164805"><ele>99.5</ele><time>2026-05-01T08:32:57.675Z</time></trkpt><trkpt lat="48.3285733" lon="-4.16495"><ele>99.0</ele><time>2026-05-01T08:32:58.673Z</time></trkpt><trkpt lat="48.3286433" lon="-4.1650917"><ele>98.5</ele><time>2026-05-01T08:32:59.676Z</time></trkpt><trkpt lat="48.328715" lon="-4.1652317"><ele>98.0</ele><time>2026-05-01T08:33:00.676Z</time></trkpt><trkpt lat="48.3287867" lon="-4.1653683"><ele>98.0</ele><time>2026-05-01T08:33:01.679Z</time></trkpt><trkpt lat="48.3288567" lon="-4.1655067"><ele>98.0</ele><time>2026-05-01T08:33:02.674Z</time></trkpt><trkpt lat="48.3289283" lon="-4.1656433"><ele>98.0</ele><time>2026-05-01T08:33:03.677Z</time></trkpt><trkpt lat="48.3289983" lon="-4.1657867"><ele>98.0</ele><time>2026-05-01T08:33:04.673Z</time></trkpt><trkpt lat="48.3290667" lon="-4.16592"><ele>97.2</ele><time>2026-05-01T08:33:05.673Z</time></trkpt><trkpt lat="48.329135" lon="-4.1660483"><ele>96.4</ele><time>2026-05-01T08:33:06.674Z</time></trkpt><trkpt lat="48.3292" lon="-4.166165"><ele>95.60000000000001</ele><time>2026-05-01T08:33:07.675Z</time></trkpt><trkpt lat="48.3292617" lon="-4.1662783"><ele>94.80000000000001</ele><time>2026-05-01T08:33:08.675Z</time></trkpt><trkpt lat="48.329325" lon="-4.1664"><ele>94.0</ele><time>2026-05-01T08:33:09.675Z</time></trkpt><trkpt lat="48.3293917" lon="-4.166525"><ele>93.75</ele><time>2026-05-01T08:33:10.674Z</time></trkpt><trkpt lat="48.3294617" lon="-4.1666567"><ele>93.5</ele><time>2026-05-01T08:33:11.676Z</time></trkpt><trkpt lat="48.3295333" lon="-4.1667983"><ele>93.25</ele><time>2026-05-01T08:33:12.676Z</time></trkpt><trkpt lat="48.3296017" lon="-4.166945"><ele>93.0</ele><time>2026-05-01T08:33:13.676Z</time></trkpt><trkpt lat="48.3296667" lon="-4.1670867"><ele>93.0</ele><time>2026-05-01T08:33:14.675Z</time></trkpt><trkpt lat="48.3297283" lon="-4.1672233"><ele>93.0</ele><time>2026-05-01T08:33:15.679Z</time></trkpt><trkpt lat="48.3297833" lon="-4.16736"><ele>93.0</ele><time>2026-05-01T08:33:16.675Z</time></trkpt><trkpt lat="48.32983" lon="-4.1674983"><ele>93.0</ele><time>2026-05-01T08:33:17.681Z</time></trkpt><trkpt lat="48.3298733" lon="-4.1676367"><ele>93.0</ele><time>2026-05-01T08:33:18.683Z</time></trkpt><trkpt lat="48.3299217" lon="-4.167765"><ele>92.80000000000001</ele><time>2026-05-01T08:33:19.683Z</time></trkpt><trkpt lat="48.32996" lon="-4.1678917"><ele>92.6</ele><time>2026-05-01T08:33:20.678Z</time></trkpt><trkpt lat="48.3300083" lon="-4.1680183"><ele>92.4</ele><time>2026-05-01T08:33:21.679Z</time></trkpt><trkpt lat="48.3300667" lon="-4.1681567"><ele>92.19999999999999</ele><time>2026-05-01T08:33:22.678Z</time></trkpt><trkpt lat="48.3301233" lon="-4.1682983"><ele>92.0</ele><time>2026-05-01T08:33:23.677Z</time></trkpt><trkpt lat="48.330185" lon="-4.1684533"><ele>91.75</ele><time>2026-05-01T08:33:24.677Z</time></trkpt><trkpt lat="48.3302483" lon="-4.16861"><ele>91.5</ele><time>2026-05-01T08:33:25.674Z</time></trkpt><trkpt lat="48.3303117" lon="-4.16876"><ele>91.25</ele><time>2026-05-01T08:33:26.675Z</time></trkpt><trkpt lat="48.3303717" lon="-4.1689083"><ele>91.0</ele><time>2026-05-01T08:33:27.676Z</time></trkpt><trkpt lat="48.330435" lon="-4.1690567"><ele>91.0</ele><time>2026-05-01T08:33:28.677Z</time></trkpt><trkpt lat="48.3305033" lon="-4.1692067"><ele>91.0</ele><time>2026-05-01T08:33:29.677Z</time></trkpt><trkpt lat="48.3305717" lon="-4.1693617"><ele>91.0</ele><time>2026-05-01T08:33:30.674Z</time></trkpt><trkpt lat="48.3306433" lon="-4.1695183"><ele>91.0</ele><time>2026-05-01T08:33:31.68Z</time></trkpt><trkpt lat="48.3307167" lon="-4.169675"><ele>91.0</ele><time>2026-05-01T08:33:32.677Z</time></trkpt><trkpt lat="48.33079" lon="-4.1698217"><ele>91.0</ele><time>2026-05-01T08:33:33.681Z</time></trkpt><trkpt lat="48.330865" lon="-4.1699583"><ele>91.0</ele><time>2026-05-01T08:33:34.676Z</time></trkpt><trkpt lat="48.330955" lon="-4.1700717"><ele>91.0</ele><time>2026-05-01T08:33:35.674Z</time></trkpt><trkpt lat="48.3310533" lon="-4.1701717"><ele>90.5</ele><time>2026-05-01T08:33:36.68Z</time></trkpt><trkpt lat="48.3311683" lon="-4.1702667"><ele>90.0</ele><time>2026-05-01T08:33:37.676Z</time></trkpt><trkpt lat="48.3312883" lon="-4.17037"><ele>89.5</ele><time>2026-05-01T08:33:38.678Z</time></trkpt><trkpt lat="48.3314167" lon="-4.1704833"><ele>89.0</ele><time>2026-05-01T08:33:39.684Z</time></trkpt><trkpt lat="48.3315417" lon="-4.1705933"><ele>88.5</ele><time>2026-05-01T08:33:40.673Z</time></trkpt><trkpt lat="48.3316617" lon="-4.170695"><ele>88.0</ele><time>2026-05-01T08:33:41.678Z</time></trkpt><trkpt lat="48.3317767" lon="-4.1707933"><ele>87.5</ele><time>2026-05-01T08:33:42.679Z</time></trkpt><trkpt lat="48.3318883" lon="-4.1708883"><ele>87.0</ele><time>2026-05-01T08:33:43.675Z</time></trkpt><trkpt lat="48.3320017" lon="-4.1709933"><ele>87.0</ele><time>2026-05-01T08:33:44.675Z</time></trkpt><trkpt lat="48.332125" lon="-4.1711017"><ele>87.0</ele><time>2026-05-01T08:33:45.676Z</time></trkpt><trkpt lat="48.3322583" lon="-4.1712033"><ele>87.0</ele><time>2026-05-01T08:33:46.676Z</time></trkpt><trkpt lat="48.3324017" lon="-4.1712983"><ele>87.0</ele><time>2026-05-01T08:33:47.676Z</time></trkpt><trkpt lat="48.3325533" lon="-4.1713883"><ele>87.0</ele><time>2026-05-01T08:33:48.682Z</time></trkpt><trkpt lat="48.3327117" lon="-4.1714817"><ele>87.0</ele><time>2026-05-01T08:33:49.677Z</time></trkpt><trkpt lat="48.332875" lon="-4.17158"><ele>87.0</ele><time>2026-05-01T08:33:50.672Z</time></trkpt><trkpt lat="48.3330417" lon="-4.1716867"><ele>86.0</ele><time>2026-05-01T08:33:51.675Z</time></trkpt><trkpt lat="48.3332083" lon="-4.1717933"><ele>85.0</ele><time>2026-05-01T08:33:52.672Z</time></trkpt><trkpt lat="48.33338" lon="-4.1718983"><ele>84.0</ele><time>2026-05-01T08:33:53.675Z</time></trkpt><trkpt lat="48.3335533" lon="-4.1720117"><ele>84.0</ele><time>2026-05-01T08:33:54.674Z</time></trkpt><trkpt lat="48.3337233" lon="-4.1721283"><ele>84.0</ele><time>2026-05-01T08:33:55.672Z</time></trkpt><trkpt lat="48.3338883" lon="-4.17226"><ele>84.0</ele><time>2026-05-01T08:33:56.677Z</time></trkpt><trkpt lat="48.3340533" lon="-4.1724033"><ele>82.33333333333333</ele><time>2026-05-01T08:33:57.675Z</time></trkpt><trkpt lat="48.334225" lon="-4.1725283"><ele>80.66666666666666</ele><time>2026-05-01T08:33:58.674Z</time></trkpt><trkpt lat="48.3344033" lon="-4.17265"><ele>79.0</ele><time>2026-05-01T08:33:59.678Z</time></trkpt><trkpt lat="48.3345867" lon="-4.1727717"><ele>78.0</ele><time>2026-05-01T08:34:00.683Z</time></trkpt><trkpt lat="48.3347683" lon="-4.1728967"><ele>77.0</ele><time>2026-05-01T08:34:01.676Z</time></trkpt><trkpt lat="48.3349483" lon="-4.1730217"><ele>76.0</ele><time>2026-05-01T08:34:02.674Z</time></trkpt><trkpt lat="48.3351267" lon="-4.1731467"><ele>75.0</ele><time>2026-05-01T08:34:03.673Z</time></trkpt><trkpt lat="48.335305" lon="-4.1732683"><ele>74.0</ele><time>2026-05-01T08:34:04.677Z</time></trkpt><trkpt lat="48.3354817" lon="-4.1733817"><ele>73.0</ele><time>2026-05-01T08:34:05.681Z</time></trkpt><trkpt lat="48.3356517" lon="-4.1734983"><ele>70.66666666666666</ele><time>2026-05-01T08:34:06.684Z</time></trkpt><trkpt lat="48.335825" lon="-4.1736117"><ele>68.33333333333333</ele><time>2026-05-01T08:34:07.678Z</time></trkpt><trkpt lat="48.3360017" lon="-4.1737233"><ele>66.0</ele><time>2026-05-01T08:34:08.678Z</time></trkpt><trkpt lat="48.3361817" lon="-4.1738317"><ele>66.0</ele><time>2026-05-01T08:34:09.675Z</time></trkpt><trkpt lat="48.33636" lon="-4.17394"><ele>66.0</ele><time>2026-05-01T08:34:10.675Z</time></trkpt><trkpt lat="48.3365333" lon="-4.1740617"><ele>66.0</ele><time>2026-05-01T08:34:11.677Z</time></trkpt><trkpt lat="48.3367" lon="-4.1741967"><ele>64.33333333333333</ele><time>2026-05-01T08:34:12.676Z</time></trkpt><trkpt lat="48.3368617" lon="-4.17434"><ele>62.666666666666664</ele><time>2026-05-01T08:34:13.676Z</time></trkpt><trkpt lat="48.337025" lon="-4.1744733"><ele>61.0</ele><time>2026-05-01T08:34:14.675Z</time></trkpt><trkpt lat="48.3371933" lon="-4.1745867"><ele>60.666666666666664</ele><time>2026-05-01T08:34:15.674Z</time></trkpt><trkpt lat="48.3373683" lon="-4.1746783"><ele>60.33333333333333</ele><time>2026-05-01T08:34:16.675Z</time></trkpt><trkpt lat="48.3375433" lon="-4.1747483"><ele>60.0</ele><time>2026-05-01T08:34:17.676Z</time></trkpt><trkpt lat="48.337725" lon="-4.1748017"><ele>60.0</ele><time>2026-05-01T08:34:18.676Z</time></trkpt><trkpt lat="48.33791" lon="-4.1748417"><ele>60.0</ele><time>2026-05-01T08:34:19.678Z</time></trkpt><trkpt lat="48.3380933" lon="-4.17485"><ele>60.0</ele><time>2026-05-01T08:34:20.676Z</time></trkpt><trkpt lat="48.3382817" lon="-4.1748333"><ele>61.0</ele><time>2026-05-01T08:34:21.676Z</time></trkpt><trkpt lat="48.338475" lon="-4.1748117"><ele>62.0</ele><time>2026-05-01T08:34:22.677Z</time></trkpt><trkpt lat="48.3386533" lon="-4.1747967"><ele>63.0</ele><time>2026-05-01T08:34:23.677Z</time></trkpt><trkpt lat="48.3388267" lon="-4.174785"><ele>64.0</ele><time>2026-05-01T08:34:24.674Z</time></trkpt><trkpt lat="48.339" lon="-4.1747983"><ele>65.0</ele><time>2026-05-01T08:34:25.674Z</time></trkpt><trkpt lat="48.3391717" lon="-4.1748233"><ele>66.0</ele><time>2026-05-01T08:34:26.679Z</time></trkpt><trkpt lat="48.33934" lon="-4.1748633"><ele>66.33333333333333</ele><time>2026-05-01T08:34:27.675Z</time></trkpt><trkpt lat="48.3395117" lon="-4.1749267"><ele>66.66666666666666</ele><time>2026-05-01T08:34:28.677Z</time></trkpt><trkpt lat="48.339675" lon="-4.1750017"><ele>67.0</ele><time>2026-05-01T08:34:29.677Z</time></trkpt><trkpt lat="48.3398217" lon="-4.1751033"><ele>67.5</ele><time>2026-05-01T08:34:30.673Z</time></trkpt><trkpt lat="48.339955" lon="-4.1752133"><ele>68.0</ele><time>2026-05-01T08:34:31.675Z</time></trkpt><trkpt lat="48.3400767" lon="-4.1753183"><ele>68.5</ele><time>2026-05-01T08:34:32.675Z</time></trkpt><trkpt lat="48.34019" lon="-4.1753967"><ele>69.0</ele><time>2026-05-01T08:34:33.683Z</time></trkpt><trkpt lat="48.340305" lon="-4.1754433"><ele>69.0</ele><time>2026-05-01T08:34:34.672Z</time></trkpt><trkpt lat="48.340425" lon="-4.1754517"><ele>69.0</ele><time>2026-05-01T08:34:35.676Z</time></trkpt><trkpt lat="48.34054" lon="-4.1753917"><ele>69.0</ele><time>2026-05-01T08:34:36.676Z</time></trkpt><trkpt lat="48.34065" lon="-4.175275"><ele>69.0</ele><time>2026-05-01T08:34:37.677Z</time></trkpt><trkpt lat="48.34077" lon="-4.1751167"><ele>70.0</ele><time>2026-05-01T08:34:38.676Z</time></trkpt><trkpt lat="48.340905" lon="-4.1749233"><ele>71.0</ele><time>2026-05-01T08:34:39.677Z</time></trkpt><trkpt lat="48.3410467" lon="-4.174735"><ele>72.0</ele><time>2026-05-01T08:34:40.675Z</time></trkpt><trkpt lat="48.3411883" lon="-4.1745633"><ele>72.33333333333333</ele><time>2026-05-01T08:34:41.682Z</time></trkpt><trkpt lat="48.3413383" lon="-4.1743983"><ele>72.66666666666666</ele><time>2026-05-01T08:34:42.673Z</time></trkpt><trkpt lat="48.341505" lon="-4.1742533"><ele>73.0</ele><time>2026-05-01T08:34:43.675Z</time></trkpt><trkpt lat="48.34169" lon="-4.1741183"><ele>74.66666666666666</ele><time>2026-05-01T08:34:44.675Z</time></trkpt><trkpt lat="48.341885" lon="-4.1740067"><ele>76.33333333333333</ele><time>2026-05-01T08:34:45.676Z</time></trkpt><trkpt lat="48.3420817" lon="-4.1739067"><ele>78.0</ele><time>2026-05-01T08:34:46.672Z</time></trkpt><trkpt lat="48.3422783" lon="-4.1738117"><ele>78.0</ele><time>2026-05-01T08:34:47.676Z</time></trkpt><trkpt lat="48.34247" lon="-4.1737217"><ele>78.0</ele><time>2026-05-01T08:34:48.676Z</time></trkpt><trkpt lat="48.342655" lon="-4.1736317"><ele>78.0</ele><time>2026-05-01T08:34:49.681Z</time></trkpt><trkpt lat="48.3428417" lon="-4.1735433"><ele>78.0</ele><time>2026-05-01T08:34:50.677Z</time></trkpt><trkpt lat="48.3430217" lon="-4.1734483"><ele>78.0</ele><time>2026-05-01T08:34:51.675Z</time></trkpt><trkpt lat="48.3431983" lon="-4.1733517"><ele>78.0</ele><time>2026-05-01T08:34:52.674Z</time></trkpt><trkpt lat="48.3433717" lon="-4.1732517"><ele>77.0</ele><time>2026-05-01T08:34:53.684Z</time></trkpt><trkpt lat="48.3435467" lon="-4.17315"><ele>76.0</ele><time>2026-05-01T08:34:54.678Z</time></trkpt><trkpt lat="48.34372" lon="-4.173055"><ele>75.0</ele><time>2026-05-01T08:34:55.674Z</time></trkpt><trkpt lat="48.3438917" lon="-4.17295"><ele>74.0</ele><time>2026-05-01T08:34:56.675Z</time></trkpt><trkpt lat="48.34406" lon="-4.17284"><ele>73.0</ele><time>2026-05-01T08:34:57.675Z</time></trkpt><trkpt lat="48.3442267" lon="-4.172735"><ele>72.0</ele><time>2026-05-01T08:34:58.675Z</time></trkpt><trkpt lat="48.3443883" lon="-4.1726233"><ele>72.0</ele><time>2026-05-01T08:34:59.674Z</time></trkpt><trkpt lat="48.3445467" lon="-4.1724967"><ele>72.0</ele><time>2026-05-01T08:35:00.675Z</time></trkpt><trkpt lat="48.344705" lon="-4.1723533"><ele>72.0</ele><time>2026-05-01T08:35:01.677Z</time></trkpt><trkpt lat="48.34486" lon="-4.1722"><ele>68.66666666666667</ele><time>2026-05-01T08:35:02.676Z</time></trkpt><trkpt lat="48.3450117" lon="-4.1720417"><ele>65.33333333333334</ele><time>2026-05-01T08:35:03.676Z</time></trkpt><trkpt lat="48.3451483" lon="-4.1718583"><ele>62.0</ele><time>2026-05-01T08:35:04.674Z</time></trkpt><trkpt lat="48.3452833" lon="-4.17167"><ele>61.333333333333336</ele><time>2026-05-01T08:35:05.676Z</time></trkpt><trkpt lat="48.3454133" lon="-4.1714783"><ele>60.66666666666667</ele><time>2026-05-01T08:35:06.674Z</time></trkpt><trkpt lat="48.345555" lon="-4.171295"><ele>60.0</ele><time>2026-05-01T08:35:07.678Z</time></trkpt><trkpt lat="48.3456967" lon="-4.1711117"><ele>58.66666666666667</ele><time>2026-05-01T08:35:08.68Z</time></trkpt><trkpt lat="48.345845" lon="-4.170935"><ele>57.333333333333336</ele><time>2026-05-01T08:35:09.676Z</time></trkpt><trkpt lat="48.3459983" lon="-4.17076"><ele>56.0</ele><time>2026-05-01T08:35:10.676Z</time></trkpt><trkpt lat="48.346155" lon="-4.1705917"><ele>56.0</ele><time>2026-05-01T08:35:11.677Z</time></trkpt><trkpt lat="48.346315" lon="-4.1704317"><ele>56.0</ele><time>2026-05-01T08:35:12.674Z</time></trkpt><trkpt lat="48.3464767" lon="-4.17028"><ele>56.0</ele><time>2026-05-01T08:35:13.676Z</time></trkpt><trkpt lat="48.34664" lon="-4.1701417"><ele>55.0</ele><time>2026-05-01T08:35:14.675Z</time></trkpt><trkpt lat="48.3468033" lon="-4.170025"><ele>54.0</ele><time>2026-05-01T08:35:15.673Z</time></trkpt><trkpt lat="48.3469783" lon="-4.1699517"><ele>53.0</ele><time>2026-05-01T08:35:16.672Z</time></trkpt><trkpt lat="48.3471667" lon="-4.1699083"><ele>52.66666666666667</ele><time>2026-05-01T08:35:17.673Z</time></trkpt><trkpt lat="48.3473567" lon="-4.1698667"><ele>52.33333333333333</ele><time>2026-05-01T08:35:18.677Z</time></trkpt><trkpt lat="48.3475517" lon="-4.1698333"><ele>52.0</ele><time>2026-05-01T08:35:19.674Z</time></trkpt><trkpt lat="48.3477383" lon="-4.1697867"><ele>51.666666666666664</ele><time>2026-05-01T08:35:20.673Z</time></trkpt><trkpt lat="48.347925" lon="-4.169745"><ele>51.33333333333333</ele><time>2026-05-01T08:35:21.672Z</time></trkpt><trkpt lat="48.3481083" lon="-4.16971"><ele>51.0</ele><time>2026-05-01T08:35:22.671Z</time></trkpt><trkpt lat="48.348285" lon="-4.16969"><ele>51.66666666666667</ele><time>2026-05-01T08:35:23.675Z</time></trkpt><trkpt lat="48.3484667" lon="-4.1696917"><ele>52.333333333333336</ele><time>2026-05-01T08:35:24.676Z</time></trkpt><trkpt lat="48.348645" lon="-4.1697133"><ele>53.0</ele><time>2026-05-01T08:35:25.677Z</time></trkpt><trkpt lat="48.3488317" lon="-4.1697583"><ele>53.333333333333336</ele><time>2026-05-01T08:35:26.674Z</time></trkpt><trkpt lat="48.3490233" lon="-4.16983"><ele>53.66666666666667</ele><time>2026-05-01T08:35:27.674Z</time></trkpt><trkpt lat="48.3492183" lon="-4.169925"><ele>54.0</ele><time>2026-05-01T08:35:28.673Z</time></trkpt><trkpt lat="48.3494033" lon="-4.1700317"><ele>54.0</ele><time>2026-05-01T08:35:29.674Z</time></trkpt><trkpt lat="48.3495867" lon="-4.1701433"><ele>54.0</ele><time>2026-05-01T08:35:30.676Z</time></trkpt><trkpt lat="48.3497617" lon="-4.1702483"><ele>54.0</ele><time>2026-05-01T08:35:31.671Z</time></trkpt><trkpt lat="48.349935" lon="-4.170355"><ele>56.66666666666667</ele><time>2026-05-01T08:35:32.674Z</time></trkpt><trkpt lat="48.3501" lon="-4.1704483"><ele>59.333333333333336</ele><time>2026-05-01T08:35:33.674Z</time></trkpt><trkpt lat="48.3502667" lon="-4.1705167"><ele>62.0</ele><time>2026-05-01T08:35:34.675Z</time></trkpt><trkpt lat="48.35044" lon="-4.1705617"><ele>65.0</ele><time>2026-05-01T08:35:35.675Z</time></trkpt><trkpt lat="48.3506117" lon="-4.1705833"><ele>68.0</ele><time>2026-05-01T08:35:36.676Z</time></trkpt><trkpt lat="48.350795" lon="-4.170575"><ele>71.0</ele><time>2026-05-01T08:35:37.673Z</time></trkpt><trkpt lat="48.3509833" lon="-4.17057"><ele>71.0</ele><time>2026-05-01T08:35:38.672Z</time></trkpt><trkpt lat="48.35117" lon="-4.17056"><ele>71.0</ele><time>2026-05-01T08:35:39.672Z</time></trkpt><trkpt lat="48.35137" lon="-4.1705333"><ele>71.0</ele><time>2026-05-01T08:35:40.675Z</time></trkpt><trkpt lat="48.3515567" lon="-4.1704983"><ele>73.33333333333334</ele><time>2026-05-01T08:35:41.675Z</time></trkpt><trkpt lat="48.3517417" lon="-4.1704467"><ele>75.66666666666667</ele><time>2026-05-01T08:35:42.675Z</time></trkpt><trkpt lat="48.3519283" lon="-4.1703933"><ele>78.0</ele><time>2026-05-01T08:35:43.673Z</time></trkpt><trkpt lat="48.3521167" lon="-4.1703367"><ele>79.0</ele><time>2026-05-01T08:35:44.675Z</time></trkpt><trkpt lat="48.3523033" lon="-4.170285"><ele>80.0</ele><time>2026-05-01T08:35:45.671Z</time></trkpt><trkpt lat="48.35249" lon="-4.1702267"><ele>81.0</ele><time>2026-05-01T08:35:46.673Z</time></trkpt><trkpt lat="48.3526817" lon="-4.170175"><ele>81.0</ele><time>2026-05-01T08:35:47.673Z</time></trkpt><trkpt lat="48.3528783" lon="-4.1701083"><ele>81.0</ele><time>2026-05-01T08:35:48.677Z</time></trkpt><trkpt lat="48.3530733" lon="-4.1700367"><ele>81.0</ele><time>2026-05-01T08:35:49.676Z</time></trkpt><trkpt lat="48.3532733" lon="-4.1699517"><ele>81.33333333333333</ele><time>2026-05-01T08:35:50.674Z</time></trkpt><trkpt lat="48.3534667" lon="-4.169865"><ele>81.66666666666666</ele><time>2026-05-01T08:35:51.67Z</time></trkpt><trkpt lat="48.3536583" lon="-4.1697733"><ele>82.0</ele><time>2026-05-01T08:35:52.673Z</time></trkpt><trkpt lat="48.3538417" lon="-4.169685"><ele>83.0</ele><time>2026-05-01T08:35:53.675Z</time></trkpt><trkpt lat="48.35403" lon="-4.1696217"><ele>84.0</ele><time>2026-05-01T08:35:54.679Z</time></trkpt><trkpt lat="48.3542217" lon="-4.169595"><ele>85.0</ele><time>2026-05-01T08:35:55.675Z</time></trkpt><trkpt lat="48.3544017" lon="-4.1695917"><ele>85.0</ele><time>2026-05-01T08:35:56.677Z</time></trkpt><trkpt lat="48.3545633" lon="-4.169615"><ele>85.0</ele><time>2026-05-01T08:35:57.675Z</time></trkpt><trkpt lat="48.3547217" lon="-4.1696867"><ele>85.0</ele><time>2026-05-01T08:35:58.672Z</time></trkpt><trkpt lat="48.354875" lon="-4.169805"><ele>85.33333333333333</ele><time>2026-05-01T08:35:59.675Z</time></trkpt><trkpt lat="48.35503" lon="-4.1699533"><ele>85.66666666666667</ele><time>2026-05-01T08:36:00.675Z</time></trkpt><trkpt lat="48.35519" lon="-4.170125"><ele>86.0</ele><time>2026-05-01T08:36:01.674Z</time></trkpt><trkpt lat="48.3553317" lon="-4.1703283"><ele>86.0</ele><time>2026-05-01T08:36:02.674Z</time></trkpt><trkpt lat="48.355465" lon="-4.1705367"><ele>86.0</ele><time>2026-05-01T08:36:03.673Z</time></trkpt><trkpt lat="48.35559" lon="-4.1707517"><ele>86.0</ele><time>2026-05-01T08:36:04.673Z</time></trkpt><trkpt lat="48.3557067" lon="-4.17096"><ele>87.66666666666667</ele><time>2026-05-01T08:36:05.673Z</time></trkpt><trkpt lat="48.3558133" lon="-4.1711617"><ele>89.33333333333333</ele><time>2026-05-01T08:36:06.673Z</time></trkpt><trkpt lat="48.35591" lon="-4.1713383"><ele>91.0</ele><time>2026-05-01T08:36:07.674Z</time></trkpt><trkpt lat="48.356005" lon="-4.1715083"><ele>92.0</ele><time>2026-05-01T08:36:08.674Z</time></trkpt><trkpt lat="48.3561017" lon="-4.1716783"><ele>93.0</ele><time>2026-05-01T08:36:09.675Z</time></trkpt><trkpt lat="48.3562033" lon="-4.1718667"><ele>94.0</ele><time>2026-05-01T08:36:10.674Z</time></trkpt><trkpt lat="48.3563033" lon="-4.1720517"><ele>94.0</ele><time>2026-05-01T08:36:11.674Z</time></trkpt><trkpt lat="48.3564017" lon="-4.1722433"><ele>94.0</ele><time>2026-05-01T08:36:12.673Z</time></trkpt><trkpt lat="48.3565017" lon="-4.172425"><ele>94.0</ele><time>2026-05-01T08:36:13.678Z</time></trkpt><trkpt lat="48.3565983" lon="-4.1726067"><ele>94.0</ele><time>2026-05-01T08:36:14.675Z</time></trkpt><trkpt lat="48.35669" lon="-4.1727967"><ele>94.0</ele><time>2026-05-01T08:36:15.679Z</time></trkpt><trkpt lat="48.35677" lon="-4.1729967"><ele>94.0</ele><time>2026-05-01T08:36:16.671Z</time></trkpt><trkpt lat="48.35683" lon="-4.1732133"><ele>94.66666666666666</ele><time>2026-05-01T08:36:17.677Z</time></trkpt><trkpt lat="48.35688" lon="-4.173445"><ele>95.33333333333333</ele><time>2026-05-01T08:36:18.677Z</time></trkpt><trkpt lat="48.3569283" lon="-4.17369"><ele>96.0</ele><time>2026-05-01T08:36:19.684Z</time></trkpt><trkpt lat="48.3569767" lon="-4.17394"><ele>96.33333333333334</ele><time>2026-05-01T08:36:20.674Z</time></trkpt><trkpt lat="48.3570433" lon="-4.174185"><ele>96.66666666666667</ele><time>2026-05-01T08:36:21.673Z</time></trkpt><trkpt lat="48.357125" lon="-4.1744283"><ele>97.0</ele><time>2026-05-01T08:36:22.686Z</time></trkpt><trkpt lat="48.3572083" lon="-4.1746683"><ele>96.0</ele><time>2026-05-01T08:36:23.682Z</time></trkpt><trkpt lat="48.3572883" lon="-4.1749033"><ele>95.0</ele><time>2026-05-01T08:36:24.676Z</time></trkpt><trkpt lat="48.3573583" lon="-4.1751433"><ele>94.0</ele><time>2026-05-01T08:36:25.673Z</time></trkpt><trkpt lat="48.3574217" lon="-4.1753833"><ele>94.0</ele><time>2026-05-01T08:36:26.673Z</time></trkpt><trkpt lat="48.3574917" lon="-4.1756167"><ele>94.0</ele><time>2026-05-01T08:36:27.671Z</time></trkpt><trkpt lat="48.3575617" lon="-4.17584"><ele>94.0</ele><time>2026-05-01T08:36:28.671Z</time></trkpt><trkpt lat="48.3576383" lon="-4.1760583"><ele>94.0</ele><time>2026-05-01T08:36:29.681Z</time></trkpt><trkpt lat="48.35772" lon="-4.17628"><ele>94.0</ele><time>2026-05-01T08:36:30.672Z</time></trkpt><trkpt lat="48.3578167" lon="-4.1764967"><ele>94.0</ele><time>2026-05-01T08:36:31.674Z</time></trkpt><trkpt lat="48.3579233" lon="-4.1766883"><ele>92.0</ele><time>2026-05-01T08:36:32.673Z</time></trkpt><trkpt lat="48.3580367" lon="-4.1768583"><ele>90.0</ele><time>2026-05-01T08:36:33.678Z</time></trkpt><trkpt lat="48.35817" lon="-4.1769917"><ele>88.0</ele><time>2026-05-01T08:36:34.673Z</time></trkpt><trkpt lat="48.3583217" lon="-4.1770783"><ele>88.0</ele><time>2026-05-01T08:36:35.674Z</time></trkpt><trkpt lat="48.358485" lon="-4.1771333"><ele>88.0</ele><time>2026-05-01T08:36:36.673Z</time></trkpt><trkpt lat="48.3586433" lon="-4.17721"><ele>88.0</ele><time>2026-05-01T08:36:37.674Z</time></trkpt><trkpt lat="48.3587867" lon="-4.1773283"><ele>87.33333333333333</ele><time>2026-05-01T08:36:38.674Z</time></trkpt><trkpt lat="48.35892" lon="-4.1774667"><ele>86.66666666666667</ele><time>2026-05-01T08:36:39.674Z</time></trkpt><trkpt lat="48.35905" lon="-4.1776117"><ele>86.0</ele><time>2026-05-01T08:36:40.677Z</time></trkpt><trkpt lat="48.3591933" lon="-4.1777333"><ele>86.0</ele><time>2026-05-01T08:36:41.675Z</time></trkpt><trkpt lat="48.35934" lon="-4.1778133"><ele>86.0</ele><time>2026-05-01T08:36:42.673Z</time></trkpt><trkpt lat="48.3595033" lon="-4.1778733"><ele>86.0</ele><time>2026-05-01T08:36:43.676Z</time></trkpt><trkpt lat="48.35967" lon="-4.1779083"><ele>84.66666666666667</ele><time>2026-05-01T08:36:44.674Z</time></trkpt><trkpt lat="48.359835" lon="-4.1779333"><ele>83.33333333333333</ele><time>2026-05-01T08:36:45.673Z</time></trkpt><trkpt lat="48.3599983" lon="-4.177955"><ele>82.0</ele><time>2026-05-01T08:36:46.675Z</time></trkpt><trkpt lat="48.360165" lon="-4.1779767"><ele>82.0</ele><time>2026-05-01T08:36:47.681Z</time></trkpt><trkpt lat="48.3603283" lon="-4.178"><ele>82.0</ele><time>2026-05-01T08:36:48.677Z</time></trkpt><trkpt lat="48.3604867" lon="-4.178015"><ele>82.0</ele><time>2026-05-01T08:36:49.679Z</time></trkpt><trkpt lat="48.36065" lon="-4.1780517"><ele>81.66666666666666</ele><time>2026-05-01T08:36:50.673Z</time></trkpt><trkpt lat="48.3608033" lon="-4.1780983"><ele>81.33333333333333</ele><time>2026-05-01T08:36:51.68Z</time></trkpt><trkpt lat="48.3609417" lon="-4.1781867"><ele>81.0</ele><time>2026-05-01T08:36:52.674Z</time></trkpt><trkpt lat="48.3610667" lon="-4.1783233"><ele>81.0</ele><time>2026-05-01T08:36:53.677Z</time></trkpt><trkpt lat="48.361165" lon="-4.1785083"><ele>81.0</ele><time>2026-05-01T08:36:54.677Z</time></trkpt><trkpt lat="48.3612317" lon="-4.1787267"><ele>81.0</ele><time>2026-05-01T08:36:55.673Z</time></trkpt><trkpt lat="48.361265" lon="-4.178995"><ele>80.66666666666667</ele><time>2026-05-01T08:36:56.675Z</time></trkpt><trkpt lat="48.3613083" lon="-4.1792917"><ele>80.33333333333334</ele><time>2026-05-01T08:36:57.676Z</time></trkpt><trkpt lat="48.36136" lon="-4.1795833"><ele>80.0</ele><time>2026-05-01T08:36:58.672Z</time></trkpt><trkpt lat="48.361425" lon="-4.1798467"><ele>76.33333333333334</ele><time>2026-05-01T08:36:59.675Z</time></trkpt><trkpt lat="48.36151" lon="-4.18009"><ele>72.66666666666667</ele><time>2026-05-01T08:37:00.677Z</time></trkpt><trkpt lat="48.3616167" lon="-4.1803233"><ele>69.0</ele><time>2026-05-01T08:37:01.675Z</time></trkpt><trkpt lat="48.361745" lon="-4.1805617"><ele>68.66666666666667</ele><time>2026-05-01T08:37:02.678Z</time></trkpt><trkpt lat="48.36188" lon="-4.180815"><ele>68.33333333333334</ele><time>2026-05-01T08:37:03.678Z</time></trkpt><trkpt lat="48.36202" lon="-4.181065"><ele>68.0</ele><time>2026-05-01T08:37:04.675Z</time></trkpt><trkpt lat="48.3621583" lon="-4.1813117"><ele>67.33333333333334</ele><time>2026-05-01T08:37:05.676Z</time></trkpt><trkpt lat="48.3622967" lon="-4.18156"><ele>66.66666666666667</ele><time>2026-05-01T08:37:06.677Z</time></trkpt><trkpt lat="48.3624283" lon="-4.1818067"><ele>66.0</ele><time>2026-05-01T08:37:07.675Z</time></trkpt><trkpt lat="48.3625567" lon="-4.1820533"><ele>66.0</ele><time>2026-05-01T08:37:08.677Z</time></trkpt><trkpt lat="48.3626833" lon="-4.18229"><ele>66.0</ele><time>2026-05-01T08:37:09.677Z</time></trkpt><trkpt lat="48.362805" lon="-4.1825267"><ele>66.0</ele><time>2026-05-01T08:37:10.674Z</time></trkpt><trkpt lat="48.3629133" lon="-4.1827567"><ele>65.33333333333333</ele><time>2026-05-01T08:37:11.674Z</time></trkpt><trkpt lat="48.363005" lon="-4.18298"><ele>64.66666666666666</ele><time>2026-05-01T08:37:12.675Z</time></trkpt><trkpt lat="48.3630717" lon="-4.1832267"><ele>64.0</ele><time>2026-05-01T08:37:13.676Z</time></trkpt><trkpt lat="48.3631183" lon="-4.1835067"><ele>67.33333333333333</ele><time>2026-05-01T08:37:14.679Z</time></trkpt><trkpt lat="48.36315" lon="-4.1838067"><ele>70.66666666666667</ele><time>2026-05-01T08:37:15.674Z</time></trkpt><trkpt lat="48.3631667" lon="-4.1841083"><ele>74.0</ele><time>2026-05-01T08:37:16.672Z</time></trkpt><trkpt lat="48.3631633" lon="-4.1844217"><ele>74.0</ele><time>2026-05-01T08:37:17.674Z</time></trkpt><trkpt lat="48.363175" lon="-4.18472"><ele>74.0</ele><time>2026-05-01T08:37:18.675Z</time></trkpt><trkpt lat="48.3631783" lon="-4.1850133"><ele>74.0</ele><time>2026-05-01T08:37:19.677Z</time></trkpt><trkpt lat="48.3631867" lon="-4.1852967"><ele>74.33333333333334</ele><time>2026-05-01T08:37:20.673Z</time></trkpt><trkpt lat="48.3631933" lon="-4.1855783"><ele>74.66666666666667</ele><time>2026-05-01T08:37:21.678Z</time></trkpt><trkpt lat="48.3632067" lon="-4.1858533"><ele>75.0</ele><time>2026-05-01T08:37:22.677Z</time></trkpt><trkpt lat="48.36322" lon="-4.186125"><ele>75.66666666666667</ele><time>2026-05-01T08:37:23.674Z</time></trkpt><trkpt lat="48.3632333" lon="-4.186395"><ele>76.33333333333334</ele><time>2026-05-01T08:37:24.676Z</time></trkpt><trkpt lat="48.3632433" lon="-4.1866633"><ele>77.0</ele><time>2026-05-01T08:37:25.675Z</time></trkpt><trkpt lat="48.363255" lon="-4.1869317"><ele>78.0</ele><time>2026-05-01T08:37:26.681Z</time></trkpt><trkpt lat="48.3632683" lon="-4.1871983"><ele>79.0</ele><time>2026-05-01T08:37:27.673Z</time></trkpt><trkpt lat="48.3632817" lon="-4.1874683"><ele>80.0</ele><time>2026-05-01T08:37:28.673Z</time></trkpt><trkpt lat="48.3632967" lon="-4.1877383"><ele>81.33333333333334</ele><time>2026-05-01T08:37:29.678Z</time></trkpt><trkpt lat="48.36331" lon="-4.1880133"><ele>82.66666666666667</ele><time>2026-05-01T08:37:30.676Z</time></trkpt><trkpt lat="48.363325" lon="-4.1882867"><ele>84.0</ele><time>2026-05-01T08:37:31.675Z</time></trkpt><trkpt lat="48.36335" lon="-4.1885617"><ele>84.66666666666667</ele><time>2026-05-01T08:37:32.675Z</time></trkpt><trkpt lat="48.3633883" lon="-4.1888317"><ele>85.33333333333334</ele><time>2026-05-01T08:37:33.676Z</time></trkpt><trkpt lat="48.3634317" lon="-4.1890983"><ele>86.0</ele><time>2026-05-01T08:37:34.674Z</time></trkpt><trkpt lat="48.3634783" lon="-4.1893667"><ele>86.0</ele><time>2026-05-01T08:37:35.676Z</time></trkpt><trkpt lat="48.36351" lon="-4.1896217"><ele>86.0</ele><time>2026-05-01T08:37:36.68Z</time></trkpt><trkpt lat="48.3635267" lon="-4.189875"><ele>86.0</ele><time>2026-05-01T08:37:37.677Z</time></trkpt><trkpt lat="48.36352" lon="-4.19014"><ele>86.0</ele><time>2026-05-01T08:37:38.675Z</time></trkpt><trkpt lat="48.363495" lon="-4.1904217"><ele>86.0</ele><time>2026-05-01T08:37:39.675Z</time></trkpt><trkpt lat="48.3634567" lon="-4.1907267"><ele>86.0</ele><time>2026-05-01T08:37:40.672Z</time></trkpt><trkpt lat="48.3634083" lon="-4.19105"><ele>86.0</ele><time>2026-05-01T08:37:41.676Z</time></trkpt><trkpt lat="48.36336" lon="-4.19137"><ele>86.0</ele><time>2026-05-01T08:37:42.675Z</time></trkpt><trkpt lat="48.3633117" lon="-4.1916833"><ele>86.0</ele><time>2026-05-01T08:37:43.674Z</time></trkpt><trkpt lat="48.363265" lon="-4.191985"><ele>87.0</ele><time>2026-05-01T08:37:44.678Z</time></trkpt><trkpt lat="48.3632183" lon="-4.1922783"><ele>88.0</ele><time>2026-05-01T08:37:45.678Z</time></trkpt><trkpt lat="48.3631717" lon="-4.1925633"><ele>89.0</ele><time>2026-05-01T08:37:46.673Z</time></trkpt><trkpt lat="48.36313" lon="-4.192835"><ele>89.66666666666667</ele><time>2026-05-01T08:37:47.676Z</time></trkpt><trkpt lat="48.3630917" lon="-4.1930967"><ele>90.33333333333333</ele><time>2026-05-01T08:37:48.676Z</time></trkpt><trkpt lat="48.3630517" lon="-4.193345"><ele>91.0</ele><time>2026-05-01T08:37:49.681Z</time></trkpt><trkpt lat="48.3630117" lon="-4.19359"><ele>91.0</ele><time>2026-05-01T08:37:50.675Z</time></trkpt><trkpt lat="48.3629733" lon="-4.193825"><ele>91.0</ele><time>2026-05-01T08:37:51.679Z</time></trkpt><trkpt lat="48.362935" lon="-4.1940517"><ele>91.0</ele><time>2026-05-01T08:37:52.675Z</time></trkpt><trkpt lat="48.3629" lon="-4.1942767"><ele>91.66666666666666</ele><time>2026-05-01T08:37:53.682Z</time></trkpt><trkpt lat="48.362875" lon="-4.1945067"><ele>92.33333333333333</ele><time>2026-05-01T08:37:54.674Z</time></trkpt><trkpt lat="48.362855" lon="-4.1947367"><ele>93.0</ele><time>2026-05-01T08:37:55.676Z</time></trkpt><trkpt lat="48.3628533" lon="-4.1949633"><ele>93.25</ele><time>2026-05-01T08:37:56.684Z</time></trkpt><trkpt lat="48.362855" lon="-4.1951817"><ele>93.5</ele><time>2026-05-01T08:37:57.674Z</time></trkpt><trkpt lat="48.362855" lon="-4.1953933"><ele>93.75</ele><time>2026-05-01T08:37:58.677Z</time></trkpt><trkpt lat="48.3628583" lon="-4.1956067"><ele>94.0</ele><time>2026-05-01T08:37:59.677Z</time></trkpt><trkpt lat="48.3628683" lon="-4.1958067"><ele>94.0</ele><time>2026-05-01T08:38:00.686Z</time></trkpt><trkpt lat="48.36288" lon="-4.195995"><ele>94.0</ele><time>2026-05-01T08:38:01.674Z</time></trkpt><trkpt lat="48.362895" lon="-4.196175"><ele>94.0</ele><time>2026-05-01T08:38:02.674Z</time></trkpt><trkpt lat="48.36292" lon="-4.1963433"><ele>94.0</ele><time>2026-05-01T08:38:03.675Z</time></trkpt><trkpt lat="48.362965" lon="-4.1965017"><ele>94.0</ele><time>2026-05-01T08:38:04.674Z</time></trkpt><trkpt lat="48.36302" lon="-4.1966483"><ele>94.0</ele><time>2026-05-01T08:38:05.676Z</time></trkpt><trkpt lat="48.36308" lon="-4.19679"><ele>94.0</ele><time>2026-05-01T08:38:06.677Z</time></trkpt><trkpt lat="48.363155" lon="-4.1969267"><ele>94.0</ele><time>2026-05-01T08:38:07.674Z</time></trkpt><trkpt lat="48.3632333" lon="-4.197065"><ele>94.0</ele><time>2026-05-01T08:38:08.674Z</time></trkpt><trkpt lat="48.3633117" lon="-4.1972083"><ele>94.0</ele><time>2026-05-01T08:38:09.676Z</time></trkpt><trkpt lat="48.36339" lon="-4.1973583"><ele>94.0</ele><time>2026-05-01T08:38:10.672Z</time></trkpt><trkpt lat="48.3634717" lon="-4.19752"><ele>94.0</ele><time>2026-05-01T08:38:11.681Z</time></trkpt><trkpt lat="48.3635583" lon="-4.19768"><ele>94.25</ele><time>2026-05-01T08:38:12.674Z</time></trkpt><trkpt lat="48.3636433" lon="-4.1978433"><ele>94.5</ele><time>2026-05-01T08:38:13.673Z</time></trkpt><trkpt lat="48.3637283" lon="-4.198005"><ele>94.75</ele><time>2026-05-01T08:38:14.677Z</time></trkpt><trkpt lat="48.36382" lon="-4.1981517"><ele>95.0</ele><time>2026-05-01T08:38:15.673Z</time></trkpt><trkpt lat="48.3639233" lon="-4.19829"><ele>95.0</ele><time>2026-05-01T08:38:16.673Z</time></trkpt><trkpt lat="48.3640417" lon="-4.19841"><ele>95.0</ele><time>2026-05-01T08:38:17.672Z</time></trkpt><trkpt lat="48.36417" lon="-4.1985067"><ele>95.0</ele><time>2026-05-01T08:38:18.677Z</time></trkpt><trkpt lat="48.3643083" lon="-4.1985783"><ele>95.0</ele><time>2026-05-01T08:38:19.674Z</time></trkpt><trkpt lat="48.3644533" lon="-4.1986233"><ele>95.0</ele><time>2026-05-01T08:38:20.675Z</time></trkpt><trkpt lat="48.3646" lon="-4.1986533"><ele>95.0</ele><time>2026-05-01T08:38:21.674Z</time></trkpt><trkpt lat="48.3647467" lon="-4.1986767"><ele>95.0</ele><time>2026-05-01T08:38:22.675Z</time></trkpt><trkpt lat="48.364895" lon="-4.1987033"><ele>95.0</ele><time>2026-05-01T08:38:23.681Z</time></trkpt><trkpt lat="48.365045" lon="-4.19873"><ele>95.25</ele><time>2026-05-01T08:38:24.683Z</time></trkpt><trkpt lat="48.3651933" lon="-4.1987617"><ele>95.5</ele><time>2026-05-01T08:38:25.674Z</time></trkpt><trkpt lat="48.3653417" lon="-4.198795"><ele>95.75</ele><time>2026-05-01T08:38:26.675Z</time></trkpt><trkpt lat="48.3654883" lon="-4.1988283"><ele>96.0</ele><time>2026-05-01T08:38:27.671Z</time></trkpt><trkpt lat="48.3656367" lon="-4.1988583"><ele>96.0</ele><time>2026-05-01T08:38:28.671Z</time></trkpt><trkpt lat="48.36578" lon="-4.198895"><ele>96.0</ele><time>2026-05-01T08:38:29.674Z</time></trkpt><trkpt lat="48.3659133" lon="-4.1989483"><ele>96.0</ele><time>2026-05-01T08:38:30.675Z</time></trkpt><trkpt lat="48.3660383" lon="-4.1990333"><ele>96.0</ele><time>2026-05-01T08:38:31.676Z</time></trkpt><trkpt lat="48.366145" lon="-4.1991667"><ele>96.0</ele><time>2026-05-01T08:38:32.675Z</time></trkpt><trkpt lat="48.3662183" lon="-4.1993533"><ele>96.0</ele><time>2026-05-01T08:38:33.676Z</time></trkpt><trkpt lat="48.366275" lon="-4.1995683"><ele>96.0</ele><time>2026-05-01T08:38:34.672Z</time></trkpt><trkpt lat="48.3663267" lon="-4.1998017"><ele>93.0</ele><time>2026-05-01T08:38:35.675Z</time></trkpt><trkpt lat="48.366385" lon="-4.20004"><ele>90.0</ele><time>2026-05-01T08:38:36.677Z</time></trkpt><trkpt lat="48.3664433" lon="-4.2002767"><ele>87.0</ele><time>2026-05-01T08:38:37.673Z</time></trkpt><trkpt lat="48.3665033" lon="-4.20051"><ele>86.33333333333333</ele><time>2026-05-01T08:38:38.677Z</time></trkpt><trkpt lat="48.3665633" lon="-4.2007433"><ele>85.66666666666666</ele><time>2026-05-01T08:38:39.676Z</time></trkpt><trkpt lat="48.366625" lon="-4.2009783"><ele>85.0</ele><time>2026-05-01T08:38:40.674Z</time></trkpt><trkpt lat="48.3666867" lon="-4.2012183"><ele>85.0</ele><time>2026-05-01T08:38:41.674Z</time></trkpt><trkpt lat="48.36675" lon="-4.2014683"><ele>85.0</ele><time>2026-05-01T08:38:42.682Z</time></trkpt><trkpt lat="48.3668183" lon="-4.2017317"><ele>85.0</ele><time>2026-05-01T08:38:43.677Z</time></trkpt><trkpt lat="48.3668867" lon="-4.202"><ele>84.66666666666666</ele><time>2026-05-01T08:38:44.68Z</time></trkpt><trkpt lat="48.3669533" lon="-4.20227"><ele>84.33333333333333</ele><time>2026-05-01T08:38:45.676Z</time></trkpt><trkpt lat="48.3670133" lon="-4.2025267"><ele>84.0</ele><time>2026-05-01T08:38:46.673Z</time></trkpt><trkpt lat="48.3670567" lon="-4.202775"><ele>83.66666666666667</ele><time>2026-05-01T08:38:47.676Z</time></trkpt><trkpt lat="48.36706" lon="-4.2030183"><ele>83.33333333333334</ele><time>2026-05-01T08:38:48.676Z</time></trkpt><trkpt lat="48.3670183" lon="-4.2032483"><ele>83.0</ele><time>2026-05-01T08:38:49.676Z</time></trkpt><trkpt lat="48.3669483" lon="-4.2034733"><ele>82.33333333333334</ele><time>2026-05-01T08:38:50.674Z</time></trkpt><trkpt lat="48.3668717" lon="-4.2037017"><ele>81.66666666666667</ele><time>2026-05-01T08:38:51.677Z</time></trkpt><trkpt lat="48.366815" lon="-4.2039317"><ele>81.0</ele><time>2026-05-01T08:38:52.671Z</time></trkpt><trkpt lat="48.3667783" lon="-4.2041633"><ele>79.75</ele><time>2026-05-01T08:38:53.677Z</time></trkpt><trkpt lat="48.3667883" lon="-4.204385"><ele>78.5</ele><time>2026-05-01T08:38:54.674Z</time></trkpt><trkpt lat="48.36684" lon="-4.2045867"><ele>77.25</ele><time>2026-05-01T08:38:55.677Z</time></trkpt><trkpt lat="48.3669317" lon="-4.2047533"><ele>76.0</ele><time>2026-05-01T08:38:56.674Z</time></trkpt><trkpt lat="48.367055" lon="-4.2049"><ele>72.33333333333333</ele><time>2026-05-01T08:38:57.676Z</time></trkpt><trkpt lat="48.367205" lon="-4.2050383"><ele>68.66666666666667</ele><time>2026-05-01T08:38:58.676Z</time></trkpt><trkpt lat="48.3673517" lon="-4.2051783"><ele>65.0</ele><time>2026-05-01T08:38:59.675Z</time></trkpt><trkpt lat="48.36748" lon="-4.205335"><ele>65.0</ele><time>2026-05-01T08:39:00.679Z</time></trkpt><trkpt lat="48.367585" lon="-4.2055017"><ele>65.0</ele><time>2026-05-01T08:39:01.672Z</time></trkpt><trkpt lat="48.367675" lon="-4.2056783"><ele>65.0</ele><time>2026-05-01T08:39:02.675Z</time></trkpt><trkpt lat="48.36775" lon="-4.2058717"><ele>65.0</ele><time>2026-05-01T08:39:03.676Z</time></trkpt><trkpt lat="48.367815" lon="-4.2060767"><ele>64.75</ele><time>2026-05-01T08:39:04.675Z</time></trkpt><trkpt lat="48.3678667" lon="-4.206285"><ele>64.5</ele><time>2026-05-01T08:39:05.681Z</time></trkpt><trkpt lat="48.3679017" lon="-4.2064967"><ele>64.25</ele><time>2026-05-01T08:39:06.675Z</time></trkpt><trkpt lat="48.3679067" lon="-4.2067183"><ele>64.0</ele><time>2026-05-01T08:39:07.677Z</time></trkpt><trkpt lat="48.36789" lon="-4.2069433"><ele>64.5</ele><time>2026-05-01T08:39:08.675Z</time></trkpt><trkpt lat="48.367855" lon="-4.207165"><ele>65.0</ele><time>2026-05-01T08:39:09.673Z</time></trkpt><trkpt lat="48.3678183" lon="-4.2073783"><ele>65.5</ele><time>2026-05-01T08:39:10.675Z</time></trkpt><trkpt lat="48.3677683" lon="-4.2075883"><ele>66.0</ele><time>2026-05-01T08:39:11.676Z</time></trkpt><trkpt lat="48.36772" lon="-4.2077933"><ele>67.0</ele><time>2026-05-01T08:39:12.675Z</time></trkpt><trkpt lat="48.36768" lon="-4.207995"><ele>68.0</ele><time>2026-05-01T08:39:13.671Z</time></trkpt><trkpt lat="48.3676533" lon="-4.2081917"><ele>69.0</ele><time>2026-05-01T08:39:14.675Z</time></trkpt><trkpt lat="48.36764" lon="-4.20839"><ele>70.0</ele><time>2026-05-01T08:39:15.676Z</time></trkpt><trkpt lat="48.36763" lon="-4.208585"><ele>71.25</ele><time>2026-05-01T08:39:16.675Z</time></trkpt><trkpt lat="48.367625" lon="-4.2087767"><ele>72.5</ele><time>2026-05-01T08:39:17.679Z</time></trkpt><trkpt lat="48.3676233" lon="-4.2089667"><ele>73.75</ele><time>2026-05-01T08:39:18.674Z</time></trkpt><trkpt lat="48.3676217" lon="-4.2091583"><ele>75.0</ele><time>2026-05-01T08:39:19.677Z</time></trkpt><trkpt lat="48.36762" lon="-4.2093483"><ele>76.25</ele><time>2026-05-01T08:39:20.677Z</time></trkpt><trkpt lat="48.367615" lon="-4.2095367"><ele>77.5</ele><time>2026-05-01T08:39:21.675Z</time></trkpt><trkpt lat="48.3676083" lon="-4.2097217"><ele>78.75</ele><time>2026-05-01T08:39:22.673Z</time></trkpt><trkpt lat="48.3676067" lon="-4.209905"><ele>80.0</ele><time>2026-05-01T08:39:23.674Z</time></trkpt><trkpt lat="48.367615" lon="-4.210085"><ele>80.5</ele><time>2026-05-01T08:39:24.678Z</time></trkpt><trkpt lat="48.3676367" lon="-4.21026"><ele>81.0</ele><time>2026-05-01T08:39:25.672Z</time></trkpt><trkpt lat="48.3676733" lon="-4.2104283"><ele>81.5</ele><time>2026-05-01T08:39:26.677Z</time></trkpt><trkpt lat="48.367725" lon="-4.21059"><ele>82.0</ele><time>2026-05-01T08:39:27.674Z</time></trkpt><trkpt lat="48.3677933" lon="-4.2107417"><ele>82.5</ele><time>2026-05-01T08:39:28.677Z</time></trkpt><trkpt lat="48.36787" lon="-4.210875"><ele>83.0</ele><time>2026-05-01T08:39:29.676Z</time></trkpt><trkpt lat="48.3679583" lon="-4.2109967"><ele>83.5</ele><time>2026-05-01T08:39:30.678Z</time></trkpt><trkpt lat="48.3680483" lon="-4.2111233"><ele>84.0</ele><time>2026-05-01T08:39:31.673Z</time></trkpt><trkpt lat="48.3681333" lon="-4.211255"><ele>85.5</ele><time>2026-05-01T08:39:32.675Z</time></trkpt><trkpt lat="48.3682167" lon="-4.2113817"><ele>87.0</ele><time>2026-05-01T08:39:33.674Z</time></trkpt><trkpt lat="48.3683017" lon="-4.21151"><ele>88.5</ele><time>2026-05-01T08:39:34.676Z</time></trkpt><trkpt lat="48.3683867" lon="-4.21163"><ele>90.0</ele><time>2026-05-01T08:39:35.674Z</time></trkpt><trkpt lat="48.3684683" lon="-4.2117467"><ele>90.0</ele><time>2026-05-01T08:39:36.676Z</time></trkpt><trkpt lat="48.36855" lon="-4.2118567"><ele>90.0</ele><time>2026-05-01T08:39:37.679Z</time></trkpt><trkpt lat="48.368625" lon="-4.2119717"><ele>90.0</ele><time>2026-05-01T08:39:38.674Z</time></trkpt><trkpt lat="48.3686983" lon="-4.212085"><ele>90.0</ele><time>2026-05-01T08:39:39.675Z</time></trkpt><trkpt lat="48.3687683" lon="-4.2122033"><ele>90.0</ele><time>2026-05-01T08:39:40.678Z</time></trkpt><trkpt lat="48.3688433" lon="-4.21231"><ele>91.0</ele><time>2026-05-01T08:39:41.678Z</time></trkpt><trkpt lat="48.368915" lon="-4.212415"><ele>92.0</ele><time>2026-05-01T08:39:42.675Z</time></trkpt><trkpt lat="48.3689867" lon="-4.2125183"><ele>93.0</ele><time>2026-05-01T08:39:43.675Z</time></trkpt><trkpt lat="48.3690583" lon="-4.21261"><ele>94.0</ele><time>2026-05-01T08:39:44.674Z</time></trkpt><trkpt lat="48.3691317" lon="-4.2126833"><ele>95.0</ele><time>2026-05-01T08:39:45.675Z</time></trkpt><trkpt lat="48.36921" lon="-4.2127283"><ele>95.0</ele><time>2026-05-01T08:39:46.68Z</time></trkpt><trkpt lat="48.3692917" lon="-4.2127617"><ele>95.0</ele><time>2026-05-01T08:39:47.673Z</time></trkpt><trkpt lat="48.369375" lon="-4.2127917"><ele>95.0</ele><time>2026-05-01T08:39:48.674Z</time></trkpt><trkpt lat="48.3694617" lon="-4.2128167"><ele>95.0</ele><time>2026-05-01T08:39:49.674Z</time></trkpt><trkpt lat="48.369545" lon="-4.2128383"><ele>95.0</ele><time>2026-05-01T08:39:50.673Z</time></trkpt><trkpt lat="48.3696283" lon="-4.2128567"><ele>95.0</ele><time>2026-05-01T08:39:51.674Z</time></trkpt><trkpt lat="48.3697083" lon="-4.2128733"><ele>96.0</ele><time>2026-05-01T08:39:52.673Z</time></trkpt><trkpt lat="48.3697933" lon="-4.2128817"><ele>97.0</ele><time>2026-05-01T08:39:53.678Z</time></trkpt><trkpt lat="48.3698817" lon="-4.2128917"><ele>98.0</ele><time>2026-05-01T08:39:54.674Z</time></trkpt><trkpt lat="48.3699733" lon="-4.212895"><ele>99.0</ele><time>2026-05-01T08:39:55.675Z</time></trkpt><trkpt lat="48.3700717" lon="-4.212895"><ele>100.0</ele><time>2026-05-01T08:39:56.675Z</time></trkpt><trkpt lat="48.370165" lon="-4.2128917"><ele>100.0</ele><time>2026-05-01T08:39:57.673Z</time></trkpt><trkpt lat="48.3702517" lon="-4.2128733"><ele>100.0</ele><time>2026-05-01T08:39:58.673Z</time></trkpt><trkpt lat="48.370345" lon="-4.2128667"><ele>100.0</ele><time>2026-05-01T08:39:59.679Z</time></trkpt><trkpt lat="48.3704333" lon="-4.21285"><ele>100.0</ele><time>2026-05-01T08:40:00.675Z</time></trkpt><trkpt lat="48.370525" lon="-4.21284"><ele>100.0</ele><time>2026-05-01T08:40:01.676Z</time></trkpt><trkpt lat="48.3706183" lon="-4.2128283"><ele>99.6</ele><time>2026-05-01T08:40:02.674Z</time></trkpt><trkpt lat="48.3707133" lon="-4.2128167"><ele>99.2</ele><time>2026-05-01T08:40:03.677Z</time></trkpt><trkpt lat="48.3708083" lon="-4.2127983"><ele>98.80000000000001</ele><time>2026-05-01T08:40:04.677Z</time></trkpt><trkpt lat="48.3709067" lon="-4.212785"><ele>98.4</ele><time>2026-05-01T08:40:05.673Z</time></trkpt><trkpt lat="48.371005" lon="-4.2127767"><ele>98.0</ele><time>2026-05-01T08:40:06.681Z</time></trkpt><trkpt lat="48.3711083" lon="-4.212775"><ele>98.0</ele><time>2026-05-01T08:40:07.674Z</time></trkpt><trkpt lat="48.37121" lon="-4.21277"><ele>98.0</ele><time>2026-05-01T08:40:08.674Z</time></trkpt><trkpt lat="48.3713183" lon="-4.2127717"><ele>98.0</ele><time>2026-05-01T08:40:09.675Z</time></trkpt><trkpt lat="48.3714217" lon="-4.21277"><ele>98.0</ele><time>2026-05-01T08:40:10.682Z</time></trkpt><trkpt lat="48.3715217" lon="-4.2127683"><ele>98.0</ele><time>2026-05-01T08:40:11.674Z</time></trkpt><trkpt lat="48.371625" lon="-4.21276"><ele>98.2</ele><time>2026-05-01T08:40:12.676Z</time></trkpt><trkpt lat="48.3717283" lon="-4.2127583"><ele>98.4</ele><time>2026-05-01T08:40:13.681Z</time></trkpt><trkpt lat="48.3718317" lon="-4.2127517"><ele>98.60000000000001</ele><time>2026-05-01T08:40:14.674Z</time></trkpt><trkpt lat="48.3719317" lon="-4.212755"><ele>98.80000000000001</ele><time>2026-05-01T08:40:15.677Z</time></trkpt><trkpt lat="48.3720283" lon="-4.2127667"><ele>99.0</ele><time>2026-05-01T08:40:16.674Z</time></trkpt><trkpt lat="48.3721217" lon="-4.2127717"><ele>99.0</ele><time>2026-05-01T08:40:17.674Z</time></trkpt><trkpt lat="48.372215" lon="-4.21277"><ele>99.0</ele><time>2026-05-01T08:40:18.674Z</time></trkpt><trkpt lat="48.3723017" lon="-4.2127617"><ele>99.0</ele><time>2026-05-01T08:40:19.674Z</time></trkpt><trkpt lat="48.3723933" lon="-4.2127517"><ele>99.0</ele><time>2026-05-01T08:40:20.674Z</time></trkpt><trkpt lat="48.37249" lon="-4.2127417"><ele>99.0</ele><time>2026-05-01T08:40:21.676Z</time></trkpt><trkpt lat="48.3726017" lon="-4.2127317"><ele>99.0</ele><time>2026-05-01T08:40:22.675Z</time></trkpt><trkpt lat="48.3727167" lon="-4.2127233"><ele>99.0</ele><time>2026-05-01T08:40:23.676Z</time></trkpt><trkpt lat="48.3728367" lon="-4.212715"><ele>99.0</ele><time>2026-05-01T08:40:24.677Z</time></trkpt><trkpt lat="48.372955" lon="-4.2127117"><ele>99.0</ele><time>2026-05-01T08:40:25.675Z</time></trkpt><trkpt lat="48.3730717" lon="-4.2127067"><ele>99.2</ele><time>2026-05-01T08:40:26.677Z</time></trkpt><trkpt lat="48.373185" lon="-4.2127067"><ele>99.4</ele><time>2026-05-01T08:40:27.673Z</time></trkpt><trkpt lat="48.3732983" lon="-4.2127117"><ele>99.6</ele><time>2026-05-01T08:40:28.674Z</time></trkpt><trkpt lat="48.3734083" lon="-4.2127117"><ele>99.8</ele><time>2026-05-01T08:40:29.672Z</time></trkpt><trkpt lat="48.373515" lon="-4.21271"><ele>100.0</ele><time>2026-05-01T08:40:30.674Z</time></trkpt><trkpt lat="48.3736267" lon="-4.2127167"><ele>100.0</ele><time>2026-05-01T08:40:31.673Z</time></trkpt><trkpt lat="48.373735" lon="-4.2127133"><ele>100.0</ele><time>2026-05-01T08:40:32.672Z</time></trkpt><trkpt lat="48.37385" lon="-4.2127083"><ele>100.0</ele><time>2026-05-01T08:40:33.674Z</time></trkpt><trkpt lat="48.3739683" lon="-4.2127"><ele>100.0</ele><time>2026-05-01T08:40:34.674Z</time></trkpt><trkpt lat="48.37409" lon="-4.2127"><ele>100.25</ele><time>2026-05-01T08:40:35.673Z</time></trkpt><trkpt lat="48.3742167" lon="-4.2127017"><ele>100.5</ele><time>2026-05-01T08:40:36.673Z</time></trkpt><trkpt lat="48.37435" lon="-4.212695"><ele>100.75</ele><time>2026-05-01T08:40:37.671Z</time></trkpt><trkpt lat="48.3744817" lon="-4.212695"><ele>101.0</ele><time>2026-05-01T08:40:38.676Z</time></trkpt><trkpt lat="48.374615" lon="-4.2126983"><ele>100.0</ele><time>2026-05-01T08:40:39.674Z</time></trkpt><trkpt lat="48.3747483" lon="-4.2127033"><ele>99.0</ele><time>2026-05-01T08:40:40.673Z</time></trkpt><trkpt lat="48.37488" lon="-4.212715"><ele>98.0</ele><time>2026-05-01T08:40:41.673Z</time></trkpt><trkpt lat="48.3750083" lon="-4.21273"><ele>97.0</ele><time>2026-05-01T08:40:42.673Z</time></trkpt><trkpt lat="48.3751167" lon="-4.2127483"><ele>97.0</ele><time>2026-05-01T08:40:43.676Z</time></trkpt><trkpt lat="48.3752217" lon="-4.2127733"><ele>97.0</ele><time>2026-05-01T08:40:44.674Z</time></trkpt><trkpt lat="48.3753233" lon="-4.2128"><ele>97.0</ele><time>2026-05-01T08:40:45.674Z</time></trkpt><trkpt lat="48.375425" lon="-4.2128267"><ele>97.0</ele><time>2026-05-01T08:40:46.672Z</time></trkpt><trkpt lat="48.3755283" lon="-4.2128667"><ele>97.0</ele><time>2026-05-01T08:40:47.673Z</time></trkpt><trkpt lat="48.375645" lon="-4.21292"><ele>95.39999999999999</ele><time>2026-05-01T08:40:48.678Z</time></trkpt><trkpt lat="48.37576" lon="-4.2129583"><ele>93.8</ele><time>2026-05-01T08:40:49.671Z</time></trkpt><trkpt lat="48.375865" lon="-4.2129817"><ele>92.2</ele><time>2026-05-01T08:40:50.674Z</time></trkpt><trkpt lat="48.3759717" lon="-4.2130067"><ele>90.6</ele><time>2026-05-01T08:40:51.674Z</time></trkpt><trkpt lat="48.3760833" lon="-4.213035"><ele>89.0</ele><time>2026-05-01T08:40:52.675Z</time></trkpt><trkpt lat="48.3761867" lon="-4.2130683"><ele>89.0</ele><time>2026-05-01T08:40:53.674Z</time></trkpt><trkpt lat="48.376265" lon="-4.2131067"><ele>89.0</ele><time>2026-05-01T08:40:54.676Z</time></trkpt><trkpt lat="48.37633" lon="-4.213145"><ele>89.0</ele><time>2026-05-01T08:40:55.672Z</time></trkpt><trkpt lat="48.3764167" lon="-4.21318"><ele>89.0</ele><time>2026-05-01T08:40:57.673Z</time></trkpt><trkpt lat="48.3764867" lon="-4.2131683"><ele>89.0</ele><time>2026-05-01T08:41:07.676Z</time></trkpt><trkpt lat="48.376595" lon="-4.2131617"><ele>89.0</ele><time>2026-05-01T08:41:09.677Z</time></trkpt><trkpt lat="48.3766867" lon="-4.2131733"><ele>87.25</ele><time>2026-05-01T08:41:10.679Z</time></trkpt><trkpt lat="48.37681" lon="-4.2132133"><ele>85.5</ele><time>2026-05-01T08:41:11.674Z</time></trkpt><trkpt lat="48.3769417" lon="-4.2132467"><ele>83.75</ele><time>2026-05-01T08:41:12.676Z</time></trkpt><trkpt lat="48.37708" lon="-4.2132833"><ele>82.0</ele><time>2026-05-01T08:41:13.675Z</time></trkpt><trkpt lat="48.3772217" lon="-4.2133167"><ele>80.5</ele><time>2026-05-01T08:41:14.678Z</time></trkpt><trkpt lat="48.3773633" lon="-4.2133583"><ele>79.0</ele><time>2026-05-01T08:41:15.679Z</time></trkpt><trkpt lat="48.3775083" lon="-4.2133967"><ele>77.5</ele><time>2026-05-01T08:41:16.674Z</time></trkpt><trkpt lat="48.37765" lon="-4.2134333"><ele>76.0</ele><time>2026-05-01T08:41:17.675Z</time></trkpt><trkpt lat="48.3777933" lon="-4.21347"><ele>76.0</ele><time>2026-05-01T08:41:18.675Z</time></trkpt><trkpt lat="48.3779367" lon="-4.2135017"><ele>76.0</ele><time>2026-05-01T08:41:19.678Z</time></trkpt><trkpt lat="48.378085" lon="-4.213505"><ele>76.0</ele><time>2026-05-01T08:41:20.678Z</time></trkpt><trkpt lat="48.3782483" lon="-4.2134783"><ele>74.0</ele><time>2026-05-01T08:41:21.678Z</time></trkpt><trkpt lat="48.37842" lon="-4.2134217"><ele>72.0</ele><time>2026-05-01T08:41:22.67Z</time></trkpt><trkpt lat="48.3786083" lon="-4.213355"><ele>70.0</ele><time>2026-05-01T08:41:23.671Z</time></trkpt><trkpt lat="48.3788017" lon="-4.2132867"><ele>68.66666666666666</ele><time>2026-05-01T08:41:24.677Z</time></trkpt><trkpt lat="48.3789933" lon="-4.2132183"><ele>67.33333333333333</ele><time>2026-05-01T08:41:25.673Z</time></trkpt><trkpt lat="48.3791767" lon="-4.21315"><ele>66.0</ele><time>2026-05-01T08:41:26.675Z</time></trkpt><trkpt lat="48.379355" lon="-4.21308"><ele>66.0</ele><time>2026-05-01T08:41:27.673Z</time></trkpt><trkpt lat="48.3795283" lon="-4.21301"><ele>66.0</ele><time>2026-05-01T08:41:28.674Z</time></trkpt><trkpt lat="48.3797017" lon="-4.21294"><ele>66.0</ele><time>2026-05-01T08:41:29.675Z</time></trkpt><trkpt lat="48.3798733" lon="-4.2128733"><ele>64.0</ele><time>2026-05-01T08:41:30.674Z</time></trkpt><trkpt lat="48.3800433" lon="-4.2128083"><ele>62.0</ele><time>2026-05-01T08:41:31.674Z</time></trkpt><trkpt lat="48.3802117" lon="-4.212745"><ele>60.0</ele><time>2026-05-01T08:41:32.675Z</time></trkpt><trkpt lat="48.380375" lon="-4.2126817"><ele>58.33333333333333</ele><time>2026-05-01T08:41:33.673Z</time></trkpt><trkpt lat="48.3805333" lon="-4.2126183"><ele>56.666666666666664</ele><time>2026-05-01T08:41:34.677Z</time></trkpt><trkpt lat="48.3806867" lon="-4.21255"><ele>55.0</ele><time>2026-05-01T08:41:35.679Z</time></trkpt><trkpt lat="48.38084" lon="-4.2124733"><ele>55.0</ele><time>2026-05-01T08:41:36.675Z</time></trkpt><trkpt lat="48.38099" lon="-4.2123783"><ele>55.0</ele><time>2026-05-01T08:41:37.674Z</time></trkpt><trkpt lat="48.3811317" lon="-4.212255"><ele>55.0</ele><time>2026-05-01T08:41:38.679Z</time></trkpt><trkpt lat="48.3812617" lon="-4.2121133"><ele>53.33333333333333</ele><time>2026-05-01T08:41:39.675Z</time></trkpt><trkpt lat="48.3813817" lon="-4.21195"><ele>51.66666666666667</ele><time>2026-05-01T08:41:40.676Z</time></trkpt><trkpt lat="48.3815" lon="-4.2117817"><ele>50.0</ele><time>2026-05-01T08:41:41.674Z</time></trkpt><trkpt lat="48.3816217" lon="-4.2116117"><ele>49.333333333333336</ele><time>2026-05-01T08:41:42.67Z</time></trkpt><trkpt lat="48.3817467" lon="-4.2114383"><ele>48.66666666666667</ele><time>2026-05-01T08:41:43.675Z</time></trkpt><trkpt lat="48.3818733" lon="-4.2112683"><ele>48.0</ele><time>2026-05-01T08:41:44.68Z</time></trkpt><trkpt lat="48.3820033" lon="-4.211105"><ele>48.0</ele><time>2026-05-01T08:41:45.674Z</time></trkpt><trkpt lat="48.3821383" lon="-4.2109483"><ele>48.0</ele><time>2026-05-01T08:41:46.673Z</time></trkpt><trkpt lat="48.38228" lon="-4.21081"><ele>48.0</ele><time>2026-05-01T08:41:47.674Z</time></trkpt><trkpt lat="48.3824233" lon="-4.210685"><ele>47.666666666666664</ele><time>2026-05-01T08:41:48.674Z</time></trkpt><trkpt lat="48.3825683" lon="-4.210565"><ele>47.33333333333333</ele><time>2026-05-01T08:41:49.681Z</time></trkpt><trkpt lat="48.3827183" lon="-4.210455"><ele>47.0</ele><time>2026-05-01T08:41:50.672Z</time></trkpt><trkpt lat="48.3828617" lon="-4.2103483"><ele>47.0</ele><time>2026-05-01T08:41:51.672Z</time></trkpt><trkpt lat="48.3830033" lon="-4.2102517"><ele>47.0</ele><time>2026-05-01T08:41:52.674Z</time></trkpt><trkpt lat="48.383145" lon="-4.2101917"><ele>47.0</ele><time>2026-05-01T08:41:53.677Z</time></trkpt><trkpt lat="48.3832883" lon="-4.210165"><ele>47.0</ele><time>2026-05-01T08:41:54.677Z</time></trkpt><trkpt lat="48.383435" lon="-4.2101733"><ele>45.0</ele><time>2026-05-01T08:41:55.674Z</time></trkpt><trkpt lat="48.3835767" lon="-4.2102417"><ele>43.0</ele><time>2026-05-01T08:41:56.677Z</time></trkpt><trkpt lat="48.38371" lon="-4.21036"><ele>41.0</ele><time>2026-05-01T08:41:57.672Z</time></trkpt><trkpt lat="48.383835" lon="-4.2105083"><ele>37.666666666666664</ele><time>2026-05-01T08:41:58.671Z</time></trkpt><trkpt lat="48.3839517" lon="-4.2106717"><ele>34.333333333333336</ele><time>2026-05-01T08:41:59.677Z</time></trkpt><trkpt lat="48.3840667" lon="-4.2108367"><ele>31.0</ele><time>2026-05-01T08:42:00.676Z</time></trkpt><trkpt lat="48.3841767" lon="-4.2109983"><ele>31.0</ele><time>2026-05-01T08:42:01.679Z</time></trkpt><trkpt lat="48.3842783" lon="-4.2111567"><ele>31.0</ele><time>2026-05-01T08:42:02.677Z</time></trkpt><trkpt lat="48.38437" lon="-4.2113317"><ele>31.0</ele><time>2026-05-01T08:42:03.677Z</time></trkpt><trkpt lat="48.3844533" lon="-4.2115267"><ele>31.0</ele><time>2026-05-01T08:42:04.673Z</time></trkpt><trkpt lat="48.3845367" lon="-4.2117467"><ele>31.333333333333336</ele><time>2026-05-01T08:42:05.675Z</time></trkpt><trkpt lat="48.3846167" lon="-4.2119833"><ele>31.666666666666664</ele><time>2026-05-01T08:42:06.682Z</time></trkpt><trkpt lat="48.3846917" lon="-4.2122217"><ele>32.0</ele><time>2026-05-01T08:42:07.678Z</time></trkpt><trkpt lat="48.3847683" lon="-4.21245"><ele>33.666666666666664</ele><time>2026-05-01T08:42:08.678Z</time></trkpt><trkpt lat="48.38484" lon="-4.2126767"><ele>35.333333333333336</ele><time>2026-05-01T08:42:09.671Z</time></trkpt><trkpt lat="48.3849183" lon="-4.2128967"><ele>37.0</ele><time>2026-05-01T08:42:10.675Z</time></trkpt><trkpt lat="48.38499" lon="-4.2131117"><ele>36.75</ele><time>2026-05-01T08:42:11.683Z</time></trkpt><trkpt lat="48.385055" lon="-4.2133167"><ele>36.5</ele><time>2026-05-01T08:42:12.677Z</time></trkpt><trkpt lat="48.3851167" lon="-4.2135117"><ele>36.25</ele><time>2026-05-01T08:42:13.675Z</time></trkpt><trkpt lat="48.3851783" lon="-4.213695"><ele>36.0</ele><time>2026-05-01T08:42:14.675Z</time></trkpt><trkpt lat="48.3852333" lon="-4.2138717"><ele>36.25</ele><time>2026-05-01T08:42:15.68Z</time></trkpt><trkpt lat="48.3852933" lon="-4.2140433"><ele>36.5</ele><time>2026-05-01T08:42:16.677Z</time></trkpt><trkpt lat="48.385355" lon="-4.214205"><ele>36.75</ele><time>2026-05-01T08:42:17.675Z</time></trkpt><trkpt lat="48.3854333" lon="-4.21434"><ele>37.0</ele><time>2026-05-01T08:42:18.675Z</time></trkpt><trkpt lat="48.3855233" lon="-4.2144583"><ele>37.0</ele><time>2026-05-01T08:42:19.674Z</time></trkpt><trkpt lat="48.3856367" lon="-4.2144983"><ele>37.0</ele><time>2026-05-01T08:42:20.676Z</time></trkpt><trkpt lat="48.3857483" lon="-4.21455"><ele>37.0</ele><time>2026-05-01T08:42:21.68Z</time></trkpt><trkpt lat="48.3858883" lon="-4.2145167"><ele>37.0</ele><time>2026-05-01T08:42:22.679Z</time></trkpt><trkpt lat="48.3860467" lon="-4.2144117"><ele>37.0</ele><time>2026-05-01T08:42:23.676Z</time></trkpt><trkpt lat="48.3861883" lon="-4.2143633"><ele>37.0</ele><time>2026-05-01T08:42:24.677Z</time></trkpt><trkpt lat="48.3863267" lon="-4.214315"><ele>37.0</ele><time>2026-05-01T08:42:25.68Z</time></trkpt><trkpt lat="48.3864667" lon="-4.2142967"><ele>37.0</ele><time>2026-05-01T08:42:26.678Z</time></trkpt><trkpt lat="48.3866067" lon="-4.2143333"><ele>35.5</ele><time>2026-05-01T08:42:27.677Z</time></trkpt><trkpt lat="48.3867283" lon="-4.2144167"><ele>34.0</ele><time>2026-05-01T08:42:28.676Z</time></trkpt><trkpt lat="48.3868483" lon="-4.21456"><ele>32.5</ele><time>2026-05-01T08:42:29.676Z</time></trkpt><trkpt lat="48.3869583" lon="-4.214715"><ele>31.0</ele><time>2026-05-01T08:42:30.679Z</time></trkpt><trkpt lat="48.3870583" lon="-4.2148683"><ele>30.75</ele><time>2026-05-01T08:42:31.68Z</time></trkpt><trkpt lat="48.3871517" lon="-4.2150067"><ele>30.5</ele><time>2026-05-01T08:42:32.674Z</time></trkpt><trkpt lat="48.3872467" lon="-4.2151417"><ele>30.25</ele><time>2026-05-01T08:42:33.675Z</time></trkpt><trkpt lat="48.3873417" lon="-4.2152817"><ele>30.0</ele><time>2026-05-01T08:42:34.674Z</time></trkpt><trkpt lat="48.38744" lon="-4.21542"><ele>30.0</ele><time>2026-05-01T08:42:35.675Z</time></trkpt><trkpt lat="48.3875483" lon="-4.2155283"><ele>30.0</ele><time>2026-05-01T08:42:36.677Z</time></trkpt><trkpt lat="48.3876583" lon="-4.215615"><ele>30.0</ele><time>2026-05-01T08:42:37.673Z</time></trkpt><trkpt lat="48.3877833" lon="-4.21567"><ele>30.0</ele><time>2026-05-01T08:42:38.677Z</time></trkpt><trkpt lat="48.387925" lon="-4.2156933"><ele>32.333333333333336</ele><time>2026-05-01T08:42:39.675Z</time></trkpt><trkpt lat="48.3880767" lon="-4.21567"><ele>34.66666666666667</ele><time>2026-05-01T08:42:40.676Z</time></trkpt><trkpt lat="48.3882333" lon="-4.215615"><ele>37.0</ele><time>2026-05-01T08:42:41.674Z</time></trkpt><trkpt lat="48.3883967" lon="-4.215545"><ele>37.0</ele><time>2026-05-01T08:42:42.674Z</time></trkpt><trkpt lat="48.38855" lon="-4.21548"><ele>37.0</ele><time>2026-05-01T08:42:43.672Z</time></trkpt><trkpt lat="48.3887017" lon="-4.2153933"><ele>37.0</ele><time>2026-05-01T08:42:44.679Z</time></trkpt><trkpt lat="48.3888583" lon="-4.21533"><ele>37.5</ele><time>2026-05-01T08:42:45.675Z</time></trkpt><trkpt lat="48.3890183" lon="-4.2152733"><ele>38.0</ele><time>2026-05-01T08:42:46.675Z</time></trkpt><trkpt lat="48.389165" lon="-4.2152467"><ele>38.5</ele><time>2026-05-01T08:42:47.673Z</time></trkpt><trkpt lat="48.3893" lon="-4.2152383"><ele>39.0</ele><time>2026-05-01T08:42:48.671Z</time></trkpt><trkpt lat="48.3894383" lon="-4.215255"><ele>39.0</ele><time>2026-05-01T08:42:49.675Z</time></trkpt><trkpt lat="48.38958" lon="-4.2153067"><ele>39.0</ele><time>2026-05-01T08:42:50.674Z</time></trkpt><trkpt lat="48.3897217" lon="-4.21537"><ele>39.0</ele><time>2026-05-01T08:42:51.677Z</time></trkpt><trkpt lat="48.3898683" lon="-4.2154283"><ele>39.0</ele><time>2026-05-01T08:42:52.685Z</time></trkpt><trkpt lat="48.3900167" lon="-4.21549"><ele>37.666666666666664</ele><time>2026-05-01T08:42:53.673Z</time></trkpt><trkpt lat="48.3901817" lon="-4.2155183"><ele>36.33333333333333</ele><time>2026-05-01T08:42:54.674Z</time></trkpt><trkpt lat="48.390355" lon="-4.2155233"><ele>35.0</ele><time>2026-05-01T08:42:55.671Z</time></trkpt><trkpt lat="48.3905283" lon="-4.2155033"><ele>34.33333333333333</ele><time>2026-05-01T08:42:56.674Z</time></trkpt><trkpt lat="48.3907083" lon="-4.21548"><ele>33.666666666666664</ele><time>2026-05-01T08:42:57.678Z</time></trkpt><trkpt lat="48.390885" lon="-4.2154683"><ele>33.0</ele><time>2026-05-01T08:42:58.676Z</time></trkpt><trkpt lat="48.3910583" lon="-4.21546"><ele>33.0</ele><time>2026-05-01T08:42:59.678Z</time></trkpt><trkpt lat="48.3912267" lon="-4.2154333"><ele>33.0</ele><time>2026-05-01T08:43:00.675Z</time></trkpt><trkpt lat="48.3913917" lon="-4.2153683"><ele>33.0</ele><time>2026-05-01T08:43:01.673Z</time></trkpt><trkpt lat="48.3915483" lon="-4.2152933"><ele>35.0</ele><time>2026-05-01T08:43:02.675Z</time></trkpt><trkpt lat="48.3916983" lon="-4.2152"><ele>37.0</ele><time>2026-05-01T08:43:03.675Z</time></trkpt><trkpt lat="48.39185" lon="-4.2150883"><ele>39.0</ele><time>2026-05-01T08:43:04.674Z</time></trkpt><trkpt lat="48.3919983" lon="-4.2149567"><ele>39.0</ele><time>2026-05-01T08:43:05.675Z</time></trkpt><trkpt lat="48.3921433" lon="-4.214825"><ele>39.0</ele><time>2026-05-01T08:43:06.675Z</time></trkpt><trkpt lat="48.39228" lon="-4.21468"><ele>39.0</ele><time>2026-05-01T08:43:07.674Z</time></trkpt><trkpt lat="48.3924217" lon="-4.21454"><ele>41.0</ele><time>2026-05-01T08:43:08.678Z</time></trkpt><trkpt lat="48.3925617" lon="-4.2144033"><ele>43.0</ele><time>2026-05-01T08:43:09.675Z</time></trkpt><trkpt lat="48.3926967" lon="-4.2142683"><ele>45.0</ele><time>2026-05-01T08:43:10.672Z</time></trkpt><trkpt lat="48.39283" lon="-4.2141333"><ele>45.0</ele><time>2026-05-01T08:43:11.677Z</time></trkpt><trkpt lat="48.392965" lon="-4.2139983"><ele>45.0</ele><time>2026-05-01T08:43:12.673Z</time></trkpt><trkpt lat="48.3930967" lon="-4.2138567"><ele>45.0</ele><time>2026-05-01T08:43:13.68Z</time></trkpt><trkpt lat="48.393225" lon="-4.213705"><ele>47.0</ele><time>2026-05-01T08:43:14.674Z</time></trkpt><trkpt lat="48.393365" lon="-4.2135833"><ele>49.0</ele><time>2026-05-01T08:43:15.675Z</time></trkpt><trkpt lat="48.39351" lon="-4.21348"><ele>51.0</ele><time>2026-05-01T08:43:16.673Z</time></trkpt><trkpt lat="48.39366" lon="-4.2133967"><ele>51.0</ele><time>2026-05-01T08:43:17.675Z</time></trkpt><trkpt lat="48.3938167" lon="-4.2133283"><ele>51.0</ele><time>2026-05-01T08:43:18.676Z</time></trkpt><trkpt lat="48.3939667" lon="-4.2132533"><ele>51.0</ele><time>2026-05-01T08:43:19.677Z</time></trkpt><trkpt lat="48.3941083" lon="-4.2131817"><ele>51.25</ele><time>2026-05-01T08:43:20.676Z</time></trkpt><trkpt lat="48.3942367" lon="-4.2131167"><ele>51.5</ele><time>2026-05-01T08:43:21.674Z</time></trkpt><trkpt lat="48.3943733" lon="-4.213075"><ele>51.75</ele><time>2026-05-01T08:43:22.675Z</time></trkpt><trkpt lat="48.3944983" lon="-4.2130533"><ele>52.0</ele><time>2026-05-01T08:43:23.675Z</time></trkpt><trkpt lat="48.394625" lon="-4.2130783"><ele>51.0</ele><time>2026-05-01T08:43:24.672Z</time></trkpt><trkpt lat="48.3947367" lon="-4.2131533"><ele>50.0</ele><time>2026-05-01T08:43:25.678Z</time></trkpt><trkpt lat="48.394815" lon="-4.2132983"><ele>49.0</ele><time>2026-05-01T08:43:26.681Z</time></trkpt><trkpt lat="48.394875" lon="-4.2134667"><ele>48.0</ele><time>2026-05-01T08:43:27.678Z</time></trkpt><trkpt lat="48.3949317" lon="-4.213645"><ele>48.0</ele><time>2026-05-01T08:43:28.675Z</time></trkpt><trkpt lat="48.3949783" lon="-4.2138233"><ele>48.0</ele><time>2026-05-01T08:43:29.679Z</time></trkpt><trkpt lat="48.3950233" lon="-4.2139967"><ele>48.0</ele><time>2026-05-01T08:43:30.68Z</time></trkpt><trkpt lat="48.39507" lon="-4.214165"><ele>48.0</ele><time>2026-05-01T08:43:31.676Z</time></trkpt><trkpt lat="48.395125" lon="-4.214325"><ele>49.5</ele><time>2026-05-01T08:43:32.677Z</time></trkpt><trkpt lat="48.39518" lon="-4.214485"><ele>51.0</ele><time>2026-05-01T08:43:33.675Z</time></trkpt><trkpt lat="48.395225" lon="-4.214655"><ele>52.5</ele><time>2026-05-01T08:43:34.676Z</time></trkpt><trkpt lat="48.3952583" lon="-4.2148333"><ele>54.0</ele><time>2026-05-01T08:43:35.676Z</time></trkpt><trkpt lat="48.3952867" lon="-4.2150233"><ele>55.5</ele><time>2026-05-01T08:43:36.677Z</time></trkpt><trkpt lat="48.395305" lon="-4.2152217"><ele>57.0</ele><time>2026-05-01T08:43:37.674Z</time></trkpt><trkpt lat="48.395305" lon="-4.2154317"><ele>58.5</ele><time>2026-05-01T08:43:38.674Z</time></trkpt><trkpt lat="48.3953" lon="-4.215655"><ele>60.0</ele><time>2026-05-01T08:43:39.675Z</time></trkpt><trkpt lat="48.3952917" lon="-4.2158917"><ele>60.0</ele><time>2026-05-01T08:43:40.678Z</time></trkpt><trkpt lat="48.39528" lon="-4.2161467"><ele>60.0</ele><time>2026-05-01T08:43:41.677Z</time></trkpt><trkpt lat="48.39527" lon="-4.216405"><ele>60.0</ele><time>2026-05-01T08:43:42.675Z</time></trkpt><trkpt lat="48.3952633" lon="-4.2166633"><ele>58.33333333333333</ele><time>2026-05-01T08:43:43.682Z</time></trkpt><trkpt lat="48.3952633" lon="-4.2169283"><ele>56.666666666666664</ele><time>2026-05-01T08:43:44.676Z</time></trkpt><trkpt lat="48.395265" lon="-4.2171933"><ele>55.0</ele><time>2026-05-01T08:43:45.676Z</time></trkpt><trkpt lat="48.3952583" lon="-4.2174533"><ele>54.33333333333333</ele><time>2026-05-01T08:43:46.675Z</time></trkpt><trkpt lat="48.3952567" lon="-4.217715"><ele>53.66666666666667</ele><time>2026-05-01T08:43:47.681Z</time></trkpt><trkpt lat="48.3952667" lon="-4.217995"><ele>53.0</ele><time>2026-05-01T08:43:48.675Z</time></trkpt><trkpt lat="48.3952967" lon="-4.2182933"><ele>53.0</ele><time>2026-05-01T08:43:49.675Z</time></trkpt><trkpt lat="48.3953283" lon="-4.2186033"><ele>53.0</ele><time>2026-05-01T08:43:50.678Z</time></trkpt><trkpt lat="48.3953633" lon="-4.2189233"><ele>53.0</ele><time>2026-05-01T08:43:51.674Z</time></trkpt><trkpt lat="48.39539" lon="-4.21924"><ele>54.0</ele><time>2026-05-01T08:43:52.677Z</time></trkpt><trkpt lat="48.39542" lon="-4.2195433"><ele>55.0</ele><time>2026-05-01T08:43:53.676Z</time></trkpt><trkpt lat="48.3954517" lon="-4.2198367"><ele>56.0</ele><time>2026-05-01T08:43:54.674Z</time></trkpt><trkpt lat="48.39548" lon="-4.2201217"><ele>58.333333333333336</ele><time>2026-05-01T08:43:55.679Z</time></trkpt><trkpt lat="48.39551" lon="-4.2204017"><ele>60.66666666666667</ele><time>2026-05-01T08:43:56.674Z</time></trkpt><trkpt lat="48.3955383" lon="-4.22068"><ele>63.0</ele><time>2026-05-01T08:43:57.676Z</time></trkpt><trkpt lat="48.395565" lon="-4.220955"><ele>63.66666666666667</ele><time>2026-05-01T08:43:58.677Z</time></trkpt><trkpt lat="48.39559" lon="-4.2212267"><ele>64.33333333333334</ele><time>2026-05-01T08:43:59.674Z</time></trkpt><trkpt lat="48.3956133" lon="-4.221495"><ele>65.0</ele><time>2026-05-01T08:44:00.677Z</time></trkpt><trkpt lat="48.3956367" lon="-4.2217583"><ele>66.0</ele><time>2026-05-01T08:44:01.674Z</time></trkpt><trkpt lat="48.395655" lon="-4.2220183"><ele>67.0</ele><time>2026-05-01T08:44:02.675Z</time></trkpt><trkpt lat="48.3956767" lon="-4.2222833"><ele>68.0</ele><time>2026-05-01T08:44:03.675Z</time></trkpt><trkpt lat="48.3957033" lon="-4.22254"><ele>69.66666666666667</ele><time>2026-05-01T08:44:04.674Z</time></trkpt><trkpt lat="48.3957283" lon="-4.2228"><ele>71.33333333333333</ele><time>2026-05-01T08:44:05.676Z</time></trkpt><trkpt lat="48.39575" lon="-4.2230583"><ele>73.0</ele><time>2026-05-01T08:44:06.678Z</time></trkpt><trkpt lat="48.39577" lon="-4.2233167"><ele>74.0</ele><time>2026-05-01T08:44:07.677Z</time></trkpt><trkpt lat="48.3957833" lon="-4.223575"><ele>75.0</ele><time>2026-05-01T08:44:08.677Z</time></trkpt><trkpt lat="48.395795" lon="-4.223825"><ele>76.0</ele><time>2026-05-01T08:44:09.675Z</time></trkpt><trkpt lat="48.3958033" lon="-4.2240633"><ele>76.75</ele><time>2026-05-01T08:44:10.676Z</time></trkpt><trkpt lat="48.395815" lon="-4.2242883"><ele>77.5</ele><time>2026-05-01T08:44:11.673Z</time></trkpt><trkpt lat="48.3958283" lon="-4.2244917"><ele>78.25</ele><time>2026-05-01T08:44:12.675Z</time></trkpt><trkpt lat="48.3958417" lon="-4.224675"><ele>79.0</ele><time>2026-05-01T08:44:13.677Z</time></trkpt><trkpt lat="48.395855" lon="-4.22485"><ele>79.75</ele><time>2026-05-01T08:44:14.673Z</time></trkpt><trkpt lat="48.3958567" lon="-4.2250183"><ele>80.5</ele><time>2026-05-01T08:44:15.673Z</time></trkpt><trkpt lat="48.395875" lon="-4.2251933"><ele>81.25</ele><time>2026-05-01T08:44:16.673Z</time></trkpt><trkpt lat="48.3959183" lon="-4.2253617"><ele>82.0</ele><time>2026-05-01T08:44:17.677Z</time></trkpt><trkpt lat="48.3959717" lon="-4.2255183"><ele>82.75</ele><time>2026-05-01T08:44:18.672Z</time></trkpt><trkpt lat="48.3960433" lon="-4.225665"><ele>83.5</ele><time>2026-05-01T08:44:19.673Z</time></trkpt><trkpt lat="48.396125" lon="-4.2257783"><ele>84.25</ele><time>2026-05-01T08:44:20.672Z</time></trkpt><trkpt lat="48.396205" lon="-4.2259"><ele>85.0</ele><time>2026-05-01T08:44:21.676Z</time></trkpt><trkpt lat="48.3962883" lon="-4.226025"><ele>85.5</ele><time>2026-05-01T08:44:22.674Z</time></trkpt><trkpt lat="48.3963783" lon="-4.22615"><ele>86.0</ele><time>2026-05-01T08:44:23.675Z</time></trkpt><trkpt lat="48.39647" lon="-4.226275"><ele>86.5</ele><time>2026-05-01T08:44:24.671Z</time></trkpt><trkpt lat="48.3965717" lon="-4.2263833"><ele>87.0</ele><time>2026-05-01T08:44:25.672Z</time></trkpt><trkpt lat="48.396665" lon="-4.2265017"><ele>87.19999999999999</ele><time>2026-05-01T08:44:26.672Z</time></trkpt><trkpt lat="48.396755" lon="-4.2266183"><ele>87.4</ele><time>2026-05-01T08:44:27.674Z</time></trkpt><trkpt lat="48.3968367" lon="-4.2267233"><ele>87.6</ele><time>2026-05-01T08:44:28.675Z</time></trkpt><trkpt lat="48.3969117" lon="-4.226825"><ele>87.80000000000001</ele><time>2026-05-01T08:44:29.674Z</time></trkpt><trkpt lat="48.3970017" lon="-4.2269283"><ele>88.0</ele><time>2026-05-01T08:44:30.678Z</time></trkpt><trkpt lat="48.397095" lon="-4.2270467"><ele>89.25</ele><time>2026-05-01T08:44:31.676Z</time></trkpt><trkpt lat="48.3971867" lon="-4.2271617"><ele>90.5</ele><time>2026-05-01T08:44:32.674Z</time></trkpt><trkpt lat="48.3972767" lon="-4.2272733"><ele>91.75</ele><time>2026-05-01T08:44:33.676Z</time></trkpt><trkpt lat="48.397365" lon="-4.2273867"><ele>93.0</ele><time>2026-05-01T08:44:34.675Z</time></trkpt><trkpt lat="48.3974517" lon="-4.2274983"><ele>93.2</ele><time>2026-05-01T08:44:35.675Z</time></trkpt><trkpt lat="48.397535" lon="-4.2276083"><ele>93.4</ele><time>2026-05-01T08:44:36.675Z</time></trkpt><trkpt lat="48.3976217" lon="-4.2277167"><ele>93.60000000000001</ele><time>2026-05-01T08:44:37.676Z</time></trkpt><trkpt lat="48.3977033" lon="-4.2278233"><ele>93.80000000000001</ele><time>2026-05-01T08:44:38.681Z</time></trkpt><trkpt lat="48.3977833" lon="-4.227925"><ele>94.0</ele><time>2026-05-01T08:44:39.678Z</time></trkpt><trkpt lat="48.3978617" lon="-4.2280317"><ele>94.0</ele><time>2026-05-01T08:44:40.675Z</time></trkpt><trkpt lat="48.3979417" lon="-4.2281367"><ele>94.0</ele><time>2026-05-01T08:44:41.676Z</time></trkpt><trkpt lat="48.3980217" lon="-4.2282417"><ele>94.0</ele><time>2026-05-01T08:44:42.678Z</time></trkpt><trkpt lat="48.3981017" lon="-4.228345"><ele>94.0</ele><time>2026-05-01T08:44:43.676Z</time></trkpt><trkpt lat="48.3981817" lon="-4.2284483"><ele>94.0</ele><time>2026-05-01T08:44:44.681Z</time></trkpt><trkpt lat="48.3982633" lon="-4.22855"><ele>94.83333333333333</ele><time>2026-05-01T08:44:45.675Z</time></trkpt><trkpt lat="48.39834" lon="-4.2286467"><ele>95.66666666666666</ele><time>2026-05-01T08:44:46.678Z</time></trkpt><trkpt lat="48.3984083" lon="-4.2287283"><ele>96.5</ele><time>2026-05-01T08:44:47.675Z</time></trkpt><trkpt lat="48.398465" lon="-4.2287933"><ele>97.33333333333333</ele><time>2026-05-01T08:44:48.675Z</time></trkpt><trkpt lat="48.39854" lon="-4.2288667"><ele>98.16666666666667</ele><time>2026-05-01T08:44:50.678Z</time></trkpt><trkpt lat="48.398605" lon="-4.2289367"><ele>99.0</ele><time>2026-05-01T08:45:50.675Z</time></trkpt><trkpt lat="48.3986717" lon="-4.2290383"><ele>99.0</ele><time>2026-05-01T08:45:52.677Z</time></trkpt><trkpt lat="48.39877" lon="-4.2291417"><ele>99.0</ele><time>2026-05-01T08:45:54.676Z</time></trkpt><trkpt lat="48.39883" lon="-4.2291867"><ele>99.0</ele><time>2026-05-01T08:45:55.682Z</time></trkpt><trkpt lat="48.398915" lon="-4.2291933"><ele>99.0</ele><time>2026-05-01T08:45:56.671Z</time></trkpt><trkpt lat="48.3989983" lon="-4.2291767"><ele>99.0</ele><time>2026-05-01T08:45:57.677Z</time></trkpt><trkpt lat="48.3990883" lon="-4.229155"><ele>99.0</ele><time>2026-05-01T08:45:58.676Z</time></trkpt><trkpt lat="48.3991733" lon="-4.229115"><ele>99.5</ele><time>2026-05-01T08:45:59.675Z</time></trkpt><trkpt lat="48.3992583" lon="-4.2290667"><ele>100.0</ele><time>2026-05-01T08:46:00.677Z</time></trkpt><trkpt lat="48.3993383" lon="-4.2290133"><ele>100.5</ele><time>2026-05-01T08:46:01.676Z</time></trkpt><trkpt lat="48.3994217" lon="-4.2289583"><ele>101.0</ele><time>2026-05-01T08:46:02.676Z</time></trkpt><trkpt lat="48.3995083" lon="-4.2289233"><ele>101.5</ele><time>2026-05-01T08:46:03.673Z</time></trkpt><trkpt lat="48.39959" lon="-4.228885"><ele>102.0</ele><time>2026-05-01T08:46:04.671Z</time></trkpt><trkpt lat="48.3996617" lon="-4.228845"><ele>102.0</ele><time>2026-05-01T08:46:05.676Z</time></trkpt><trkpt lat="48.3997233" lon="-4.2288117"><ele>102.0</ele><time>2026-05-01T08:46:06.675Z</time></trkpt><trkpt lat="48.3998267" lon="-4.22875"><ele>102.0</ele><time>2026-05-01T08:46:08.678Z</time></trkpt><trkpt lat="48.3999" lon="-4.2287083"><ele>102.0</ele><time>2026-05-01T08:46:10.676Z</time></trkpt><trkpt lat="48.3999867" lon="-4.22867"><ele>102.0</ele><time>2026-05-01T08:46:13.673Z</time></trkpt><trkpt lat="48.4000983" lon="-4.2286183"><ele>102.0</ele><time>2026-05-01T08:46:15.676Z</time></trkpt><trkpt lat="48.4001617" lon="-4.228575"><ele>102.0</ele><time>2026-05-01T08:46:16.675Z</time></trkpt><trkpt lat="48.4002283" lon="-4.2285283"><ele>102.0</ele><time>2026-05-01T08:46:17.672Z</time></trkpt><trkpt lat="48.4002933" lon="-4.228485"><ele>102.0</ele><time>2026-05-01T08:46:18.672Z</time></trkpt><trkpt lat="48.4003617" lon="-4.2284433"><ele>102.0</ele><time>2026-05-01T08:46:19.674Z</time></trkpt><trkpt lat="48.4004333" lon="-4.2284017"><ele>102.0</ele><time>2026-05-01T08:46:20.673Z</time></trkpt><trkpt lat="48.4005" lon="-4.2283483"><ele>102.0</ele><time>2026-05-01T08:46:21.672Z</time></trkpt><trkpt lat="48.40057" lon="-4.2282983"><ele>102.0</ele><time>2026-05-01T08:46:22.672Z</time></trkpt><trkpt lat="48.4006383" lon="-4.2282367"><ele>102.0</ele><time>2026-05-01T08:46:23.674Z</time></trkpt><trkpt lat="48.4007033" lon="-4.2281733"><ele>102.0</ele><time>2026-05-01T08:46:24.675Z</time></trkpt><trkpt lat="48.40076" lon="-4.228105"><ele>102.0</ele><time>2026-05-01T08:46:25.672Z</time></trkpt><trkpt lat="48.40082" lon="-4.2280367"><ele>102.0</ele><time>2026-05-01T08:46:26.675Z</time></trkpt><trkpt lat="48.4008783" lon="-4.2279617"><ele>102.0</ele><time>2026-05-01T08:46:27.672Z</time></trkpt><trkpt lat="48.4009417" lon="-4.2278867"><ele>102.0</ele><time>2026-05-01T08:46:28.679Z</time></trkpt><trkpt lat="48.401" lon="-4.2278133"><ele>102.0</ele><time>2026-05-01T08:46:29.675Z</time></trkpt><trkpt lat="48.40106" lon="-4.2277533"><ele>102.0</ele><time>2026-05-01T08:46:30.674Z</time></trkpt><trkpt lat="48.4011267" lon="-4.2277183"><ele>102.0</ele><time>2026-05-01T08:46:31.673Z</time></trkpt><trkpt lat="48.401195" lon="-4.2276917"><ele>102.0</ele><time>2026-05-01T08:46:32.672Z</time></trkpt><trkpt lat="48.4012633" lon="-4.22768"><ele>102.0</ele><time>2026-05-01T08:46:33.673Z</time></trkpt><trkpt lat="48.40134" lon="-4.227685"><ele>102.0</ele><time>2026-05-01T08:46:34.681Z</time></trkpt><trkpt lat="48.4014233" lon="-4.227705"><ele>102.0</ele><time>2026-05-01T08:46:35.675Z</time></trkpt><trkpt lat="48.4015117" lon="-4.2277367"><ele>102.0</ele><time>2026-05-01T08:46:36.675Z</time></trkpt><trkpt lat="48.4015917" lon="-4.2277567"><ele>102.0</ele><time>2026-05-01T08:46:37.674Z</time></trkpt><trkpt lat="48.4016867" lon="-4.22778"><ele>102.0</ele><time>2026-05-01T08:46:38.679Z</time></trkpt><trkpt lat="48.4017933" lon="-4.22781"><ele>102.0</ele><time>2026-05-01T08:46:39.676Z</time></trkpt><trkpt lat="48.4019033" lon="-4.2278417"><ele>102.0</ele><time>2026-05-01T08:46:40.677Z</time></trkpt><trkpt lat="48.4020183" lon="-4.227875"><ele>102.0</ele><time>2026-05-01T08:46:41.675Z</time></trkpt><trkpt lat="48.4021333" lon="-4.2279033"><ele>102.0</ele><time>2026-05-01T08:46:42.674Z</time></trkpt><trkpt lat="48.4022517" lon="-4.2279333"><ele>102.0</ele><time>2026-05-01T08:46:43.678Z</time></trkpt><trkpt lat="48.4023633" lon="-4.2279583"><ele>102.0</ele><time>2026-05-01T08:46:44.674Z</time></trkpt><trkpt lat="48.40247" lon="-4.2279817"><ele>102.0</ele><time>2026-05-01T08:46:45.675Z</time></trkpt><trkpt lat="48.4025733" lon="-4.228005"><ele>102.0</ele><time>2026-05-01T08:46:46.676Z</time></trkpt><trkpt lat="48.4026783" lon="-4.228025"><ele>102.0</ele><time>2026-05-01T08:46:47.673Z</time></trkpt><trkpt lat="48.402785" lon="-4.22805"><ele>102.0</ele><time>2026-05-01T08:46:48.676Z</time></trkpt><trkpt lat="48.4028883" lon="-4.2280817"><ele>102.0</ele><time>2026-05-01T08:46:49.675Z</time></trkpt><trkpt lat="48.4029883" lon="-4.2281133"><ele>102.0</ele><time>2026-05-01T08:46:50.678Z</time></trkpt><trkpt lat="48.4030817" lon="-4.228135"><ele>102.0</ele><time>2026-05-01T08:46:51.67Z</time></trkpt><trkpt lat="48.4031717" lon="-4.22816"><ele>102.0</ele><time>2026-05-01T08:46:52.673Z</time></trkpt><trkpt lat="48.4032633" lon="-4.2281833"><ele>102.0</ele><time>2026-05-01T08:46:53.673Z</time></trkpt><trkpt lat="48.4033633" lon="-4.22821"><ele>102.25</ele><time>2026-05-01T08:46:54.677Z</time></trkpt><trkpt lat="48.4034717" lon="-4.2282433"><ele>102.5</ele><time>2026-05-01T08:46:55.676Z</time></trkpt><trkpt lat="48.4035833" lon="-4.2282933"><ele>102.75</ele><time>2026-05-01T08:46:56.674Z</time></trkpt><trkpt lat="48.4036967" lon="-4.228355"><ele>103.0</ele><time>2026-05-01T08:46:57.679Z</time></trkpt><trkpt lat="48.4038017" lon="-4.22842"><ele>103.33333333333334</ele><time>2026-05-01T08:46:58.669Z</time></trkpt><trkpt lat="48.403895" lon="-4.22848"><ele>103.66666666666667</ele><time>2026-05-01T08:46:59.67Z</time></trkpt><trkpt lat="48.4039783" lon="-4.2285333"><ele>104.0</ele><time>2026-05-01T08:47:00.674Z</time></trkpt><trkpt lat="48.4040617" lon="-4.2285683"><ele>104.33333333333334</ele><time>2026-05-01T08:47:01.671Z</time></trkpt><trkpt lat="48.404125" lon="-4.2285483"><ele>104.66666666666667</ele><time>2026-05-01T08:47:02.671Z</time></trkpt><trkpt lat="48.40418" lon="-4.2285"><ele>105.0</ele><time>2026-05-01T08:47:03.67Z</time></trkpt><trkpt lat="48.404245" lon="-4.2284467"><ele>105.0</ele><time>2026-05-01T08:47:04.678Z</time></trkpt><trkpt lat="48.4043233" lon="-4.2284117"><ele>105.0</ele><time>2026-05-01T08:47:05.675Z</time></trkpt><trkpt lat="48.4044233" lon="-4.2283983"><ele>105.0</ele><time>2026-05-01T08:47:06.674Z</time></trkpt><trkpt lat="48.404545" lon="-4.2284133"><ele>105.0</ele><time>2026-05-01T08:47:07.679Z</time></trkpt><trkpt lat="48.4046633" lon="-4.22842"><ele>105.0</ele><time>2026-05-01T08:47:08.677Z</time></trkpt><trkpt lat="48.4047817" lon="-4.2284317"><ele>105.75</ele><time>2026-05-01T08:47:09.673Z</time></trkpt><trkpt lat="48.4049017" lon="-4.2284467"><ele>106.5</ele><time>2026-05-01T08:47:10.674Z</time></trkpt><trkpt lat="48.40503" lon="-4.2284583"><ele>107.25</ele><time>2026-05-01T08:47:11.677Z</time></trkpt><trkpt lat="48.4051567" lon="-4.22847"><ele>108.0</ele><time>2026-05-01T08:47:12.678Z</time></trkpt><trkpt lat="48.4052817" lon="-4.22848"><ele>108.0</ele><time>2026-05-01T08:47:13.672Z</time></trkpt><trkpt lat="48.405405" lon="-4.228495"><ele>108.0</ele><time>2026-05-01T08:47:14.675Z</time></trkpt><trkpt lat="48.40552" lon="-4.2285083"><ele>108.0</ele><time>2026-05-01T08:47:15.681Z</time></trkpt><trkpt lat="48.4056283" lon="-4.2285167"><ele>108.0</ele><time>2026-05-01T08:47:16.674Z</time></trkpt><trkpt lat="48.405735" lon="-4.2285233"><ele>108.75</ele><time>2026-05-01T08:47:17.676Z</time></trkpt><trkpt lat="48.4058483" lon="-4.2285283"><ele>109.5</ele><time>2026-05-01T08:47:18.678Z</time></trkpt><trkpt lat="48.4059683" lon="-4.2285317"><ele>110.25</ele><time>2026-05-01T08:47:19.674Z</time></trkpt><trkpt lat="48.4060933" lon="-4.2285383"><ele>111.0</ele><time>2026-05-01T08:47:20.674Z</time></trkpt><trkpt lat="48.4062133" lon="-4.228545"><ele>111.0</ele><time>2026-05-01T08:47:21.672Z</time></trkpt><trkpt lat="48.4063267" lon="-4.228555"><ele>111.0</ele><time>2026-05-01T08:47:22.674Z</time></trkpt><trkpt lat="48.406435" lon="-4.228565"><ele>111.0</ele><time>2026-05-01T08:47:23.673Z</time></trkpt><trkpt lat="48.4065383" lon="-4.2285733"><ele>111.0</ele><time>2026-05-01T08:47:24.673Z</time></trkpt><trkpt lat="48.4066367" lon="-4.2285833"><ele>111.0</ele><time>2026-05-01T08:47:25.673Z</time></trkpt><trkpt lat="48.4067467" lon="-4.2285933"><ele>111.5</ele><time>2026-05-01T08:47:26.674Z</time></trkpt><trkpt lat="48.4068717" lon="-4.2286067"><ele>112.0</ele><time>2026-05-01T08:47:27.675Z</time></trkpt><trkpt lat="48.4070067" lon="-4.2286217"><ele>112.5</ele><time>2026-05-01T08:47:28.677Z</time></trkpt><trkpt lat="48.4071417" lon="-4.22863"><ele>113.0</ele><time>2026-05-01T08:47:29.675Z</time></trkpt><trkpt lat="48.40728" lon="-4.22864"><ele>113.75</ele><time>2026-05-01T08:47:30.676Z</time></trkpt><trkpt lat="48.4074167" lon="-4.22865"><ele>114.5</ele><time>2026-05-01T08:47:31.673Z</time></trkpt><trkpt lat="48.4075533" lon="-4.2286617"><ele>115.25</ele><time>2026-05-01T08:47:32.674Z</time></trkpt><trkpt lat="48.4076883" lon="-4.2286767"><ele>116.0</ele><time>2026-05-01T08:47:33.672Z</time></trkpt><trkpt lat="48.4078217" lon="-4.2286917"><ele>116.0</ele><time>2026-05-01T08:47:34.675Z</time></trkpt><trkpt lat="48.407955" lon="-4.2287033"><ele>116.0</ele><time>2026-05-01T08:47:35.675Z</time></trkpt><trkpt lat="48.40809" lon="-4.22872"><ele>116.0</ele><time>2026-05-01T08:47:36.675Z</time></trkpt><trkpt lat="48.4082283" lon="-4.228735"><ele>116.0</ele><time>2026-05-01T08:47:37.673Z</time></trkpt><trkpt lat="48.4083667" lon="-4.2287517"><ele>117.5</ele><time>2026-05-01T08:47:38.686Z</time></trkpt><trkpt lat="48.4085033" lon="-4.228765"><ele>119.0</ele><time>2026-05-01T08:47:39.675Z</time></trkpt><trkpt lat="48.408635" lon="-4.2287783"><ele>120.5</ele><time>2026-05-01T08:47:40.681Z</time></trkpt><trkpt lat="48.4087633" lon="-4.2287883"><ele>122.0</ele><time>2026-05-01T08:47:41.678Z</time></trkpt><trkpt lat="48.4088883" lon="-4.2288"><ele>123.0</ele><time>2026-05-01T08:47:42.674Z</time></trkpt><trkpt lat="48.409015" lon="-4.2288133"><ele>124.0</ele><time>2026-05-01T08:47:43.678Z</time></trkpt><trkpt lat="48.409145" lon="-4.228825"><ele>125.0</ele><time>2026-05-01T08:47:44.676Z</time></trkpt><trkpt lat="48.4092783" lon="-4.2288333"><ele>126.0</ele><time>2026-05-01T08:47:45.674Z</time></trkpt><trkpt lat="48.4094133" lon="-4.2288417"><ele>126.0</ele><time>2026-05-01T08:47:46.677Z</time></trkpt><trkpt lat="48.4095483" lon="-4.22885"><ele>126.0</ele><time>2026-05-01T08:47:47.682Z</time></trkpt><trkpt lat="48.4096833" lon="-4.22886"><ele>126.0</ele><time>2026-05-01T08:47:48.677Z</time></trkpt><trkpt lat="48.4098117" lon="-4.228865"><ele>126.0</ele><time>2026-05-01T08:47:49.675Z</time></trkpt><trkpt lat="48.4099417" lon="-4.2288767"><ele>128.5</ele><time>2026-05-01T08:47:50.679Z</time></trkpt><trkpt lat="48.4100717" lon="-4.228885"><ele>131.0</ele><time>2026-05-01T08:47:51.676Z</time></trkpt><trkpt lat="48.4102" lon="-4.2288933"><ele>133.5</ele><time>2026-05-01T08:47:52.674Z</time></trkpt><trkpt lat="48.4103283" lon="-4.2289033"><ele>136.0</ele><time>2026-05-01T08:47:53.676Z</time></trkpt><trkpt lat="48.4104567" lon="-4.2289133"><ele>137.5</ele><time>2026-05-01T08:47:54.676Z</time></trkpt><trkpt lat="48.410585" lon="-4.22892"><ele>139.0</ele><time>2026-05-01T08:47:55.675Z</time></trkpt><trkpt lat="48.4107133" lon="-4.228935"><ele>140.5</ele><time>2026-05-01T08:47:56.674Z</time></trkpt><trkpt lat="48.4108383" lon="-4.228955"><ele>142.0</ele><time>2026-05-01T08:47:57.684Z</time></trkpt><trkpt lat="48.4109667" lon="-4.2289717"><ele>142.0</ele><time>2026-05-01T08:47:58.677Z</time></trkpt><trkpt lat="48.411095" lon="-4.22898"><ele>142.0</ele><time>2026-05-01T08:47:59.674Z</time></trkpt><trkpt lat="48.4112217" lon="-4.228985"><ele>142.0</ele><time>2026-05-01T08:48:00.676Z</time></trkpt><trkpt lat="48.411355" lon="-4.228995"><ele>142.0</ele><time>2026-05-01T08:48:01.674Z</time></trkpt><trkpt lat="48.4114883" lon="-4.229005"><ele>144.25</ele><time>2026-05-01T08:48:02.675Z</time></trkpt><trkpt lat="48.411625" lon="-4.2290133"><ele>146.5</ele><time>2026-05-01T08:48:03.674Z</time></trkpt><trkpt lat="48.4117633" lon="-4.2290233"><ele>148.75</ele><time>2026-05-01T08:48:04.676Z</time></trkpt><trkpt lat="48.4119033" lon="-4.22903"><ele>151.0</ele><time>2026-05-01T08:48:05.677Z</time></trkpt><trkpt lat="48.4120417" lon="-4.2290417"><ele>152.5</ele><time>2026-05-01T08:48:06.675Z</time></trkpt><trkpt lat="48.4121817" lon="-4.2290667"><ele>154.0</ele><time>2026-05-01T08:48:07.671Z</time></trkpt><trkpt lat="48.4123233" lon="-4.2290767"><ele>155.5</ele><time>2026-05-01T08:48:08.68Z</time></trkpt><trkpt lat="48.41246" lon="-4.2290783"><ele>157.0</ele><time>2026-05-01T08:48:09.674Z</time></trkpt><trkpt lat="48.4125983" lon="-4.2290883"><ele>157.0</ele><time>2026-05-01T08:48:10.675Z</time></trkpt><trkpt lat="48.412735" lon="-4.2290967"><ele>157.0</ele><time>2026-05-01T08:48:11.672Z</time></trkpt><trkpt lat="48.4128733" lon="-4.2291067"><ele>157.0</ele><time>2026-05-01T08:48:12.673Z</time></trkpt><trkpt lat="48.4130117" lon="-4.22912"><ele>157.0</ele><time>2026-05-01T08:48:13.67Z</time></trkpt><trkpt lat="48.4131483" lon="-4.2291317"><ele>158.75</ele><time>2026-05-01T08:48:14.677Z</time></trkpt><trkpt lat="48.4132817" lon="-4.2291417"><ele>160.5</ele><time>2026-05-01T08:48:15.674Z</time></trkpt><trkpt lat="48.4134183" lon="-4.22915"><ele>162.25</ele><time>2026-05-01T08:48:16.672Z</time></trkpt><trkpt lat="48.4135567" lon="-4.2291533"><ele>164.0</ele><time>2026-05-01T08:48:17.672Z</time></trkpt><trkpt lat="48.4136967" lon="-4.2291583"><ele>165.0</ele><time>2026-05-01T08:48:18.675Z</time></trkpt><trkpt lat="48.413835" lon="-4.2291633"><ele>166.0</ele><time>2026-05-01T08:48:19.679Z</time></trkpt><trkpt lat="48.41397" lon="-4.229165"><ele>167.0</ele><time>2026-05-01T08:48:20.674Z</time></trkpt><trkpt lat="48.41409" lon="-4.2291667"><ele>168.0</ele><time>2026-05-01T08:48:21.671Z</time></trkpt><trkpt lat="48.4142033" lon="-4.229165"><ele>168.0</ele><time>2026-05-01T08:48:22.676Z</time></trkpt><trkpt lat="48.4143317" lon="-4.22917"><ele>168.0</ele><time>2026-05-01T08:48:23.672Z</time></trkpt><trkpt lat="48.414475" lon="-4.2291817"><ele>168.0</ele><time>2026-05-01T08:48:24.671Z</time></trkpt><trkpt lat="48.4146333" lon="-4.2291867"><ele>168.0</ele><time>2026-05-01T08:48:25.673Z</time></trkpt><trkpt lat="48.4148" lon="-4.2291867"><ele>168.33333333333334</ele><time>2026-05-01T08:48:26.674Z</time></trkpt><trkpt lat="48.414975" lon="-4.2291833"><ele>168.66666666666669</ele><time>2026-05-01T08:48:27.675Z</time></trkpt><trkpt lat="48.4151467" lon="-4.22918"><ele>169.0</ele><time>2026-05-01T08:48:28.673Z</time></trkpt><trkpt lat="48.4153167" lon="-4.22919"><ele>169.0</ele><time>2026-05-01T08:48:29.673Z</time></trkpt><trkpt lat="48.4154833" lon="-4.2292133"><ele>169.0</ele><time>2026-05-01T08:48:30.676Z</time></trkpt><trkpt lat="48.4156533" lon="-4.2292683"><ele>169.0</ele><time>2026-05-01T08:48:31.675Z</time></trkpt><trkpt lat="48.4158317" lon="-4.2293417"><ele>168.66666666666669</ele><time>2026-05-01T08:48:32.68Z</time></trkpt><trkpt lat="48.416015" lon="-4.22944"><ele>168.33333333333334</ele><time>2026-05-01T08:48:33.677Z</time></trkpt><trkpt lat="48.41621" lon="-4.2295517"><ele>168.0</ele><time>2026-05-01T08:48:34.673Z</time></trkpt><trkpt lat="48.41641" lon="-4.2296617"><ele>168.0</ele><time>2026-05-01T08:48:35.68Z</time></trkpt><trkpt lat="48.4166083" lon="-4.2297833"><ele>168.0</ele><time>2026-05-01T08:48:36.674Z</time></trkpt><trkpt lat="48.4168083" lon="-4.2299033"><ele>168.0</ele><time>2026-05-01T08:48:37.678Z</time></trkpt><trkpt lat="48.41701" lon="-4.2300233"><ele>168.0</ele><time>2026-05-01T08:48:38.672Z</time></trkpt><trkpt lat="48.4172067" lon="-4.2301467"><ele>168.0</ele><time>2026-05-01T08:48:39.672Z</time></trkpt><trkpt lat="48.4174067" lon="-4.230265"><ele>168.0</ele><time>2026-05-01T08:48:40.682Z</time></trkpt><trkpt lat="48.4176067" lon="-4.2303783"><ele>168.0</ele><time>2026-05-01T08:48:41.675Z</time></trkpt><trkpt lat="48.4178067" lon="-4.2304983"><ele>168.0</ele><time>2026-05-01T08:48:42.679Z</time></trkpt><trkpt lat="48.4180083" lon="-4.2306233"><ele>168.0</ele><time>2026-05-01T08:48:43.681Z</time></trkpt><trkpt lat="48.41821" lon="-4.230745"><ele>168.66666666666666</ele><time>2026-05-01T08:48:44.675Z</time></trkpt><trkpt lat="48.4184133" lon="-4.2308667"><ele>169.33333333333331</ele><time>2026-05-01T08:48:45.673Z</time></trkpt><trkpt lat="48.4186133" lon="-4.2309933"><ele>170.0</ele><time>2026-05-01T08:48:46.68Z</time></trkpt><trkpt lat="48.4188117" lon="-4.23112"><ele>170.33333333333331</ele><time>2026-05-01T08:48:47.672Z</time></trkpt><trkpt lat="48.4190117" lon="-4.23124"><ele>170.66666666666666</ele><time>2026-05-01T08:48:48.674Z</time></trkpt><trkpt lat="48.41921" lon="-4.2313583"><ele>171.0</ele><time>2026-05-01T08:48:49.673Z</time></trkpt><trkpt lat="48.4194083" lon="-4.2314833"><ele>171.0</ele><time>2026-05-01T08:48:50.674Z</time></trkpt><trkpt lat="48.4196133" lon="-4.2316083"><ele>171.0</ele><time>2026-05-01T08:48:51.671Z</time></trkpt><trkpt lat="48.419815" lon="-4.2317283"><ele>171.0</ele><time>2026-05-01T08:48:52.673Z</time></trkpt><trkpt lat="48.4200183" lon="-4.2318467"><ele>172.33333333333334</ele><time>2026-05-01T08:48:53.672Z</time></trkpt><trkpt lat="48.42022" lon="-4.23197"><ele>173.66666666666669</ele><time>2026-05-01T08:48:54.674Z</time></trkpt><trkpt lat="48.42042" lon="-4.23209"><ele>175.0</ele><time>2026-05-01T08:48:55.673Z</time></trkpt><trkpt lat="48.42062" lon="-4.2322133"><ele>175.66666666666669</ele><time>2026-05-01T08:48:56.673Z</time></trkpt><trkpt lat="48.4208217" lon="-4.2323333"><ele>176.33333333333334</ele><time>2026-05-01T08:48:57.678Z</time></trkpt><trkpt lat="48.4210233" lon="-4.2324633"><ele>177.0</ele><time>2026-05-01T08:48:58.676Z</time></trkpt><trkpt lat="48.4212233" lon="-4.2325983"><ele>177.33333333333334</ele><time>2026-05-01T08:48:59.684Z</time></trkpt><trkpt lat="48.42142" lon="-4.2327383"><ele>177.66666666666669</ele><time>2026-05-01T08:49:00.679Z</time></trkpt><trkpt lat="48.4216183" lon="-4.2328833"><ele>178.0</ele><time>2026-05-01T08:49:01.672Z</time></trkpt><trkpt lat="48.4218183" lon="-4.23303"><ele>177.5</ele><time>2026-05-01T08:49:02.677Z</time></trkpt><trkpt lat="48.4220217" lon="-4.23318"><ele>177.0</ele><time>2026-05-01T08:49:03.673Z</time></trkpt><trkpt lat="48.4222283" lon="-4.23333"><ele>178.0</ele><time>2026-05-01T08:49:04.671Z</time></trkpt><trkpt lat="48.422435" lon="-4.2334783"><ele>179.0</ele><time>2026-05-01T08:49:05.674Z</time></trkpt><trkpt lat="48.4226383" lon="-4.233625"><ele>179.0</ele><time>2026-05-01T08:49:06.674Z</time></trkpt><trkpt lat="48.4228383" lon="-4.2337717"><ele>179.0</ele><time>2026-05-01T08:49:07.674Z</time></trkpt><trkpt lat="48.4230383" lon="-4.233915"><ele>179.0</ele><time>2026-05-01T08:49:08.675Z</time></trkpt><trkpt lat="48.4232367" lon="-4.234065"><ele>178.5</ele><time>2026-05-01T08:49:09.675Z</time></trkpt><trkpt lat="48.423425" lon="-4.2342383"><ele>178.0</ele><time>2026-05-01T08:49:10.673Z</time></trkpt><trkpt lat="48.42361" lon="-4.2344433"><ele>178.0</ele><time>2026-05-01T08:49:11.676Z</time></trkpt><trkpt lat="48.4237933" lon="-4.2346783"><ele>178.0</ele><time>2026-05-01T08:49:12.671Z</time></trkpt><trkpt lat="48.4239783" lon="-4.234925"><ele>177.5</ele><time>2026-05-01T08:49:13.676Z</time></trkpt><trkpt lat="48.42416" lon="-4.2351683"><ele>177.0</ele><time>2026-05-01T08:49:14.675Z</time></trkpt><trkpt lat="48.4243333" lon="-4.2353983"><ele>177.0</ele><time>2026-05-01T08:49:15.675Z</time></trkpt><trkpt lat="48.4244983" lon="-4.23562"><ele>177.0</ele><time>2026-05-01T08:49:16.672Z</time></trkpt><trkpt lat="48.4246583" lon="-4.2358317"><ele>177.0</ele><time>2026-05-01T08:49:17.674Z</time></trkpt><trkpt lat="48.4248117" lon="-4.2360333"><ele>176.33333333333334</ele><time>2026-05-01T08:49:18.674Z</time></trkpt><trkpt lat="48.4249583" lon="-4.2362283"><ele>175.66666666666669</ele><time>2026-05-01T08:49:19.673Z</time></trkpt><trkpt lat="48.425095" lon="-4.2364133"><ele>175.0</ele><time>2026-05-01T08:49:20.674Z</time></trkpt><trkpt lat="48.4252267" lon="-4.23659"><ele>174.66666666666669</ele><time>2026-05-01T08:49:21.674Z</time></trkpt><trkpt lat="48.4253517" lon="-4.2367583"><ele>174.33333333333334</ele><time>2026-05-01T08:49:22.672Z</time></trkpt><trkpt lat="48.42547" lon="-4.2369167"><ele>174.0</ele><time>2026-05-01T08:49:23.671Z</time></trkpt><trkpt lat="48.4255817" lon="-4.2370667"><ele>174.0</ele><time>2026-05-01T08:49:24.674Z</time></trkpt><trkpt lat="48.4256833" lon="-4.2372067"><ele>174.0</ele><time>2026-05-01T08:49:25.678Z</time></trkpt><trkpt lat="48.4257783" lon="-4.2373383"><ele>174.0</ele><time>2026-05-01T08:49:26.677Z</time></trkpt><trkpt lat="48.42587" lon="-4.2374667"><ele>174.0</ele><time>2026-05-01T08:49:27.675Z</time></trkpt><trkpt lat="48.4259583" lon="-4.2375883"><ele>174.0</ele><time>2026-05-01T08:49:28.679Z</time></trkpt><trkpt lat="48.4260383" lon="-4.2377017"><ele>174.0</ele><time>2026-05-01T08:49:29.675Z</time></trkpt><trkpt lat="48.4261117" lon="-4.2378017"><ele>174.0</ele><time>2026-05-01T08:49:30.674Z</time></trkpt><trkpt lat="48.4261767" lon="-4.2378917"><ele>174.0</ele><time>2026-05-01T08:49:31.675Z</time></trkpt><trkpt lat="48.4262367" lon="-4.2379567"><ele>174.0</ele><time>2026-05-01T08:49:32.68Z</time></trkpt><trkpt lat="48.4263117" lon="-4.2379783"><ele>174.0</ele><time>2026-05-01T08:49:33.676Z</time></trkpt><trkpt lat="48.426405" lon="-4.2379583"><ele>173.5</ele><time>2026-05-01T08:49:34.674Z</time></trkpt><trkpt lat="48.4265083" lon="-4.23793"><ele>173.0</ele><time>2026-05-01T08:49:35.676Z</time></trkpt><trkpt lat="48.4266167" lon="-4.2379"><ele>172.5</ele><time>2026-05-01T08:49:36.674Z</time></trkpt><trkpt lat="48.4267367" lon="-4.2378717"><ele>172.0</ele><time>2026-05-01T08:49:37.673Z</time></trkpt><trkpt lat="48.4268717" lon="-4.2378433"><ele>172.0</ele><time>2026-05-01T08:49:38.678Z</time></trkpt><trkpt lat="48.427015" lon="-4.23781"><ele>172.0</ele><time>2026-05-01T08:49:39.673Z</time></trkpt><trkpt lat="48.4271633" lon="-4.2377767"><ele>172.0</ele><time>2026-05-01T08:49:40.674Z</time></trkpt><trkpt lat="48.4273217" lon="-4.2377383"><ele>172.33333333333334</ele><time>2026-05-01T08:49:41.676Z</time></trkpt><trkpt lat="48.4274867" lon="-4.2376983"><ele>172.66666666666666</ele><time>2026-05-01T08:49:42.678Z</time></trkpt><trkpt lat="48.4276517" lon="-4.2376583"><ele>173.0</ele><time>2026-05-01T08:49:43.681Z</time></trkpt><trkpt lat="48.4278167" lon="-4.23762"><ele>173.33333333333331</ele><time>2026-05-01T08:49:44.676Z</time></trkpt><trkpt lat="48.4279833" lon="-4.23758"><ele>173.66666666666666</ele><time>2026-05-01T08:49:45.672Z</time></trkpt><trkpt lat="48.42815" lon="-4.23753"><ele>174.0</ele><time>2026-05-01T08:49:46.671Z</time></trkpt><trkpt lat="48.428315" lon="-4.2374867"><ele>174.0</ele><time>2026-05-01T08:49:47.676Z</time></trkpt><trkpt lat="48.4284817" lon="-4.2374467"><ele>174.0</ele><time>2026-05-01T08:49:48.676Z</time></trkpt><trkpt lat="48.42865" lon="-4.2374033"><ele>174.0</ele><time>2026-05-01T08:49:49.675Z</time></trkpt><trkpt lat="48.42882" lon="-4.237355"><ele>173.66666666666666</ele><time>2026-05-01T08:49:50.675Z</time></trkpt><trkpt lat="48.4289867" lon="-4.23731"><ele>173.33333333333331</ele><time>2026-05-01T08:49:51.675Z</time></trkpt><trkpt lat="48.4291517" lon="-4.23726"><ele>173.0</ele><time>2026-05-01T08:49:52.674Z</time></trkpt><trkpt lat="48.4293167" lon="-4.237215"><ele>173.0</ele><time>2026-05-01T08:49:53.675Z</time></trkpt><trkpt lat="48.4294833" lon="-4.2371783"><ele>173.0</ele><time>2026-05-01T08:49:54.676Z</time></trkpt><trkpt lat="48.4296467" lon="-4.23714"><ele>173.0</ele><time>2026-05-01T08:49:55.67Z</time></trkpt><trkpt lat="48.42981" lon="-4.2371033"><ele>173.0</ele><time>2026-05-01T08:49:56.674Z</time></trkpt><trkpt lat="48.4299717" lon="-4.237065"><ele>173.0</ele><time>2026-05-01T08:49:57.674Z</time></trkpt><trkpt lat="48.4301333" lon="-4.2370233"><ele>173.0</ele><time>2026-05-01T08:49:58.675Z</time></trkpt><trkpt lat="48.430295" lon="-4.2369767"><ele>173.0</ele><time>2026-05-01T08:49:59.682Z</time></trkpt><trkpt lat="48.4304583" lon="-4.2369283"><ele>173.0</ele><time>2026-05-01T08:50:00.674Z</time></trkpt><trkpt lat="48.4306217" lon="-4.23688"><ele>173.0</ele><time>2026-05-01T08:50:01.674Z</time></trkpt><trkpt lat="48.4307833" lon="-4.2368317"><ele>172.66666666666666</ele><time>2026-05-01T08:50:02.68Z</time></trkpt><trkpt lat="48.430945" lon="-4.2367783"><ele>172.33333333333334</ele><time>2026-05-01T08:50:03.674Z</time></trkpt><trkpt lat="48.4311083" lon="-4.2367233"><ele>172.0</ele><time>2026-05-01T08:50:04.675Z</time></trkpt><trkpt lat="48.4312717" lon="-4.2366683"><ele>171.66666666666669</ele><time>2026-05-01T08:50:05.675Z</time></trkpt><trkpt lat="48.4314367" lon="-4.2366133"><ele>171.33333333333334</ele><time>2026-05-01T08:50:06.68Z</time></trkpt><trkpt lat="48.4316" lon="-4.2365583"><ele>171.0</ele><time>2026-05-01T08:50:07.673Z</time></trkpt><trkpt lat="48.431765" lon="-4.2365067"><ele>171.33333333333334</ele><time>2026-05-01T08:50:08.678Z</time></trkpt><trkpt lat="48.4319267" lon="-4.2364517"><ele>171.66666666666669</ele><time>2026-05-01T08:50:09.677Z</time></trkpt><trkpt lat="48.4320883" lon="-4.2363983"><ele>172.0</ele><time>2026-05-01T08:50:10.675Z</time></trkpt><trkpt lat="48.4322483" lon="-4.236345"><ele>172.0</ele><time>2026-05-01T08:50:11.677Z</time></trkpt><trkpt lat="48.4324083" lon="-4.2362917"><ele>172.0</ele><time>2026-05-01T08:50:12.675Z</time></trkpt><trkpt lat="48.4325683" lon="-4.2362383"><ele>172.0</ele><time>2026-05-01T08:50:13.673Z</time></trkpt><trkpt lat="48.4327283" lon="-4.2361783"><ele>172.0</ele><time>2026-05-01T08:50:14.682Z</time></trkpt><trkpt lat="48.4328867" lon="-4.23611"><ele>172.0</ele><time>2026-05-01T08:50:15.676Z</time></trkpt><trkpt lat="48.4330383" lon="-4.2360317"><ele>172.0</ele><time>2026-05-01T08:50:16.674Z</time></trkpt><trkpt lat="48.4331783" lon="-4.2359483"><ele>172.0</ele><time>2026-05-01T08:50:17.674Z</time></trkpt><trkpt lat="48.4333117" lon="-4.2358617"><ele>172.0</ele><time>2026-05-01T08:50:18.673Z</time></trkpt><trkpt lat="48.4334383" lon="-4.235775"><ele>172.0</ele><time>2026-05-01T08:50:19.674Z</time></trkpt><trkpt lat="48.4335533" lon="-4.235685"><ele>172.0</ele><time>2026-05-01T08:50:20.675Z</time></trkpt><trkpt lat="48.4336633" lon="-4.2355933"><ele>172.0</ele><time>2026-05-01T08:50:21.674Z</time></trkpt><trkpt lat="48.43377" lon="-4.235505"><ele>172.0</ele><time>2026-05-01T08:50:22.674Z</time></trkpt><trkpt lat="48.4338783" lon="-4.2354217"><ele>172.0</ele><time>2026-05-01T08:50:23.679Z</time></trkpt><trkpt lat="48.4339833" lon="-4.235345"><ele>172.0</ele><time>2026-05-01T08:50:24.679Z</time></trkpt><trkpt lat="48.434085" lon="-4.235275"><ele>171.8</ele><time>2026-05-01T08:50:25.676Z</time></trkpt><trkpt lat="48.434185" lon="-4.2352117"><ele>171.6</ele><time>2026-05-01T08:50:26.674Z</time></trkpt><trkpt lat="48.4342833" lon="-4.2351583"><ele>171.4</ele><time>2026-05-01T08:50:27.675Z</time></trkpt><trkpt lat="48.43438" lon="-4.2351167"><ele>171.20000000000002</ele><time>2026-05-01T08:50:28.673Z</time></trkpt><trkpt lat="48.4344767" lon="-4.2350867"><ele>171.0</ele><time>2026-05-01T08:50:29.678Z</time></trkpt><trkpt lat="48.43458" lon="-4.2350717"><ele>171.0</ele><time>2026-05-01T08:50:30.675Z</time></trkpt><trkpt lat="48.4346833" lon="-4.2350667"><ele>171.0</ele><time>2026-05-01T08:50:31.671Z</time></trkpt><trkpt lat="48.4347883" lon="-4.2350717"><ele>171.0</ele><time>2026-05-01T08:50:32.676Z</time></trkpt><trkpt lat="48.4348917" lon="-4.2350733"><ele>171.0</ele><time>2026-05-01T08:50:33.673Z</time></trkpt><trkpt lat="48.4349933" lon="-4.23509"><ele>171.0</ele><time>2026-05-01T08:50:34.673Z</time></trkpt><trkpt lat="48.4350917" lon="-4.2351133"><ele>171.0</ele><time>2026-05-01T08:50:35.676Z</time></trkpt><trkpt lat="48.4351917" lon="-4.2351333"><ele>171.0</ele><time>2026-05-01T08:50:36.673Z</time></trkpt><trkpt lat="48.4352867" lon="-4.23516"><ele>171.0</ele><time>2026-05-01T08:50:37.676Z</time></trkpt><trkpt lat="48.4353767" lon="-4.2351867"><ele>171.0</ele><time>2026-05-01T08:50:38.682Z</time></trkpt><trkpt lat="48.4354633" lon="-4.235215"><ele>171.0</ele><time>2026-05-01T08:50:39.675Z</time></trkpt><trkpt lat="48.43555" lon="-4.235245"><ele>170.60000000000002</ele><time>2026-05-01T08:50:40.675Z</time></trkpt><trkpt lat="48.4356367" lon="-4.2352733"><ele>170.2</ele><time>2026-05-01T08:50:41.675Z</time></trkpt><trkpt lat="48.4357283" lon="-4.2352983"><ele>169.8</ele><time>2026-05-01T08:50:42.673Z</time></trkpt><trkpt lat="48.4358217" lon="-4.2353217"><ele>169.39999999999998</ele><time>2026-05-01T08:50:43.678Z</time></trkpt><trkpt lat="48.4359167" lon="-4.2353417"><ele>169.0</ele><time>2026-05-01T08:50:44.673Z</time></trkpt><trkpt lat="48.4360133" lon="-4.2353517"><ele>169.0</ele><time>2026-05-01T08:50:45.673Z</time></trkpt><trkpt lat="48.4361033" lon="-4.2353417"><ele>169.0</ele><time>2026-05-01T08:50:46.675Z</time></trkpt><trkpt lat="48.43619" lon="-4.2353233"><ele>169.0</ele><time>2026-05-01T08:50:47.674Z</time></trkpt><trkpt lat="48.4362767" lon="-4.2352983"><ele>169.0</ele><time>2026-05-01T08:50:48.672Z</time></trkpt><trkpt lat="48.4363667" lon="-4.235265"><ele>169.0</ele><time>2026-05-01T08:50:49.673Z</time></trkpt><trkpt lat="48.4364517" lon="-4.2352133"><ele>168.79999999999998</ele><time>2026-05-01T08:50:50.685Z</time></trkpt><trkpt lat="48.436535" lon="-4.2351483"><ele>168.6</ele><time>2026-05-01T08:50:51.673Z</time></trkpt><trkpt lat="48.4366183" lon="-4.2350833"><ele>168.4</ele><time>2026-05-01T08:50:52.672Z</time></trkpt><trkpt lat="48.4367" lon="-4.235015"><ele>168.2</ele><time>2026-05-01T08:50:53.676Z</time></trkpt><trkpt lat="48.4367817" lon="-4.2349483"><ele>168.0</ele><time>2026-05-01T08:50:54.683Z</time></trkpt><trkpt lat="48.4368617" lon="-4.2348817"><ele>168.0</ele><time>2026-05-01T08:50:55.674Z</time></trkpt><trkpt lat="48.4369433" lon="-4.2348183"><ele>168.0</ele><time>2026-05-01T08:50:56.676Z</time></trkpt><trkpt lat="48.4370233" lon="-4.2347567"><ele>168.0</ele><time>2026-05-01T08:50:57.674Z</time></trkpt><trkpt lat="48.4371017" lon="-4.2346967"><ele>168.0</ele><time>2026-05-01T08:50:58.674Z</time></trkpt><trkpt lat="48.4371817" lon="-4.2346333"><ele>168.0</ele><time>2026-05-01T08:50:59.673Z</time></trkpt><trkpt lat="48.4372583" lon="-4.2345683"><ele>168.0</ele><time>2026-05-01T08:51:00.675Z</time></trkpt><trkpt lat="48.4373333" lon="-4.2345"><ele>167.33333333333334</ele><time>2026-05-01T08:51:01.673Z</time></trkpt><trkpt lat="48.4374067" lon="-4.234425"><ele>166.66666666666666</ele><time>2026-05-01T08:51:02.674Z</time></trkpt><trkpt lat="48.437475" lon="-4.234345"><ele>166.0</ele><time>2026-05-01T08:51:03.673Z</time></trkpt><trkpt lat="48.4375417" lon="-4.2342617"><ele>165.33333333333331</ele><time>2026-05-01T08:51:04.674Z</time></trkpt><trkpt lat="48.4376117" lon="-4.2341817"><ele>164.66666666666666</ele><time>2026-05-01T08:51:05.675Z</time></trkpt><trkpt lat="48.4376817" lon="-4.2341017"><ele>164.0</ele><time>2026-05-01T08:51:06.675Z</time></trkpt><trkpt lat="48.4377467" lon="-4.234015"><ele>164.2</ele><time>2026-05-01T08:51:07.674Z</time></trkpt><trkpt lat="48.4378133" lon="-4.2339283"><ele>164.39999999999998</ele><time>2026-05-01T08:51:08.679Z</time></trkpt><trkpt lat="48.4378817" lon="-4.233835"><ele>164.6</ele><time>2026-05-01T08:51:09.674Z</time></trkpt><trkpt lat="48.4379567" lon="-4.23374"><ele>164.8</ele><time>2026-05-01T08:51:10.674Z</time></trkpt><trkpt lat="48.4380317" lon="-4.2336417"><ele>165.0</ele><time>2026-05-01T08:51:11.674Z</time></trkpt><trkpt lat="48.4381083" lon="-4.2335417"><ele>164.0</ele><time>2026-05-01T08:51:12.678Z</time></trkpt><trkpt lat="48.4381883" lon="-4.23344"><ele>163.0</ele><time>2026-05-01T08:51:13.672Z</time></trkpt><trkpt lat="48.438265" lon="-4.2333367"><ele>162.0</ele><time>2026-05-01T08:51:14.681Z</time></trkpt><trkpt lat="48.43834" lon="-4.2332367"><ele>161.0</ele><time>2026-05-01T08:51:15.671Z</time></trkpt><trkpt lat="48.4384133" lon="-4.2331333"><ele>160.0</ele><time>2026-05-01T08:51:16.673Z</time></trkpt><trkpt lat="48.4384867" lon="-4.2330267"><ele>160.0</ele><time>2026-05-01T08:51:17.673Z</time></trkpt><trkpt lat="48.43856" lon="-4.2329233"><ele>160.0</ele><time>2026-05-01T08:51:18.673Z</time></trkpt><trkpt lat="48.4386333" lon="-4.2328183"><ele>160.0</ele><time>2026-05-01T08:51:19.676Z</time></trkpt><trkpt lat="48.4387067" lon="-4.2327217"><ele>160.0</ele><time>2026-05-01T08:51:20.68Z</time></trkpt><trkpt lat="48.4387817" lon="-4.2326283"><ele>160.0</ele><time>2026-05-01T08:51:21.681Z</time></trkpt><trkpt lat="48.4388617" lon="-4.2325433"><ele>159.4</ele><time>2026-05-01T08:51:22.676Z</time></trkpt><trkpt lat="48.4389483" lon="-4.2324683"><ele>158.8</ele><time>2026-05-01T08:51:23.676Z</time></trkpt><trkpt lat="48.43904" lon="-4.232405"><ele>158.2</ele><time>2026-05-01T08:51:24.673Z</time></trkpt><trkpt lat="48.439135" lon="-4.2323517"><ele>157.6</ele><time>2026-05-01T08:51:25.679Z</time></trkpt><trkpt lat="48.4392317" lon="-4.2322983"><ele>157.0</ele><time>2026-05-01T08:51:26.674Z</time></trkpt><trkpt lat="48.4393317" lon="-4.2322467"><ele>157.0</ele><time>2026-05-01T08:51:27.674Z</time></trkpt><trkpt lat="48.43943" lon="-4.23219"><ele>157.0</ele><time>2026-05-01T08:51:28.674Z</time></trkpt><trkpt lat="48.43953" lon="-4.2321333"><ele>157.0</ele><time>2026-05-01T08:51:29.673Z</time></trkpt><trkpt lat="48.4396283" lon="-4.232075"><ele>157.0</ele><time>2026-05-01T08:51:30.675Z</time></trkpt><trkpt lat="48.4397283" lon="-4.2320183"><ele>157.0</ele><time>2026-05-01T08:51:31.673Z</time></trkpt><trkpt lat="48.4398333" lon="-4.2319683"><ele>156.0</ele><time>2026-05-01T08:51:32.677Z</time></trkpt><trkpt lat="48.4399383" lon="-4.23192"><ele>155.0</ele><time>2026-05-01T08:51:33.677Z</time></trkpt><trkpt lat="48.4400467" lon="-4.2318833"><ele>154.0</ele><time>2026-05-01T08:51:34.674Z</time></trkpt><trkpt lat="48.4401517" lon="-4.231845"><ele>153.0</ele><time>2026-05-01T08:51:35.675Z</time></trkpt><trkpt lat="48.44025" lon="-4.231805"><ele>152.0</ele><time>2026-05-01T08:51:36.673Z</time></trkpt><trkpt lat="48.4403517" lon="-4.23177"><ele>152.0</ele><time>2026-05-01T08:51:37.684Z</time></trkpt><trkpt lat="48.4404567" lon="-4.2317433"><ele>152.0</ele><time>2026-05-01T08:51:38.673Z</time></trkpt><trkpt lat="48.4405617" lon="-4.2317217"><ele>152.0</ele><time>2026-05-01T08:51:39.681Z</time></trkpt><trkpt lat="48.4406633" lon="-4.2316883"><ele>152.0</ele><time>2026-05-01T08:51:40.674Z</time></trkpt><trkpt lat="48.44077" lon="-4.23166"><ele>152.0</ele><time>2026-05-01T08:51:41.674Z</time></trkpt><trkpt lat="48.4408717" lon="-4.2316333"><ele>150.79999999999998</ele><time>2026-05-01T08:51:42.676Z</time></trkpt><trkpt lat="48.4409733" lon="-4.2316117"><ele>149.6</ele><time>2026-05-01T08:51:43.676Z</time></trkpt><trkpt lat="48.4410683" lon="-4.2315883"><ele>148.39999999999998</ele><time>2026-05-01T08:51:44.672Z</time></trkpt><trkpt lat="48.4411617" lon="-4.2315683"><ele>147.2</ele><time>2026-05-01T08:51:45.676Z</time></trkpt><trkpt lat="48.4412483" lon="-4.23155"><ele>146.0</ele><time>2026-05-01T08:51:46.674Z</time></trkpt><trkpt lat="48.441335" lon="-4.2315367"><ele>145.4</ele><time>2026-05-01T08:51:47.678Z</time></trkpt><trkpt lat="48.4414333" lon="-4.2315117"><ele>144.8</ele><time>2026-05-01T08:51:48.677Z</time></trkpt><trkpt lat="48.441535" lon="-4.2314867"><ele>144.20000000000002</ele><time>2026-05-01T08:51:49.678Z</time></trkpt><trkpt lat="48.4416417" lon="-4.23146"><ele>143.6</ele><time>2026-05-01T08:51:50.673Z</time></trkpt><trkpt lat="48.4417517" lon="-4.2314267"><ele>143.0</ele><time>2026-05-01T08:51:51.676Z</time></trkpt><trkpt lat="48.44186" lon="-4.2313967"><ele>143.0</ele><time>2026-05-01T08:51:52.673Z</time></trkpt><trkpt lat="48.441965" lon="-4.2313667"><ele>143.0</ele><time>2026-05-01T08:51:53.683Z</time></trkpt><trkpt lat="48.4420667" lon="-4.2313433"><ele>143.0</ele><time>2026-05-01T08:51:54.676Z</time></trkpt><trkpt lat="48.44217" lon="-4.2313183"><ele>143.0</ele><time>2026-05-01T08:51:55.678Z</time></trkpt><trkpt lat="48.4422733" lon="-4.231295"><ele>143.0</ele><time>2026-05-01T08:51:56.674Z</time></trkpt><trkpt lat="48.4423767" lon="-4.2312683"><ele>142.4</ele><time>2026-05-01T08:51:57.673Z</time></trkpt><trkpt lat="48.442485" lon="-4.23124"><ele>141.8</ele><time>2026-05-01T08:51:58.675Z</time></trkpt><trkpt lat="48.4425933" lon="-4.23121"><ele>141.2</ele><time>2026-05-01T08:51:59.678Z</time></trkpt><trkpt lat="48.4427" lon="-4.2311817"><ele>140.6</ele><time>2026-05-01T08:52:00.676Z</time></trkpt><trkpt lat="48.442805" lon="-4.23115"><ele>140.0</ele><time>2026-05-01T08:52:01.677Z</time></trkpt><trkpt lat="48.4429067" lon="-4.2311183"><ele>138.6</ele><time>2026-05-01T08:52:02.675Z</time></trkpt><trkpt lat="48.4430067" lon="-4.2310883"><ele>137.2</ele><time>2026-05-01T08:52:03.674Z</time></trkpt><trkpt lat="48.4431017" lon="-4.2310583"><ele>135.8</ele><time>2026-05-01T08:52:04.677Z</time></trkpt><trkpt lat="48.4431967" lon="-4.23103"><ele>134.4</ele><time>2026-05-01T08:52:05.677Z</time></trkpt><trkpt lat="48.4432833" lon="-4.2310083"><ele>133.0</ele><time>2026-05-01T08:52:06.674Z</time></trkpt><trkpt lat="48.4433767" lon="-4.2309817"><ele>133.0</ele><time>2026-05-01T08:52:07.678Z</time></trkpt><trkpt lat="48.4434567" lon="-4.2309567"><ele>133.0</ele><time>2026-05-01T08:52:08.674Z</time></trkpt><trkpt lat="48.44353" lon="-4.2309367"><ele>133.0</ele><time>2026-05-01T08:52:09.675Z</time></trkpt><trkpt lat="48.4435917" lon="-4.2309117"><ele>133.0</ele><time>2026-05-01T08:52:10.674Z</time></trkpt><trkpt lat="48.4436817" lon="-4.2308533"><ele>133.0</ele><time>2026-05-01T08:52:12.677Z</time></trkpt><trkpt lat="48.4438017" lon="-4.2308167"><ele>133.0</ele><time>2026-05-01T08:52:14.676Z</time></trkpt><trkpt lat="48.4438717" lon="-4.2308067"><ele>132.4</ele><time>2026-05-01T08:52:15.681Z</time></trkpt><trkpt lat="48.4439533" lon="-4.2307883"><ele>131.8</ele><time>2026-05-01T08:52:16.676Z</time></trkpt><trkpt lat="48.4440367" lon="-4.2307483"><ele>131.2</ele><time>2026-05-01T08:52:17.675Z</time></trkpt><trkpt lat="48.4441167" lon="-4.2306883"><ele>130.6</ele><time>2026-05-01T08:52:18.678Z</time></trkpt><trkpt lat="48.4442" lon="-4.2306083"><ele>130.0</ele><time>2026-05-01T08:52:19.673Z</time></trkpt><trkpt lat="48.4442833" lon="-4.2305167"><ele>130.0</ele><time>2026-05-01T08:52:20.674Z</time></trkpt><trkpt lat="48.44437" lon="-4.2304133"><ele>130.0</ele><time>2026-05-01T08:52:21.674Z</time></trkpt><trkpt lat="48.444455" lon="-4.230305"><ele>130.0</ele><time>2026-05-01T08:52:22.673Z</time></trkpt><trkpt lat="48.4445383" lon="-4.2301867"><ele>130.0</ele><time>2026-05-01T08:52:23.675Z</time></trkpt><trkpt lat="48.44462" lon="-4.2300683"><ele>128.6</ele><time>2026-05-01T08:52:24.672Z</time></trkpt><trkpt lat="48.4446983" lon="-4.2299483"><ele>127.2</ele><time>2026-05-01T08:52:25.675Z</time></trkpt><trkpt lat="48.4447767" lon="-4.2298317"><ele>125.80000000000001</ele><time>2026-05-01T08:52:26.676Z</time></trkpt><trkpt lat="48.4448483" lon="-4.2297217"><ele>124.4</ele><time>2026-05-01T08:52:27.675Z</time></trkpt><trkpt lat="48.4449183" lon="-4.2296183"><ele>123.0</ele><time>2026-05-01T08:52:28.681Z</time></trkpt><trkpt lat="48.4449833" lon="-4.2295217"><ele>123.0</ele><time>2026-05-01T08:52:29.677Z</time></trkpt><trkpt lat="48.4450467" lon="-4.2294317"><ele>123.0</ele><time>2026-05-01T08:52:30.676Z</time></trkpt><trkpt lat="48.4451083" lon="-4.2293467"><ele>123.0</ele><time>2026-05-01T08:52:31.675Z</time></trkpt><trkpt lat="48.4451683" lon="-4.2292683"><ele>123.0</ele><time>2026-05-01T08:52:32.676Z</time></trkpt><trkpt lat="48.4452267" lon="-4.22919"><ele>123.0</ele><time>2026-05-01T08:52:33.676Z</time></trkpt><trkpt lat="48.4452817" lon="-4.2291133"><ele>123.0</ele><time>2026-05-01T08:52:34.677Z</time></trkpt><trkpt lat="48.4453383" lon="-4.22904"><ele>123.16666666666667</ele><time>2026-05-01T08:52:35.674Z</time></trkpt><trkpt lat="48.4453917" lon="-4.22897"><ele>123.33333333333334</ele><time>2026-05-01T08:52:36.674Z</time></trkpt><trkpt lat="48.4454467" lon="-4.228905"><ele>123.5</ele><time>2026-05-01T08:52:37.674Z</time></trkpt><trkpt lat="48.4454933" lon="-4.2288367"><ele>123.66666666666667</ele><time>2026-05-01T08:52:38.675Z</time></trkpt><trkpt lat="48.4455417" lon="-4.2287733"><ele>123.83333333333334</ele><time>2026-05-01T08:52:39.674Z</time></trkpt><trkpt lat="48.4456217" lon="-4.2286617"><ele>124.0</ele><time>2026-05-01T08:52:41.675Z</time></trkpt><trkpt lat="48.4456783" lon="-4.228515"><ele>123.4</ele><time>2026-05-01T08:52:46.675Z</time></trkpt><trkpt lat="48.44574" lon="-4.22838"><ele>122.80000000000001</ele><time>2026-05-01T08:52:48.675Z</time></trkpt><trkpt lat="48.4458483" lon="-4.2283033"><ele>122.19999999999999</ele><time>2026-05-01T08:52:50.674Z</time></trkpt><trkpt lat="48.445935" lon="-4.228255"><ele>121.6</ele><time>2026-05-01T08:52:51.671Z</time></trkpt><trkpt lat="48.4460233" lon="-4.2281867"><ele>121.0</ele><time>2026-05-01T08:52:52.677Z</time></trkpt><trkpt lat="48.44612" lon="-4.2281133"><ele>121.0</ele><time>2026-05-01T08:52:53.677Z</time></trkpt><trkpt lat="48.4462233" lon="-4.2280483"><ele>121.0</ele><time>2026-05-01T08:52:54.674Z</time></trkpt><trkpt lat="48.446335" lon="-4.2279883"><ele>121.0</ele><time>2026-05-01T08:52:55.673Z</time></trkpt><trkpt lat="48.44645" lon="-4.2279383"><ele>121.0</ele><time>2026-05-01T08:52:56.674Z</time></trkpt><trkpt lat="48.4465683" lon="-4.2278917"><ele>119.75</ele><time>2026-05-01T08:52:57.673Z</time></trkpt><trkpt lat="48.4466867" lon="-4.22785"><ele>118.5</ele><time>2026-05-01T08:52:58.678Z</time></trkpt><trkpt lat="48.446805" lon="-4.2278067"><ele>117.25</ele><time>2026-05-01T08:52:59.677Z</time></trkpt><trkpt lat="48.4469267" lon="-4.2277617"><ele>116.0</ele><time>2026-05-01T08:53:00.674Z</time></trkpt><trkpt lat="48.4470433" lon="-4.2277133"><ele>115.0</ele><time>2026-05-01T08:53:01.674Z</time></trkpt><trkpt lat="48.4471633" lon="-4.2276667"><ele>114.0</ele><time>2026-05-01T08:53:02.677Z</time></trkpt><trkpt lat="48.4472833" lon="-4.2276183"><ele>113.0</ele><time>2026-05-01T08:53:03.674Z</time></trkpt><trkpt lat="48.4474033" lon="-4.22757"><ele>112.0</ele><time>2026-05-01T08:53:04.672Z</time></trkpt><trkpt lat="48.4475217" lon="-4.2275183"><ele>112.0</ele><time>2026-05-01T08:53:05.673Z</time></trkpt><trkpt lat="48.44764" lon="-4.2274683"><ele>112.0</ele><time>2026-05-01T08:53:06.675Z</time></trkpt><trkpt lat="48.4477517" lon="-4.2274167"><ele>112.0</ele><time>2026-05-01T08:53:07.675Z</time></trkpt><trkpt lat="48.4478583" lon="-4.2273683"><ele>112.0</ele><time>2026-05-01T08:53:08.677Z</time></trkpt><trkpt lat="48.44796" lon="-4.2273217"><ele>112.0</ele><time>2026-05-01T08:53:09.676Z</time></trkpt><trkpt lat="48.4480567" lon="-4.2272717"><ele>111.99999999999999</ele><time>2026-05-01T08:53:10.673Z</time></trkpt><trkpt lat="48.4481483" lon="-4.2272267"><ele>111.99999999999999</ele><time>2026-05-01T08:53:11.675Z</time></trkpt><trkpt lat="48.448235" lon="-4.2271833"><ele>112.0</ele><time>2026-05-01T08:53:12.677Z</time></trkpt><trkpt lat="48.4483217" lon="-4.2271383"><ele>112.0</ele><time>2026-05-01T08:53:13.674Z</time></trkpt><trkpt lat="48.4484033" lon="-4.2270933"><ele>112.00000000000001</ele><time>2026-05-01T08:53:14.681Z</time></trkpt><trkpt lat="48.44848" lon="-4.227055"><ele>112.0</ele><time>2026-05-01T08:53:15.679Z</time></trkpt><trkpt lat="48.4485533" lon="-4.2270167"><ele>112.0</ele><time>2026-05-01T08:53:16.672Z</time></trkpt><trkpt lat="48.4486233" lon="-4.2269833"><ele>112.0</ele><time>2026-05-01T08:53:17.672Z</time></trkpt><trkpt lat="48.4486883" lon="-4.2269767"><ele>112.00000000000001</ele><time>2026-05-01T08:53:18.678Z</time></trkpt><trkpt lat="48.44875" lon="-4.2270017"><ele>112.0</ele><time>2026-05-01T08:53:19.674Z</time></trkpt><trkpt lat="48.4488317" lon="-4.2271417"><ele>111.71428571428571</ele><time>2026-05-01T08:53:21.675Z</time></trkpt><trkpt lat="48.448875" lon="-4.2272283"><ele>111.42857142857143</ele><time>2026-05-01T08:53:22.674Z</time></trkpt><trkpt lat="48.44892" lon="-4.2273117"><ele>111.14285714285714</ele><time>2026-05-01T08:53:23.678Z</time></trkpt><trkpt lat="48.448965" lon="-4.2273883"><ele>110.85714285714286</ele><time>2026-05-01T08:53:24.677Z</time></trkpt><trkpt lat="48.4490117" lon="-4.2274633"><ele>110.57142857142857</ele><time>2026-05-01T08:53:25.675Z</time></trkpt><trkpt lat="48.4490567" lon="-4.2275367"><ele>110.28571428571428</ele><time>2026-05-01T08:53:26.674Z</time></trkpt><trkpt lat="48.4491" lon="-4.2276117"><ele>110.0</ele><time>2026-05-01T08:53:27.676Z</time></trkpt><trkpt lat="48.449145" lon="-4.227685"><ele>110.0</ele><time>2026-05-01T08:53:28.673Z</time></trkpt><trkpt lat="48.4492233" lon="-4.2278183"><ele>110.0</ele><time>2026-05-01T08:53:30.674Z</time></trkpt><trkpt lat="48.4492883" lon="-4.227975"><ele>110.0</ele><time>2026-05-01T08:53:32.675Z</time></trkpt><trkpt lat="48.449325" lon="-4.228065"><ele>110.0</ele><time>2026-05-01T08:53:33.682Z</time></trkpt><trkpt lat="48.4493683" lon="-4.228145"><ele>110.0</ele><time>2026-05-01T08:53:34.673Z</time></trkpt><trkpt lat="48.4494733" lon="-4.2281667"><ele>109.0</ele><time>2026-05-01T08:53:36.674Z</time></trkpt><trkpt lat="48.4495783" lon="-4.22815"><ele>108.0</ele><time>2026-05-01T08:53:38.672Z</time></trkpt><trkpt lat="48.4496733" lon="-4.22817"><ele>107.0</ele><time>2026-05-01T08:53:40.674Z</time></trkpt><trkpt lat="48.4497467" lon="-4.2282317"><ele>106.0</ele><time>2026-05-01T08:53:42.672Z</time></trkpt><trkpt lat="48.4498017" lon="-4.2283367"><ele>105.0</ele><time>2026-05-01T08:53:44.683Z</time></trkpt><trkpt lat="48.44982" lon="-4.22848"><ele>104.6</ele><time>2026-05-01T08:53:46.677Z</time></trkpt><trkpt lat="48.449835" lon="-4.2286367"><ele>104.2</ele><time>2026-05-01T08:53:48.677Z</time></trkpt><trkpt lat="48.44987" lon="-4.2287733"><ele>103.80000000000001</ele><time>2026-05-01T08:53:50.679Z</time></trkpt><trkpt lat="48.44994" lon="-4.2288767"><ele>103.4</ele><time>2026-05-01T08:53:52.677Z</time></trkpt><trkpt lat="48.4500167" lon="-4.2288883"><ele>103.0</ele><time>2026-05-01T08:53:54.675Z</time></trkpt><trkpt lat="48.450115" lon="-4.2288983"><ele>103.00000000000001</ele><time>2026-05-01T08:53:56.673Z</time></trkpt><trkpt lat="48.45021" lon="-4.2288867"><ele>103.0</ele><time>2026-05-01T08:53:58.681Z</time></trkpt><trkpt lat="48.4502933" lon="-4.22883"><ele>103.0</ele><time>2026-05-01T08:54:00.674Z</time></trkpt><trkpt lat="48.4503833" lon="-4.228745"><ele>103.0</ele><time>2026-05-01T08:54:03.674Z</time></trkpt><trkpt lat="48.4504367" lon="-4.2286883"><ele>103.00000000000001</ele><time>2026-05-01T08:54:05.675Z</time></trkpt><trkpt lat="48.4505133" lon="-4.2286483"><ele>103.0</ele><time>2026-05-01T08:54:08.675Z</time></trkpt><trkpt lat="48.4505817" lon="-4.228615"><ele>103.00000000000001</ele><time>2026-05-01T08:54:11.675Z</time></trkpt><trkpt lat="48.4505117" lon="-4.228595"><ele>103.0</ele><time>2026-05-01T09:06:14.679Z</time></trkpt><trkpt lat="48.45044" lon="-4.2286633"><ele>103.0</ele><time>2026-05-01T09:06:17.68Z</time></trkpt><trkpt lat="48.4503667" lon="-4.2287383"><ele>103.0</ele><time>2026-05-01T09:06:20.679Z</time></trkpt><trkpt lat="48.4502933" lon="-4.228805"><ele>103.00000000000001</ele><time>2026-05-01T09:06:23.678Z</time></trkpt><trkpt lat="48.4502017" lon="-4.2288533"><ele>103.0</ele><time>2026-05-01T09:06:26.68Z</time></trkpt><trkpt lat="48.4501417" lon="-4.2288833"><ele>102.99999999999999</ele><time>2026-05-01T09:06:28.677Z</time></trkpt><trkpt lat="48.4500733" lon="-4.22888"><ele>103.0</ele><time>2026-05-01T09:06:30.679Z</time></trkpt><trkpt lat="48.4500083" lon="-4.228875"><ele>103.0</ele><time>2026-05-01T09:06:32.681Z</time></trkpt><trkpt lat="48.4499433" lon="-4.2288733"><ele>103.0</ele><time>2026-05-01T09:06:34.677Z</time></trkpt><trkpt lat="48.449865" lon="-4.2289033"><ele>103.0</ele><time>2026-05-01T09:06:38.679Z</time></trkpt><trkpt lat="48.44983" lon="-4.2289917"><ele>102.99999999999999</ele><time>2026-05-01T09:06:40.678Z</time></trkpt><trkpt lat="48.449805" lon="-4.229085"><ele>103.0</ele><time>2026-05-01T09:06:42.679Z</time></trkpt><trkpt lat="48.4497717" lon="-4.2291733"><ele>102.57142857142857</ele><time>2026-05-01T09:06:44.679Z</time></trkpt><trkpt lat="48.4497383" lon="-4.2292917"><ele>102.14285714285714</ele><time>2026-05-01T09:06:47.678Z</time></trkpt><trkpt lat="48.449705" lon="-4.2293833"><ele>101.71428571428572</ele><time>2026-05-01T09:06:49.679Z</time></trkpt><trkpt lat="48.4496717" lon="-4.2294717"><ele>101.28571428571428</ele><time>2026-05-01T09:06:51.678Z</time></trkpt><trkpt lat="48.4496433" lon="-4.2295567"><ele>100.85714285714286</ele><time>2026-05-01T09:06:53.678Z</time></trkpt><trkpt lat="48.44962" lon="-4.22966"><ele>100.42857142857143</ele><time>2026-05-01T09:06:55.677Z</time></trkpt><trkpt lat="48.4495817" lon="-4.2297517"><ele>100.0</ele><time>2026-05-01T09:06:57.68Z</time></trkpt><trkpt lat="48.4495583" lon="-4.2298417"><ele>99.16666666666667</ele><time>2026-05-01T09:06:59.68Z</time></trkpt><trkpt lat="48.44958" lon="-4.2299683"><ele>98.33333333333334</ele><time>2026-05-01T09:07:02.679Z</time></trkpt><trkpt lat="48.4496667" lon="-4.2299967"><ele>97.5</ele><time>2026-05-01T09:07:05.679Z</time></trkpt><trkpt lat="48.4497417" lon="-4.2300017"><ele>96.66666666666667</ele><time>2026-05-01T09:07:07.679Z</time></trkpt><trkpt lat="48.4498117" lon="-4.230005"><ele>95.83333333333334</ele><time>2026-05-01T09:07:09.678Z</time></trkpt><trkpt lat="48.4498917" lon="-4.2299883"><ele>95.0</ele><time>2026-05-01T09:07:11.68Z</time></trkpt><trkpt lat="48.4499583" lon="-4.229915"><ele>94.8</ele><time>2026-05-01T09:07:13.678Z</time></trkpt><trkpt lat="48.4500283" lon="-4.2298217"><ele>94.6</ele><time>2026-05-01T09:07:15.678Z</time></trkpt><trkpt lat="48.450115" lon="-4.2297183"><ele>94.4</ele><time>2026-05-01T09:07:17.681Z</time></trkpt><trkpt lat="48.4501833" lon="-4.2296167"><ele>94.2</ele><time>2026-05-01T09:07:19.679Z</time></trkpt><trkpt lat="48.450225" lon="-4.2295133"><ele>94.0</ele><time>2026-05-01T09:07:21.678Z</time></trkpt><trkpt lat="48.450255" lon="-4.2294017"><ele>94.66666666666666</ele><time>2026-05-01T09:07:23.679Z</time></trkpt><trkpt lat="48.4502867" lon="-4.2292783"><ele>95.33333333333333</ele><time>2026-05-01T09:07:25.677Z</time></trkpt><trkpt lat="48.4502933" lon="-4.2291567"><ele>96.0</ele><time>2026-05-01T09:07:27.679Z</time></trkpt><trkpt lat="48.4502667" lon="-4.2290517"><ele>96.66666666666666</ele><time>2026-05-01T09:07:29.681Z</time></trkpt><trkpt lat="48.45025" lon="-4.228925"><ele>97.33333333333333</ele><time>2026-05-01T09:07:32.681Z</time></trkpt><trkpt lat="48.450315" lon="-4.228835"><ele>98.0</ele><time>2026-05-01T09:07:35.679Z</time></trkpt><trkpt lat="48.45039" lon="-4.228775"><ele>103.0</ele><time>2026-05-01T09:07:38.681Z</time></trkpt><trkpt lat="48.4504633" lon="-4.2287017"><ele>103.0</ele><time>2026-05-01T09:07:41.678Z</time></trkpt><trkpt lat="48.45053" lon="-4.2286767"><ele>103.0</ele><time>2026-05-01T09:07:44.68Z</time></trkpt><trkpt lat="48.4505817" lon="-4.2286167"><ele>103.0</ele><time>2026-05-01T09:08:59.681Z</time></trkpt><trkpt lat="48.4505833" lon="-4.2287817"><ele>103.0</ele><time>2026-05-01T09:26:21.67Z</time></trkpt></trkseg></trk></gpx>